MPMG - Transparência

Contra-cheque - Remuneração de todos os servidores ativos - Pré Resolução CNMP 200/2019

Período: 2018 - Dezembro

Ordem Matrícula Nome Cargo Efetivo Situação Unidade Administrativa Rendimentos Descontos Rendimento Líquido Total Indenizações Outras Remunerações Retroativas/Temporárias Data de Referência
Remuneração Básica Remuneração Eventual ou Temporária Total de Rendimentos Brutos Obrigatórios/Legais Total de Descontos
Remuneração do Cargo Efetivo Outras Verbas Remuneratórias Função de Confiança ou Cargo em Comissão Gratificação Natalina Férias Abono de Permanência Contribuição Previdenciária Imposto de Renda Retenção por Teto Constitucional
1 498900 ABDON MARCIO BARBOSA DA SILVA OFICIAL DO MP ATIVO ABRE CAMPO - COMARCA; ABRE CAMPO-PJ-01PJ 4.995,72 499,57 0,00 1.723,29 0,00 0,00 7.218,58 717,18 378,99 0,00 1.096,17 6.122,41 1.525,07 1.096,29 31/12/2018
2 177800 ADALBERTO MENEZES FARIA SAMORA OFICIAL DO MP ATIVO BELO HORIZONTE - COMARCA; DIR ESTRUTURA E PROCESSOS ORGANIZACIONAIS 13.283,29 3.984,99 0,00 3.383,52 0,00 0,00 20.651,80 1.973,97 3.252,78 0,00 5.226,75 15.425,05 1.334,00 676,93 31/12/2018
3 306400 ADALBERTO MOREIRA GONCALVES ANALISTA DO MP ATIVO BELO HORIZONTE - COMARCA; BH-24PJ JUIZO REGIONAL DO BARREIRO 13.715,83 2.743,17 0,00 3.166,31 0,00 0,00 19.625,31 1.881,46 3.158,98 0,00 5.040,44 14.584,87 1.334,00 860,27 31/12/2018
4 179300 ADENISE AUXILIADORA SOUZA SAD OFICIAL DO MP ATIVO BARBACENA - COMARCA; BARBACENA-PJ-06PJ 12.065,98 3.619,79 0,00 5.349,06 0,00 0,00 21.034,83 1.793,07 2.865,46 0,00 4.658,53 16.376,30 1.334,00 819,85 31/12/2018
5 272200 ADILSON BATISTA ORNELAS OFICIAL DO MP ATIVO LAVRAS - COMARCA; LAVRAS-PJ-SECRETARIA 4.763,08 952,62 0,00 1.763,49 0,00 0,00 7.479,19 653,38 425,28 0,00 1.078,66 6.400,53 1.334,00 224,06 31/12/2018
6 380100 ADILSON GONCALVES DE MELO JUNIOR ANALISTA DO MP ATIVO ARAXÁ - COMARCA; ARAXA-PJ-05PJ 9.337,87 1.867,57 0,00 2.537,41 0,00 0,00 13.742,85 1.280,92 1.768,90 0,00 3.049,82 10.693,03 2.033,00 585,68 31/12/2018
7 148800 ADILSON JANUARIO OFICIAL DO MP ATIVO BELO HORIZONTE - COMARCA; BH-22PJ PES COM DEF E IDOSOS-SECRETARIA 14.372,91 10.061,03 0,00 4.383,54 0,00 0,00 28.817,48 3.202,05 5.006,57 0,00 8.208,62 20.608,86 1.334,00 5.304,68 31/12/2018
8 322601 ADMILSON SILVEIRA ANALISTA DO MP ATIVO SAO JOAO DO PARAISO COMARCA; SAO JOAO DO PARAISO-PJ-UNPJ 7.337,85 440,27 0,00 1.954,84 0,00 0,00 9.732,96 969,43 1.034,34 0,00 2.003,77 7.729,19 1.334,00 1.213,03 31/12/2018
9 333700 ADRIANA ABRITTA TEIXEIRA OFICIAL DO MP ATIVO BELO HORIZONTE - COMARCA; DIRET DE PESSOAL DO MINISTERIO PUBLICO - DPMP 8.482,22 1.696,44 0,00 2.289,85 0,00 0,00 12.468,51 1.231,40 1.621,87 0,00 2.853,27 9.615,24 1.334,00 1.148,91 31/12/2018
10 468500 ADRIANA APARECIDA FIRMINO ANALISTA DO MP ATIVO CARATINGA - COMARCA; CARATINGA-PJ-04PJ 9.337,87 933,79 0,00 2.354,96 0,00 0,00 12.626,62 1.174,17 1.592,49 0,00 2.766,66 9.859,96 2.033,00 402,65 31/12/2018
11 326100 ADRIANA AUGUSTA AMARAL BELO OFICIAL DO MP ATIVO BARBACENA - COMARCA; BARBACENA-PJ-08PJ 8.482,22 1.696,44 0,00 2.394,12 0,00 0,00 12.572,78 1.231,40 1.517,59 0,00 2.748,99 9.823,79 1.334,00 1.148,91 31/12/2018
12 605700 ADRIANA COSTA LIRA ASSESSOR/OFICIAL ATIVO BELO HORIZONTE - COMARCA; SUPRIN DE FORMACAO E APERFEICOAMENTO-SFA/CEAF 0,00 757,68 7.576,76 2.197,87 0,00 0,00 10.532,31 725,52 1.247,05 0,00 1.972,57 8.559,74 1.334,00 920,97 31/12/2018
13 541100 ADRIANA CRISTINA DE OLIVEIRA OFICIAL DO MP ATIVO GUAPÉ - COMARCA; GUAPE-PJ-UNPJ 4.467,49 446,75 0,00 3.935,52 0,00 0,00 8.849,76 561,76 305,29 0,00 867,05 7.982,71 2.732,00 192,64 31/12/2018
14 254800 ADRIANA DAS GRACAS FERNANDES ANALISTA DO MP ATIVO UBERABA - COMARCA; UBERABA-PJ-07PJ 15.533,57 10.873,50 0,00 4.606,77 0,00 0,00 31.013,84 3.511,47 5.541,63 0,00 9.053,10 21.960,74 1.334,00 5.846,90 31/12/2018
15 217400 ADRIANA DE CARVALHO CATAO BRAGA ASSESSOR ATIVO BELO HORIZONTE - COMARCA; EXTINTA - DIRETORIA DE CONTRATOS E CONVÊNIOS 0,00 2.273,03 7.576,76 3.169,47 0,00 0,00 13.019,26 1.242,08 1.911,65 0,00 3.153,73 9.865,53 1.334,00 386,12 31/12/2018
16 434600 ADRIANA FERREIRA DA SILVA ANALISTA DO MP ATIVO BELO HORIZONTE - COMARCA; BH-14PJ DEFESA CONSUMIDOR-GAB 112PJ 10.279,98 1.028,00 0,00 2.447,45 0,00 0,00 13.755,43 1.292,64 1.898,27 0,00 3.190,91 10.564,52 1.334,00 443,28 31/12/2018
17 499800 ADRIANA FERREIRA TIAGO OFICIAL DO MP ATIVO SALINAS - COMARCA; SALINAS-PJ-02PJ 5.863,71 586,37 0,00 1.769,51 0,00 0,00 8.219,59 826,12 709,30 0,00 1.535,42 6.684,17 1.334,00 1.060,09 31/12/2018
18 543400 ADRIANA GUIMARAES NUNES DE PAULA ANALISTA DO MP ATIVO PATROCÍNIO - COMARCA; PATROCINIO-PJ-01PJ 7.576,76 757,68 0,00 2.032,47 0,00 0,00 10.366,91 952,73 1.170,49 0,00 2.123,22 8.243,69 1.334,00 435,61 31/12/2018
19 471500 ADRIANA HORTA DE CARVALHO RODRIGUES DE SOUSA ANALISTA DO MP ATIVO BELO HORIZONTE - COMARCA; GRUPO ESP PROM PROC JUST DEF PROB ADM PAT PUB 9.337,87 933,79 0,00 7.289,45 0,00 0,00 17.561,11 1.174,17 1.592,49 0,00 2.766,66 14.794,45 2.033,00 536,87 31/12/2018
20 86400 ADRIANA MOREIRA CALDEIRA BRANT OFICIAL DO MP ATIVO BELO HORIZONTE - COMARCA; EXTINTA-TUTELA DAS FUNDACOES-21 PJ- GABINETE 12.065,98 8.446,19 0,00 4.891,25 0,00 0,00 25.403,42 3.116,72 4.150,99 0,00 7.267,71 18.135,71 1.334,00 8.406,45 31/12/2018
21 480700 ADRIANA MOREIRA DE AVELLAR CEZILIO OFICIAL DO MP ATIVO BELO HORIZONTE - COMARCA; EXTINTA - DIVISAO DE MATERIAL DE CONSUMO 4.995,72 499,57 0,00 2.181,62 0,00 0,00 7.676,91 666,00 378,99 0,00 1.044,99 6.631,92 1.334,00 631,13 31/12/2018
22 326000 ADRIANA PEREIRA CARNEIRO RESENDE OFICIAL DO MP ATIVO BELO HORIZONTE - COMARCA; BH-25PJ DEFESA DA EDUCAÇÃO 7.823,48 1.564,70 0,00 2.179,53 0,00 0,00 11.567,71 1.140,23 1.428,40 0,00 2.568,63 8.999,08 1.334,00 1.151,05 31/12/2018
23 502200 ADRIANA PETRUCCI DAVINA OFICIAL DO MP ATIVO PATROCÍNIO - COMARCA; PATROCINIO-PJ-01PJ 6.054,65 605,47 0,00 1.798,82 2.220,04 0,00 10.678,98 852,98 1.371,22 0,00 2.224,20 8.454,78 2.033,00 1.163,71 31/12/2018
24 201900 ADRIANA REIS PIMENTA OFICIAL DO MP ATIVO TEÓFILO OTONI - COMARCA; TEOFILO OTONI-PJ-03PJ 12.065,98 4.826,39 0,00 3.806,43 5.630,79 0,00 26.329,59 1.931,00 4.813,52 0,00 6.744,52 19.585,07 1.334,00 662,19 31/12/2018
25 278700 ADRIANA RODRIGUES PINTO COELHO AMARAL ANALISTA DO MP ATIVO BELO HORIZONTE - COMARCA; ASSESS TECNICA DA CORREGEDORIA-GERAL DO MP 14.162,21 4.248,66 0,00 4.171,19 0,00 0,00 22.582,06 2.217,81 3.584,56 0,00 5.802,37 16.779,69 1.334,00 1.751,04 31/12/2018
26 468000 ADRIANA SANTOS DE SANTANA MOREIRA ANALISTA DO MP ATIVO ARAÇUAÍ - COMARCA; ARACUAI-PJ-02PJ 9.337,87 2.801,36 0,00 2.667,73 0,00 0,00 14.806,96 1.387,67 1.997,44 0,00 3.385,11 11.421,85 2.033,00 475,86 31/12/2018
27 194700 ADRIANA TSUKIDE OFICIAL DO MP ATIVO UBERABA - COMARCA; COORD REG BACIAS PARANAIBA BAIXO RIO GRANDE 12.065,98 3.619,79 0,00 10.645,96 0,00 0,00 26.331,73 1.793,07 2.917,60 0,00 4.710,67 21.621,06 1.334,00 614,89 31/12/2018
28 465500 ADRIANO CASSIANO MATOS ANALISTA DO MP ATIVO ARAXÁ - COMARCA; ARAXA-PJ-02PJ 9.337,87 933,79 0,00 2.302,82 0,00 0,00 12.574,48 1.174,17 1.644,63 0,00 2.818,80 9.755,68 1.334,00 402,65 31/12/2018
29 500500 ADRIANO DE ALMEIDA SILVA OFICIAL DO MP ATIVO UBERABA - COMARCA; UBERABA-PJ-12PJ 6.054,65 605,47 0,00 1.798,82 0,00 0,00 8.458,94 852,98 760,71 0,00 1.613,69 6.845,25 1.334,00 1.250,74 31/12/2018
30 187200 ADRIANO DE FREITAS MARON OFICIAL DO MP ATIVO PONTE NOVA - COMARCA; PONTE NOVA-PJ-03PJ 9.955,90 7.964,72 0,00 4.743,42 0,00 1.971,27 24.635,31 2.295,15 4.058,81 0,00 6.353,96 18.281,35 1.334,00 3.502,47 31/12/2018
31 477900 ADRIANO FERREIRA DE ALMEIDA OFICIAL DO MP ATIVO TAIOBEIRAS - COMARCA; TAIOBEIRAS-PJ-UNPJ 6.251,74 625,17 0,00 1.933,34 0,00 0,00 8.810,25 786,11 709,49 0,00 1.495,60 7.314,65 1.968,50 359,44 31/12/2018
32 269101 ADRIANO PEREIRA SILVA ANALISTA DO MP ATIVO UBERABA - COMARCA; UBERABA-PJ-02PJ 9.337,87 933,79 0,00 2.459,23 3.423,89 0,00 16.154,78 1.174,17 2.429,79 0,00 3.603,96 12.550,82 2.033,00 402,65 31/12/2018
33 414200 ADRIANO RODRIGUES FERNANDES ANALISTA DO MP ATIVO CARANDAÍ - COMARCA; CARANDAI-PJ-UNPJ 8.758,36 1.751,67 0,00 2.913,26 0,00 0,00 13.423,29 1.334,01 1.546,56 0,00 2.880,57 10.542,72 1.334,00 1.855,05 31/12/2018
34 536700 ADRIELLE COSTA MARIA OFICIAL DO MP ATIVO BELO HORIZONTE - COMARCA; BH-02PJ FAMILIA-SECRETARIA 4.467,49 446,75 0,00 1.946,44 0,00 0,00 6.860,68 561,76 347,95 0,00 909,71 5.950,97 1.334,00 192,64 31/12/2018
35 514300 ADRIENE DAMASCENO BRAGA ANALISTA DO MP ATIVO ALFENAS - COMARCA; ALFENAS-PJ-03PJ 8.482,22 848,22 0,00 2.171,48 0,00 0,00 11.501,92 1.365,15 1.414,26 0,00 2.779,41 8.722,51 2.033,00 3.503,39 31/12/2018
36 254600 ADRIENE DOMINGUES COSTA ANALISTA DO MP ATIVO BELO HORIZONTE - COMARCA; SUPERINTENDENCIA DE RECURSOS HUMANOS 12.065,98 3.619,79 0,00 3.058,40 0,00 0,00 18.744,17 2.462,08 2.969,73 0,00 5.431,81 13.312,36 0,00 6.696,77 31/12/2018
37 252001 ADRIENE GOMES BARRETO ANALISTA DO MP ATIVO BELO HORIZONTE - COMARCA; BH-19PJ SAUDE-SECRETARIA 150PJ 11.317,16 4.526,86 0,00 3.080,47 0,00 0,00 18.924,49 2.029,21 3.008,46 0,00 5.037,67 13.886,82 1.334,00 2.603,37 31/12/2018
38 645000 AFONSO CELSO GUIMARAES JUNIOR OFICIAL DO MP ATIVO PIRAPORA - COMARCA; PIRAPORA-PJ-01PJ 3.569,91 0,00 0,00 1.234,59 0,00 0,00 4.804,50 392,69 121,78 0,00 514,47 4.290,03 1.334,00 139,94 31/12/2018
39 118100 AGENOR ALCIR RODRIGUES DA SILVA OFICIAL DO MP ATIVO SÃO JOÃO NEPOMUCENO - COMARCA; SAO JOAO NEPOMUCENO-PJ-01PJ 15.533,57 12.426,86 0,00 4.771,41 0,00 0,00 32.731,84 3.421,32 5.973,95 0,00 9.395,27 23.336,57 1.334,00 3.507,81 31/12/2018
40 302500 AGENOR JOSE DA SILVA JUNIOR ANALISTA DO MP ATIVO JUIZ DE FORA - COMARCA; JUIZ DE FORA-PJ-07PJ 13.715,83 2.743,17 0,00 3.270,58 0,00 0,00 19.729,58 1.881,46 3.054,71 0,00 4.936,17 14.793,41 1.334,00 860,27 31/12/2018
41 357500 AILSON WAGNER DE ALENCAR SILVA OFICIAL DO MP ATIVO BELO HORIZONTE - COMARCA; BH-12PJ JUIZO CRIMINAL-SECRETARIA 7.955,66 3.182,26 0,00 4.211,99 0,00 0,00 15.349,91 1.415,56 1.700,23 0,00 3.115,79 12.234,12 1.334,00 1.984,16 31/12/2018
42 366400 AILTON ALEXSSANDRO ALVES OFICIAL DO MP ATIVO PARÁ DE MINAS - COMARCA; PARA DE MINAS-PJ-05PJ 7.576,76 2.273,03 0,00 6.975,79 0,00 0,00 16.825,58 1.261,54 1.541,38 0,00 2.802,92 14.022,66 1.334,00 1.618,72 31/12/2018
43 318900 AILTON DE CASTRO RIBEIRO JUNIOR OFICIAL DO MP ATIVO ITAJUBA - COMARCA; ITAJUBA-PJ-01PJ 8.214,70 1.642,94 0,00 2.453,60 0,00 0,00 12.311,24 1.262,57 1.334,75 0,00 2.597,32 9.713,92 2.033,00 1.851,85 31/12/2018
44 464400 ALAN MONTEIRO GASPAR ANALISTA DO MP ATIVO SETE LAGOAS - COMARCA; SETE LAGOAS-PJ-03PJ 9.337,87 933,79 0,00 3.618,66 3.423,89 0,00 17.314,21 1.174,17 2.586,20 0,00 3.760,37 13.553,84 1.334,00 402,65 31/12/2018
45 492000 ALANA DE CASTRO FREITAS OFICIAL DO MP ATIVO ITUMIRIM - COMARCA; ITUMIRIM-PJ-UNPJ 5.678,79 567,88 0,00 4.742,01 0,00 0,00 10.988,68 755,69 659,51 0,00 1.415,20 9.573,48 1.334,00 623,25 31/12/2018
46 306700 ALANA MARCIA DE OLIVEIRA OFICIAL DO MP ATIVO BELO HORIZONTE - COMARCA; DIRETORIA DE ADMINISTRACAO FINANCEIRA 7.955,66 1.591,13 0,00 2.201,67 0,00 0,00 11.748,46 1.091,32 1.467,22 0,00 2.558,54 9.189,92 1.334,00 498,99 31/12/2018
47 324500 ALANMAR COUTINHO COSTA OFICIAL DO MP ATIVO LEOPOLDINA - COMARCA; LEOPOLDINA-PJ-02PJ 8.214,70 1.642,94 0,00 2.349,32 0,00 0,00 12.206,96 1.126,85 1.439,02 0,00 2.565,87 9.641,09 1.334,00 515,23 31/12/2018
48 508200 ALBERTO DA SILVA VIEIRA ASSESSOR ATIVO BELO HORIZONTE - COMARCA; ASSESS TECNICA DA CORREGEDORIA-GERAL DO MP 0,00 0,00 10.614,65 3.386,95 0,00 0,00 14.001,60 1.242,08 2.069,85 0,00 3.311,93 10.689,67 1.334,00 554,80 31/12/2018
49 407300 ALBERTO LUIZ SOARES DE OLIVEIRA ANALISTA DO MP ATIVO BELO HORIZONTE - COMARCA; DIRETORIA DE PROJETOS DE EDIFICACOES 10.279,98 2.056,00 0,00 8.517,09 0,00 0,00 20.853,07 1.410,15 2.149,87 0,00 3.560,02 17.293,05 1.334,00 483,58 31/12/2018
50 118200 ALBERTO PEREIRA DA COSTA OFICIAL DO MP ATIVO DORES DO INDAIÁ - COMARCA; DORES DO INDAIA-PJ-UNPJ 13.715,83 10.972,66 0,00 6.310,77 0,00 2.715,73 33.714,99 2.822,19 5.815,70 0,00 8.637,89 25.077,10 1.334,00 1.074,26 31/12/2018
51 282400 ALCILENE MARISE DE ARAUJO ANALISTA DO MP ATIVO BELO HORIZONTE - COMARCA; BH-23PJ INF-FISC MED SOC FEC 14.162,21 4.248,66 0,00 4.223,33 0,00 0,00 22.634,20 2.217,81 3.532,42 0,00 5.750,23 16.883,97 1.334,00 1.751,04 31/12/2018
52 112600 ALCIONE DA MOTA JARDIM OFICIAL DO MP ATIVO BELO HORIZONTE - COMARCA; CAO-CRIANCAS E ADOLESCENTES-SECRETARIA 10.960,26 5.480,13 0,00 3.215,84 5.480,13 0,00 25.136,36 2.105,65 4.609,32 0,00 6.714,97 18.421,39 1.334,00 2.701,87 31/12/2018
53 396400 ALCIONE DE FREITAS E SILVA ANALISTA DO MP ATIVO BELO HORIZONTE - COMARCA; ASSESS JUR DO CONS SUPERIOR DO MINISTERIO PUB 11.317,16 4.526,86 0,00 5.696,77 0,00 0,00 21.540,79 2.013,64 3.008,46 0,00 5.022,10 16.518,69 1.334,00 2.615,16 31/12/2018
54 657400 ALCIONE MARIA FERREIRA ASSESSOR ATIVO BELO HORIZONTE - COMARCA; PROC JUST RECURSOS ESP E EXTRAORD CRIMINAIS 0,00 0,00 9.641,94 3.124,53 0,00 0,00 12.766,47 1.242,08 1.854,49 0,00 3.096,57 9.669,90 1.334,00 377,97 31/12/2018
55 161600 ALCIONE NERY SOUZA ASSESSOR ATIVO BELO HORIZONTE - COMARCA; BH-18PJ DIREITOS HUMANOS-SECRETARIA 0,00 3.030,70 7.576,76 3.333,26 0,00 0,00 13.940,72 1.242,08 2.120,01 0,00 3.362,09 10.578,63 1.334,00 415,82 31/12/2018
56 376000 ALDA GOMES LANA OFICIAL DO MP ATIVO BELO HORIZONTE - COMARCA; BH-18PJ VIOLENCIA DOMESTICA-SECRETARIA 7.337,85 1.467,57 0,00 2.202,47 0,00 0,00 11.007,89 1.006,57 1.181,49 0,00 2.188,06 8.819,83 1.334,00 345,18 31/12/2018
57 148000 ALDA MARTINS SIMOES OFICIAL DO MP ATIVO BELO HORIZONTE - COMARCA; BH-23PJ CIVEL- FISC ENT AB POL 14.162,21 7.081,11 0,00 4.514,33 0,00 0,00 25.757,65 2.560,47 4.329,94 0,00 6.890,41 18.867,24 2.033,00 2.033,61 31/12/2018
58 318400 ALDO CREPALDI JUNIOR OFICIAL DO MP ATIVO BELO HORIZONTE - COMARCA; EXTINTA - DIVISAO DE MATERIAL DE CONSUMO 7.823,48 1.564,70 0,00 3.370,87 0,00 0,00 12.759,05 1.140,23 1.376,26 0,00 2.516,49 10.242,56 1.334,00 977,58 31/12/2018
59 604500 ALENIZE APARECIDA RODRIGUES HENRIQUE OFICIAL DO MP ATIVO RIO NOVO - COMARCA; RIO NOVO-PJ-UNPJ 4.058,04 405,80 0,00 1.853,69 1.487,95 0,00 7.805,48 693,75 632,35 0,00 1.326,10 6.479,38 1.334,00 1.843,03 31/12/2018
60 197900 ALESSA DE SOUSA E SILVA OFICIAL DO MP ATIVO OLIVEIRA - COMARCA; OLIVEIRA-PJ-02PJ 13.283,29 3.984,99 0,00 3.383,52 0,00 0,00 20.651,80 1.973,97 3.252,78 0,00 5.226,75 15.425,05 1.406,00 902,57 31/12/2018
61 428500 ALESSANDRA ALVES DINIZ OFICIAL DO MP ATIVO BELO HORIZONTE - COMARCA; CENTRAL DE APOIO TECNICO-SECRETARIA 5.158,42 2.063,37 0,00 5.346,55 0,00 0,00 12.568,34 825,54 898,17 0,00 1.723,71 10.844,63 1.334,00 283,10 31/12/2018
62 286801 ALESSANDRA BOTELHO JUNQUEIRA DE MENEZES ANALISTA DO MP ATIVO PASSOS - COMARCA; PASSOS-PJ-05PJ 11.317,16 3.395,15 0,00 3.131,09 0,00 0,00 17.843,40 1.681,79 2.522,93 0,00 4.204,72 13.638,68 3.431,00 576,73 31/12/2018
63 307000 ALESSANDRA CRISTINA SANTOS MENDES ANALISTA DO MP ATIVO BELO HORIZONTE - COMARCA; BH-18PJ VIOLENCIA DOMESTICA 9.955,90 1.991,18 0,00 4.164,06 0,00 0,00 16.111,14 1.365,70 2.002,55 0,00 3.368,25 12.742,89 1.334,00 468,33 31/12/2018
64 264400 ALESSANDRA DE SOUZA SANTOS ANALISTA DO MP ATIVO BELO HORIZONTE - COMARCA; CENTRO DE ESTUDOS E APERFEICOAMENTO FUNCIONAL 15.533,57 6.213,43 0,00 3.904,29 0,00 0,00 25.651,29 2.891,78 4.453,22 0,00 7.345,00 18.306,29 1.334,00 4.542,00 31/12/2018
65 441500 ALESSANDRA DRUMMOND DE FIGUEIREDO ROSSI ANALISTA DO MP ATIVO BELO HORIZONTE - COMARCA; DIRETORIA DE PROJETOS DE EDIFICACOES 9.337,87 933,79 0,00 2.302,82 0,00 0,00 12.574,48 1.308,91 1.644,63 0,00 2.953,54 9.620,94 1.334,00 1.627,59 31/12/2018
66 524000 ALESSANDRA LUCIOLI DE BARROS GUERRA ANALISTA DO MP ATIVO BELO HORIZONTE - COMARCA; BH-19PJ SAUDE--SECRETARIA 8.482,22 848,22 0,00 2.327,89 0,00 0,00 11.658,33 1.066,58 1.257,85 0,00 2.324,43 9.333,90 1.334,00 365,76 31/12/2018
67 479900 ALESSANDRA MARA ANDRADE DE FARIA OFICIAL DO MP ATIVO UBERABA - COMARCA; UBERABA-PJ-09PJ 6.251,74 625,17 0,00 1.829,07 0,00 0,00 8.705,98 786,11 813,76 0,00 1.599,87 7.106,11 1.334,00 269,58 31/12/2018
68 226700 ALESSANDRA MARA VASCONCELOS REZENDE OFICIAL DO MP ATIVO CONSELHEIRO LAFAIETE - COMARCA; CONSELHEIRO LAFAIETE-PJ-07PJ 8.482,22 2.544,67 0,00 2.408,22 0,00 0,00 13.435,11 1.260,51 1.829,47 0,00 3.089,98 10.345,13 1.334,00 432,26 31/12/2018
69 112100 ALESSANDRA MARCIA FERREIRA OFICIAL DO MP ATIVO BELO HORIZONTE - COMARCA; BELO HORIZONTE- SECRETARIA DAS PROMOTORIAS 9.337,87 4.668,94 0,00 2.824,08 0,00 0,00 16.830,89 1.601,15 2.558,81 0,00 4.159,96 12.670,93 1.334,00 732,09 31/12/2018
70 196500 ALESSANDRA MARIA RIBEIRO LUCIANO OFICIAL DO MP ATIVO RIO PARANAÍBA - COMARCA; RIO PARANAIBA-PJ-UNPJ 12.065,98 4.826,39 0,00 3.278,92 0,00 0,00 20.171,29 2.651,47 3.212,91 0,00 5.864,38 14.306,91 2.033,00 7.432,64 31/12/2018
71 91400 ALESSANDRA MENDES VASCONCELOS DE SOUZA OFICIAL DO MP ATIVO BELO HORIZONTE - COMARCA; BH-23PJ INF-FISC MED SOC AB 17.452,52 12.216,76 0,00 5.009,89 0,00 0,00 34.679,17 3.630,40 6.392,20 0,00 10.022,60 24.656,57 1.334,00 3.334,40 31/12/2018
72 651700 ALESSANDRA PROFIRIO SOUZA OFICIAL DO MP ATIVO NOVA ERA - COMARCA; NOVA ERA-PJ-UNPJ 3.457,37 0,00 0,00 1.230,81 0,00 0,00 4.688,18 419,00 78,32 0,00 497,32 4.190,86 1.334,00 396,97 31/12/2018
73 384900 ALESSANDRA RODRIGUES ANALISTA DO MP ATIVO VISCONDE DO RIO BRANCO - COMARCA; VISCONDE DO RIO BRANCO-PJ-03PJ 11.317,16 2.263,43 0,00 2.921,02 0,00 0,00 16.501,61 1.723,75 2.298,08 0,00 4.021,83 12.479,78 2.033,00 2.089,89 31/12/2018
74 390000 ALESSANDRA SPADANO MASSARA VASCONCELOS OFICIAL DO MP ATIVO BETIM - COMARCA; BETIM-PJ-10PJ 7.106,49 1.421,30 0,00 2.059,46 0,00 0,00 10.587,25 1.082,42 1.217,82 0,00 2.300,24 8.287,01 1.334,00 1.393,83 31/12/2018
75 426500 ALESSANDRO CAMPOS DE PAIVA ANALISTA DO MP ATIVO BELO HORIZONTE - COMARCA; DIRETORIA DE PUBLICIDADE INSTITUCIONAL 10.279,98 1.028,00 0,00 2.736,73 0,00 0,00 14.044,71 1.774,95 1.898,27 0,00 3.673,22 10.371,49 1.334,00 4.844,20 31/12/2018
76 623400 ALESSANDRO DE OLIVEIRA REZENDE ANALISTA DO MP ATIVO BELO HORIZONTE - COMARCA; DIVISAO DE MEMORIA INSTITUCIONAL 6.882,47 412,95 0,00 1.887,48 0,00 0,00 9.182,90 872,06 892,75 0,00 1.764,81 7.418,09 1.334,00 632,29 31/12/2018
77 420600 ALESSANDRO SILVA OFICIAL DO MP ATIVO VISCONDE DO RIO BRANCO - COMARCA; VISCONDE DO RIO BRANCO-PJ-02PJ 6.882,47 2.064,74 0,00 2.559,11 0,00 0,00 11.506,32 1.022,77 834,30 0,00 1.857,07 9.649,25 1.400,40 467,65 31/12/2018
78 375301 ALETHEIA PATRICIA ASSIS MORAIS MOREIRA ANALISTA DO MP ATIVO ITABIRA - COMARCA; ITABIRA-PJ-02PJ 8.214,70 821,47 0,00 6.523,51 0,00 0,00 15.559,68 1.032,94 1.290,11 0,00 2.323,05 13.236,63 2.732,00 354,22 31/12/2018
79 382300 ALEX CARVALHO LIMA ANALISTA DO MP ATIVO UBERLÂNDIA - COMARCA; UBERLANDIA-PJ-14PJ 11.317,16 2.263,43 0,00 9.288,70 0,00 0,00 22.869,29 1.723,75 2.297,08 0,00 4.020,83 18.848,46 1.334,00 2.089,89 31/12/2018
80 195201 ALEX DE CASTRO PEREIRA ANALISTA DO MP ATIVO UBERABA - COMARCA; UBERABA-PJ-09PJ 14.162,21 4.248,66 0,00 3.438,70 0,00 0,00 21.849,57 2.227,25 3.636,70 0,00 5.863,95 15.985,62 1.334,00 2.077,37 31/12/2018
81 358900 ALEX DE PAULA LANZA ASSESSOR ATIVO BELO HORIZONTE - COMARCA; DIRETORIA DE IMPRENSA 0,00 0,00 7.576,76 2.678,09 0,00 0,00 10.254,85 1.242,08 1.286,56 0,00 2.528,64 7.726,21 2.033,00 297,01 31/12/2018
82 178400 ALEX RODRIGO SALDANHA GUIMARAES OFICIAL DO MP ATIVO BELO HORIZONTE - COMARCA; DIRETORIA DE SISTEMAS DE INFORMACAO 5.678,79 1.703,64 0,00 1.899,62 0,00 0,00 9.282,05 843,90 937,49 0,00 1.781,39 7.500,66 1.334,00 289,40 31/12/2018
83 413500 ALEX VILELA OLIVEIRA ANALISTA DO MP ATIVO GOVERNADOR VALADARES - COMARCA; COORD REG PJ DEF EDU DIR CRIANCA ADOL RIODOCE 11.317,16 2.263,43 0,00 9.288,70 0,00 0,00 22.869,29 1.552,42 2.454,49 0,00 4.006,91 18.862,38 1.334,00 709,83 31/12/2018
84 264300 ALEXANDRA FATIMA SARAIVA SOARES ANALISTA DO MP ATIVO BELO HORIZONTE - COMARCA; CENTRAL DE APOIO TECN-SETOR DE MEIO AMBIENTE 15.533,57 4.660,07 0,00 3.687,51 0,00 0,00 23.881,15 2.656,24 4.073,03 0,00 6.729,27 17.151,88 1.334,00 4.217,91 31/12/2018
85 488000 ALEXANDRA LARA PAIS DE CARVALHO ANALISTA DO MP ATIVO SABINÓPOLIS - COMARCA; SABINOPOLIS-PJ-UNPJ 8.482,22 848,22 0,00 6.810,22 0,00 0,00 16.140,66 1.219,74 1.257,85 0,00 2.477,59 13.663,07 2.033,00 1.758,16 31/12/2018
86 256300 ALEXANDRA SANTOS GOMES OFICIAL DO MP ATIVO BELO HORIZONTE - COMARCA; EXTINTA - DIVISÃO DE COMPRAS 8.214,70 2.464,41 0,00 2.359,68 0,00 0,00 13.038,79 1.220,75 1.744,35 0,00 2.965,10 10.073,69 1.334,00 418,63 31/12/2018
87 403300 ALEXANDRE AUGUSTO RODRIGUES ANALISTA DO MP ATIVO ÁGUAS FORMOSAS - COMARCA; AGUAS FORMOSAS-PJ-UNPJ 9.337,87 1.867,57 0,00 2.881,73 0,00 0,00 14.087,17 1.280,92 1.873,17 0,00 3.154,09 10.933,08 1.334,00 439,26 31/12/2018
88 640900 ALEXANDRE BARBOSA MASCARENHAS ANALISTA DO MP ATIVO BETIM - COMARCA; BETIM-PJ-08PJ 5.499,78 0,00 0,00 1.766,78 0,00 0,00 7.266,56 604,98 337,23 0,00 942,21 6.324,35 1.334,00 215,59 31/12/2018
89 311700 ALEXANDRE BARCELOS RESENDE OFICIAL DO MP ATIVO BELO HORIZONTE - COMARCA; BH-07PJ 03 TRIBUNAL DO JURI-GAB 109PJ 6.251,74 1.250,35 0,00 1.916,31 2.500,70 0,00 11.919,10 1.177,55 1.654,47 0,00 2.832,02 9.087,08 1.334,00 3.445,29 31/12/2018
90 285600 ALEXANDRE CAMPOS DE OLIVEIRA OFICIAL DO MP ATIVO UBERABA - COMARCA; COORD REG BACIAS PARANAIBA BAIXO RIO GRANDE 9.337,87 2.801,36 0,00 2.589,55 0,00 0,00 14.728,78 1.806,12 1.945,30 0,00 3.751,42 10.977,36 2.033,00 4.279,88 31/12/2018
91 509200 ALEXANDRE CAPUANO DE REZENDE ANALISTA DO MP ATIVO BELO HORIZONTE - COMARCA; GABINETE DE PROCURADOR DE JUSTIÇA - SALA 715 9.337,87 933,79 0,00 2.354,96 0,00 0,00 12.626,62 1.373,11 1.592,49 0,00 2.965,60 9.661,02 1.334,00 2.211,27 31/12/2018
92 229400 ALEXANDRE CARLOS BOTREL DIRETOR/OFICIAL ATIVO BELO HORIZONTE - COMARCA; SUPERINTENDENCIA DOS ORGAOS COLEGIADOS 0,00 4.844,55 16.148,50 4.280,33 0,00 0,00 25.273,38 1.681,79 4.458,68 0,00 6.140,47 19.132,91 1.334,00 1.097,25 31/12/2018
93 411900 ALEXANDRE CARVALHO SANTOS RIBEIRO ANALISTA DO MP ATIVO OLIVEIRA - COMARCA; OLIVEIRA-PJ-02PJ 10.279,98 2.056,00 0,00 3.084,75 0,00 0,00 15.420,73 1.892,46 2.149,87 0,00 4.042,33 11.378,40 2.732,00 5.394,80 31/12/2018
94 641600 ALEXANDRE DA SILVA ASSUNCAO OFICIAL DO MP ATIVO BELO HORIZONTE - COMARCA; SERVICO MEDICO-DEPTO PERIC MEDICA SAUDE OCUP 3.930,12 235,81 0,00 1.494,75 0,00 0,00 5.660,68 534,39 201,35 0,00 735,74 4.924,94 1.334,00 855,49 31/12/2018
95 201200 ALEXANDRE DE ALENCAR CORDEIRO OFICIAL DO MP ATIVO ÁGUAS FORMOSAS - COMARCA; AGUAS FORMOSAS-PJ-UNPJ 5.678,79 2.839,40 0,00 2.058,12 0,00 0,00 10.576,31 973,73 1.215,47 0,00 2.189,20 8.387,11 1.334,00 445,23 31/12/2018
96 288200 ALEXANDRE DE VASCONCELOS COSTA KER ANALISTA DO MP ATIVO BELO HORIZONTE - COMARCA; BH-03PJ EMPRESARIAL-SECRETARIA 13.715,83 4.114,75 0,00 3.218,44 0,00 0,00 21.049,02 2.334,07 3.442,54 0,00 5.776,61 15.272,41 1.334,00 4.060,62 31/12/2018
97 445000 ALEXANDRE DIOGENES OLIVEIRA ANALISTA DO MP ATIVO SALINAS - COMARCA; SALINAS-PJ-02PJ 9.337,87 933,79 0,00 2.302,82 0,00 0,00 12.574,48 1.174,17 1.644,63 0,00 2.818,80 9.755,68 2.033,00 536,87 31/12/2018
98 463400 ALEXANDRE LEAL WINKELSTROTER ANALISTA DO MP ATIVO TEÓFILO OTONI - COMARCA; TEOFILO OTONI-PJ-04PJ 8.482,22 848,22 0,00 2.223,62 0,00 0,00 11.554,06 1.194,99 1.362,13 0,00 2.557,12 8.996,94 1.334,00 1.752,32 31/12/2018
99 615700 ALEXANDRE LUIZ DE CASTRO MACIEL ANALISTA DO MP ATIVO IBIRITÉ - COMARCA; IBIRITE-PJ-02PJ 6.882,47 412,95 0,00 1.887,48 0,00 0,00 9.182,90 833,96 916,19 0,00 1.750,15 7.432,75 1.334,00 285,98 31/12/2018
100 356900 ALEXANDRE MOISES MENDONCA E ARAUJO OFICIAL DO MP ATIVO UBERABA - COMARCA; UBERABA-PJ-13PJ 5.863,71 1.172,74 0,00 1.851,33 0,00 0,00 8.887,78 901,22 852,81 0,00 1.754,03 7.133,75 1.334,00 1.229,81 31/12/2018
101 633300 ALEXANDRE NONATO MARTINS OFICIAL DO MP ATIVO IGARAPÉ - COMARCA; IGARAPE-PJ-02PJ 3.930,12 235,81 0,00 1.409,91 1.388,64 0,00 6.964,48 476,21 479,99 0,00 956,20 6.008,28 1.334,00 163,31 31/12/2018
102 469900 ALEXANDRE PEREIRA GUEDES ANALISTA DO MP ATIVO CATAGUASES - COMARCA; CATAGUASES-PJ-03PJ 9.337,87 933,79 0,00 2.302,82 0,00 0,00 12.574,48 1.174,17 1.644,63 0,00 2.818,80 9.755,68 1.334,00 402,65 31/12/2018
103 208700 ALEXANDRE RESENDE FRAGA ANALISTA DO MP ATIVO BELO HORIZONTE - COMARCA; BH-19PJ SAUDE 17.452,52 5.235,76 0,00 4.192,06 0,00 0,00 26.880,34 2.593,54 4.527,19 0,00 7.120,73 19.759,61 1.334,00 889,40 31/12/2018
104 216401 ALEXANDRE RIBEIRO DE LIMA MAIORINO ANALISTA DO MP ATIVO UBERABA - COMARCA; UBERABA-PJ-03PJ 13.715,83 4.114,75 0,00 3.409,86 0,00 0,00 21.240,44 2.038,25 3.442,54 0,00 5.480,79 15.759,65 1.334,00 698,97 31/12/2018
105 475100 ALEXANDRE TEOTONIO COSTA ANALISTA DO MP ATIVO ARAGUARI - COMARCA; ARAGUARI-PJ-01PJ 9.337,87 933,79 0,00 2.407,09 0,00 0,00 12.678,75 1.174,17 1.540,36 0,00 2.714,53 9.964,22 1.334,00 536,87 31/12/2018
106 339000 ALEXANDRE VITOR CARDOSO OFICIAL DO MP ATIVO BELO HORIZONTE - COMARCA; PROMOT ESTADUAL DE DEF PATRI CULT E TUR DE MG 5.678,79 1.135,76 0,00 1.976,78 0,00 0,00 8.791,33 778,98 642,09 0,00 1.421,07 7.370,26 1.334,00 267,13 31/12/2018
107 623100 ALEXSANDER BATISTA AGUIAR ANALISTA DO MP ATIVO BELO HORIZONTE - COMARCA; DIRETORIA DE SUPORTE E MANUTENCAO 6.882,47 412,95 0,00 2.043,89 0,00 0,00 9.339,31 882,60 759,78 0,00 1.642,38 7.696,93 2.033,00 728,08 31/12/2018
108 513300 ALFSON MIRANDA BRAGA ANALISTA DO MP ATIVO BELO HORIZONTE - COMARCA; BH-12PJ JUIZO CRIMINAL-GAB 092PJ 8.482,22 848,22 0,00 2.171,48 0,00 0,00 11.501,92 1.464,78 1.414,26 0,00 2.879,04 8.622,88 1.334,00 3.985,77 31/12/2018
109 618400 ALICE MAGALHAES MACEDO DE CARVALHO ANALISTA DO MP ATIVO AÇUCENA - COMARCA; ACUCENA-PJ-UNPJ 6.882,47 412,95 0,00 1.887,48 0,00 0,00 9.182,90 882,60 916,19 0,00 1.798,79 7.384,11 2.033,00 728,08 31/12/2018
110 471000 ALICE TITONELI MOREIRA ANALISTA DO MP ATIVO MIRADOURO - COMARCA; MIRADOURO-PJ-UNPJ 9.337,87 933,79 0,00 2.354,96 0,00 0,00 12.626,62 1.174,17 1.592,49 0,00 2.766,66 9.859,96 2.033,00 402,65 31/12/2018
111 622400 ALINE BALBINO PORTUGAL LOPES ANALISTA DO MP ATIVO TRÊS PONTAS - COMARCA; TRES PONTAS-PJ-03PJ 6.882,47 412,95 0,00 1.887,48 0,00 0,00 9.182,90 882,60 916,19 0,00 1.798,79 7.384,11 1.334,00 728,08 31/12/2018
112 373000 ALINE BOTELHO RESENDE OFICIAL DO MP ATIVO JUIZ DE FORA - COMARCA; JUIZ DE FORA-PJ-13PJ 7.576,76 1.515,35 0,00 2.138,21 0,00 0,00 11.230,32 1.039,34 1.355,93 0,00 2.395,27 8.835,05 1.334,00 356,42 31/12/2018
113 407700 ALINE CRISTINA RODRIGUES PEREIRA COORDENADOR/ANALISTA ATIVO BELO HORIZONTE - COMARCA; DIRETORIA DE PROJETOS DE EDIFICACOES 0,00 2.491,77 12.458,83 3.841,28 0,00 0,00 18.791,88 1.280,92 2.903,09 0,00 4.184,01 14.607,87 2.033,00 586,07 31/12/2018
114 193100 ALINE CRISTINA SENA OLIVEIRA OFICIAL DO MP ATIVO UBERLÂNDIA - COMARCA; UBERLANDIA-PJ-03PJ 11.685,57 3.505,67 0,00 3.041,52 0,00 0,00 18.232,76 1.945,62 2.796,56 0,00 4.742,18 13.490,58 1.334,00 2.852,94 31/12/2018
115 554200 ALINE CRISTINA SILVA SOUZA OFICIAL DO MP ATIVO TIROS - COMARCA; TIROS-PJ-UNPJ 4.838,22 483,82 0,00 2.081,55 0,00 0,00 7.403,59 691,43 433,21 0,00 1.124,64 6.278,95 1.334,00 963,71 31/12/2018
116 505500 ALINE DA CUNHA MARREIROS OLIVEIRA ANALISTA DO MP ATIVO CARANGOLA - COMARCA; CARANGOLA-PJ-03PJ 9.337,87 933,79 0,00 2.354,96 0,00 0,00 12.626,62 1.373,11 1.592,49 0,00 2.965,60 9.661,02 2.033,00 2.211,27 31/12/2018
117 433500 ALINE DE MELO QUEIROZ ASSESSOR/OFICIAL ATIVO BELO HORIZONTE - COMARCA; ASSESSORIA TECNICA DO PROCON-MG 0,00 964,19 9.641,94 2.554,97 0,00 0,00 13.161,10 1.030,62 1.801,54 0,00 2.832,16 10.328,94 1.334,00 1.501,48 31/12/2018
118 542700 ALINE DE SOUSA ALBINO ANALISTA DO MP ATIVO CARMO DO PARANAÍBA - COMARCA; CARMO DO PARANAIBA-PJ-01PJ 7.576,76 757,68 0,00 2.032,47 0,00 0,00 10.366,91 952,73 1.170,49 0,00 2.123,22 8.243,69 1.334,00 326,71 31/12/2018
119 330000 ALINE DIORIO MAYRINK OFICIAL DO MP ATIVO BELO HORIZONTE - COMARCA; BH-19PJ SAUDE-SECRETARIA 129PJ 6.054,65 605,47 0,00 1.798,82 0,00 0,00 8.458,94 852,98 760,71 0,00 1.613,69 6.845,25 1.334,00 1.250,74 31/12/2018
120 499000 ALINE FERREIRA LOPES ANALISTA DO MP ATIVO TEÓFILO OTONI - COMARCA; COORD. DE DEF. DO PAT. PUBLICO-JEQUIT./MUCURI 9.337,87 933,79 0,00 3.618,66 0,00 0,00 13.890,32 1.373,11 1.644,63 0,00 3.017,74 10.872,58 2.033,00 2.211,27 31/12/2018
121 405300 ALINE LAIA CARDOZO COORDENADOR/ANALISTA ATIVO BELO HORIZONTE - COMARCA; EXTINTA - DIRETORIA SERVIÇOS GERAIS E TRANS 11.317,16 4.755,20 0,00 3.846,95 0,00 0,00 19.919,31 1.723,75 3.139,73 0,00 4.863,48 15.055,83 1.334,00 2.187,56 31/12/2018
122 278200 ALINE MARCIA FARIA BARBOSA FERNANDES OFICIAL DO MP ATIVO BARBACENA - COMARCA; BARBACENA-PJ-SECRETARIA 5.863,71 1.759,11 0,00 2.371,27 0,00 0,00 9.994,09 968,25 839,91 0,00 1.808,16 8.185,93 1.334,00 1.252,80 31/12/2018
123 389000 ALINE NERI NOBRE ANALISTA DO MP ATIVO MONTES CLAROS - COMARCA; COORD REG PJ DEF EDUC DIR CRIANCA ADOL NORTE 11.685,57 3.505,67 0,00 2.989,38 0,00 0,00 18.180,62 1.736,55 2.848,70 0,00 4.585,25 13.595,37 1.334,00 794,00 31/12/2018
124 294600 ALINE PATRICIA SILVA VIEIRA OFICIAL DO MP ATIVO UBERLÂNDIA - COMARCA; UBERLANDIA-PJ-03PJ 9.337,87 1.867,57 0,00 2.827,15 0,00 0,00 14.032,59 1.497,96 2.137,47 0,00 3.635,43 10.397,16 2.033,00 3.969,02 31/12/2018
125 420000 ALINE RODRIGUES CAMOROPIN ANALISTA DO MP ATIVO SABARÁ - COMARCA; SABARA-PJ-02PJ 10.279,98 2.056,00 0,00 2.447,45 0,00 0,00 14.783,43 2.114,19 2.149,87 0,00 4.264,06 10.519,37 1.334,00 7.249,31 31/12/2018
126 408300 ALINE SILVA ARAUJO DE PAULA ANALISTA DO MP ATIVO SÃO SEBASTIÃO DO PARAÍSO - COMARCA; SAO SEBASTIAO DO PARAISO-PJ-02PJ 11.317,16 2.263,43 0,00 3.308,28 0,00 0,00 16.888,87 1.552,42 2.454,49 0,00 4.006,91 12.881,96 2.033,00 709,83 31/12/2018
127 425400 ALINE TRINDADE DE FREITAS CAMPOS OFICIAL DO MP ATIVO BELO HORIZONTE - COMARCA; BH-14PJ DEFESA CONSUMIDOR-SECRETARIA 7.106,49 710,65 0,00 2.857,82 0,00 0,00 10.674,96 893,60 1.043,88 0,00 1.937,48 8.737,48 1.334,00 306,44 31/12/2018
128 517200 ALISSOM PEREIRA DA SILVA ANALISTA DO MP ATIVO BORDA DA MATA - COMARCA; BORDA DA MATA-PJ-UNPJ 8.482,22 848,22 0,00 2.171,48 0,00 0,00 11.501,92 1.265,52 1.414,26 0,00 2.679,78 8.822,14 1.334,00 2.174,38 31/12/2018
129 442400 ALISSON LABRE ANALISTA DO MP ATIVO VARGINHA - COMARCA; VARGINHA-PJ-02PJ 9.337,87 933,79 0,00 2.302,82 0,00 0,00 12.574,48 1.174,17 1.644,63 0,00 2.818,80 9.755,68 2.732,00 402,65 31/12/2018
130 643800 ALLAN PAUL FONSECA DE CASTRO OFICIAL DO MP ATIVO CONTAGEM - COMARCA; CONTAGEM-PJ-06PJ 3.930,12 0,00 0,00 1.323,35 0,00 0,00 5.253,47 432,31 169,87 0,00 602,18 4.651,29 2.033,00 154,06 31/12/2018
131 612900 ALLAN VINICIUS VIEIRA ARAUJO OFICIAL DO MP ATIVO BELO HORIZONTE - COMARCA; BH-09PJ AUDITORIA MILITAR-SECRETARIA 4.467,49 268,05 0,00 1.499,48 0,00 0,00 6.235,02 541,33 312,16 0,00 853,49 5.381,53 1.334,00 247,52 31/12/2018
132 349000 ALLEC RODRIGUES VIEIRA ASSESSOR/OFICIAL ATIVO BELO HORIZONTE - COMARCA; COORD DE INCLUSAO E MOBILIZACAO SOCIAIS 0,00 1.928,39 9.641,94 2.484,06 0,00 0,00 14.054,39 1.322,63 1.962,48 0,00 3.285,11 10.769,28 1.334,00 604,75 31/12/2018
133 297300 ALLYSON SALIBA MONTEIRO LAIZO ANALISTA DO MP ATIVO CONSELHEIRO LAFAIETE - COMARCA; CONSELHEIRO LAFAIETE-PJ-03PJ 14.372,91 2.874,58 0,00 3.276,35 0,00 0,00 20.523,84 2.260,27 3.351,96 0,00 5.612,23 14.911,61 2.033,00 3.300,43 31/12/2018
134 303700 ALMIR LOPES LOURES ANALISTA DO MP ATIVO BELO HORIZONTE - COMARCA; CENTRAL DE APOIO TECN-SETOR DE MEIO AMBIENTE 14.941,94 2.988,39 0,00 12.037,54 0,00 0,00 29.967,87 2.049,66 3.466,95 0,00 5.516,61 24.451,26 1.334,00 702,88 31/12/2018
135 515900 ALTAIR NEVES JUNIOR OFICIAL DO MP ATIVO BELO HORIZONTE - COMARCA; BH-03PJ EMPRESARIAL-SECRETARIA 5.863,71 586,37 0,00 4.868,12 0,00 0,00 11.318,20 826,15 709,30 0,00 1.535,45 9.782,75 1.334,00 1.211,92 31/12/2018
136 233300 ALVARINDO BATISTA COORDENADOR/ANALISTA ATIVO BELO HORIZONTE - COMARCA; DIVISAO DE MULTIMIDIA 17.452,52 7.427,81 0,00 4.561,67 8.293,44 0,00 37.735,44 2.593,54 7.514,97 0,00 10.108,51 27.626,93 2.033,00 975,33 31/12/2018
137 274100 ALYSSON CARVALHO VIDAL DE LACERDA OFICIAL DO MP ATIVO MANHUAÇU - COMARCA; MANHUACU-PJ-01PJ 8.758,36 2.627,51 0,00 7.928,07 0,00 0,00 19.313,94 1.595,54 1.917,33 0,00 3.512,87 15.801,07 1.334,00 3.341,65 31/12/2018
138 621000 AMANDA BASTOS ALVES ANALISTA DO MP ATIVO BELO HORIZONTE - COMARCA; ASSESS TECNICO-JUR JUNTO AS PROC. DE JUST 6.882,47 412,95 0,00 1.887,48 0,00 0,00 9.182,90 882,60 916,19 0,00 1.798,79 7.384,11 1.334,00 728,08 31/12/2018
139 521700 AMANDA CRISTINA AGUIAR MACHADO OFICIAL DO MP ATIVO CONGONHAS - COMARCA; CONGONHAS-PJ-01PJ 4.612,94 461,29 0,00 1.603,88 0,00 0,00 6.678,11 580,05 337,33 0,00 917,38 5.760,73 1.334,00 198,91 31/12/2018
140 613400 AMANDA DE ASSIS IUNES SANTOS ANALISTA DO MP ATIVO CONGONHAS - COMARCA; CONGONHAS-PJ-01PJ 6.882,47 412,95 0,00 1.887,48 0,00 0,00 9.182,90 833,96 916,19 0,00 1.750,15 7.432,75 2.033,00 285,98 31/12/2018
141 520800 AMANDA DE SOUZA MACHADO ANALISTA DO MP ATIVO BAEPENDI - COMARCA; BAEPENDI-PJ-UNPJ 8.482,22 848,22 0,00 2.275,75 0,00 0,00 11.606,19 1.066,58 1.309,99 0,00 2.376,57 9.229,62 1.334,00 487,68 31/12/2018
142 543100 AMANDA VIEIRA FREITAS BRESSANE ANALISTA DO MP ATIVO PARAGUAÇU - COMARCA; PARAGUACU-PJ-UNPJ 7.576,76 757,68 0,00 3.018,17 0,00 0,00 11.352,61 952,73 1.170,49 0,00 2.123,22 9.229,39 1.334,00 435,61 31/12/2018
143 434400 AMARILIS ASSIS SIMAO CURCIO ANALISTA DO MP ATIVO MANHUAÇU - COMARCA; MANHUACU-PJ-01PJ 9.337,87 933,79 0,00 2.302,82 0,00 0,00 12.574,48 1.174,17 1.644,63 0,00 2.818,80 9.755,68 1.823,30 402,65 31/12/2018
144 652000 AMAURI SILVA ALVES OFICIAL DO MP ATIVO BELO HORIZONTE - COMARCA; BH-23PJ INFRACIONAL-SEC EXP 3.457,37 0,00 0,00 1.251,19 0,00 0,00 4.708,56 404,09 106,76 0,00 510,85 4.197,71 1.334,00 579,67 31/12/2018
145 273700 AMBROLINA CARNEIRO DE VASCONCELOS OFICIAL DO MP ATIVO FRUTAL - COMARCA; FRUTAL-PJ-01PJ 9.641,94 4.820,97 0,00 3.371,13 4.820,97 0,00 22.655,01 1.843,04 3.944,07 0,00 5.787,11 16.867,90 1.334,00 2.291,97 31/12/2018
146 58000 AMELIA GUARIZE DE CASTRO OFICIAL DO MP ATIVO JUIZ DE FORA - COMARCA; JUIZ DE FORA-PJ-SECRETARIA 6.251,74 6.251,74 0,00 3.572,36 0,00 1.375,38 17.451,22 1.429,30 2.569,10 0,00 3.998,40 13.452,82 1.334,00 544,06 31/12/2018
147 324301 AMERICA SUELI FERREIRA DA SILVA ANALISTA DO MP ATIVO MONTE CARMELO - COMARCA; MONTE CARMELO-PJ-02PJ 9.337,87 933,79 0,00 2.354,96 0,00 0,00 12.626,62 1.174,17 1.592,49 0,00 2.766,66 9.859,96 2.033,00 671,09 31/12/2018
148 273300 AMUJACY DE BRITO ASSIZ OFICIAL DO MP ATIVO BELO HORIZONTE - COMARCA; BH-12PJ JUIZO CRIMINAL-SECRETARIA 8.758,36 2.627,51 0,00 3.087,62 3.795,29 0,00 18.268,78 1.301,55 2.752,49 0,00 4.054,04 14.214,74 2.033,00 446,33 31/12/2018
149 482200 ANA ALICE LOPES ACHTSCHIN ANALISTA DO MP ATIVO BELO HORIZONTE - COMARCA; PROC JUST RECURSOS ESP E EXTRAORD CRIMINAIS 9.337,87 933,79 0,00 2.302,82 0,00 0,00 12.574,48 1.174,17 1.644,63 0,00 2.818,80 9.755,68 1.334,00 536,87 31/12/2018
150 490400 ANA AMELIA PAULINO GARCIA OFICIAL DO MP ATIVO CONTAGEM - COMARCA; CONTAGEM-PJ-13PJ 6.054,65 605,47 0,00 2.499,17 0,00 0,00 9.159,29 852,98 760,71 0,00 1.613,69 7.545,60 1.334,00 1.094,28 31/12/2018
151 279100 ANA CAROLINA ARAUJO PEREIRA ANALISTA DO MP ATIVO BELO HORIZONTE - COMARCA; DIRETORIA DE PROJETOS DE EDIFICACOES 14.372,91 4.311,87 0,00 6.698,16 0,00 0,00 25.382,94 2.424,58 3.651,60 0,00 6.076,18 19.306,76 2.033,00 3.356,78 31/12/2018
152 653300 ANA CAROLINA CYRNE DINIZ ASSESSOR ATIVO BELO HORIZONTE - COMARCA; CENTRAL DE APOIO TECNICO-SETOR CONTABIL 0,00 0,00 7.576,76 2.678,09 0,00 0,00 10.254,85 1.242,08 1.286,56 0,00 2.528,64 7.726,21 1.334,00 297,01 31/12/2018
153 359400 ANA CAROLINA DE ABREU FARIA ASSESSOR ATIVO BELO HORIZONTE - COMARCA; SUPERINTENDÊNCIA DE ENGENHARIA E ARQUITETURA 0,00 0,00 7.576,76 2.678,09 0,00 0,00 10.254,85 1.242,08 1.286,56 0,00 2.528,64 7.726,21 1.334,00 396,01 31/12/2018
154 408500 ANA CAROLINA DE CASTRO CARVALHO ANALISTA DO MP ATIVO BARBACENA - COMARCA; BARBACENA - SECRETARIA DAS PJS CRIMINAIS 11.317,16 2.263,43 0,00 3.308,28 0,00 0,00 16.888,87 1.552,42 2.454,49 0,00 4.006,91 12.881,96 1.334,00 532,37 31/12/2018
155 420200 ANA CAROLINA FERNANDES SILVA ANALISTA DO MP ATIVO BELO HORIZONTE - COMARCA; GABINETE DE PROCURADOR DE JUSTIÇA - SALA 708 9.955,90 1.991,18 0,00 2.397,69 0,00 0,00 14.344,77 1.731,13 2.054,69 0,00 3.785,82 10.558,95 1.334,00 3.790,56 31/12/2018
156 522100 ANA CAROLINA FERNANDINO VIDAL PEREIRA SANTOS OFICIAL DO MP ATIVO BELO HORIZONTE - COMARCA; SECRETARIA DO PROCON-MG 5.863,71 586,37 0,00 4.868,12 0,00 0,00 11.318,20 826,12 709,30 0,00 1.535,42 9.782,78 1.334,00 1.211,64 31/12/2018
157 502400 ANA CAROLINA GONCALVES FERNANDES ANALISTA DO MP ATIVO GRAO MOGOL - COMARCA; GRAO MOGOL-PJ-UNPJ 9.337,87 933,79 0,00 3.618,66 0,00 0,00 13.890,32 1.373,11 1.644,63 0,00 3.017,74 10.872,58 2.033,00 2.345,49 31/12/2018
158 529900 ANA CAROLINA GONCALVES PECANHA CHEQUER ANALISTA DO MP ATIVO MANHUAÇU - COMARCA; MANHUACU-PJ-04PJ 7.576,76 757,68 0,00 3.018,17 0,00 0,00 11.352,61 952,73 1.170,49 0,00 2.123,22 9.229,39 1.334,00 326,71 31/12/2018
159 431900 ANA CAROLINA MOTTA GUATIMOSIM ANALISTA DO MP ATIVO BELO HORIZONTE - COMARCA; GABINETE DE PROCURADOR DE JUSTIÇA - SALA 404 9.955,90 995,59 0,00 2.397,69 0,00 0,00 13.349,18 1.402,59 1.811,02 0,00 3.213,61 10.135,57 1.334,00 1.913,55 31/12/2018
160 490600 ANA CAROLINA XAVIER GODOY ANALISTA DO MP ATIVO BELO HORIZONTE - COMARCA; ASSESS TECNICO-JUR JUNTO AS PROC. DE JUST 9.337,87 933,79 0,00 3.618,66 0,00 0,00 13.890,32 1.373,11 1.644,63 0,00 3.017,74 10.872,58 1.334,00 2.211,27 31/12/2018
161 600300 ANA CAROLINE PEREIRA DINIZ ANALISTA DO MP ATIVO BELO HORIZONTE - COMARCA; COMB CRIMES PRAT POR AG POL MUN-SECRETARIA 7.576,76 757,68 0,00 2.178,07 0,00 0,00 10.512,51 1.108,29 1.170,49 0,00 2.278,78 8.233,73 2.732,00 1.740,91 31/12/2018
162 615800 ANA CAROLINE PEREIRA OLIVEIRA OFICIAL DO MP ATIVO ALFENAS - COMARCA; ALFENAS-PJ-06PJ 4.467,49 268,05 0,00 1.499,48 0,00 0,00 6.235,02 541,33 312,16 0,00 853,49 5.381,53 1.334,00 247,52 31/12/2018
163 324800 ANA CECILIA MENDES DA SILVA OFICIAL DO MP ATIVO OURO FINO - COMARCA; OURO FINO-PJ-01PJ 8.482,22 2.544,67 0,00 2.460,36 0,00 0,00 13.487,25 1.334,03 1.777,33 0,00 3.111,36 10.375,89 1.334,00 1.244,65 31/12/2018
164 441300 ANA CLAUDIA ALKIMIM MIRANDA BOMTEMPO ANALISTA DO MP ATIVO MONTES CLAROS - COMARCA; MONTES CLAROS-PJ-11PJ 9.955,90 995,59 0,00 2.501,97 0,00 0,00 13.453,46 1.402,59 1.706,74 0,00 3.109,33 10.344,13 1.334,00 1.799,38 31/12/2018
165 642500 ANA CLAUDIA DA COSTA NAVES OFICIAL DO MP ATIVO MONTE CARMELO - COMARCA; MONTE CARMELO-PJ-02PJ 3.569,91 0,00 0,00 1.234,59 0,00 0,00 4.804,50 392,69 121,78 0,00 514,47 4.290,03 2.033,00 139,94 31/12/2018
166 604900 ANA CLAUDIA OLIVEIRA DE MIRANDA OFICIAL DO MP ATIVO PONTE NOVA - COMARCA; PONTE NOVA-PJ-04PJ 4.058,04 243,48 0,00 1.443,32 0,00 0,00 5.744,84 629,33 191,01 0,00 820,34 4.924,50 1.334,00 1.607,00 31/12/2018
167 379300 ANA CRISTINA ALVES FLAVIO ANALISTA DO MP ATIVO SÃO GOTARDO - COMARCA; SAO GOTARDO-PJ-01PJ 11.317,16 2.263,43 0,00 2.816,75 0,00 0,00 16.397,34 1.723,75 2.402,35 0,00 4.126,10 12.271,24 2.732,00 2.089,89 31/12/2018
168 461200 ANA CRISTINA ALVES PASCHOAL ANALISTA DO MP ATIVO SANTA LUZIA - COMARCA; SANTA LUZIA-PJ-03PJ 9.337,87 933,79 0,00 2.354,96 0,00 0,00 12.626,62 1.174,17 1.592,49 0,00 2.766,66 9.859,96 1.334,00 402,65 31/12/2018
169 514100 ANA CRISTINA ARAUJO ASSUNCAO ANALISTA DO MP ATIVO BELO HORIZONTE - COMARCA; ASSESS JUR DO CONS SUPERIOR DO MINISTERIO PUB 8.482,22 848,22 0,00 6.705,95 0,00 0,00 16.036,39 1.365,15 1.362,13 0,00 2.727,28 13.309,11 2.732,00 3.381,47 31/12/2018
170 113400 ANA CRISTINA BRAGA ALBUQUERQUE ASSESSOR/ANALISTA ATIVO BELO HORIZONTE - COMARCA; ASSESS ESP ADM E FINANCEIRA DO PGJ ADJ ADM 27.903,47 13.951,74 0,00 5.295,29 0,00 0,00 47.150,50 3.351,82 6.588,44 11.384,10 21.324,36 25.826,14 1.334,00 0,00 31/12/2018
171 233800 ANA CRISTINA BRAGA SOARES RIOS OFICIAL DO MP ATIVO CONTAGEM - COMARCA; CONTAGEM-PJ-SECRETARIA 9.337,87 2.801,36 0,00 2.563,45 0,00 0,00 14.702,68 1.387,67 2.101,72 0,00 3.489,39 11.213,29 1.334,00 475,86 31/12/2018
172 186400 ANA CRISTINA DE AZEVEDO LOPES OFICIAL DO MP ATIVO UBÁ - COMARCA; UBA-PJ-01PJ 12.065,98 3.619,79 0,00 5.296,92 0,00 0,00 20.982,69 1.793,07 2.969,73 0,00 4.762,80 16.219,89 1.334,00 819,85 31/12/2018
173 465100 ANA CRISTINA DE OLIVEIRA GUIMARAES ANALISTA DO MP ATIVO BRASÓPOLIS - COMARCA; BRASOPOLIS-PJ-UNPJ 9.337,87 933,79 0,00 2.354,96 0,00 0,00 12.626,62 1.174,17 1.592,49 0,00 2.766,66 9.859,96 2.033,00 536,87 31/12/2018
174 500600 ANA CRISTINA LATADO SUDARIO ANALISTA DO MP ATIVO UBERLÂNDIA - COMARCA; UBERLANDIA-PJ-09PJ 9.337,87 933,79 0,00 2.302,82 0,00 0,00 12.574,48 1.373,11 1.644,63 0,00 3.017,74 9.556,74 1.334,00 2.211,27 31/12/2018
175 331400 ANA CRISTINA RIBEIRO ALVES OFICIAL DO MP ATIVO BAMBUÍ - COMARCA; BAMBUI-PJ-UNPJ 7.955,66 1.591,13 0,00 2.253,80 0,00 0,00 11.800,59 1.091,32 1.415,08 0,00 2.506,40 9.294,19 1.334,00 374,24 31/12/2018
176 249300 ANA ELOINA MARTINS OFICIAL DO MP ATIVO BETIM - COMARCA; SECRETARIA DAS PJS CRIMINAIS DE BETIM 9.955,90 3.982,36 0,00 4.755,22 0,00 0,00 18.693,48 1.785,12 2.542,03 0,00 4.327,15 14.366,33 1.334,00 2.617,55 31/12/2018
177 257400 ANA FLAVIA CAMBRAIA ANALISTA DO MP ATIVO BELO HORIZONTE - COMARCA; BH-19PJ SAUDE-SECRETARIA 150PJ 15.533,57 4.660,07 0,00 3.739,65 0,00 0,00 23.933,29 2.685,24 4.020,90 0,00 6.706,14 17.227,15 1.334,00 4.217,56 31/12/2018
178 248201 ANA FLAVIA DE MORAIS SOUZA ANALISTA DO MP ATIVO DIVINÓPOLIS - COMARCA; DIVINOPOLIS-PJ-01PJ 9.337,87 2.801,36 0,00 2.667,73 4.046,41 0,00 18.853,37 1.387,67 3.110,20 0,00 4.497,87 14.355,50 2.732,00 475,86 31/12/2018
179 621100 ANA FLAVIA DINIZ TEODORO OFICIAL DO MP ATIVO SANTA LUZIA - COMARCA; SANTA LUZIA-PJ-06PJ 4.467,49 268,05 0,00 3.774,44 0,00 0,00 8.509,98 572,89 312,16 0,00 885,05 7.624,93 1.334,00 534,50 31/12/2018
180 238600 ANA FLAVIA FRANCO OFICIAL DO MP ATIVO BELO HORIZONTE - COMARCA; DIRETORIA DE PESSOAL ADMINISTRATIVO - DPAD 10.279,98 3.083,99 0,00 4.577,21 0,00 0,00 17.941,18 2.097,67 2.401,47 0,00 4.499,14 13.442,04 1.334,00 6.312,15 31/12/2018
181 402900 ANA FLAVIA PORTES DE CARVALHO ANALISTA DO MP ATIVO BELO HORIZONTE - COMARCA; DIRET DE PLANOS PROJETOS E PROGRAMAS INST 11.317,16 2.263,43 0,00 3.360,42 0,00 0,00 16.941,01 1.723,75 2.402,35 0,00 4.126,10 12.814,91 1.334,00 2.089,89 31/12/2018
182 382700 ANA KARENINA SALDANHA GONTIJO ANALISTA DO MP ATIVO BELO HORIZONTE - COMARCA; ASSESS TECNICO-JUR JUNTO AS PROC. DE JUST 10.960,26 2.192,05 0,00 2.704,84 0,00 0,00 15.857,15 1.669,42 2.349,67 0,00 4.019,09 11.838,06 2.732,00 2.024,34 31/12/2018
183 620500 ANA KARINE DE ANDRADE OLIVEIRA ANALISTA DO MP ATIVO RIBEIRÃO DAS NEVES - COMARCA; SEC PJ EXECUCAO PENAL RIBEIRAO NEVES 6.251,74 375,10 0,00 1.794,17 0,00 0,00 8.421,01 801,69 752,56 0,00 1.554,25 6.866,76 1.334,00 661,22 31/12/2018
184 462200 ANA LUCIA ANDRADE TOMICH OTTONI ANALISTA DO MP ATIVO TEÓFILO OTONI - COMARCA; TEOFILO OTONI-PJ-06PJ 9.337,87 933,79 0,00 2.407,09 0,00 0,00 12.678,75 1.174,17 1.540,36 0,00 2.714,53 9.964,22 1.334,00 536,87 31/12/2018
185 504100 ANA LUCIA CATAO DE CARVALHO OFICIAL DO MP ATIVO BELO HORIZONTE - COMARCA; BH-09PJ AUDITORIA MILITAR-SECRETARIA 6.054,65 605,47 0,00 1.850,95 0,00 0,00 8.511,07 852,98 708,57 0,00 1.561,55 6.949,52 2.033,00 1.250,74 31/12/2018
186 274700 ANA LUCIA DE ALENCAR BRAGATO OFICIAL DO MP ATIVO UBERABA - COMARCA; UBERABA-PJ-07PJ 9.043,46 2.713,04 0,00 4.359,25 0,00 0,00 16.115,75 1.343,91 2.008,04 0,00 3.351,95 12.763,80 1.334,00 460,86 31/12/2018
187 220000 ANA LUCIA DE AMORIM OFICIAL DO MP ATIVO MARTINHO CAMPOS - COMARCA; MARTINHO CAMPOS-PJ-SECRETARIA 10.279,98 7.195,99 0,00 3.308,23 5.825,32 0,00 26.609,52 1.997,72 5.009,85 0,00 7.007,57 19.601,95 1.334,00 685,07 31/12/2018
188 509400 ANA LUCIA DORNELAS MALLOSTO ANALISTA DO MP ATIVO JUIZ DE FORA - COMARCA; JUIZ DE FORA-PJ-18PJ 8.482,22 848,22 0,00 2.223,62 0,00 0,00 11.554,06 1.219,74 1.362,13 0,00 2.581,87 8.972,19 1.334,00 1.758,16 31/12/2018
189 302600 ANA LUCIA LOPES SANTOS OFICIAL DO MP ATIVO BELO HORIZONTE - COMARCA; DIVISÃO DE FISCALIZAÇÃO DAS RELAÇÕES DE CONSU 8.482,22 1.696,44 0,00 2.631,72 0,00 0,00 12.810,38 1.231,40 1.938,30 0,00 3.169,70 9.640,68 2.908,64 2.534,83 31/12/2018
190 493400 ANA LUISA NOGUEIRA MOREIRA ANALISTA DO MP ATIVO BELO HORIZONTE - COMARCA; BH-19PJ SAUDE 9.337,87 933,79 0,00 2.302,82 0,00 0,00 12.574,48 1.373,11 1.644,63 0,00 3.017,74 9.556,74 1.334,00 2.211,27 31/12/2018
191 389300 ANA LUISA REUTER LIMA ANALISTA DO MP ATIVO BELO HORIZONTE - COMARCA; DIRETORIA DE SISTEMAS DE INFORMACAO 9.337,87 1.867,57 0,00 2.433,14 0,00 0,00 13.638,58 1.422,32 1.873,17 0,00 3.295,49 10.343,09 1.334,00 1.978,28 31/12/2018
192 480600 ANA LUIZA FERNANDES FRAGA E GRECO OFICIAL DO MP ATIVO BELO HORIZONTE - COMARCA; BH-23PJ CIVEL-SEC EXP CIVEIS 5.863,71 586,37 0,00 1.769,51 0,00 0,00 8.219,59 826,12 709,30 0,00 1.535,42 6.684,17 1.334,00 1.060,09 31/12/2018
193 517800 ANA LUIZA MAGALHAES CIRINO PIOTO DE MELO OFICIAL DO MP ATIVO BELO HORIZONTE - COMARCA; DIVISAO DE MANUTENCAO PREDIAL 4.467,49 268,05 0,00 2.639,95 0,00 0,00 7.375,49 534,52 312,16 0,00 846,68 6.528,81 2.033,00 185,64 31/12/2018
194 481400 ANA MARCIA CANDIDA FERREIRA OFICIAL DO MP ATIVO BRUMADINHO - COMARCA; BRUMADINHO-PJ-01PJ 4.995,72 499,57 0,00 1.636,25 0,00 0,00 7.131,54 666,00 475,61 0,00 1.141,61 5.989,93 1.334,00 631,13 31/12/2018
195 643100 ANA MARIA LOPES MIRANDA ANALISTA DO MP ATIVO BELO HORIZONTE - COMARCA; CAO-TS-TERCEIRO SETOR 6.054,65 0,00 0,00 1.728,00 0,00 0,00 7.782,65 621,04 624,88 0,00 1.245,92 6.536,73 2.033,00 237,35 31/12/2018
196 556400 ANA MARIA OLIVEIRA SOUZA OFICIAL DO MP ATIVO ITAPECERICA - COMARCA; ITAPECERICA-PJ-UNPJ 4.838,22 483,82 0,00 1.699,37 0,00 0,00 7.021,41 691,43 433,21 0,00 1.124,64 5.896,77 1.334,00 963,71 31/12/2018
197 409600 ANA OLIVIA FARIA ROSENBURG ANALISTA DO MP ATIVO BELO HORIZONTE - COMARCA; DIRETORIA DO COLEGIO E DA CAMARA DE PJ 11.317,16 3.395,15 0,00 2.922,54 4.904,10 0,00 22.538,95 1.681,79 4.080,11 0,00 5.761,90 16.777,05 1.334,00 576,73 31/12/2018
198 461500 ANA PAULA ALVES CARVALHO ANALISTA DO MP ATIVO UBERLÂNDIA - COMARCA; UBERLANDIA-PJ-25PJ 9.337,87 933,79 0,00 2.302,82 0,00 0,00 12.574,48 1.174,17 1.644,63 0,00 2.818,80 9.755,68 2.033,00 402,65 31/12/2018
199 523200 ANA PAULA ALVES DA SILVA OFICIAL DO MP ATIVO GOVERNADOR VALADARES - COMARCA; GOVERNADOR VALADARES-PJ-10PJ 5.863,71 586,37 0,00 1.821,65 0,00 0,00 8.271,73 826,12 657,16 0,00 1.483,28 6.788,45 2.033,00 1.060,09 31/12/2018
200 381200 ANA PAULA BARROS PEREIRA ANALISTA DO MP ATIVO BELO HORIZONTE - COMARCA; PROC JUST RECURSOS ESP E EXTRAORD CRIMINAIS 11.317,16 2.263,43 0,00 2.816,75 0,00 0,00 16.397,34 1.723,75 2.402,35 0,00 4.126,10 12.271,24 2.033,00 2.219,68 31/12/2018
201 227200 ANA PAULA DA SILVA CAMPOLINA ANALISTA DO MP ATIVO BELO HORIZONTE - COMARCA; DIRETORIA DE ORCAMENTO-DIOR/SPC 17.452,52 6.981,01 0,00 4.279,21 0,00 0,00 28.712,74 2.793,05 5.110,75 0,00 7.903,80 20.808,94 1.334,00 1.277,08 31/12/2018
202 84200 ANA PAULA DE SOUZA ROCHA OFICIAL DO MP ATIVO BELO HORIZONTE - COMARCA; SUPERINTENDENCIA DE RECURSOS HUMANOS 26.225,59 13.112,80 0,00 5.295,29 0,00 0,00 44.633,68 3.351,82 6.588,44 8.867,28 18.807,54 25.826,14 1.334,00 0,00 31/12/2018
203 278500 ANA PAULA DIAS CAPANEMA COORDENADOR/OFICIAL ATIVO BELO HORIZONTE - COMARCA; EXTINTA - DIRETORIA DE MATERIAL E PATRIMONIO 0,00 3.737,65 12.458,83 4.068,39 0,00 0,00 20.264,87 1.343,91 3.229,04 0,00 4.572,95 15.691,92 1.334,00 846,55 31/12/2018
204 327300 ANA PAULA GARCIA MAXIMO OFICIAL DO MP ATIVO UNAÍ - COMARCA; UNAI-PJ-01PJ 8.482,22 3.392,89 0,00 2.683,01 0,00 0,00 14.558,12 1.433,81 1.880,66 0,00 3.314,47 11.243,65 1.334,00 1.314,69 31/12/2018
205 270000 ANA PAULA GOULART CRUZ DE MAGALHAES ANALISTA DO MP ATIVO BELO HORIZONTE - COMARCA; COMB CRIMES PRAT POR AG POL MUN-ASSESSORIA 10.960,26 3.288,08 0,00 3.384,32 0,00 0,00 17.632,66 2.189,69 2.617,92 0,00 4.807,61 12.825,05 1.334,00 5.657,90 31/12/2018
206 262100 ANA PAULA KOMATSUZAKI ABIJAUDI ANALISTA DO MP ATIVO BELO HORIZONTE - COMARCA; BH-17PJ PATRIMONIO PUBLICO-SECRETARIA 15.533,57 6.213,43 0,00 4.008,56 0,00 0,00 25.755,56 2.891,78 4.348,94 0,00 7.240,72 18.514,84 1.334,00 4.826,17 31/12/2018
207 278900 ANA PAULA MOREIRA GURGEL ANALISTA DO MP ATIVO BELO HORIZONTE - COMARCA; DIRETORIA-GERAL 14.941,94 5.976,78 0,00 3.788,70 0,00 0,00 24.707,42 2.391,26 4.250,50 0,00 6.641,76 18.065,66 1.334,00 1.093,37 31/12/2018
208 425701 ANA PAULA ROCHA ANALISTA DO MP ATIVO BELO HORIZONTE - COMARCA; SUPERINTENDENCIA DE COMUNICACAO INTEGRADA 7.337,85 440,27 0,00 5.691,44 0,00 0,00 13.469,56 889,13 1.034,34 0,00 1.923,47 11.546,09 1.334,00 304,91 31/12/2018
209 395601 ANA PAULA SALGE OLIVEIRA ANALISTA DO MP ATIVO UBERABA - COMARCA; COORD REG PP TRIANGULO MINEIRO UBERABA 8.482,22 2.544,67 0,00 2.408,22 0,00 0,00 13.435,11 1.477,55 1.829,47 0,00 3.307,02 10.128,09 1.334,00 2.549,39 31/12/2018
210 473200 ANA PAULA SCOTTON BRASIL ANALISTA DO MP ATIVO JUIZ DE FORA - COMARCA; JUIZ DE FORA-PJ-03PJ 9.337,87 933,79 0,00 2.302,82 0,00 0,00 12.574,48 1.174,17 1.644,63 0,00 2.818,80 9.755,68 2.033,00 536,87 31/12/2018
211 633600 ANA PAULA SILVA FERNANDES OFICIAL DO MP ATIVO CATAGUASES - COMARCA; CATAGUASES-PJ-04PJ 3.930,12 235,81 0,00 1.381,47 0,00 0,00 5.547,40 476,21 201,35 0,00 677,56 4.869,84 1.334,00 163,31 31/12/2018
212 470900 ANA PAULA VALADARES ANALISTA DO MP ATIVO PITANGUI - COMARCA; PITANGUI-PJ-01PJ 9.337,87 933,79 0,00 3.670,79 0,00 0,00 13.942,45 1.174,17 1.540,36 0,00 2.714,53 11.227,92 1.334,00 402,65 31/12/2018
213 447000 ANA PAULA VALENTIM DE ARAUJO ANALISTA DO MP ATIVO BELO HORIZONTE - COMARCA; COMB CRIMES PRAT POR AG POL MUN-ASSESSORIA 9.337,87 933,79 0,00 2.302,82 3.423,89 0,00 15.998,37 1.174,17 2.586,20 0,00 3.760,37 12.238,00 1.334,00 402,65 31/12/2018
214 604200 ANA PAULA VIANA E SILVA OFICIAL DO MP ATIVO BELO HORIZONTE - COMARCA; BH-17PJ PATRIMONIO PUBLICO-SECRETARIA 4.467,49 446,75 0,00 2.005,66 0,00 0,00 6.919,90 727,88 347,95 0,00 1.075,83 5.844,07 2.033,00 1.892,86 31/12/2018
215 505400 ANA PAULA VIEIRA SOUTO OFICIAL DO MP ATIVO ALMENARA - COMARCA; COORD. PAT. PUBLICO-MUCURI/JEQUIT - ALMENARA 4.995,72 1.498,72 0,00 1.827,84 0,00 0,00 8.322,28 847,57 668,02 0,00 1.515,59 6.806,69 1.334,00 1.210,75 31/12/2018
216 280200 ANA RACHEL BRANDAO LADEIRA ROLAND DIRETOR/ANALISTA ATIVO BELO HORIZONTE - COMARCA; SUPRIN DE FORMACAO E APERFEICOAMENTO-SFA/CEAF 14.162,21 7.478,36 0,00 4.817,25 0,00 0,00 26.457,82 2.217,81 4.524,87 0,00 6.742,68 19.715,14 1.334,00 2.160,41 31/12/2018
217 601200 ANA REGINA RIBEIRO COORDENADOR/ANALISTA ATIVO BELO HORIZONTE - COMARCA; EXTINTA - DIVISAO DE SERVICOS GERAIS 0,00 1.096,03 10.960,26 3.106,19 0,00 0,00 15.162,48 1.006,75 2.217,11 0,00 3.223,86 11.938,62 1.334,00 1.757,33 31/12/2018
218 384700 ANA RODRIGUES PEREIRA MARRA ANALISTA DO MP ATIVO COROMANDEL - COMARCA; COROMANDEL-PJ-SECRETARIA 9.043,46 1.808,69 0,00 2.488,11 0,00 0,00 13.340,26 1.240,54 1.682,43 0,00 2.922,97 10.417,29 2.033,00 567,21 31/12/2018
219 232700 ANA SILVIA SEMBLANO NAKAMURA ASSESSOR/OFICIAL ATIVO BELO HORIZONTE - COMARCA; CENT DE APOIO TEC-SETOR DEF,IDOSO E INFANC 0,00 2.892,58 9.641,94 2.648,91 0,00 0,00 15.183,43 1.387,67 2.210,42 0,00 3.598,09 11.585,34 1.334,00 655,15 31/12/2018
220 602100 ANACLETO FRANCISCO MARCIER PIMENTA OFICIAL DO MP ATIVO SÃO JOÃO DEL REI - COMARCA; SAO JOAO DEL REI-PJ-03PJ 4.467,49 446,75 0,00 4.040,46 1.638,08 0,00 10.592,78 653,50 575,32 0,00 1.228,82 9.363,96 2.732,00 1.026,66 31/12/2018
221 310400 ANADEJE DO CARMO DINIZ ARAUJO OFICIAL DO MP ATIVO BELO HORIZONTE - COMARCA; DIRETORIA DE PESSOAL ADMINISTRATIVO - DPAD 8.214,70 1.642,94 0,00 2.245,05 0,00 0,00 12.102,69 1.126,85 1.543,30 0,00 2.670,15 9.432,54 1.334,00 515,23 31/12/2018
222 337000 ANAILDES MARIA MENDES OFICIAL DO MP ATIVO JANAÚBA - COMARCA; JANAUBA-PJ-02PJ 8.214,70 1.642,94 0,00 2.245,05 0,00 0,00 12.102,69 1.126,85 1.543,30 0,00 2.670,15 9.432,54 2.033,00 515,23 31/12/2018
223 192900 ANATALIA CERQUEIRA LIMA PERES OFICIAL DO MP ATIVO UBERABA - COMARCA; COORD REG SAUDE MACROR SANIT TRIANGULO SUL 9.641,94 2.892,58 0,00 2.618,63 0,00 0,00 15.153,15 1.432,85 2.198,46 0,00 3.631,31 11.521,84 1.334,00 491,36 31/12/2018
224 377400 ANDEIRSON DA MATTA BARBOSA ANALISTA DO MP ATIVO POUSO ALEGRE - COMARCA; POUSO ALEGRE-PJ-01PJ 9.337,87 1.867,57 0,00 2.433,14 0,00 0,00 13.638,58 1.280,92 1.873,17 0,00 3.154,09 10.484,49 1.334,00 439,26 31/12/2018
225 317400 ANDERSON DA SILVA BICALHO OFICIAL DO MP ATIVO CONTAGEM - COMARCA; COORD REG DEF ORDEM ECONOMICA TRIB CONTAGEM 7.576,76 1.515,35 0,00 3.331,24 3.030,70 0,00 15.454,05 1.039,34 2.032,97 0,00 3.072,31 12.381,74 2.033,00 356,42 31/12/2018
226 506900 ANDERSON DE SOUZA DAMIANI ANALISTA DO MP ATIVO BELO HORIZONTE - COMARCA; DIRETORIA DE PAGAMENTO DE PESSOAL-DPAG 9.337,87 2.801,36 0,00 2.667,73 0,00 0,00 14.806,96 1.622,79 1.997,44 0,00 3.620,23 11.186,73 2.033,00 2.613,32 31/12/2018
227 410000 ANDERSON DE SOUZA NETO ASSESSOR ATIVO BELO HORIZONTE - COMARCA; DIRETORIA DE ADMINISTRACAO FINANCEIRA 0,00 0,00 4.763,08 2.007,90 0,00 0,00 6.770,98 1.124,44 512,80 0,00 1.637,24 5.133,74 1.334,00 248,96 31/12/2018
228 181900 ANDERSON FLAVIO DE OLIVEIRA OFICIAL DO MP ATIVO ITAGUARA - COMARCA; ITAGUARA-PJ-SECRETARIA 11.317,16 3.395,15 0,00 2.922,54 0,00 0,00 17.634,85 1.681,79 2.731,48 0,00 4.413,27 13.221,58 1.334,00 576,73 31/12/2018
229 119500 ANDERSON FUNGHI DE AZEVEDO ROCHA OFICIAL DO MP ATIVO BELO HORIZONTE - COMARCA; GABINETE DE SEGURANCA E INTELIGENCIA 14.372,91 11.498,32 0,00 6.514,34 0,00 2.845,84 35.231,41 2.957,40 6.245,23 0,00 9.202,63 26.028,78 1.334,00 1.463,79 31/12/2018
230 333200 ANDERSON JOSE DE FREITAS OFICIAL DO MP ATIVO IPATINGA - COMARCA; IPATINGA-PJ-07PJ 8.214,70 1.642,94 0,00 2.639,05 0,00 0,00 12.496,69 1.126,85 1.807,59 0,00 2.934,44 9.562,25 2.033,00 1.779,21 31/12/2018
231 462100 ANDERSON LUIZ GUIMARAES CARDOSO ANALISTA DO MP ATIVO BARBACENA - COMARCA; BARBACENA-PJ-02PJ 9.337,87 933,79 0,00 3.618,66 0,00 0,00 13.890,32 1.174,17 1.644,63 0,00 2.818,80 11.071,52 1.334,00 536,87 31/12/2018
232 429700 ANDERSON MELO DE SOUZA OFICIAL DO MP ATIVO BELO HORIZONTE - COMARCA; DIRET DE ESTAGIOS E CONVENIOS ACADEMICOS 5.678,79 567,88 0,00 1.741,11 0,00 0,00 7.987,78 714,07 659,51 0,00 1.373,58 6.614,20 1.334,00 326,49 31/12/2018
233 545600 ANDERSON MENDES PROCOPIO FERREIRA ANALISTA DO MP ATIVO BELO HORIZONTE - COMARCA; BH-12PJ JUIZO CRIMINAL-GAB 089PJ 7.576,76 757,68 0,00 2.032,47 0,00 0,00 10.366,91 952,73 1.170,49 0,00 2.123,22 8.243,69 1.334,00 326,71 31/12/2018
234 519900 ANDERSON MOREIRA DOEHLER ANALISTA DO MP ATIVO TEÓFILO OTONI - COMARCA; TEOFILO OTONI-PJ-07PJ 7.823,48 2.347,04 0,00 2.288,71 0,00 0,00 12.459,23 1.343,64 1.619,87 0,00 2.963,51 9.495,72 1.334,00 2.044,25 31/12/2018
235 103000 ANDERSON TADEU DE DEUS ASSESSOR ATIVO BELO HORIZONTE - COMARCA; BH-23PJ DEF DIR CRIAN ADOL 0,00 3.334,16 4.763,08 2.790,61 0,00 0,00 10.887,85 1.242,08 1.429,70 0,00 2.671,78 8.216,07 1.334,00 317,42 31/12/2018
236 309200 ANDITYAS SOARES DE MOURA COSTA MATOS ANALISTA DO MP ATIVO BELO HORIZONTE - COMARCA; GABINETE DE PROCURADOR DE JUSTIÇA - SALA 909 11.685,57 3.505,67 0,00 2.989,38 0,00 0,00 18.180,62 1.929,52 2.848,70 0,00 4.778,22 13.402,40 1.334,00 2.694,56 31/12/2018
237 519200 ANDRE BORJA LANA COORDENADOR/ANALISTA ATIVO BELO HORIZONTE - COMARCA; DIRETORIA DE IMPRENSA 0,00 1.245,88 12.458,83 3.013,55 0,00 0,00 16.718,26 1.337,99 2.597,26 0,00 3.935,25 12.783,01 1.334,00 2.345,85 31/12/2018
238 637200 ANDRE FERNANDES DA CUNHA OFICIAL DO MP ATIVO MORADA NOVA DE MINAS - COMARCA; MORADA NOVA DE MINAS-PJ-UNPJ 4.326,60 259,60 0,00 1.595,37 0,00 0,00 6.181,57 504,48 282,26 0,00 786,74 5.394,83 1.334,00 422,14 31/12/2018
239 651500 ANDRE GONCALVES MARANHAO OFICIAL DO MP ATIVO JACINTO - COMARCA; JACINTO-PJ-SECRETARIA 3.457,37 0,00 0,00 2.867,78 0,00 0,00 6.325,15 419,00 106,76 0,00 525,76 5.799,39 1.334,00 396,97 31/12/2018
240 521900 ANDRE LUIS GOMES SILVA ANALISTA DO MP ATIVO FORMIGA - COMARCA; FORMIGA-PJ-02PJ 8.482,22 848,22 0,00 2.223,62 0,00 0,00 11.554,06 1.066,58 980,32 0,00 2.046,90 9.507,16 1.334,00 365,76 31/12/2018
241 304300 ANDRE LUIZ AVELAR ANALISTA DO MP ATIVO BELO HORIZONTE - COMARCA; DIRETORIA DE REDES E BANCOS DE DADOS 7.823,48 1.564,70 0,00 3.344,80 0,00 0,00 12.732,98 1.073,18 1.428,40 0,00 2.501,58 10.231,40 1.334,00 490,69 31/12/2018
242 397400 ANDRE PATARO MYRRHA DE PAULA E SILVA ANALISTA DO MP ATIVO BELO HORIZONTE - COMARCA; ASSESSORIA JURIDICO-ADMINISTRATIVA 11.317,16 2.263,43 0,00 2.764,61 0,00 0,00 16.345,20 1.723,75 2.454,49 0,00 4.178,24 12.166,96 2.033,00 2.397,14 31/12/2018
243 650100 ANDRE THOME VARGAS OFICIAL DO MP ATIVO LEOPOLDINA - COMARCA; LEOPOLDINA-PJ-04PJ 3.806,17 0,00 0,00 1.321,24 0,00 0,00 5.127,41 471,08 153,32 0,00 624,40 4.503,01 1.334,00 754,73 31/12/2018
244 548500 ANDRE VINICIUS CARVALHO MEIRA ANALISTA DO MP ATIVO JUIZ DE FORA - COMARCA; JUIZ DE FORA-PJ-25PJ 7.576,76 757,68 0,00 2.032,47 0,00 0,00 10.366,91 1.108,29 1.170,49 0,00 2.278,78 8.088,13 1.334,00 1.740,91 31/12/2018
245 297200 ANDRE WILLE ROSARIO ANALISTA DO MP ATIVO BELO HORIZONTE - COMARCA; ASSESSORIA ESPECIAL DO PGJ 14.162,21 2.832,44 0,00 3.345,34 0,00 0,00 20.339,99 2.154,98 3.399,72 0,00 5.554,70 14.785,29 1.334,00 2.818,19 31/12/2018
246 423600 ANDREA COSTA GUALBERTO ANALISTA DO MP ATIVO GOVERNADOR VALADARES - COMARCA; COORD REG PJ DEF EDU DIR CRIANCA ADOL RIODOCE 10.279,98 7.195,99 0,00 11.755,80 0,00 0,00 29.231,77 1.997,72 3.355,75 0,00 5.353,47 23.878,30 1.334,00 913,43 31/12/2018
247 198600 ANDREA CRISTINA ANDRADE COSTA E SOUZA OFICIAL DO MP ATIVO MONTES CLAROS - COMARCA; MONTES CLAROS-PJ-15PJ 12.065,98 3.619,79 0,00 3.110,54 0,00 0,00 18.796,31 2.462,08 2.917,60 0,00 5.379,68 13.416,63 1.334,00 7.408,55 31/12/2018
248 467300 ANDREA DE CASSIA PENNA ALVERNAZ ANALISTA DO MP ATIVO PONTE NOVA - COMARCA; PONTE NOVA-PJ-01PJ 9.337,87 933,79 0,00 2.354,96 0,00 0,00 12.626,62 1.174,17 1.592,49 0,00 2.766,66 9.859,96 1.334,00 536,87 31/12/2018
249 308000 ANDREA DE CASSIA SANTOS OLIVEIRA ANALISTA DO MP ATIVO BELO HORIZONTE - COMARCA; ASSESS TECNICO-JUR JUNTO AS PROC. DE JUST 13.715,83 2.743,17 0,00 3.218,44 0,00 0,00 19.677,44 1.881,46 3.106,84 0,00 4.988,30 14.689,14 2.033,00 645,20 31/12/2018
250 349500 ANDREA DE OLIVEIRA OFICIAL DO MP ATIVO IGUATAMA - COMARCA; IGUATAMA-PJ-UNPJ 7.823,48 1.564,70 0,00 2.231,67 0,00 0,00 11.619,85 1.140,23 1.376,26 0,00 2.516,49 9.103,36 1.334,00 1.028,38 31/12/2018
251 254700 ANDREA EMISE REIS DE AZEVEDO OFICIAL DO MP ATIVO BELO HORIZONTE - COMARCA; SUPERINTENDENCIA DE RECURSOS HUMANOS 9.641,94 2.892,58 0,00 2.992,38 0,00 0,00 15.526,90 1.597,31 2.198,46 0,00 3.795,77 11.731,13 1.334,00 1.986,38 31/12/2018
252 287900 ANDREA FERNANDES PENA MARTINS OFICIAL DO MP ATIVO MONTES CLAROS - COMARCA; MONTES CLAROS-PJ-09PJ 9.337,87 1.867,57 0,00 2.537,41 0,00 0,00 13.742,85 1.497,96 1.768,90 0,00 3.266,86 10.475,99 1.334,00 2.558,72 31/12/2018
253 300800 ANDREA FERREIRA ANALISTA DO MP ATIVO LAVRAS - COMARCA; LAVRAS-PJ-04PJ 13.283,29 2.656,66 0,00 10.751,39 0,00 0,00 26.691,34 1.822,12 3.031,94 0,00 4.854,06 21.837,28 1.334,00 624,85 31/12/2018
254 316700 ANDREA FRANCISCA DIAS DE SOUZA ASSESSOR ATIVO BELO HORIZONTE - COMARCA; ASSESSORIA TECNICA DO PROCON-MG 0,00 0,00 2.852,73 1.471,66 0,00 0,00 4.324,39 670,02 142,21 0,00 812,23 3.512,16 2.033,00 111,83 31/12/2018
255 395100 ANDREA LANNA MENDES NOVAIS ANALISTA DO MP ATIVO BELO HORIZONTE - COMARCA; PROMOT ESTADUAL DE DEF PATRI CULT E TUR DE MG 11.685,57 2.337,11 0,00 9.614,92 0,00 0,00 23.637,60 1.602,96 2.510,56 0,00 4.113,52 19.524,08 1.334,00 549,70 31/12/2018
256 67300 ANDREA LEAO MAGALHAES ROQUE ASSESSOR ATIVO BELO HORIZONTE - COMARCA; PROCURADOR-GERAL ADJ INSTITUCIONAL- GABINETE 0,00 6.749,36 9.641,94 4.635,74 5.463,77 0,00 26.490,81 1.242,08 5.160,96 0,00 6.403,04 20.087,77 1.334,00 642,55 31/12/2018
257 335700 ANDREA LOPES PEREIRA ANALISTA DO MP ATIVO GOVERNADOR VALADARES - COMARCA; COORD REG DO MA DA BACIA DO RIO DOCE 13.283,29 2.656,66 0,00 3.093,86 0,00 0,00 19.033,81 2.041,55 3.031,94 0,00 5.073,49 13.960,32 1.334,00 2.619,65 31/12/2018
258 389200 ANDREA TUPINI DOS SANTOS TRISTAO DA ROCHA ASSESSOR/OFICIAL ATIVO BELO HORIZONTE - COMARCA; BH-13ª PJ JUÍZO DE TÓXICOS-SECRETARIA 0,00 964,19 9.641,94 2.765,38 0,00 0,00 13.371,51 669,75 1.817,95 0,00 2.487,70 10.883,81 1.334,00 415,77 31/12/2018
259 419000 ANDREIA BARBOSA DE ALMEIDA ANALISTA DO MP ATIVO BELO HORIZONTE - COMARCA; GABINETE DE PROCURADOR DE JUSTIÇA - SALA 705 10.279,98 2.056,00 0,00 2.447,45 0,00 0,00 14.783,43 1.631,88 2.149,87 0,00 3.781,75 11.001,68 2.033,00 2.989,71 31/12/2018
260 281501 ANDREIA CARLA COSTA FILGUEIRAS ANALISTA DO MP ATIVO VISCONDE DO RIO BRANCO - COMARCA; VISCONDE DO RIO BRANCO-PJ-02PJ 11.317,16 2.263,43 0,00 3.360,42 0,00 0,00 16.941,01 1.552,42 2.402,35 0,00 3.954,77 12.986,24 1.334,00 709,83 31/12/2018
261 643600 ANDREIA CRISTINA SILVA OFICIAL DO MP ATIVO PARACATU - COMARCA; PARACATU-PJ-01PJ 3.569,91 0,00 0,00 1.234,59 0,00 0,00 4.804,50 392,69 121,78 0,00 514,47 4.290,03 1.334,00 139,94 31/12/2018
262 477100 ANDREIA DE ALMEIDA RIBEIRO MELO OFICIAL DO MP ATIVO CONTAGEM - COMARCA; CONTAGEM-PJ-07PJ 6.054,65 1.210,93 0,00 1.883,32 0,00 0,00 9.148,90 922,19 908,89 0,00 1.831,08 7.317,82 2.033,00 1.118,02 31/12/2018
263 619000 ANDREIA FERREIRA NORONHA COORDENADOR/OFICIAL ATIVO BELO HORIZONTE - COMARCA; DIRETORIA DE SERVICO CRIMINAL 0,00 747,53 12.458,83 3.345,66 0,00 0,00 16.552,02 557,11 2.614,80 0,00 3.171,91 13.380,11 1.334,00 690,27 31/12/2018
264 424000 ANDREIA LUCIA COUTO ANALISTA DO MP ATIVO BELO HORIZONTE - COMARCA; BH-18PJ DIREITOS HUMANOS 11.317,16 1.131,72 0,00 2.606,67 0,00 0,00 15.055,55 1.493,49 2.334,21 0,00 3.827,70 11.227,85 1.334,00 1.128,26 31/12/2018
265 370100 ANDREIA MARIA SILVA PINTO OFICIAL DO MP ATIVO CORONEL FABRICIANO - COMARCA; CORONEL FABRICIANO-PJ-01PJ 7.337,85 1.467,57 0,00 2.098,20 0,00 0,00 10.903,62 1.319,98 1.285,77 0,00 2.605,75 8.297,87 1.334,00 3.431,81 31/12/2018
266 382100 ANDREIA NATALI PEREIRA OFICIAL DO MP ATIVO PRADOS - COMARCA; PRADOS-PJ-UNPJ 7.337,85 1.467,57 0,00 2.098,20 0,00 0,00 10.903,62 1.006,57 1.285,77 0,00 2.292,34 8.611,28 1.334,00 345,18 31/12/2018
267 275200 ANDREIA RIBEIRO FREITAS OFICIAL DO MP ATIVO VIÇOSA - COMARCA; VICOSA-PJ-03PJ 9.043,46 2.713,04 0,00 2.562,18 0,00 0,00 14.318,68 1.343,91 1.955,90 0,00 3.299,81 11.018,87 1.334,00 460,86 31/12/2018
268 352200 ANDREIA XAVIER PEREIRA OFICIAL DO MP ATIVO CLÁUDIO - COMARCA; CLAUDIO-PJ-UNPJ 7.823,48 1.564,70 0,00 2.179,53 3.129,39 0,00 14.697,10 1.140,23 2.288,98 0,00 3.429,21 11.267,89 1.334,00 1.028,38 31/12/2018
269 638500 ANDRESA ALVES FEITOSA CASAGRANDE ANALISTA DO MP ATIVO PERDÕES - COMARCA; PERDOES-PJ-UNPJ 6.665,41 399,92 0,00 1.946,48 0,00 0,00 9.011,81 750,14 902,82 0,00 1.652,96 7.358,85 2.033,00 1.450,61 31/12/2018
270 383700 ANDRESSA EDUARDO SOUZA ANALISTA DO MP ATIVO OURO BRANCO - COMARCA; OURO BRANCO-PJ-SECRETARIA 11.317,16 2.263,43 0,00 4.644,35 0,00 0,00 18.224,94 1.723,75 2.454,49 0,00 4.178,24 14.046,70 2.732,00 2.089,89 31/12/2018
271 426200 ANDRESSA MENDES CASAL OFICIAL DO MP ATIVO BELO HORIZONTE - COMARCA; DIR ESTRUTURA E PROCESSOS ORGANIZACIONAIS 6.054,65 605,47 0,00 1.798,82 0,00 0,00 8.458,94 761,33 760,71 0,00 1.522,04 6.936,90 1.334,00 261,08 31/12/2018
272 390100 ANDRESSA RIBEIRO PUCCI OFICIAL DO MP ATIVO UBERABA - COMARCA; UBERABA-PJ-14PJ 5.863,71 586,37 0,00 2.434,07 0,00 0,00 8.884,15 737,32 709,30 0,00 1.446,62 7.437,53 1.334,00 252,85 31/12/2018
273 462500 ANDREZA APARECIDA COSTA E SILVA ANALISTA DO MP ATIVO CONSELHEIRO LAFAIETE - COMARCA; CONSELHEIRO LAFAIETE-PJ-02PJ 9.337,87 933,79 0,00 2.302,82 0,00 0,00 12.574,48 1.174,17 1.644,63 0,00 2.818,80 9.755,68 1.334,00 402,65 31/12/2018
274 537800 ANDREZZA LUZIA DE OLIVEIRA ALVES ANALISTA DO MP ATIVO PATOS DE MINAS - COMARCA; COORD REG PJ DEF EDU DIR CRI ADO AL PAR NOROE 7.576,76 757,68 0,00 2.136,75 0,00 0,00 10.471,19 952,73 1.066,22 0,00 2.018,95 8.452,24 1.334,00 326,71 31/12/2018
275 491600 ANE PATRICIA RIBEIRO ANALISTA DO MP ATIVO SETE LAGOAS - COMARCA; SETE LAGOAS-PJ-11PJ 9.337,87 933,79 0,00 3.644,73 0,00 0,00 13.916,39 1.373,11 1.592,49 0,00 2.965,60 10.950,79 1.334,00 2.211,27 31/12/2018
276 465800 ANELISE GAMA ASSESSOR ATIVO BELO HORIZONTE - COMARCA; BH-18PJ VIOLENCIA DOMESTICA-SECRETARIA 0,00 0,00 4.763,08 2.399,75 0,00 0,00 7.162,83 1.124,44 512,80 0,00 1.637,24 5.525,59 1.334,00 186,72 31/12/2018
277 535200 ANELIZE FERNANDA ALVES VILARINHO OFICIAL DO MP ATIVO CAPINÓPOLIS - COMARCA; CAPINOPOLIS-PJ-UNPJ 4.467,49 446,75 0,00 1.532,06 0,00 0,00 6.446,30 561,76 347,95 0,00 909,71 5.536,59 2.033,00 256,85 31/12/2018
278 197200 ANGELA COELHO SALDANHA OFICIAL DO MP ATIVO PARÁ DE MINAS - COMARCA; PARA DE MINAS-PJ-03PJ 13.283,29 5.313,32 0,00 4.102,75 6.198,87 0,00 28.898,23 2.125,82 5.386,85 0,00 7.512,67 21.385,56 1.334,00 729,00 31/12/2018
279 307400 ANGELA CRISTINA GONCALVES MUNIZ ANALISTA DO MP ATIVO UBERLÂNDIA - COMARCA; UBERLANDIA-PJ-SEC FAMILIA 14.162,21 4.248,66 0,00 3.490,84 6.136,96 0,00 28.038,67 2.227,25 5.272,23 0,00 7.499,48 20.539,19 2.033,00 1.836,80 31/12/2018
280 191800 ANGELA MARIA DE OLIVEIRA OFICIAL DO MP ATIVO GUARANÉSIA - COMARCA; GUARANESIA-PJ-SECRETARIA 13.283,29 6.641,65 0,00 3.702,13 0,00 0,00 23.627,07 2.277,66 3.955,13 0,00 6.232,79 17.394,28 1.334,00 1.041,43 31/12/2018
281 69900 ANGELA MARIA DE PAULA CUNHA OFICIAL DO MP ATIVO JUIZ DE FORA - COMARCA; JUIZ DE FORA-PJ-01PJ 13.715,83 9.601,08 0,00 5.909,99 0,00 2.564,86 31.791,76 2.665,40 5.542,79 0,00 8.208,19 23.583,57 1.334,00 1.319,25 31/12/2018
282 497400 ANGELA MARIA HENRIQUES ANALISTA DO MP ATIVO BELO HORIZONTE - COMARCA; COORD REG BACIAS RIO VELHAS E PARAOPEBA 9.337,87 933,79 0,00 2.302,82 0,00 0,00 12.574,48 1.373,11 1.644,63 0,00 3.017,74 9.556,74 1.334,00 2.211,27 31/12/2018
283 260700 ANGELICA CRISTINA AZEVEDO MOREIRA MOUCO OFICIAL DO MP ATIVO UBÁ - COMARCA; UBA-PJ-05PJ 9.955,90 2.986,77 0,00 2.675,58 0,00 0,00 15.618,25 1.643,91 2.298,36 0,00 3.942,27 11.675,98 1.334,00 2.002,00 31/12/2018
284 334600 ANGELICA PANISSA DE FREITAS OFICIAL DO MP ATIVO GUAXUPÉ - COMARCA; GUAXUPE-PJ-02PJ 8.214,70 2.464,41 0,00 2.359,68 0,00 0,00 13.038,79 1.367,78 1.744,35 0,00 3.112,13 9.926,66 1.334,00 2.006,15 31/12/2018
285 521100 ANGELICA SALES MOREIRA OFICIAL DO MP ATIVO BELO HORIZONTE - COMARCA; BH-02PJ FAMILIA-SECRETARIA 5.863,71 586,37 0,00 1.769,51 0,00 0,00 8.219,59 826,12 709,30 0,00 1.535,42 6.684,17 1.334,00 1.060,09 31/12/2018
286 466500 ANGELLO MARQUES AGRELLI ANALISTA DO MP ATIVO MAR DE ESPANHA - COMARCA; MAR DE ESPANHA-PJ-UNPJ 9.337,87 933,79 0,00 2.302,82 0,00 0,00 12.574,48 1.174,17 1.644,63 0,00 2.818,80 9.755,68 1.334,00 402,65 31/12/2018
287 363300 ANGELO VERDOLIN HENRIQUES ANALISTA DO MP ATIVO SETE LAGOAS - COMARCA; SETE LAGOAS-PJ-04PJ 12.065,98 3.619,79 0,00 5.296,92 0,00 0,00 20.982,69 2.462,08 2.969,73 0,00 5.431,81 15.550,88 2.033,00 6.696,77 31/12/2018
288 250900 ANISIO APARECIDO SANTOS OFICIAL DO MP ATIVO MARIANA - COMARCA; MARIANA-PJ-02PJ 5.678,79 1.703,64 0,00 2.442,00 0,00 0,00 9.824,43 843,90 352,24 0,00 1.196,14 8.628,29 1.334,00 289,40 31/12/2018
289 651200 ANITA MARIA SANT ANA DE MATTOS FONTES OFICIAL DO MP ATIVO ERVÁLIA - COMARCA; ERVALIA-PJ-UNPJ 3.806,17 2.664,32 0,00 4.932,92 0,00 0,00 11.403,41 794,67 662,16 0,00 1.456,83 9.946,58 1.334,00 753,87 31/12/2018
290 253400 ANNA FLAVIA LEHMAN BATTAGLIA ANALISTA DO MP ATIVO BELO HORIZONTE - COMARCA; CAO-PATRIMONIO PUBLICO 15.533,57 4.660,07 0,00 3.843,92 0,00 0,00 24.037,56 2.685,24 3.916,62 0,00 6.601,86 17.435,70 1.334,00 4.481,43 31/12/2018
291 447600 ANNGELUCE ALCANTARA DE CAMPOS OFICIAL DO MP ATIVO DIVINÓPOLIS - COMARCA; DIVINOPOLIS-PJ-SECRETARIA 5.678,79 1.135,76 0,00 1.820,37 0,00 0,00 8.634,92 778,98 798,50 0,00 1.577,48 7.057,44 1.334,00 356,17 31/12/2018
292 119600 ANSELMO BORGES PARREIRAS OFICIAL DO MP ATIVO BONFIM - COMARCA; BONFIM-PJ-UNPJ 6.455,21 5.164,16 0,00 2.543,05 3.873,12 0,00 18.035,54 1.328,23 2.987,45 0,00 4.315,68 13.719,86 1.334,00 455,49 31/12/2018
293 630300 ANTONIA GOMES RAMALHO OFICIAL DO MP ATIVO NOVO CRUZEIRO - COMARCA; NOVO CRUZEIRO-PJ-UNPJ 4.326,60 259,60 0,00 3.675,46 0,00 0,00 8.261,66 587,39 282,26 0,00 869,65 7.392,01 1.334,00 753,74 31/12/2018
294 332400 ANTONIA MARIA MAMEDE OFICIAL DO MP ATIVO UBERLÂNDIA - COMARCA; COORD REG PP TRIANGULO MINEIRO UBERLANDIA 7.955,66 1.591,13 0,00 3.393,97 0,00 0,00 12.940,76 1.091,32 1.467,22 0,00 2.558,54 10.382,22 1.334,00 498,99 31/12/2018
295 401600 ANTONIO CARLOS GUEDES AROUCA ANALISTA DO MP ATIVO BELO HORIZONTE - COMARCA; COORD EST DEF DIR FAMILIA PESSOA DEFICI IDOSO 10.279,98 1.028,00 0,00 2.447,45 0,00 0,00 13.755,43 1.292,64 1.898,27 0,00 3.190,91 10.564,52 1.334,00 443,28 31/12/2018
296 7100 ANTONIO DO NASCIMENTO OLIVEIRA ASSESSOR ATIVO BELO HORIZONTE - COMARCA; ASSESS EXECUTIVA DO CONSELHO SUPERIOR DO MP 0,00 2.852,73 2.852,73 2.268,59 0,00 0,00 7.974,05 1.224,04 399,26 0,00 1.623,30 6.350,75 1.334,00 223,66 31/12/2018
297 333900 ANTONIO GONCALVES DE SOUZA FILHO OFICIAL DO MP ATIVO BELO HORIZONTE - COMARCA; DIRETORIA DE CONTABILIDADE 7.823,48 1.564,70 0,00 2.179,53 0,00 0,00 11.567,71 1.140,23 1.428,40 0,00 2.568,63 8.999,08 1.334,00 977,58 31/12/2018
298 176100 ANTONIO MARCELO CAMPOS CAMPANELLA OFICIAL DO MP ATIVO BELO HORIZONTE - COMARCA; DIRET DE DESENV DE RECURSOS HUMANOS-DDRH 13.283,29 5.313,32 0,00 3.464,62 0,00 0,00 22.061,23 2.125,82 3.682,16 0,00 5.807,98 16.253,25 1.334,00 729,00 31/12/2018
299 321001 ANTONIO OLINTO VIEIRA MACHADO ANALISTA DO MP ATIVO BELO HORIZONTE - COMARCA; CENTRAL DE APOIO TECN-SETOR DE MEIO AMBIENTE 11.685,57 2.337,11 0,00 2.982,72 0,00 0,00 17.005,40 1.602,96 2.406,28 0,00 4.009,24 12.996,16 1.334,00 549,70 31/12/2018
300 356200 ANTONIO PAULA DA SILVA OFICIAL DO MP ATIVO JUIZ DE FORA - COMARCA; JUIZ DE FORA-PJ-20PJ 7.576,76 2.273,03 0,00 2.243,96 0,00 0,00 12.093,75 1.125,95 1.541,38 0,00 2.667,33 9.426,42 1.334,00 386,12 31/12/2018
301 119900 ANTONIO RODRIGUES DE PINHO OFICIAL DO MP ATIVO GUANHÃES - COMARCA; GUANHAES-PJ-01PJ 12.065,98 8.446,19 0,00 13.690,24 0,00 0,00 34.202,41 2.344,79 4.046,72 0,00 6.391,51 27.810,90 2.033,00 804,09 31/12/2018
302 373300 ANTONIO SERGIO ANANIAS OFICIAL DO MP ATIVO AIURUOCA - COMARCA; AIURUOCA-PJ-UNPJ 6.882,47 1.376,49 0,00 2.126,22 0,00 0,00 10.385,18 1.048,29 1.047,74 0,00 2.096,03 8.289,15 1.334,00 1.457,73 31/12/2018
303 608100 ANTONIO SIDINEY VIEIRA LEMOS ANALISTA DO MP ATIVO PIRAPORA - COMARCA; PIRAPORA-PJ-01PJ 6.882,47 2.752,99 0,00 2.214,04 0,00 0,00 11.849,50 1.101,45 1.488,92 0,00 2.590,37 9.259,13 1.334,00 377,71 31/12/2018
304 374700 ANTONIO SILVA NETO OFICIAL DO MP ATIVO BELO HORIZONTE - COMARCA; GAECO - SECRETARIA 7.106,49 1.421,30 0,00 2.059,46 0,00 0,00 10.587,25 1.082,42 1.217,82 0,00 2.300,24 8.287,01 1.334,00 1.312,33 31/12/2018
305 636700 ANTONIUS VITORIANO FERNANDES OFICIAL DO MP ATIVO BELO HORIZONTE - COMARCA; ASSESSORIA JURIDICA DO PROCON-MG 3.930,12 235,81 0,00 3.382,79 0,00 0,00 7.548,72 458,25 201,35 0,00 659,60 6.889,12 1.334,00 163,31 31/12/2018
306 413200 ANY PEREIRA SILVA ANALISTA DO MP ATIVO TRÊS PONTAS - COMARCA; TRES PONTAS-PJ-01PJ 9.955,90 1.991,18 0,00 3.067,05 0,00 0,00 15.014,13 1.516,41 2.002,55 0,00 3.518,96 11.495,17 1.334,00 2.108,69 31/12/2018
307 151401 APARECIDA DE FATIMA MENDES DE ALMEIDA ASSESSOR ATIVO JUIZ DE FORA - COMARCA; JUIZ DE FORA-PJ-SECRETARIA 0,00 0,00 4.763,08 2.007,90 0,00 0,00 6.770,98 1.124,44 512,80 0,00 1.637,24 5.133,74 1.334,00 248,96 31/12/2018
308 329300 APARECIDA MARIA MELO DE ASSIS OFICIAL DO MP ATIVO BELO HORIZONTE - COMARCA; BH-18PJ DIREITOS HUMANOS-SECRETARIA 8.482,22 1.696,44 0,00 2.289,85 0,00 0,00 12.468,51 1.231,40 1.621,87 0,00 2.853,27 9.615,24 1.334,00 1.015,91 31/12/2018
309 475300 APARECIDA MARLENE FREIRE ROSA ANALISTA DO MP ATIVO BELO HORIZONTE - COMARCA; BH-02PJ FAMILIA 9.955,90 8.960,31 0,00 4.958,65 0,00 2.080,78 25.955,64 2.162,35 4.332,60 0,00 6.494,95 19.460,69 1.334,00 1.070,26 31/12/2018
310 240300 APARECIDA PEREIRA DO NASCIMENTO OFICIAL DO MP ATIVO ITURAMA - COMARCA; ITURAMA-PJ-01PJ 10.279,98 7.195,99 0,00 3.308,23 5.825,32 0,00 26.609,52 2.743,11 5.009,85 0,00 7.752,96 18.856,56 1.388,00 7.461,31 31/12/2018
311 653000 APARECIDA ROSA DE LIMA ASSESSOR ATIVO BELO HORIZONTE - COMARCA; SECRETARIA PROCESSOS DISCIPES ADMINISTRATIVOS 0,00 0,00 4.763,08 2.007,90 0,00 0,00 6.770,98 1.124,44 512,80 0,00 1.637,24 5.133,74 1.334,00 186,72 31/12/2018
312 354500 APARECIDA VIEIRA DE CARVALHO OFICIAL DO MP ATIVO BELO HORIZONTE - COMARCA; DIVISÃO DE EDUCAÇÃO PARA O CONSUMO 6.251,74 1.250,35 0,00 1.916,31 0,00 0,00 9.418,40 857,58 966,78 0,00 1.824,36 7.594,04 1.334,00 392,12 31/12/2018
313 551000 ARACELES BICALHO FELIX ANALISTA DO MP ATIVO MANHUAÇU - COMARCA; MANHUACU-PJ-02PJ 7.576,76 757,68 0,00 2.032,47 0,00 0,00 10.366,91 952,73 1.170,49 0,00 2.123,22 8.243,69 2.033,00 326,71 31/12/2018
314 286200 ARACELI MEDRADO DOS SANTOS LIMA OFICIAL DO MP ATIVO PARACATU - COMARCA; PARACATU-PJ-03PJ 5.622,54 1.703,64 0,00 1.820,37 2.460,81 0,00 11.607,36 966,39 1.598,74 0,00 2.565,13 9.042,23 1.334,00 1.402,89 31/12/2018
315 189000 ARAHY MARQUES SILVA OFICIAL DO MP ATIVO BELO HORIZONTE - COMARCA; BH-09PJ AUDITORIA MILITAR 5.678,79 1.703,64 0,00 1.899,62 0,00 0,00 9.282,05 843,90 937,49 0,00 1.781,39 7.500,66 1.334,00 385,87 31/12/2018
316 112200 ARAQUEM AUGUSTO DE MATOS AGENTE DO MP ATIVO BELO HORIZONTE - COMARCA; BH-13ª PJ JUÍZO DE TÓXICOS-SECRETARIA 5.863,71 4.690,96 0,00 3.307,47 0,00 1.161,01 15.023,15 1.351,83 1.876,76 0,00 3.228,59 11.794,56 1.334,00 2.035,57 31/12/2018
317 280600 ARDUINO FRATTEZI ANALISTA DO MP ATIVO BELO HORIZONTE - COMARCA; CENTRAL DE APOIO TECNICO-SETOR CONTABIL 14.162,21 4.248,66 0,00 4.119,05 0,00 0,00 22.529,92 2.217,81 3.636,70 0,00 5.854,51 16.675,41 1.334,00 1.991,61 31/12/2018
318 520201 ARIANE DE FATIMA CARVALHO ALMEIDA RODRIGUES ANALISTA DO MP ATIVO VESPASIANO - COMARCA; VESPASIANO-PJ-04PJ 6.882,47 412,95 0,00 2.722,16 0,00 0,00 10.017,58 882,60 864,06 0,00 1.746,66 8.270,92 2.312,60 728,08 31/12/2018
319 537600 ARIELA FREIRE MONTIJO ANALISTA DO MP ATIVO ARCOS - COMARCA; ARCOS-PJ-01PJ 7.576,76 757,68 0,00 6.140,61 2.778,15 0,00 17.253,20 952,73 1.830,21 0,00 2.782,94 14.470,26 2.033,00 326,71 31/12/2018
320 182000 ARILSON ALEXANDRE MARTINS MAGALHAES OFICIAL DO MP ATIVO JOÃO MONLEVADE - COMARCA; JOAO MONLEVADE-PJ-01PJ 11.685,57 4.674,23 0,00 3.256,74 0,00 0,00 19.616,54 2.095,27 3.030,43 0,00 5.125,70 14.490,84 1.408,53 3.072,40 31/12/2018
321 511000 ARISLANE CAROLINA DA SILVA ANALISTA DO MP ATIVO CAMPINA VERDE - COMARCA; CAMPINA VERDE-PJ-UNPJ 8.482,22 848,22 0,00 2.171,48 3.110,15 0,00 14.612,07 1.464,47 2.269,56 0,00 3.734,03 10.878,04 2.732,00 3.983,00 31/12/2018
322 170000 ARLEY BRITES DA SILVA ASSESSOR ATIVO BELO HORIZONTE - COMARCA; EXTINTA - DIVISÃO DE MATERIAL PERMANENTE 0,00 1.905,23 4.763,08 2.866,93 0,00 0,00 9.535,24 1.242,08 434,00 0,00 1.676,08 7.859,16 1.334,00 348,53 31/12/2018
323 120400 ARLINDO CASSIO DA CRUZ OFICIAL DO MP ATIVO SÃO GONÇALO DO SAPUCAÍ - COMARCA; SAO GONCALO DO SAPUCAI-PJ-01PJ 17.452,52 13.962,02 0,00 5.409,87 0,00 0,00 36.824,41 3.383,50 6.432,03 943,43 10.758,96 26.065,45 1.334,00 383,97 31/12/2018
324 243700 ARLINDO MARCIO LACERDA OFICIAL DO MP ATIVO CONTAGEM - COMARCA; CONTAGEM-PJ-03PJ 10.279,98 4.111,99 0,00 3.167,57 0,00 0,00 17.559,54 1.645,18 3.021,64 0,00 4.666,82 12.892,72 1.334,00 2.162,53 31/12/2018
325 392100 ARNALDO DE ANDRADE OFICIAL DO MP ATIVO DIVINÓPOLIS - COMARCA; DIVINOPOLIS-PJ-02PJ 7.337,85 1.467,57 0,00 2.440,08 3.381,89 0,00 14.627,39 1.006,57 2.532,22 0,00 3.538,79 11.088,60 2.033,00 1.737,97 31/12/2018
326 642400 ARTANE INARDE DE SIQUEIRA DAMASCENO ANALISTA DO MP ATIVO BELO HORIZONTE - COMARCA; BH-13ª PJ JUÍZO DE TÓXICOS-SECRETARIA 6.665,41 399,92 0,00 2.138,61 0,00 0,00 9.203,94 750,14 902,82 0,00 1.652,96 7.550,98 2.033,00 1.542,93 31/12/2018
327 302100 AUGUSTO ROUSSEAU DE CASTRO ANALISTA DO MP ATIVO CATAGUASES - COMARCA; CATAGUASES-PJ-02PJ 14.941,94 2.988,39 0,00 3.371,65 0,00 0,00 21.301,98 2.049,66 3.519,09 0,00 5.568,75 15.733,23 2.033,00 702,88 31/12/2018
328 540200 AUREA AVELAR OFICIAL DO MP ATIVO BELO HORIZONTE - COMARCA; GRUPO ESP PROM PROC JUST DEF PROB ADM PAT PUB 4.467,49 446,75 0,00 1.617,37 0,00 0,00 6.531,61 561,76 262,63 0,00 824,39 5.707,22 1.334,00 256,85 31/12/2018
329 183200 AURELIANO MAGELA DE REZENDE COORDENADOR/OFICIAL ATIVO BELO HORIZONTE - COMARCA; COORD DE GABINETE DO PGJ 12.458,83 6.229,42 0,00 3.668,34 0,00 0,00 22.356,59 2.074,38 3.779,97 0,00 5.854,35 16.502,24 1.334,00 3.003,51 31/12/2018
330 629400 AYESKA DA COSTA VAL MOURA DABIEN OFICIAL DO MP ATIVO BELO HORIZONTE - COMARCA; BH-18PJ VIOLENCIA DOMESTICA-SECRETARIA 4.326,60 259,60 0,00 1.472,24 0,00 0,00 6.058,44 587,39 282,26 0,00 869,65 5.188,79 1.334,00 753,74 31/12/2018
331 652800 BARBARA JULIANNE MOREIRA CASTRO ASSESSOR ATIVO BELO HORIZONTE - COMARCA; ASSESS TECNICO-JUR JUNTO AS PROC. DE JUST 0,00 0,00 7.576,76 2.678,09 0,00 0,00 10.254,85 1.242,08 1.286,56 0,00 2.528,64 7.726,21 1.334,00 297,01 31/12/2018
332 663600 BARBARA REGINA PEREIRA DE PINHO MAGALHAES ASSESSOR ATIVO BELO HORIZONTE - COMARCA; CAO-DH APOIO COMUNITARIO-RECEPÇÃO 0,00 0,00 7.576,76 1.819,94 0,00 0,00 9.396,70 784,83 1.286,56 0,00 2.071,39 7.325,31 1.334,00 74,25 31/12/2018
333 546500 BARBARA ZACARONI GOULART OFICIAL DO MP ATIVO BETIM - COMARCA; BETIM-PJ-08PJ 4.467,49 446,75 0,00 1.946,44 0,00 0,00 6.860,68 561,76 347,95 0,00 909,71 5.950,97 1.334,00 256,85 31/12/2018
334 316500 BEATRIZ ABILVIA DA SILVA ANALISTA DO MP ATIVO GOVERNADOR VALADARES - COMARCA; GOVERNADOR VALADARES-PJ-07PJ 13.715,83 2.743,17 0,00 3.166,31 0,00 0,00 19.625,31 1.881,46 3.158,98 0,00 5.040,44 14.584,87 1.334,00 860,27 31/12/2018
335 311800 BEATRIZ APARECIDA SOARES GANEM OFICIAL DO MP ATIVO ITAMBACURI - COMARCA; ITAMBACURI-PJ-02PJ 8.758,36 2.627,51 0,00 2.614,73 0,00 0,00 14.000,60 1.458,24 1.760,92 0,00 3.219,16 10.781,44 1.334,00 1.870,77 31/12/2018
336 266800 BEATRIZ AUGUSTA VILACA GOMES DE HUBER OFICIAL DO MP ATIVO BELO HORIZONTE - COMARCA; BH-05PJ-JUÍZO SUCESSÕES-SEC 7.337,85 2.201,36 0,00 6.783,24 0,00 0,00 16.322,45 1.403,85 1.465,36 0,00 2.869,21 13.453,24 1.334,00 3.223,14 31/12/2018
337 235200 BEATRIZ BOTELHO BATISTA OFICIAL DO MP ATIVO BELO HORIZONTE - COMARCA; BH-21PJ TUTELA FUNDACOES-SECRETARIA 9.337,87 2.801,36 0,00 2.563,45 0,00 0,00 14.702,68 1.622,79 2.101,72 0,00 3.724,51 10.978,17 1.334,00 2.613,32 31/12/2018
338 182300 BEATRIZ PAULA SOUSA RAMOS OFICIAL DO MP ATIVO MARIANA - COMARCA; MARIANA-PJ-01PJ 11.685,57 4.674,23 0,00 11.115,96 0,00 0,00 27.475,76 2.095,27 3.030,43 0,00 5.125,70 22.350,06 1.443,73 2.688,07 31/12/2018
339 507000 BELCHIOR FRANKLIN AMARAL LEITE ANALISTA DO MP ATIVO BELO HORIZONTE - COMARCA; CENTRAL DE APOIO TECNICO 9.337,87 933,79 0,00 3.722,93 0,00 0,00 13.994,59 1.373,11 1.436,08 0,00 2.809,19 11.185,40 2.732,00 2.211,27 31/12/2018
340 345100 BENITO ELIAS RODRIGUES ANALISTA DO MP ATIVO BARBACENA - COMARCA; BARBACENA - SECRETARIA DAS PJS CRIMINAIS 13.283,29 2.656,66 0,00 3.093,86 0,00 0,00 19.033,81 1.822,12 3.031,94 0,00 4.854,06 14.179,75 1.334,00 624,85 31/12/2018
341 207300 BENITO VIEIRA DOS SANTOS ANALISTA DO MP ATIVO BELO HORIZONTE - COMARCA; COMB CRIMES PRAT POR AG POL MUN-ASSESSORIA 17.452,52 6.981,01 0,00 7.740,15 0,00 2.687,69 34.861,37 2.793,05 4.107,16 0,00 6.900,21 27.961,16 1.334,00 1.382,44 31/12/2018
342 480200 BERNADETE NUNES DOS SANTOS ANALISTA DO MP ATIVO GUANHÃES - COMARCA; GUANHAES-PJ-02PJ 9.337,87 2.801,36 0,00 4.197,56 0,00 0,00 16.336,79 1.387,67 2.101,72 0,00 3.489,39 12.847,40 1.334,00 475,86 31/12/2018
343 378400 BETANIA FARNESI DE SOUZA E SILVA OFICIAL DO MP ATIVO SETE LAGOAS - COMARCA; SETE LAGOAS-PJ-SEC CRIMINAIS 7.106,49 2.131,95 0,00 2.210,78 0,00 0,00 11.449,22 1.183,22 1.339,61 0,00 2.522,83 8.926,39 5.601,72 1.986,93 31/12/2018
344 387400 BETANIA MENDONCA DE ASSIS CARVALHO ANALISTA DO MP ATIVO BELO HORIZONTE - COMARCA; BH-08PJ JUIZADO ESPECIAL-SECRETARIA 11.317,16 2.263,43 0,00 2.764,61 0,00 0,00 16.345,20 1.800,58 2.625,42 0,00 4.426,00 11.919,20 1.334,00 3.095,54 31/12/2018
345 450300 BIANCA OLIVEIRA DE ALBUQUERQUE ANALISTA DO MP ATIVO BELO HORIZONTE - COMARCA; BH-10PJ EXECUÇÃO PENAL-SECRETARIA 9.337,87 933,79 0,00 2.302,82 0,00 0,00 12.574,48 1.174,17 1.644,63 0,00 2.818,80 9.755,68 2.033,00 402,65 31/12/2018
346 535400 BIANCA SALOTO ROSSI ANALISTA DO MP ATIVO SANTOS DUMONT - COMARCA; SANTOS DUMONT-PJ-01PJ 7.576,76 757,68 0,00 2.032,47 0,00 0,00 10.366,91 952,73 1.170,49 0,00 2.123,22 8.243,69 1.334,00 326,71 31/12/2018
347 120800 BRAS MARQUES DE SOUZA ANALISTA DO MP ATIVO BELO HORIZONTE - COMARCA; EXTINTA - SUPERINTENDENCIA ADMINISTRATIVA-SAD 22.030,87 17.624,70 0,00 5.399,56 0,00 0,00 45.055,13 3.351,82 6.484,17 9.184,46 19.020,45 26.034,68 1.334,00 0,00 31/12/2018
348 460900 BRENO CRISTIANO DE SOUZA REZENDE ANALISTA DO MP ATIVO ITAÚNA - COMARCA; ITAUNA-PJ-02PJ 7.823,48 782,35 0,00 2.070,35 0,00 0,00 10.676,18 1.045,22 1.236,92 0,00 2.282,14 8.394,04 1.334,00 1.055,12 31/12/2018
349 239000 BRENO VENANCIO ROMANINI OFICIAL DO MP ATIVO BELO HORIZONTE - COMARCA; BH-20PJ ORD ECON TRIBUTARIA-SECRETARIA 9.043,46 2.713,04 0,00 8.157,85 0,00 0,00 19.914,35 1.343,91 2.008,04 0,00 3.351,95 16.562,40 1.334,00 614,48 31/12/2018
350 202201 BRIGITTE AMARALINA DE CALDAS LIMA OFICIAL DO MP ATIVO NANUQUE - COMARCA; NANUQUE-PJ-03PJ 9.337,87 3.735,15 0,00 2.902,32 0,00 0,00 15.975,34 1.581,52 2.121,71 0,00 3.703,23 12.272,11 1.334,00 1.475,29 31/12/2018
351 642300 BRUNA IZABELITA DE FATIMA OLIVEIRA COSTA OFICIAL DO MP ATIVO PIUMHI - COMARCA; PIUMHI-PJ-02PJ 4.326,60 259,60 0,00 3.675,46 1.528,73 0,00 9.790,39 608,06 673,51 0,00 1.281,57 8.508,82 1.334,00 941,66 31/12/2018
352 513600 BRUNA KARLA MARTINS CARVALHO ANALISTA DO MP ATIVO GOVERNADOR VALADARES - COMARCA; GOVERNADOR VALADARES-PJ-01PJ 8.482,22 848,22 0,00 2.171,48 0,00 0,00 11.501,92 1.464,47 1.414,26 0,00 2.878,73 8.623,19 1.334,00 4.104,92 31/12/2018
353 415100 BRUNA MARIA SOARES OLIVEIRA COSTA RAMOS ANALISTA DO MP ATIVO UBÁ - COMARCA; COORD REG BACIA DO RIO PARAIBA DO SUL 11.317,16 2.263,43 0,00 4.293,55 0,00 0,00 17.874,14 1.796,52 2.454,49 0,00 4.251,01 13.623,13 1.334,00 2.751,44 31/12/2018
354 470000 BRUNA MORAES MARQUES ANALISTA DO MP ATIVO TOMBOS - COMARCA; TOMBOS-PJ-UNPJ 9.955,90 995,59 0,00 2.554,11 0,00 0,00 13.505,60 1.251,88 1.654,61 0,00 2.906,49 10.599,11 2.033,00 572,40 31/12/2018
355 614700 BRUNA NATTANY DE LIMA OFICIAL DO MP ATIVO MANTENA - COMARCA; MANTENA-PJ-01PJ 4.467,49 268,05 0,00 1.499,48 0,00 0,00 6.235,02 541,33 312,16 0,00 853,49 5.381,53 1.334,00 185,64 31/12/2018
356 631800 BRUNA RAPOSO JORGE OFICIAL DO MP ATIVO JUIZ DE FORA - COMARCA; JUIZ DE FORA-PJ-19PJ 4.326,60 259,60 0,00 1.472,24 0,00 0,00 6.058,44 554,93 282,26 0,00 837,19 5.221,25 1.334,00 458,64 31/12/2018
357 463800 BRUNO ALVES TEIXEIRA ANALISTA DO MP ATIVO UBERLÂNDIA - COMARCA; UBERLANDIA-PJ-04PJ 9.337,87 933,79 0,00 2.302,82 0,00 0,00 12.574,48 1.174,17 1.644,63 0,00 2.818,80 9.755,68 1.334,00 536,87 31/12/2018
358 538500 BRUNO AUGUSTO DA SILVA OFICIAL DO MP ATIVO SANTA LUZIA - COMARCA; SANTA LUZIA-PJ-03PJ 4.838,22 483,82 0,00 4.163,10 1.774,01 0,00 11.259,15 608,37 921,06 0,00 1.529,43 9.729,72 2.033,00 208,63 31/12/2018
359 318200 BRUNO BARROS DE SOUZA OFICIAL DO MP ATIVO UBÁ - COMARCA; UBA-PJ-04PJ 8.482,22 1.696,44 0,00 2.694,58 0,00 0,00 12.873,24 1.231,40 1.163,73 0,00 2.395,13 10.478,11 1.334,00 1.148,91 31/12/2018
360 459600 BRUNO CASTELAR LUGAO MENDES OFICIAL DO MP ATIVO GOVERNADOR VALADARES - COMARCA; GOVERNADOR VALADARES-PJ-05PJ 6.251,74 625,17 0,00 5.132,74 0,00 0,00 12.009,65 1.079,42 813,76 0,00 1.893,18 10.116,47 1.334,00 3.248,04 31/12/2018
361 427400 BRUNO CESAR RIBEIRO DE PAIVA ANALISTA DO MP ATIVO BELO HORIZONTE - COMARCA; ASSESS JUR DO CONS SUPERIOR DO MINISTERIO PUB 11.317,16 1.131,72 0,00 2.606,67 0,00 0,00 15.055,55 1.423,06 2.177,50 0,00 3.600,56 11.454,99 1.334,00 488,00 31/12/2018
362 380900 BRUNO CIRILO ANTUNES OFICIAL DO MP ATIVO VARGINHA - COMARCA; VARGINHA-PJ-05PJ 6.882,47 1.376,49 0,00 2.021,94 0,00 0,00 10.280,90 1.266,97 1.152,02 0,00 2.418,99 7.861,91 1.334,00 3.611,44 31/12/2018
363 329000 BRUNO DE MELO REIS ANALISTA DO MP ATIVO PATROCÍNIO - COMARCA; PATROCINIO-PJ-02PJ 13.283,29 3.984,99 0,00 3.383,52 0,00 0,00 20.651,80 2.211,68 3.252,78 0,00 5.464,46 15.187,34 2.033,00 3.243,65 31/12/2018
364 601700 BRUNO DIAS JUNQUEIRA PEREIRA ANALISTA DO MP ATIVO BELO HORIZONTE - COMARCA; ASSESS TECNICO-JUR JUNTO AS PROC. DE JUST 7.576,76 757,68 0,00 2.178,07 0,00 0,00 10.512,51 1.108,29 1.170,49 0,00 2.278,78 8.233,73 1.334,00 1.740,91 31/12/2018
365 378300 BRUNO HERDY LOPES DE OLIVEIRA ANALISTA DO MP ATIVO MANTENA - COMARCA; MANTENA-PJ-01PJ 11.317,16 2.263,43 0,00 2.764,61 0,00 0,00 16.345,20 1.723,75 2.454,49 0,00 4.178,24 12.166,96 1.334,00 2.089,89 31/12/2018
366 529700 BRUNO JOSE BUENO DIAS OFICIAL DO MP ATIVO SÃO SEBASTIÃO DO PARAÍSO - COMARCA; SAO SEBASTIAO DO PARAISO-PJ-02PJ 4.838,22 483,82 0,00 1.649,05 0,00 0,00 6.971,09 608,37 386,95 0,00 995,32 5.975,77 1.334,00 208,63 31/12/2018
367 350100 BRUNO LAUD SERRANO DOS REIS OFICIAL DO MP ATIVO UBÁ - COMARCA; UBA-PJ-02PJ 7.106,49 2.131,95 0,00 2.210,78 0,00 0,00 11.449,22 1.450,10 1.339,61 0,00 2.789,71 8.659,51 1.334,00 4.317,58 31/12/2018
368 373800 BRUNO MARTINO DE ALBUQUERQUE ANALISTA DO MP ATIVO PONTE NOVA - COMARCA; PONTE NOVA-PJ-03PJ 11.317,16 2.263,43 0,00 2.868,88 0,00 0,00 16.449,47 1.723,75 2.350,22 0,00 4.073,97 12.375,50 1.334,00 2.397,14 31/12/2018
369 470400 BRUNO NOVAIS CABRAL ANALISTA DO MP ATIVO MUTUM - COMARCA; MUTUM-PJ-UNPJ 9.337,87 933,79 0,00 2.302,82 0,00 0,00 12.574,48 1.174,17 1.644,63 0,00 2.818,80 9.755,68 1.334,00 402,65 31/12/2018
370 648600 BRUNO RIBEIRO E MELO ASSESSOR ATIVO BELO HORIZONTE - COMARCA; DIRETORIA DE RELACOES PUBLICAS E CERIMONIAL 0,00 0,00 7.576,76 6.317,96 0,00 0,00 13.894,72 1.242,08 1.286,56 0,00 2.528,64 11.366,08 1.334,00 396,01 31/12/2018
371 369200 BRUNO ROBERTO DIAS DE OLIVEIRA OFICIAL DO MP ATIVO BELO HORIZONTE - COMARCA; BH-22PJ PES COM DEF E IDOSOS 7.955,66 1.591,13 0,00 2.201,67 0,00 0,00 11.748,46 1.091,32 1.467,22 0,00 2.558,54 9.189,92 1.334,00 498,99 31/12/2018
372 547700 BRUNO ROBERTO SOUZA GONCALVES ANALISTA DO MP ATIVO PARACATU - COMARCA; PARACATU-PJ-03PJ 7.576,76 757,68 0,00 6.036,33 0,00 0,00 14.370,77 952,73 1.170,49 0,00 2.123,22 12.247,55 2.033,00 435,61 31/12/2018
373 546100 BRUNO SA VIEIRA ANALISTA DO MP ATIVO ERVÁLIA - COMARCA; ERVALIA-PJ-UNPJ 7.576,76 757,68 0,00 2.084,61 0,00 0,00 10.419,05 952,73 1.118,36 0,00 2.071,09 8.347,96 1.334,00 326,71 31/12/2018
374 438200 BRUNO SALES PEREIRA ANALISTA DO MP ATIVO BELO HORIZONTE - COMARCA; CENTRAL DE APOIO TECNICO-SETOR CONTABIL 9.641,94 964,19 0,00 2.401,63 3.535,38 0,00 16.543,14 1.358,40 2.646,58 0,00 4.004,98 12.538,16 2.732,00 1.853,66 31/12/2018
375 537400 BRUNO SANT'ANA CESAR ANALISTA DO MP ATIVO CONTAGEM - COMARCA; CONTAGEM-PJ-19PJ 7.576,76 757,68 0,00 2.032,47 0,00 0,00 10.366,91 952,73 1.170,49 0,00 2.123,22 8.243,69 1.334,00 326,71 31/12/2018
376 405800 CAIO FERNANDO RODRIGUES DE OLIVEIRA ANALISTA DO MP ATIVO BELO HORIZONTE - COMARCA; ASSESS TECNICO-JUR JUNTO AS PROC. DE JUST 11.317,16 2.263,43 0,00 3.308,28 0,00 0,00 16.888,87 1.552,42 2.454,49 0,00 4.006,91 12.881,96 1.334,00 709,83 31/12/2018
377 530000 CAIO GUEDES DE OLIVEIRA ANALISTA DO MP ATIVO DIAMANTINA - COMARCA; DIAMANTINA-PJ-02PJ 7.576,76 757,68 0,00 3.044,24 0,00 0,00 11.378,68 952,73 1.118,36 0,00 2.071,09 9.307,59 2.033,00 326,71 31/12/2018
378 491400 CAIO MIRANDA JUNQUEIRA ANALISTA DO MP ATIVO BUENO BRANDAO - COMARCA; BUENO BRANDAO-PJ-UNPJ 8.482,22 848,22 0,00 2.275,75 0,00 0,00 11.606,19 1.219,74 1.309,99 0,00 2.529,73 9.076,46 2.033,00 1.880,08 31/12/2018
379 415800 CAMILA ALVES DA SILVA ANALISTA DO MP ATIVO CAETÉ - COMARCA; CAETE-PJ-01PJ 10.279,98 2.056,00 0,00 2.447,45 0,00 0,00 14.783,43 2.114,19 2.149,87 0,00 4.264,06 10.519,37 1.334,00 6.883,92 31/12/2018
380 555800 CAMILA CAROLINE ROCHA CHAVES OFICIAL DO MP ATIVO SALINAS - COMARCA; SALINAS-PJ-01PJ 4.838,22 483,82 0,00 2.081,55 0,00 0,00 7.403,59 691,43 433,21 0,00 1.124,64 6.278,95 1.334,00 963,71 31/12/2018
381 445200 CAMILA CONDE ROCHA ANALISTA DO MP ATIVO CONTAGEM - COMARCA; CONTAGEM-PJ-08PJ 9.337,87 933,79 0,00 2.302,82 0,00 0,00 12.574,48 1.174,17 1.644,63 0,00 2.818,80 9.755,68 2.033,00 402,65 31/12/2018
382 419900 CAMILA CUNNINGHAM PIMENTA DE PADUA ANALISTA DO MP ATIVO BELO HORIZONTE - COMARCA; ASSESSORIA PSICOSSOCIAL 11.317,16 2.263,43 0,00 2.606,67 0,00 0,00 16.187,26 1.796,52 2.454,49 0,00 4.251,01 11.936,25 1.334,00 2.751,44 31/12/2018
383 507700 CAMILA ELIZABETH RODRIGUES ANALISTA DO MP ATIVO BELO HORIZONTE - COMARCA; BH-02PJ FAMILIA 9.337,87 933,79 0,00 2.302,82 0,00 0,00 12.574,48 1.431,23 1.773,93 0,00 3.205,16 9.369,32 1.334,00 2.739,57 31/12/2018
384 372700 CAMILA FONSECA LIMONGE ANALISTA DO MP ATIVO BETIM - COMARCA; BETIM-PJ-12PJ 11.317,16 2.263,43 0,00 2.764,61 0,00 0,00 16.345,20 1.723,75 2.454,49 0,00 4.178,24 12.166,96 2.033,00 2.397,14 31/12/2018
385 621300 CAMILA GOLFETO DE SOUSA VALENTE OFICIAL DO MP ATIVO ESPERA FELIZ - COMARCA; ESPERA FELIZ-PJ-UNPJ 4.467,49 268,05 0,00 1.578,73 1.578,51 0,00 7.892,78 572,89 619,48 0,00 1.192,37 6.700,41 2.033,00 472,62 31/12/2018
386 409800 CAMILA GONCALVES COSTA RIBEIRO ANALISTA DO MP ATIVO INHAPIM - COMARCA; INHAPIM-PJ-02PJ 9.337,87 1.867,57 0,00 2.933,86 0,00 0,00 14.139,30 1.280,92 1.821,03 0,00 3.101,95 11.037,35 2.732,00 439,26 31/12/2018
387 335000 CAMILA GONTIJO DE PAIVA ANALISTA DO MP ATIVO BELO HORIZONTE - COMARCA; COORD DE CONTROLE DA CONSTITUCIONALIDADE 12.864,49 2.572,90 0,00 10.491,96 0,00 0,00 25.929,35 1.977,15 2.856,80 0,00 4.833,95 21.095,40 2.033,00 2.899,31 31/12/2018
388 547800 CAMILA MATTARELLI DE ABREU E SILVA ANALISTA DO MP ATIVO BELO HORIZONTE - COMARCA; COORD DE INCLUSAO E MOBILIZACAO SOCIAIS 7.576,76 757,68 0,00 2.032,47 0,00 0,00 10.366,91 952,73 1.170,49 0,00 2.123,22 8.243,69 1.334,00 326,71 31/12/2018
389 430000 CANDIDA MARINA COSTA ANALISTA DO MP ATIVO BELO HORIZONTE - COMARCA; DIVISAO DE DOCUMENTACAO JURIDICA 10.279,98 1.028,00 0,00 2.447,45 0,00 0,00 13.755,43 1.774,95 1.898,27 0,00 3.673,22 10.082,21 1.334,00 4.827,92 31/12/2018
390 614300 CARINA CORTIELHA OFICIAL DO MP ATIVO BELO HORIZONTE - COMARCA; BH-23PJ CIVEL-SEC EXP CIVEIS 4.058,04 243,48 0,00 1.740,67 0,00 0,00 6.042,19 520,38 225,25 0,00 745,63 5.296,56 1.334,00 429,16 31/12/2018
391 380400 CARINA DIAS FACANHA DE SOUZA ANALISTA DO MP ATIVO SANTA RITA DO SAPUCAÍ - COMARCA; SANTA RITA DO SAPUCAI-PJ-SECRETARIA 11.317,16 2.263,43 0,00 9.288,70 0,00 0,00 22.869,29 1.723,75 2.454,49 0,00 4.178,24 18.691,05 2.033,00 2.089,89 31/12/2018
392 255000 CARLA ADRIANA DE MENEZES OFICIAL DO MP ATIVO BELO HORIZONTE - COMARCA; CENT DE APOIO TEC-SETOR DEF,IDOSO E INFANC 9.043,46 2.713,04 0,00 2.510,04 0,00 0,00 14.266,54 1.343,91 2.008,04 0,00 3.351,95 10.914,59 1.334,00 614,48 31/12/2018
393 425100 CARLA ADRIANA DINIZ AMARAL OFICIAL DO MP ATIVO CONTAGEM - COMARCA; CONTAGEM-PJ-08PJ 7.106,49 710,65 0,00 1.960,29 0,00 0,00 9.777,43 893,60 1.043,88 0,00 1.937,48 7.839,95 1.334,00 408,59 31/12/2018
394 508100 CARLA ALESSANDRA FONSECA ANALISTA DO MP ATIVO BELO HORIZONTE - COMARCA; CAO-ORDEM ECONOMICA E TRIBUTARIA-SECRETARIA 9.337,87 933,79 0,00 7.237,31 0,00 0,00 17.508,97 1.373,11 1.644,63 0,00 3.017,74 14.491,23 1.334,00 2.211,27 31/12/2018
395 607100 CARLA ANGELICA DIAS MIRANDA OFICIAL DO MP ATIVO JABOTICATUBAS - COMARCA; JABOTICATUBAS-PJ-UNPJ 4.467,49 268,05 0,00 1.941,07 0,00 0,00 6.676,61 624,39 192,08 0,00 816,47 5.860,14 1.334,00 1.002,60 31/12/2018
396 351500 CARLA APARECIDA MENDES RAMIRIO OFICIAL DO MP ATIVO PASSOS - COMARCA; PASSOS-PJ-01PJ 7.337,85 1.467,57 0,00 2.150,34 0,00 0,00 10.955,76 1.319,98 1.233,63 0,00 2.553,61 8.402,15 1.334,00 3.431,81 31/12/2018
397 206200 CARLA BORGES DA COSTA ANALISTA DO MP ATIVO BELO HORIZONTE - COMARCA; DIRETORIA DE PROJETOS DE EDIFICACOES 17.452,52 8.726,26 0,00 8.549,55 0,00 0,00 34.728,33 2.992,56 5.537,90 0,00 8.530,46 26.197,87 1.334,00 1.026,23 31/12/2018
398 442800 CARLA GONCALVES COSTA SOALHEIRO ANALISTA DO MP ATIVO GOVERNADOR VALADARES - COMARCA; GOVERNADOR VALADARES-PJ-11PJ 9.029,72 933,79 0,00 2.354,96 0,00 0,00 12.318,47 1.174,17 1.507,75 0,00 2.681,92 9.636,55 4.087,33 590,96 31/12/2018
399 321500 CARLA GONCALVES MASSOTE OFICIAL DO MP ATIVO CAMPO BELO - COMARCA; CAMPO BELO-PJ-01PJ 8.482,22 1.696,44 0,00 2.289,85 0,00 0,00 12.468,51 1.231,40 1.621,87 0,00 2.853,27 9.615,24 1.334,00 1.015,91 31/12/2018
400 429200 CARLA HAUTEQUESTT BECHARA COORDENADOR/ANALISTA ATIVO BELO HORIZONTE - COMARCA; DIRET DE INFORMACAO E CONHECIMENTO-DINC/CEAF 10.279,98 3.519,77 0,00 2.986,12 0,00 0,00 16.785,87 1.774,95 2.583,50 0,00 4.358,45 12.427,42 1.334,00 4.925,60 31/12/2018
401 247500 CARLA MATILDE GUIMARAES DE OLIVEIRA OFICIAL DO MP ATIVO ITAJUBA - COMARCA; ITAJUBA-PJ-02PJ 9.337,87 2.801,36 0,00 2.615,59 0,00 0,00 14.754,82 1.387,67 2.049,58 0,00 3.437,25 11.317,57 1.334,00 475,86 31/12/2018
402 226100 CARLA MERLI DA CONCEICAO ANALISTA DO MP ATIVO BELO HORIZONTE - COMARCA; CENTRAL DE APOIO TECNICO-SETOR CONTABIL 17.452,52 5.235,76 0,00 4.087,79 0,00 0,00 26.776,07 2.593,54 4.631,46 0,00 7.225,00 19.551,07 1.334,00 1.185,87 31/12/2018
403 181401 CARLO MICHEL GAUDENSI COELHO ANALISTA DO MP ATIVO BELO HORIZONTE - COMARCA; BH-08PJ JUIZADO ESPECIAL-SECRETARIA 10.279,98 3.083,99 0,00 2.734,38 0,00 0,00 16.098,35 1.527,67 2.401,47 0,00 3.929,14 12.169,21 1.334,00 698,49 31/12/2018
404 634000 CARLOS ALBERTO AMORMINO TRIGUEIRO ANALISTA DO MP ATIVO BELO HORIZONTE - COMARCA; DIRET DE APOIO AS PROCURADORIAS DE JUSTICA 6.665,41 399,92 0,00 1.907,50 0,00 0,00 8.972,83 936,76 807,74 0,00 1.744,50 7.228,33 2.033,00 1.542,93 31/12/2018
405 637900 CARLOS ALBERTO DE MOURA OFICIAL DO MP ATIVO SETE LAGOAS - COMARCA; SETE LAGOAS-PJ-07PJ 4.326,60 259,60 0,00 3.716,70 0,00 0,00 8.302,90 504,48 239,60 0,00 744,08 7.558,82 2.033,00 179,78 31/12/2018
406 638700 CARLOS ALBERTO FERREIRA BRAGA ANALISTA DO MP ATIVO RIBEIRÃO DAS NEVES - COMARCA; SEC PJ EXECUCAO PENAL RIBEIRAO NEVES 6.054,65 363,28 0,00 1.910,81 0,00 0,00 8.328,74 738,32 620,51 0,00 1.358,83 6.969,91 2.033,00 1.317,83 31/12/2018
407 375801 CARLOS ALBERTO ROCHA ANALISTA DO MP ATIVO ELOI MENDES - COMARCA; ELOI MENDES-PJ-SECRETARIA 8.214,70 821,47 0,00 6.471,37 0,00 0,00 15.507,54 1.032,94 1.342,24 0,00 2.375,18 13.132,36 1.334,00 354,22 31/12/2018
408 462800 CARLOS ANDREI SOARES FAGUNDES ANALISTA DO MP ATIVO MONTES CLAROS - COMARCA; MONTES CLAROS-PJ-09PJ 9.337,87 933,79 0,00 7.289,45 0,00 0,00 17.561,11 1.174,17 1.592,49 0,00 2.766,66 14.794,45 2.033,00 536,87 31/12/2018
409 370300 CARLOS AUGUSTO BUENO DIAS ASSESSOR ATIVO BELO HORIZONTE - COMARCA; SUPERINTENDÊNCIA DE ENGENHARIA E ARQUITETURA 0,00 0,00 9.641,94 3.713,21 0,00 0,00 13.355,15 1.242,08 1.212,02 0,00 2.454,10 10.901,05 1.334,00 377,97 31/12/2018
410 505100 CARLOS CEZAR CARVALHO ANALISTA DO MP ATIVO RIBEIRÃO DAS NEVES - COMARCA; RIBEIRAO DAS NEVES-PJ-04PJ 8.482,22 3.392,89 0,00 2.630,87 0,00 0,00 14.505,98 1.545,45 1.932,80 0,00 3.478,25 11.027,73 1.334,00 2.174,35 31/12/2018
411 195900 CARLOS DE SOUZA FERREIRA OFICIAL DO MP ATIVO COROMANDEL - COMARCA; COROMANDEL-PJ-UNPJ 9.337,87 7.470,30 0,00 11.289,65 0,00 0,00 28.097,82 1.921,38 3.244,44 0,00 5.165,82 22.932,00 1.366,66 658,89 31/12/2018
412 196800 CARLOS EDUARDO DE OLIVEIRA MARINHO OFICIAL DO MP ATIVO ALPINÓPOLIS - COMARCA; ALPINOPOLIS-PJ-UNPJ 12.065,98 6.032,99 0,00 3.447,30 6.032,99 0,00 27.579,26 2.840,86 5.167,30 0,00 8.008,16 19.571,10 1.334,00 7.727,05 31/12/2018
413 650800 CARLOS EDUARDO NIZA DA SILVA OFICIAL DO MP ATIVO IGARAPÉ - COMARCA; IGARAPE-PJ-01PJ 3.457,37 0,00 0,00 1.230,81 0,00 0,00 4.688,18 415,99 78,32 0,00 494,31 4.193,87 1.334,00 495,96 31/12/2018
414 491800 CARLOS EDUARDO ROMAN OFICIAL DO MP ATIVO BARBACENA - COMARCA; BARBACENA-PJ-09PJ 6.054,65 1.210,93 0,00 1.883,32 0,00 0,00 9.148,90 930,53 908,89 0,00 1.839,42 7.309,48 1.334,00 1.193,74 31/12/2018
415 299300 CARLOS HENRIQUE BICALHO ANALISTA DO MP ATIVO BELO HORIZONTE - COMARCA; BH-17PJ PATRIMONIO PUBLICO-SECRETARIA 14.162,21 5.664,88 0,00 3.636,34 0,00 0,00 23.463,43 2.389,14 3.983,32 0,00 6.372,46 17.090,97 2.033,00 1.892,31 31/12/2018
416 205100 CARLOS HENRIQUE ESTEVES OFICIAL DO MP ATIVO ITAMBACURI - COMARCA; ITAMBACURI-PJ-01PJ 13.283,29 3.984,99 0,00 3.331,39 5.756,09 0,00 26.355,76 1.973,97 4.887,84 0,00 6.861,81 19.493,95 1.334,00 676,93 31/12/2018
417 351600 CARLOS HENRIQUE FELICIO DA FONSECA OFICIAL DO MP ATIVO JUIZ DE FORA - COMARCA; JUIZ DE FORA-PJ-21PJ 7.823,48 2.347,04 0,00 2.340,85 0,00 0,00 12.511,37 1.235,26 1.567,74 0,00 2.803,00 9.708,37 1.334,00 1.059,05 31/12/2018
418 85400 CARLOS JOSE VIEIRA OFICIAL DO MP ATIVO BELO HORIZONTE - COMARCA; DIRETORIA DO COLEGIO E DA CAMARA DE PJ 22.030,87 17.624,70 0,00 5.295,29 0,00 0,00 44.950,86 3.351,82 6.588,44 9.184,46 19.124,72 25.826,14 1.334,00 0,00 31/12/2018
419 229100 CARLOS MERCES DE OLIVEIRA ANALISTA DO MP ATIVO BELO HORIZONTE - COMARCA; CENTRAL DE APOIO TECN-SETOR DE MEIO AMBIENTE 16.148,50 4.844,55 0,00 4.730,69 0,00 0,00 25.723,74 2.663,28 3.109,22 0,00 5.772,50 19.951,24 7.112,86 3.680,47 31/12/2018
420 538300 CARLOS RANGEL SILVA DE MELO ANALISTA DO MP ATIVO BELO HORIZONTE - COMARCA; DIVISAO DE CONTROLE IMOBILIARIO 6.882,47 2.064,74 0,00 3.208,12 0,00 0,00 12.155,33 1.213,55 1.320,47 0,00 2.534,02 9.621,31 1.334,00 2.085,14 31/12/2018
421 265100 CARLOS REIFF MIRANDA ANALISTA DO MP ATIVO BELO HORIZONTE - COMARCA; BH-19PJ SAUDE-SECRETARIA 150PJ 13.715,83 4.114,75 0,00 4.016,63 0,00 0,00 21.847,21 2.038,25 3.494,68 0,00 5.532,93 16.314,28 1.334,00 698,97 31/12/2018
422 305400 CARLOS ROCHA DE SOUZA OFICIAL DO MP ATIVO MONTALVÂNIA - COMARCA; MONTALVANIA-PJ-SECRETARIA 5.678,79 1.135,76 0,00 2.028,92 2.271,52 0,00 11.114,99 778,98 1.214,62 0,00 1.993,60 9.121,39 2.079,60 267,13 31/12/2018
423 365100 CARLOS WAGNER SANDER MORAIS COORDENADOR/OFICIAL ATIVO BELO HORIZONTE - COMARCA; DIRETORIA DE ADMINISTRACAO FINANCEIRA 0,00 2.491,77 12.458,83 3.364,56 0,00 0,00 18.315,16 1.125,53 2.943,67 0,00 4.069,20 14.245,96 1.334,00 781,43 31/12/2018
424 399900 CARMELITA EVANGELISTA DE SOUZA OFICIAL DO MP ATIVO JOÃO PINHEIRO - COMARCA; JOAO PINHEIRO-PJ-01PJ 6.665,41 666,54 0,00 5.414,84 0,00 0,00 12.746,79 939,06 925,14 0,00 1.864,20 10.882,59 1.334,00 1.377,25 31/12/2018
425 202000 CARMEN LUCIA MARIZ DE MACEDO OFICIAL DO MP ATIVO BELO HORIZONTE - COMARCA; EXTINTA - DIRETORIA DE COMPRAS E LICITAÇÕES 12.065,98 8.446,19 0,00 3.499,44 0,00 0,00 24.011,61 2.865,29 4.046,72 0,00 6.912,01 17.099,60 6.256,92 7.009,78 31/12/2018
426 228500 CAROLINA CHIARELLA DOS SANTOS RIBEIRO OFICIAL DO MP ATIVO BELO HORIZONTE - COMARCA; GAECO - SECRETARIA 7.106,49 2.131,95 0,00 2.262,91 0,00 0,00 11.501,35 1.117,63 1.287,47 0,00 2.405,10 9.096,25 1.334,00 1.042,53 31/12/2018
427 446500 CAROLINA COSTA VAL RODRIGUES ANALISTA DO MP ATIVO CONTAGEM - COMARCA; CONTAGEM-PJ-05PJ 10.279,98 2.056,00 0,00 2.590,91 0,00 0,00 14.926,89 1.410,15 2.149,87 0,00 3.560,02 11.366,87 1.334,00 483,58 31/12/2018
428 603501 CAROLINA DOMINGOS BRANDAO RABELLO ANALISTA DO MP ATIVO CARATINGA - COMARCA; CARATINGA-PJ-01PJ 6.882,47 688,25 0,00 2.696,10 0,00 0,00 10.266,82 1.158,30 983,57 0,00 2.141,87 8.124,95 1.334,00 2.959,36 31/12/2018
429 404300 CAROLINA DOS SANTOS VIEIRA ANALISTA DO MP ATIVO BELO HORIZONTE - COMARCA; BH-08PJ JUIZADO ESPECIAL-SECRETARIA 11.317,16 2.263,43 0,00 3.412,55 0,00 0,00 16.993,14 1.723,75 2.350,22 0,00 4.073,97 12.919,17 1.334,00 2.397,14 31/12/2018
430 551200 CAROLINA LOPES ARANTES MASCARENHAS ANALISTA DO MP ATIVO BELO HORIZONTE - COMARCA; COORD EST DEF DIR FAMILIA PESSOA DEFICI IDOSO 7.576,76 757,68 0,00 6.140,61 0,00 0,00 14.475,05 952,73 1.066,22 0,00 2.018,95 12.456,10 2.732,00 435,61 31/12/2018
431 622600 CAROLINA LOREDO LOPES CATIZANI OFICIAL DO MP ATIVO RIBEIRÃO DAS NEVES - COMARCA; RIBEIRAO DAS NEVES-PJ-12PJ 4.058,04 243,48 0,00 1.414,89 0,00 0,00 5.716,41 520,38 225,25 0,00 745,63 4.970,78 1.334,00 429,16 31/12/2018
432 382200 CAROLINA MENDES CHAVES LIN ANALISTA DO MP ATIVO BELO HORIZONTE - COMARCA; BH-12PJ JUIZO CRIMINAL-GAB 088PJ 9.043,46 1.808,69 0,00 2.435,98 0,00 0,00 13.288,13 1.240,54 1.734,57 0,00 2.975,11 10.313,02 2.732,00 425,41 31/12/2018
433 461900 CAROLINA MURTA TEIXEIRA DIAS ASSESSOR/ANALISTA ATIVO BELO HORIZONTE - COMARCA; PROCURADOR-GERAL DE JUSTICA- GABINETE 0,00 1.168,56 11.685,57 2.861,10 0,00 0,00 15.715,23 1.174,17 2.354,81 0,00 3.528,98 12.186,25 1.334,00 503,89 31/12/2018
434 509600 CAROLINA PINTO DE OLIVEIRA SOUZA ANALISTA DO MP ATIVO MURIAÉ - COMARCA; MURIAE-PJ-01PJ 9.337,87 933,79 0,00 3.749,00 0,00 0,00 14.020,66 1.373,11 1.488,22 0,00 2.861,33 11.159,33 3.081,00 2.211,27 31/12/2018
435 629100 CAROLINA RODRIGUES AMARAL ANALISTA DO MP ATIVO BELO HORIZONTE - COMARCA; PROC. JUSTICA DIR. DIFUSOS E COLETIVOS-SEC 6.882,47 412,95 0,00 1.887,48 0,00 0,00 9.182,90 882,60 916,19 0,00 1.798,79 7.384,11 1.334,00 728,08 31/12/2018
436 502600 CAROLINA RODRIGUES RUBEN ANALISTA DO MP ATIVO BELO HORIZONTE - COMARCA; EXTINTA-DEF DIREIT HUM-COMB A VIOL DOMEST-18 9.337,87 933,79 0,00 2.354,96 0,00 0,00 12.626,62 1.373,11 1.592,49 0,00 2.965,60 9.661,02 2.033,00 2.345,49 31/12/2018
437 529600 CAROLINA VAZ DE MELO MAMBRINI ANALISTA DO MP ATIVO MINAS NOVAS - COMARCA; MINAS NOVAS-PJ-UNPJ 7.576,76 757,68 0,00 2.032,47 0,00 0,00 10.366,91 952,73 1.170,49 0,00 2.123,22 8.243,69 1.334,00 326,71 31/12/2018
438 619100 CAROLINA ZAKHIA NARDELLI RODRIGUES ANALISTA DO MP ATIVO NEPOMUCENO - COMARCA; NEPOMUCENO-PJ-UNPJ 6.882,47 412,95 0,00 1.887,48 0,00 0,00 9.182,90 882,60 916,19 0,00 1.798,79 7.384,11 1.334,00 728,08 31/12/2018
439 517600 CAROLINE ALVES DE OLIVEIRA MULLER ANALISTA DO MP ATIVO VISCONDE DO RIO BRANCO - COMARCA; VISCONDE DO RIO BRANCO-PJ-01PJ 8.482,22 848,22 0,00 2.223,62 0,00 0,00 11.554,06 1.265,52 1.362,13 0,00 2.627,65 8.926,41 2.033,00 2.174,38 31/12/2018
440 373200 CAROLINE ANTUNES RIBEIRO OFICIAL DO MP ATIVO JACUI - COMARCA; JACUI-PJ-UNPJ 7.337,85 1.467,57 0,00 2.254,61 0,00 0,00 11.060,03 1.006,57 1.129,35 0,00 2.135,92 8.924,11 1.334,00 460,24 31/12/2018
441 556800 CAROLINE DE SOUZA CARDOSO DOMINGUES OFICIAL DO MP ATIVO BRASÍLIA DE MINAS - COMARCA; BRASILIA DE MINAS-PJ-02PJ 4.467,49 446,75 0,00 1.617,91 0,00 0,00 6.532,15 653,50 347,95 0,00 1.001,45 5.530,70 1.334,00 1.026,66 31/12/2018
442 499400 CAROLINE MARQUES DE LOURDES MARZULLO OFICIAL DO MP ATIVO JUIZ DE FORA - COMARCA; JUIZ DE FORA-PJ-08PJ 6.054,65 605,47 0,00 1.798,82 2.220,04 0,00 10.678,98 852,98 1.371,22 0,00 2.224,20 8.454,78 3.081,00 1.094,28 31/12/2018
443 616800 CAROLINE MONTEIRO DE BARROS ANALISTA DO MP ATIVO CONTAGEM - COMARCA; CONTAGEM-PJ-11PJ 6.882,47 412,95 0,00 2.696,10 0,00 0,00 9.991,52 882,60 916,19 0,00 1.798,79 8.192,73 1.334,00 728,08 31/12/2018
444 618100 CAROLINE VASCONCELOS COSTA LANZA ANALISTA DO MP ATIVO PARAOPEBA - COMARCA; PARAOPEBA-PJ-UNPJ 6.882,47 412,95 0,00 1.887,48 0,00 0,00 9.182,90 882,60 916,19 0,00 1.798,79 7.384,11 2.732,00 728,08 31/12/2018
445 604000 CASSIA APARECIDA DA SILVA OFICIAL DO MP ATIVO PARACATU - COMARCA; PARACATU-PJ-01PJ 4.058,04 405,80 0,00 1.414,89 0,00 0,00 5.878,73 683,01 257,75 0,00 940,76 4.937,97 1.334,00 1.745,25 31/12/2018
446 268800 CASSIA BEATRIZ TEIXEIRA OFICIAL DO MP ATIVO BELO HORIZONTE - COMARCA; COMB CRIMES PRAT POR AG POL MUN-SECRETARIA 9.955,90 2.986,77 0,00 3.153,86 0,00 0,00 16.096,53 1.643,91 2.298,36 0,00 3.942,27 12.154,26 1.334,00 2.126,55 31/12/2018
447 500000 CASSIA DE OLIVEIRA COSTA VIANA ANALISTA DO MP ATIVO SETE LAGOAS - COMARCA; SETE LAGOAS-PJ-09PJ 9.337,87 4.668,94 0,00 9.552,93 0,00 0,00 23.559,74 2.051,73 2.558,81 0,00 4.610,54 18.949,20 1.334,00 4.645,31 31/12/2018
448 368800 CASSIA LUISA BATISTA MENDONCA WEBER OFICIAL DO MP ATIVO BELO HORIZONTE - COMARCA; DIVISÃO DE EDUCAÇÃO PARA O CONSUMO 6.665,41 1.333,08 0,00 1.985,60 0,00 0,00 9.984,09 914,32 1.088,27 0,00 2.002,59 7.981,50 1.334,00 313,55 31/12/2018
449 622200 CASSIA VAZ DE AZEVEDO LISBOA MARZANO ASSESSOR ATIVO BELO HORIZONTE - COMARCA; CGMP-SECRETARIA DA CORREGEDORIA-GERAL DO MP 0,00 0,00 2.852,73 1.368,84 0,00 0,00 4.221,57 770,52 55,51 0,00 826,03 3.395,54 2.732,00 149,11 31/12/2018
450 121000 CASSIO HENRIQUE AFONSO DA SILVA OFICIAL DO MP ATIVO BELO HORIZONTE - COMARCA; ASSESS TECNICA DA CORREGEDORIA-GERAL DO MP 14.941,94 10.459,36 0,00 4.518,54 0,00 0,00 29.919,84 2.903,67 5.243,33 0,00 8.147,00 21.772,84 1.334,00 1.327,67 31/12/2018
451 121100 CASSIO MOREIRA DE MIRANDA AGENTE DO MP ATIVO BELO HORIZONTE - COMARCA; DIVISÃO DE FISCALIZAÇÃO DAS RELAÇÕES DE CONSU 4.058,04 3.246,43 0,00 2.560,84 0,00 0,00 9.865,31 834,99 511,09 0,00 1.346,08 8.519,23 1.334,00 1.679,13 31/12/2018
452 512001 CATARINA NATALINO CALIXTO COORDENADOR/ANALISTA ATIVO BELO HORIZONTE - COMARCA; EXTINTA - DIVISÃO DE APOIO À LICITAÇÃO 0,00 657,62 10.960,26 2.814,22 0,00 0,00 14.432,10 862,88 2.096,64 0,00 2.959,52 11.472,58 1.334,00 455,43 31/12/2018
453 606200 CATARINE DE SIQUEIRA DE QUADROS ANALISTA DO MP ATIVO RIBEIRÃO DAS NEVES - COMARCA; RIBEIRAO DAS NEVES-PJ-09PJ 6.251,74 625,17 0,00 1.846,31 0,00 0,00 8.723,22 1.052,20 761,63 0,00 1.813,83 6.909,39 2.033,00 2.688,48 31/12/2018
454 622300 CECILIA APARECIDA PEREIRA ASSUNCAO OFICIAL DO MP ATIVO TRÊS PONTAS - COMARCA; TRES PONTAS-PJ-SECRETARIA 4.467,49 268,05 0,00 1.542,14 0,00 0,00 6.277,68 572,89 269,50 0,00 842,39 5.435,29 2.033,00 534,50 31/12/2018
455 538000 CECILIA FONTES DE MATOS PIMENTEL ANALISTA DO MP ATIVO PALMA - COMARCA; PALMA-PJ-UNPJ 7.576,76 757,68 0,00 2.032,47 0,00 0,00 10.366,91 952,73 1.170,49 0,00 2.123,22 8.243,69 2.033,00 435,61 31/12/2018
456 261300 CECILIO ANTONIO CAMPOS DOS REIS ANALISTA DO MP ATIVO BELO HORIZONTE - COMARCA; AUDITORIA INTERNA 15.533,57 4.660,07 0,00 3.687,51 0,00 0,00 23.881,15 2.685,24 4.073,03 0,00 6.758,27 17.122,88 1.334,00 4.217,56 31/12/2018
457 386400 CEFAS AMORELI DE FIGUEIREDO OFICIAL DO MP ATIVO CABO VERDE - COMARCA; CABO VERDE-PJ-SECRETARIA 5.678,79 1.135,76 0,00 1.820,37 0,00 0,00 8.634,92 778,98 798,50 0,00 1.577,48 7.057,44 1.334,00 267,13 31/12/2018
458 149000 CELIA MAGALHAES CLAROS SOSSI OFICIAL DO MP ATIVO GOVERNADOR VALADARES - COMARCA; GOVERNADOR VALADARES-PJ-01PJ 13.715,83 6.857,91 0,00 3.740,54 0,00 0,00 24.314,28 2.351,83 4.166,06 0,00 6.517,89 17.796,39 1.334,00 806,50 31/12/2018
459 113100 CELIA MARIA ALVES PINTO OFICIAL DO MP ATIVO BELO HORIZONTE - COMARCA; DIVISÃO DE EDUCAÇÃO PARA O CONSUMO 9.337,87 7.470,30 0,00 4.502,93 0,00 1.848,90 23.160,00 2.033,40 3.752,89 0,00 5.786,29 17.373,71 1.334,00 2.081,32 31/12/2018
460 421000 CELINA BENEDITA DE SOUZA ALMEIDA OFICIAL DO MP ATIVO CAMBUÍ - COMARCA; CAMBUI-PJ-01PJ 7.106,49 3.553,25 0,00 2.409,13 0,00 0,00 13.068,87 1.218,54 1.687,47 0,00 2.906,01 10.162,86 1.334,00 557,16 31/12/2018
461 252900 CELIO DE MELO CASTOR ANALISTA DO MP ATIVO BELO HORIZONTE - COMARCA; BH-20PJ ORD ECON TRIBUTARIA-SECRETARIA 15.533,57 4.660,07 0,00 3.687,51 0,00 0,00 23.881,15 2.685,24 4.073,03 0,00 6.758,27 17.122,88 1.334,00 4.481,43 31/12/2018
462 395700 CELIO FERREIRA LIMA OFICIAL DO MP ATIVO CONTAGEM - COMARCA; CONTAGEM-PJ-07PJ 6.882,47 1.376,49 0,00 2.074,08 0,00 0,00 10.333,04 1.266,97 1.099,88 0,00 2.366,85 7.966,19 2.033,00 3.258,92 31/12/2018
463 281300 CELMA REGINA PEREIRA SANTOS ANALISTA DO MP ATIVO BELO HORIZONTE - COMARCA; DIVISAO DE DOCUMENTACAO JURIDICA 14.941,94 4.482,58 0,00 4.297,98 0,00 0,00 23.722,50 2.220,46 3.884,79 0,00 6.105,25 17.617,25 1.334,00 761,45 31/12/2018
464 535600 CELSO MEDEIROS DE PAIVA OFICIAL DO MP ATIVO RIO PRETO - COMARCA; RIO PRETO-PJ-SECRETARIA 4.467,49 446,75 0,00 1.574,71 0,00 0,00 6.488,95 561,76 305,29 0,00 867,05 5.621,90 1.440,24 192,64 31/12/2018
465 367000 CESAR NARVAES DE AVELAR COORDENADOR/OFICIAL ATIVO BELO HORIZONTE - COMARCA; DIVISAO DE MEMORIA INSTITUCIONAL 0,00 2.192,05 10.960,26 4.649,73 0,00 0,00 17.802,04 1.091,32 2.458,73 0,00 3.550,05 14.251,99 1.334,00 687,44 31/12/2018
466 226500 CESAR SILVEIRA BARROUIN OFICIAL DO MP ATIVO BELO HORIZONTE - COMARCA; DIRETORIA DE ADMINISTRACAO FINANCEIRA 10.279,98 4.111,99 0,00 2.877,84 0,00 0,00 17.269,81 1.645,18 2.653,07 0,00 4.298,25 12.971,56 1.334,00 752,23 31/12/2018
467 121400 CEZAR MORENO CONCEICAO TAVARES OFICIAL DO MP ATIVO ALMENARA - COMARCA; COORD REG INCLUSAO MOBILIZ VALE JEQUITINHONHA 13.283,29 9.298,31 0,00 4.020,75 0,00 0,00 26.602,35 2.892,20 4.657,49 0,00 7.549,69 19.052,66 1.334,00 4.006,24 31/12/2018
468 243800 CHARLES MARTINS MUNIZ OFICIAL DO MP ATIVO BELO HORIZONTE - COMARCA; LAB TECNOLOGIA CONTRA LAVAGEM DINHEIRO 10.279,98 3.083,99 0,00 2.734,38 0,00 0,00 16.098,35 1.527,67 2.401,47 0,00 3.929,14 12.169,21 884,00 523,87 31/12/2018
469 193500 CHARLIN CESAR KOURLY OFICIAL DO MP ATIVO ARAGUARI - COMARCA; ARAGUARI-PJ-07PJ 12.065,98 3.619,79 0,00 3.058,40 5.228,59 0,00 23.972,76 2.462,08 4.407,60 0,00 6.869,68 17.103,08 1.334,00 6.696,77 31/12/2018
470 385500 CHILLEN PEIXOTO DE MOURA OFICIAL DO MP ATIVO BELO HORIZONTE - COMARCA; DIVISÃO DE FISCALIZAÇÃO DAS RELAÇÕES DE CONSU 6.882,47 1.376,49 0,00 3.461,57 0,00 0,00 11.720,53 1.266,97 1.520,59 0,00 2.787,56 8.932,97 1.334,00 4.896,30 31/12/2018
471 534500 CHRISTIAN DOUGLAS BRITO RUAS OFICIAL DO MP ATIVO SÃO JOÃO DA PONTE - COMARCA; SAO JOAO DA PONTE-PJ-SECRETARIA 4.838,22 483,82 0,00 2.081,55 0,00 0,00 7.403,59 608,37 433,21 0,00 1.041,58 6.362,01 1.334,00 208,63 31/12/2018
472 370600 CHRISTIAN KARINE FELIX PRATES ASSESSOR ATIVO BELO HORIZONTE - COMARCA; SUPRIN DE PLANEJAMENTO E COORDENACAO 0,00 0,00 9.641,94 3.124,53 0,00 0,00 12.766,47 1.242,08 1.854,49 0,00 3.096,57 9.669,90 1.334,00 377,97 31/12/2018
473 435800 CHRISTIANA BAHIA ANDRADE PINA ANALISTA DO MP ATIVO BELO HORIZONTE - COMARCA; LAB TECNOLOGIA CONTRA LAVAGEM DINHEIRO 10.279,98 1.028,00 0,00 2.447,45 0,00 0,00 13.755,43 1.774,95 1.898,27 0,00 3.673,22 10.082,21 2.033,00 4.827,92 31/12/2018
474 516800 CHRISTIANE FERREIRA DO NASCIMENTO ANALISTA DO MP ATIVO ESTRELA DO SUL - COMARCA; ESTRELA DO SUL-PJ-UNPJ 8.482,22 848,22 0,00 3.326,91 0,00 0,00 12.657,35 1.265,52 1.414,26 0,00 2.679,78 9.977,57 1.334,00 2.174,38 31/12/2018
475 176000 CHRISTIANE JUNQUEIRA PULITI ANDRADE DE BARROS ASSESSOR ATIVO BELO HORIZONTE - COMARCA; SUPRIN DE FORMACAO E APERFEICOAMENTO-SFA/CEAF 0,00 8.491,73 10.614,65 5.509,68 0,00 2.101,70 26.717,76 2.184,09 4.384,89 0,00 6.568,98 20.148,78 1.334,00 1.081,03 31/12/2018
476 319200 CHRISTIANE MARIA DE ASSIS RUSSO OFICIAL DO MP ATIVO BELO HORIZONTE - COMARCA; CAO-ORDEM ECONOMICA E TRIBUTARIA-SECRETARIA 8.482,22 1.696,44 0,00 7.231,80 0,00 0,00 17.410,46 1.231,40 1.569,73 0,00 2.801,13 14.609,33 2.033,00 1.148,91 31/12/2018
477 510300 CHRISTIANE MARY DE CARVALHO FERREIRA ANALISTA DO MP ATIVO BELO HORIZONTE - COMARCA; DIRETORIA DE SISTEMAS DE INFORMACAO 9.337,87 933,79 0,00 2.354,96 0,00 0,00 12.626,62 1.373,11 1.592,49 0,00 2.965,60 9.661,02 1.334,00 2.345,49 31/12/2018
478 424900 CHRISTIANE PEREIRA TURNER DE ARAUJO OFICIAL DO MP ATIVO BELO HORIZONTE - COMARCA; CAO-PATRIMONIO PUBLICO 6.882,47 688,25 0,00 2.030,17 2.523,57 0,00 12.124,46 969,62 1.573,28 0,00 2.542,90 9.581,56 2.732,00 1.243,90 31/12/2018
479 513700 CHRISTIANE VIEIRA SOARES PEDERSOLI ANALISTA DO MP ATIVO BELO HORIZONTE - COMARCA; ASSESSORIA JURIDICA DO PROCON-MG 8.482,22 848,22 0,00 2.171,48 0,00 0,00 11.501,92 1.365,15 1.414,26 0,00 2.779,41 8.722,51 2.033,00 3.503,39 31/12/2018
480 412300 CHRYSTIAN MACHADO RIBEIRO ANALISTA DO MP ATIVO VARGINHA - COMARCA; VARGINHA-PJ-04PJ 11.317,16 2.263,43 0,00 4.995,16 0,00 0,00 18.575,75 1.552,42 2.454,49 0,00 4.006,91 14.568,84 1.334,00 709,83 31/12/2018
481 513800 CHRYSTIANE DO NASCIMENTO DE MAGALHAES OFICIAL DO MP ATIVO UBERLÂNDIA - COMARCA; UBERLANDIA-PJ-10PJ 6.054,65 605,47 0,00 1.903,09 0,00 0,00 8.563,21 761,33 656,43 0,00 1.417,76 7.145,45 2.033,00 261,08 31/12/2018
482 497900 CIBELE DE FREITAS SANCHES DIAS ANALISTA DO MP ATIVO SABARÁ - COMARCA; SABARA-PJ-03PJ 8.482,22 848,22 0,00 3.326,91 0,00 0,00 12.657,35 1.219,74 1.414,26 0,00 2.634,00 10.023,35 1.334,00 1.758,16 31/12/2018
483 500900 CIBELLE SILVA PRADO ALVARENGA ANALISTA DO MP ATIVO ITANHANDU - COMARCA; ITANHANDU-PJ-UNPJ 9.337,87 933,79 0,00 7.237,31 0,00 0,00 17.508,97 1.373,11 1.644,63 0,00 3.017,74 14.491,23 2.033,00 2.211,27 31/12/2018
484 296400 CINTIA APARECIDA MOREIRA NAVES E RODRIGUES ANALISTA DO MP ATIVO CAMPO BELO - COMARCA; CAMPO BELO-PJ-02PJ 14.162,21 2.832,44 0,00 3.241,06 0,00 0,00 20.235,71 2.055,91 3.290,08 0,00 5.345,99 14.889,72 2.033,00 1.695,52 31/12/2018
485 407900 CINTIA NETO COMELLI ANALISTA DO MP ATIVO BELO HORIZONTE - COMARCA; CENTRAL DE APOIO TECNICO-SETOR CONTABIL 11.317,16 2.263,43 0,00 3.360,42 0,00 0,00 16.941,01 1.552,42 2.402,35 0,00 3.954,77 12.986,24 2.033,00 709,83 31/12/2018
486 304700 CINTIA QUEIROZ OFICIAL DO MP ATIVO BELO HORIZONTE - COMARCA; DIR GESTAO SISTEMAS ATIVIDADE-FIM 8.758,36 1.751,67 0,00 2.336,09 0,00 0,00 12.846,12 1.346,06 1.702,97 0,00 3.049,03 9.797,09 1.334,00 1.726,88 31/12/2018
487 286100 CIRO CANGUSSU CORDEIRO OFICIAL DO MP ATIVO IPATINGA - COMARCA; IPATINGA-PJ-09PJ 6.054,65 1.816,40 0,00 1.935,46 0,00 0,00 9.806,51 1.130,34 1.004,94 0,00 2.135,28 7.671,23 1.334,00 2.404,68 31/12/2018
488 412500 CLARICE GOMES MAROTTA ANALISTA DO MP ATIVO BELO HORIZONTE - COMARCA; PROMOT ESTADUAL DE DEF PATRI CULT E TUR DE MG 10.279,98 3.083,99 0,00 2.734,38 0,00 0,00 16.098,35 2.097,67 2.401,47 0,00 4.499,14 11.599,21 1.334,00 5.705,71 31/12/2018
489 605300 CLARISSA AZEVEDO ROCHA OFICIAL DO MP ATIVO BELO HORIZONTE - COMARCA; ASSESSORIA PSICOSSOCIAL 4.467,49 446,75 0,00 1.499,48 1.638,08 0,00 8.051,80 724,99 783,87 0,00 1.508,86 6.542,94 1.334,00 1.802,38 31/12/2018
490 308100 CLARISSA DUARTE MARTINS DIRETOR/ANALISTA ATIVO BELO HORIZONTE - COMARCA; DIRETORIA-GERAL 0,00 4.580,62 22.903,10 5.504,14 0,00 0,00 32.987,86 1.999,30 6.106,87 0,00 8.106,17 24.881,69 1.334,00 1.436,51 31/12/2018
491 497100 CLARISSA ROCHA GUIDI ANALISTA DO MP ATIVO BELO HORIZONTE - COMARCA; BH-02PJ FAMILIA 9.337,87 933,79 0,00 2.302,82 0,00 0,00 12.574,48 1.373,11 1.644,63 0,00 3.017,74 9.556,74 1.334,00 2.211,27 31/12/2018
492 641800 CLARISSE TAVARES GONCALVES OFICIAL DO MP ATIVO BELO HORIZONTE - COMARCA; BH-07PJ 01 TRIBUNAL DO JURI 3.930,12 235,81 0,00 1.494,75 0,00 0,00 5.660,68 534,39 201,35 0,00 735,74 4.924,94 1.334,00 855,49 31/12/2018
493 463700 CLAUDIA ADRIANA FERRAO DIAS ANALISTA DO MP ATIVO SETE LAGOAS - COMARCA; SETE LAGOAS-PJ-06PJ 9.337,87 933,79 0,00 7.289,45 0,00 0,00 17.561,11 1.174,17 1.592,49 0,00 2.766,66 14.794,45 1.334,00 402,65 31/12/2018
494 415400 CLAUDIA ALMEIDA DE VASCONCELLOS BARROS ASSESSOR/OFICIAL ATIVO BELO HORIZONTE - COMARCA; COORD DE GABINETE DO PGJ 0,00 1.928,39 9.641,94 2.947,26 0,00 0,00 14.517,59 1.322,63 1.962,48 0,00 3.285,11 11.232,48 1.334,00 1.956,86 31/12/2018
495 207000 CLAUDIA APARECIDA VILELA MACHADO ANALISTA DO MP ATIVO BELO HORIZONTE - COMARCA; CENTRAL DE APOIO TECNICO-SETOR CONTABIL 17.452,52 6.981,01 0,00 4.435,63 0,00 0,00 28.869,16 2.793,05 4.954,33 0,00 7.747,38 21.121,78 1.334,00 1.277,08 31/12/2018
496 365700 CLAUDIA BREGUEZ CUNHA ANALISTA DO MP ATIVO VARGINHA - COMARCA; VARGINHA-PJ-07PJ 12.065,98 2.413,20 0,00 2.890,01 4.826,39 0,00 22.195,58 1.655,15 4.001,68 0,00 5.656,83 16.538,75 2.033,00 567,59 31/12/2018
497 430500 CLAUDIA CECILIA SANTANA VENCESLAU OFICIAL DO MP ATIVO BELO HORIZONTE - COMARCA; DIRET DE DESENV DE RECURSOS HUMANOS-DDRH 6.882,47 688,25 0,00 2.920,90 0,00 0,00 10.491,62 990,29 909,07 0,00 1.899,36 8.592,26 2.033,00 912,94 31/12/2018
498 112400 CLAUDIA CRISTINA FIUZA DE AVELAR AGENTE DO MP ATIVO BELO HORIZONTE - COMARCA; SERVICO MEDICO-DEPTO PERIC MEDICA SAUDE OCUP 8.758,36 6.130,85 0,00 2.947,23 0,00 0,00 17.836,44 1.702,01 2.774,78 0,00 4.476,79 13.359,65 1.334,00 778,21 31/12/2018
499 480400 CLAUDIA GOULART DE SOUZA OFICIAL DO MP ATIVO PASSOS - COMARCA; PASSOS-PJ-06PJ 6.251,74 1.250,35 0,00 1.916,31 0,00 0,00 9.418,40 857,58 966,78 0,00 1.824,36 7.594,04 1.334,00 392,12 31/12/2018
500 519800 CLAUDIA HELENA CORREA DE ALMEIDA ANALISTA DO MP ATIVO BELO HORIZONTE - COMARCA; BH-12PJ JUIZO CRIMINAL-GAB 102PJ 8.482,22 848,22 0,00 3.326,91 0,00 0,00 12.657,35 1.066,58 1.414,26 0,00 2.480,84 10.176,51 1.334,00 365,76 31/12/2018
501 422100 CLAUDIA IACOMINI CABRAL ANALISTA DO MP ATIVO BELO HORIZONTE - COMARCA; CENT DE APOIO TEC-SETOR DEF,IDOSO E INFANC 10.279,98 5.139,99 0,00 3.021,31 0,00 0,00 18.441,28 2.420,38 2.904,68 0,00 5.325,06 13.116,22 1.334,00 7.283,25 31/12/2018
502 258200 CLAUDIA LAGE MICHALAROS ANALISTA DO MP ATIVO BELO HORIZONTE - COMARCA; CENTRAL DE APOIO TECN-SETOR DE MEIO AMBIENTE 15.533,57 10.873,50 0,00 8.646,38 0,00 0,00 35.053,45 3.511,47 5.541,63 0,00 9.053,10 26.000,35 1.334,00 5.846,90 31/12/2018
503 284600 CLAUDIA LENI DE ABREU OFICIAL DO MP ATIVO CONTAGEM - COMARCA; CONTAGEM-PJ-22PJ 5.678,79 2.271,52 0,00 1.978,87 2.650,10 0,00 12.579,28 908,81 1.805,26 0,00 2.714,07 9.865,21 1.334,00 311,66 31/12/2018
504 433600 CLAUDIA LUIZA SANTIAGO FELICIO ANALISTA DO MP ATIVO BELO HORIZONTE - COMARCA; CENT DE APOIO TEC-SETOR DEF,IDOSO E INFANC 10.279,98 1.028,00 0,00 3.992,04 0,00 0,00 15.300,02 1.774,95 1.793,99 0,00 3.568,94 11.731,08 1.334,00 4.827,92 31/12/2018
505 317000 CLAUDIA MACHADO ALVES ASSESSOR/OFICIAL ATIVO BELO HORIZONTE - COMARCA; DIRETORIA DE SISTEMAS DE INFORMACAO 0,00 1.928,39 9.641,94 2.708,22 0,00 0,00 14.278,55 1.032,81 2.038,25 0,00 3.071,06 11.207,49 1.334,00 453,56 31/12/2018
506 155300 CLAUDIA MACIEL MIRANDA E BELO OFICIAL DO MP ATIVO CONGONHAS - COMARCA; CONGONHAS-PJ-02PJ 13.283,29 6.641,65 0,00 6.663,09 0,00 0,00 26.588,03 2.551,94 3.903,00 0,00 6.454,94 20.133,09 1.334,00 3.742,70 31/12/2018
507 242200 CLAUDIA MICHELLE DIAS MUNIZ BALEEIRO OFICIAL DO MP ATIVO MONTE AZUL - COMARCA; MONTE AZUL-PJ-SECRETARIA 9.955,90 3.982,36 0,00 2.866,66 0,00 0,00 16.804,92 1.785,12 2.489,89 0,00 4.275,01 12.529,91 1.334,00 2.290,11 31/12/2018
508 623000 CLAUDIA PATRICIA SILVA RODRIGUES RAPOSEIRAS OFICIAL DO MP ATIVO BELO HORIZONTE - COMARCA; DIVISÃO DE EDUCAÇÃO PARA O CONSUMO 4.058,04 243,48 0,00 1.443,32 0,00 0,00 5.744,84 520,38 191,01 0,00 711,39 5.033,45 2.033,00 485,37 31/12/2018
509 418400 CLAUDIA REGINA MARTINS BONIFACIO OFICIAL DO MP ATIVO ITUIUTABA - COMARCA; ITUIUTABA-PJ-06PJ 7.106,49 1.421,30 0,00 2.064,56 0,00 0,00 10.592,35 1.128,11 1.113,54 0,00 2.241,65 8.350,70 1.334,00 1.727,74 31/12/2018
510 498300 CLAUDIA SOUTO FARIAS BRAUN OFICIAL DO MP ATIVO TEÓFILO OTONI - COMARCA; TEOFILO OTONI-PJ-SECRETARIA 5.499,78 549,98 0,00 2.362,11 0,00 0,00 8.411,87 808,76 507,05 0,00 1.315,81 7.096,06 1.334,00 1.302,61 31/12/2018
511 206500 CLAUDIA VALERIA FONSECA ANDRADE ANALISTA DO MP ATIVO BELO HORIZONTE - COMARCA; BH-23PJ INF-FISC MED SOC FEC 17.452,52 8.726,26 0,00 4.522,77 0,00 0,00 30.701,55 2.992,56 5.537,90 0,00 8.530,46 22.171,09 1.334,00 1.026,23 31/12/2018
512 277500 CLAUDIO ANTONIO BORGES BRUNSWICK ALVARES OFICIAL DO MP ATIVO BELO HORIZONTE - COMARCA; EXTINTA - DIVISAO DE MATERIAL DE CONSUMO 9.337,87 2.801,36 0,00 3.012,04 0,00 0,00 15.151,27 1.604,71 2.101,72 0,00 3.706,43 11.444,84 1.334,00 2.448,90 31/12/2018
513 444800 CLAUDIO ARESIO DO CARMO ANALISTA DO MP ATIVO SETE LAGOAS - COMARCA; SETE LAGOAS-PJ-01PJ 9.337,87 2.801,36 0,00 2.615,59 0,00 0,00 14.754,82 1.387,67 2.049,58 0,00 3.437,25 11.317,57 1.334,00 634,48 31/12/2018
514 541600 CLAUDIO DE OLIVEIRA MELO OFICIAL DO MP ATIVO CANÁPOLIS - COMARCA; CANAPOLIS-PJ-UNPJ 4.058,04 243,48 0,00 1.471,76 0,00 0,00 5.773,28 491,72 162,58 0,00 654,30 5.118,98 2.033,00 168,62 31/12/2018
515 545100 CLAUDIO HENRIQUE MACEDO DE SOUZA FRANSOZO ANALISTA DO MP ATIVO OURO PRETO - COMARCA; OURO PRETO-PJ-01PJ 7.576,76 757,68 0,00 6.036,33 0,00 0,00 14.370,77 952,73 1.170,49 0,00 2.123,22 12.247,55 1.334,00 326,71 31/12/2018
516 353500 CLAUDIO HENRIQUE PEDRO DA ROCHA OFICIAL DO MP ATIVO BELO HORIZONTE - COMARCA; EXTINTA - PROTOCOLO DA PGJ 7.823,48 1.564,70 0,00 2.283,81 3.129,39 0,00 14.801,38 1.140,23 2.184,70 0,00 3.324,93 11.476,45 1.334,00 1.028,38 31/12/2018
517 265800 CLAUDIO KUPIDLOWSKY FERNANDES OFICIAL DO MP ATIVO BELO HORIZONTE - COMARCA; SECRETARIA DO PROCON-MG 9.337,87 2.801,36 0,00 3.194,93 0,00 0,00 15.334,16 1.439,92 1.277,77 0,00 2.717,69 12.616,47 1.334,00 634,48 31/12/2018
518 193600 CLAUDIO LEITE FONTES OFICIAL DO MP ATIVO ITUIUTABA - COMARCA; ITUIUTABA-PJ-02PJ 7.337,85 2.935,14 0,00 2.303,01 0,00 0,00 12.576,00 1.539,97 1.382,60 0,00 2.922,57 9.653,43 1.334,00 3.726,75 31/12/2018
519 329400 CLAUDIO MARCIO BERNARDES OFICIAL DO MP ATIVO ITAÚNA - COMARCA; ITAUNA-PJ-SECRETARIA 8.482,22 5.937,55 0,00 4.930,56 0,00 0,00 19.350,33 1.744,49 2.607,74 0,00 4.352,23 14.998,10 1.334,00 1.439,18 31/12/2018
520 270200 CLAUDIO RABELO ALVES OFICIAL DO MP ATIVO FORMIGA - COMARCA; FORMIGA-PJ-03PJ 9.337,87 2.801,36 0,00 2.772,00 0,00 0,00 14.911,23 1.468,57 1.893,17 0,00 3.361,74 11.549,49 1.334,00 1.211,30 31/12/2018
521 264700 CLAUDIO ROBERTO KFURI DE ARAUJO ANALISTA DO MP ATIVO BELO HORIZONTE - COMARCA; CENTRAL DE APOIO TECNICO-SETOR DE INFORMATICA 15.533,57 4.660,07 0,00 4.538,02 0,00 0,00 24.731,66 2.656,24 3.968,76 0,00 6.625,00 18.106,66 1.334,00 3.954,04 31/12/2018
522 188600 CLAUDIO SALES OFICIAL DO MP ATIVO NEPOMUCENO - COMARCA; NEPOMUCENO-PJ-SECRETARIA 11.685,57 8.179,90 0,00 3.641,69 0,00 0,00 23.507,16 2.544,25 3.992,71 0,00 6.536,96 16.970,20 1.334,00 3.730,79 31/12/2018
523 543300 CLAUDIO SILVA DE CARVALHO ANALISTA DO MP ATIVO CAMPO BELO - COMARCA; CAMPO BELO-PJ-04PJ 6.882,47 412,95 0,00 1.939,61 0,00 0,00 9.235,03 833,96 864,06 0,00 1.698,02 7.537,01 1.334,00 381,31 31/12/2018
524 160700 CLAUDIO VICENTE HESS ASSESSOR ATIVO BELO HORIZONTE - COMARCA; CENTRAL DE APOIO TECNICO-SETOR DE INFORMATICA 0,00 4.983,53 12.458,83 4.915,10 0,00 0,00 22.357,46 1.242,08 3.895,33 0,00 5.137,41 17.220,05 1.334,00 683,75 31/12/2018
525 312900 CLAUDIO VIEIRA FIRPE OFICIAL DO MP ATIVO BELO HORIZONTE - COMARCA; SUPERINTENDENCIA DE COMUNICACAO INTEGRADA 8.758,36 1.751,67 0,00 2.336,09 0,00 0,00 12.846,12 1.201,42 1.702,97 0,00 2.904,39 9.941,73 2.033,00 412,00 31/12/2018
526 634100 CLEA CRISTINA GUERRA DE FREITAS COSTA OFICIAL DO MP ATIVO BELO HORIZONTE - COMARCA; BH-18PJ VIOLENCIA DOMESTICA 3.930,12 235,81 0,00 3.411,23 0,00 0,00 7.577,16 560,01 172,91 0,00 732,92 6.844,24 2.033,00 925,19 31/12/2018
527 653100 CLEBER SOUZA SCALIONI ASSESSOR ATIVO BELO HORIZONTE - COMARCA; CENTRAL DE APOIO TECNICO-SETOR CONTABIL 0,00 0,00 7.576,76 2.678,09 0,00 0,00 10.254,85 1.242,08 1.286,56 0,00 2.528,64 7.726,21 1.334,00 297,01 31/12/2018
528 459200 CLEIA ZILLE PEREIRA ANALISTA DO MP ATIVO BELO HORIZONTE - COMARCA; ASSESS TECNICO-JUR JUNTO AS PROC. DE JUST 9.337,87 933,79 0,00 2.302,82 0,00 0,00 12.574,48 1.174,17 1.644,63 0,00 2.818,80 9.755,68 1.334,00 402,65 31/12/2018
529 481800 CLEIDE CARDOSO DA SILVA ANALISTA DO MP ATIVO MANHUAÇU - COMARCA; MANHUACU-PJ-04PJ 9.337,87 933,79 0,00 2.407,09 0,00 0,00 12.678,75 1.174,17 1.540,36 0,00 2.714,53 9.964,22 1.334,00 536,87 31/12/2018
530 347600 CLEIDIMAR DE OLIVEIRA SILVA OFICIAL DO MP ATIVO PATOS DE MINAS - COMARCA; COORD REG BACIAS PARACATU,URUCUIA E ABAETE 7.576,76 2.273,03 0,00 2.452,51 3.283,26 0,00 15.585,56 1.261,54 2.235,72 0,00 3.497,26 12.088,30 1.334,00 1.721,44 31/12/2018
531 396500 CLEIDISON BATISTA DE ANDRADE OFICIAL DO MP ATIVO RESPLENDOR - COMARCA; RESPLENDOR-PJ-UNPJ 5.678,79 1.135,76 0,00 1.976,78 0,00 0,00 8.791,33 778,98 642,09 0,00 1.421,07 7.370,26 2.033,00 267,13 31/12/2018
532 535100 CLEISON ALVES DA SILVA ANALISTA DO MP ATIVO BOA ESPERANÇA - COMARCA; BOA ESPERANCA-PJ-01PJ 7.576,76 757,68 0,00 2.136,75 0,00 0,00 10.471,19 952,73 1.066,22 0,00 2.018,95 8.452,24 2.033,00 435,61 31/12/2018
533 298100 CLEONICE AUGUSTA BARROS DE OLIVEIRA ANALISTA DO MP ATIVO JUIZ DE FORA - COMARCA; JUIZ DE FORA-PJ-08PJ 14.372,91 2.874,58 0,00 3.276,35 0,00 0,00 20.523,84 2.260,27 3.351,96 0,00 5.612,23 14.911,61 1.334,00 3.300,43 31/12/2018
534 114300 CLERES PEREIRA DA SILVA JUNIOR ASSESSOR ATIVO BELO HORIZONTE - COMARCA; GAECO - SECRETARIA 0,00 2.381,54 4.763,08 2.741,08 0,00 0,00 9.885,70 1.242,08 1.011,31 0,00 2.253,39 7.632,31 1.334,00 373,43 31/12/2018
535 264100 CLETO HENRIQUE ANDRADE SILVA ANALISTA DO MP ATIVO BELO HORIZONTE - COMARCA; DIRETORIA DE SISTEMAS DE INFORMACAO 15.533,57 4.660,07 0,00 4.590,15 0,00 0,00 24.783,79 2.656,24 3.916,62 0,00 6.572,86 18.210,93 6.370,46 4.662,17 31/12/2018
536 334400 CLEUBA DE OLIVEIRA BARCELOS GONCALVES OFICIAL DO MP ATIVO DIVINÓPOLIS - COMARCA; COORD REG SAUDE MACRORREGIAO SANITARIA OESTE 8.482,22 1.696,44 0,00 3.641,97 0,00 0,00 13.820,63 1.231,40 1.517,59 0,00 2.748,99 11.071,64 1.334,00 1.148,91 31/12/2018
537 347500 CLEUSA CORDEIRO DA MATA PIMENTA OFICIAL DO MP ATIVO CAMPO BELO - COMARCA; CAMPO BELO-PJ-02PJ 7.955,66 6.364,53 0,00 4.069,36 0,00 1.575,22 19.964,77 1.823,13 2.964,42 0,00 4.787,55 15.177,22 1.334,00 2.642,70 31/12/2018
538 510200 CLEZIO SALES SILVA OFICIAL DO MP ATIVO BRASÓPOLIS - COMARCA; BRASOPOLIS-PJ-UNPJ 4.995,72 499,57 0,00 2.138,10 0,00 0,00 7.633,39 717,18 475,61 0,00 1.192,79 6.440,60 2.033,00 1.024,48 31/12/2018
539 323000 CLOTILDE DE PADUA VIEIRA OFICIAL DO MP ATIVO BELO HORIZONTE - COMARCA; CGMP-DIVISAO DE APOIO ADMINISTRATIVO 5.863,71 1.172,74 0,00 1.851,33 0,00 0,00 8.887,78 901,22 852,81 0,00 1.754,03 7.133,75 1.334,00 1.156,43 31/12/2018
540 285200 CLOVIS ANDRE LUDTKE OFICIAL DO MP ATIVO BELO HORIZONTE - COMARCA; DIVISAO DE MANUTENCAO PREDIAL 9.043,46 2.713,04 0,00 2.944,49 0,00 0,00 14.700,99 1.343,91 2.008,04 0,00 3.351,95 11.349,04 1.334,00 614,48 31/12/2018
541 381100 CONCEICAO APARECIDA TEIXEIRA ARANTES ANALISTA DO MP ATIVO BELO HORIZONTE - COMARCA; BH-23PJ INFRACIONAL-ASS JURIDICA 11.317,16 2.263,43 0,00 2.816,75 0,00 0,00 16.397,34 1.706,07 2.744,22 0,00 4.450,29 11.947,05 2.033,00 2.106,63 31/12/2018
542 249900 CONSTANTINO CEZAR GOMES MOTA OFICIAL DO MP ATIVO MONTES CLAROS - COMARCA; COORD REG BACIA RIOS VERDE GRANDE E PARDO 7.576,76 2.273,03 0,00 2.348,23 0,00 0,00 12.198,02 1.476,54 1.437,10 0,00 2.913,64 9.284,38 2.033,00 3.967,54 31/12/2018
543 481000 CRISHMA ANALIA LOMBELLO ANALISTA DO MP ATIVO JUIZ DE FORA - COMARCA; JUIZ DE FORA-PJ-13PJ 9.337,87 933,79 0,00 2.354,96 3.423,89 0,00 16.050,51 1.174,17 2.534,06 0,00 3.708,23 12.342,28 1.334,00 402,65 31/12/2018
544 523900 CRISTHYANE BAZOLI COSTA GUEDES COUTO OFICIAL DO MP ATIVO BELO HORIZONTE - COMARCA; EXTINTA-04ª PJ JUÍZO REG PÚBLICOS-SECRETARIA 5.863,71 586,37 0,00 1.769,51 0,00 0,00 8.219,59 826,12 709,30 0,00 1.535,42 6.684,17 1.334,00 1.127,36 31/12/2018
545 187000 CRISTIAN DAYVSON EVANGELISTA OFICIAL DO MP ATIVO JUIZ DE FORA - COMARCA; JUIZ DE FORA-PJ-09PJ 11.685,57 3.505,67 0,00 3.041,52 0,00 0,00 18.232,76 1.945,62 2.796,56 0,00 4.742,18 13.490,58 1.334,00 2.654,44 31/12/2018
546 319800 CRISTIANA GONCALVES DOS SANTOS GUSMAO OFICIAL DO MP ATIVO SETE LAGOAS - COMARCA; SETE LAGOAS-PJ-10PJ 7.955,66 1.591,13 0,00 2.201,67 0,00 0,00 11.748,46 1.222,73 1.467,22 0,00 2.689,95 9.058,51 1.334,00 1.568,88 31/12/2018
547 520600 CRISTIANA JANAINA BARBOZA JUVENCIO DOS SANTOS ANALISTA DO MP ATIVO BELO HORIZONTE - COMARCA; BH-02PJ FAMILIA 8.482,22 848,22 0,00 2.171,48 0,00 0,00 11.501,92 1.066,58 1.414,26 0,00 2.480,84 9.021,08 1.334,00 487,68 31/12/2018
548 195600 CRISTIANA SOARES HALABI OFICIAL DO MP ATIVO UBERABA - COMARCA; UBERABA-PJ-01PJ 12.458,83 3.737,65 0,00 3.129,67 0,00 0,00 19.326,15 2.074,38 3.094,73 0,00 5.169,11 14.157,04 1.334,00 2.661,63 31/12/2018
549 218900 CRISTIANE ALVES BELLES OFICIAL DO MP ATIVO JUIZ DE FORA - COMARCA; JUIZ DE FORA-PJ-10PJ 5.678,79 1.703,64 0,00 2.003,90 0,00 0,00 9.386,33 843,90 833,21 0,00 1.677,11 7.709,22 2.382,00 289,40 31/12/2018
550 263600 CRISTIANE CARVALHO COUTINHO OFICIAL DO MP ATIVO BELO HORIZONTE - COMARCA; BH-23PJ INFRACIONAL-SEC EXP 9.043,46 2.713,04 0,00 2.562,18 0,00 0,00 14.318,68 1.343,91 1.955,90 0,00 3.299,81 11.018,87 1.334,00 614,48 31/12/2018
551 541000 CRISTIANE COELHO ALVES OFICIAL DO MP ATIVO ITABIRA - COMARCA; ITABIRA-PJ-03PJ 4.467,49 446,75 0,00 1.574,71 0,00 0,00 6.488,95 561,76 305,29 0,00 867,05 5.621,90 1.334,00 192,64 31/12/2018
552 441700 CRISTIANE CORRADO DE ANDRADE ANALISTA DO MP ATIVO BELO HORIZONTE - COMARCA; DIRETORIA DE SISTEMAS DE INFORMACAO 10.279,98 1.028,00 0,00 2.447,45 0,00 0,00 13.755,43 1.774,95 1.898,27 0,00 3.673,22 10.082,21 1.334,00 5.193,31 31/12/2018
553 375100 CRISTIANE DAS DORES ERCIO DE LIMA OFICIAL DO MP ATIVO GOVERNADOR VALADARES - COMARCA; COOR REG INCLUSAO MOBILIZ VALE DO RIO DOCE 6.882,47 1.376,49 0,00 2.021,94 0,00 0,00 10.280,90 944,10 1.152,02 0,00 2.096,12 8.184,78 1.334,00 323,76 31/12/2018
554 178800 CRISTIANE DE LIMA HOSKEN OFICIAL DO MP ATIVO BELO HORIZONTE - COMARCA; BH-14PJ DEFESA CONSUMIDOR-GAB 110PJ 12.065,98 3.619,79 0,00 3.214,81 0,00 0,00 18.900,58 2.462,08 2.813,32 0,00 5.275,40 13.625,18 1.334,00 7.408,55 31/12/2018
555 494000 CRISTIANE DE MELO MARQUEZ OLIVEIRA ANALISTA DO MP ATIVO UBERLÂNDIA - COMARCA; UBERLANDIA-PJ-06PJ 9.337,87 933,79 0,00 2.302,82 0,00 0,00 12.574,48 1.373,11 1.644,63 0,00 3.017,74 9.556,74 2.732,00 2.345,49 31/12/2018
556 266100 CRISTIANE DE OLIVEIRA CASTRO OFICIAL DO MP ATIVO BELO HORIZONTE - COMARCA; BH-14PJ DEFESA CONSUMIDOR-SECRETARIA 9.955,90 2.986,77 0,00 3.069,59 0,00 0,00 16.012,26 1.657,61 2.562,65 0,00 4.220,26 11.792,00 1.334,00 3.519,31 31/12/2018
557 329500 CRISTIANE DOS REIS SILVA OFICIAL DO MP ATIVO ARAXÁ - COMARCA; ARAXA-PJ-04PJ 7.576,76 1.515,35 0,00 2.242,49 0,00 0,00 11.334,60 1.362,95 1.251,66 0,00 2.614,61 8.719,99 1.334,00 3.543,54 31/12/2018
558 301600 CRISTIANE GODINHO PIRES ANALISTA DO MP ATIVO BETIM - COMARCA; BETIM-PJ-07PJ 13.283,29 2.656,66 0,00 3.093,86 0,00 0,00 19.033,81 2.374,92 3.031,94 0,00 5.406,86 13.626,95 1.334,00 6.069,08 31/12/2018
559 406100 CRISTIANE GONCALVES CHAVES ANALISTA DO MP ATIVO BELO HORIZONTE - COMARCA; BH-09PJ AUDITORIA MILITAR-SECRETARIA 11.317,16 3.395,15 0,00 2.922,54 0,00 0,00 17.634,85 1.884,27 2.731,48 0,00 4.615,75 13.019,10 1.334,00 2.739,45 31/12/2018
560 487600 CRISTIANE LOPES DE OLIVEIRA OFICIAL DO MP ATIVO DIVINÓPOLIS - COMARCA; DIVINOPOLIS-PJ-03PJ 5.499,78 549,98 0,00 4.619,94 0,00 0,00 10.669,70 808,76 611,32 0,00 1.420,08 9.249,62 1.760,18 1.381,66 31/12/2018
561 502500 CRISTIANE MACIEL DE OLIVEIRA GOMES CRUZ REIS ANALISTA DO MP ATIVO JUIZ DE FORA - COMARCA; JUIZ DE FORA-PJ-05PJ 9.337,87 933,79 0,00 2.302,82 0,00 0,00 12.574,48 1.373,11 1.644,63 0,00 3.017,74 9.556,74 2.033,00 2.345,49 31/12/2018
562 285500 CRISTIANE MAGALHAES LOURENCO ANALISTA DO MP ATIVO BELO HORIZONTE - COMARCA; CENTRAL DE APOIO TECNICO-SETOR CONTABIL 14.162,21 4.248,66 0,00 3.345,34 0,00 0,00 21.756,21 2.523,26 3.532,42 0,00 6.055,68 15.700,53 1.334,00 5.222,10 31/12/2018
563 536500 CRISTIANE MICHELE DE SOUZA ANALISTA DO MP ATIVO BARÃO DE COCAIS - COMARCA; BARAO DE COCAIS-PJ-UNPJ 7.576,76 757,68 0,00 2.136,75 0,00 0,00 10.471,19 952,73 1.066,22 0,00 2.018,95 8.452,24 2.033,00 326,71 31/12/2018
564 346600 CRISTIANE NOGUEIRA ANDRADE ANALISTA DO MP ATIVO BELO HORIZONTE - COMARCA; CENTRAL DE APOIO TECNICO-SETOR CONTABIL 13.283,29 2.656,66 0,00 3.093,86 0,00 0,00 19.033,81 1.822,12 3.031,94 0,00 4.854,06 14.179,75 1.334,00 624,85 31/12/2018
565 234000 CRISTIANE OLIVEIRA TOSTES OFICIAL DO MP ATIVO JUIZ DE FORA - COMARCA; JUIZ DE FORA-PJ-08PJ 11.317,16 3.395,15 0,00 2.922,54 0,00 0,00 17.634,85 1.884,27 2.731,48 0,00 4.615,75 13.019,10 2.033,00 2.609,65 31/12/2018
566 445800 CRISTIANE ORZIL COSTA OFICIAL DO MP ATIVO SANTA LUZIA - COMARCA; SANTA LUZIA-PJ-05PJ 5.678,79 567,88 0,00 4.742,01 0,00 0,00 10.988,68 714,07 659,51 0,00 1.373,58 9.615,10 2.033,00 244,87 31/12/2018
567 616100 CRISTIANE PAES RODRIGUES MARCICANO ANALISTA DO MP ATIVO CATAGUASES - COMARCA; CATAGUASES-PJ-05PJ 5.678,79 340,73 0,00 1.709,42 0,00 0,00 7.728,94 930,32 603,92 0,00 1.534,24 6.194,70 2.732,00 2.437,93 31/12/2018
568 612300 CRISTIANE RIBEIRO DOS REIS ARCANJO ASSESSOR/OFICIAL ATIVO BELO HORIZONTE - COMARCA; EXTINTA - DIRETORIA SERVIÇOS GERAIS E TRANS 0,00 454,61 7.576,76 2.294,86 0,00 0,00 10.326,23 541,33 1.143,88 0,00 1.685,21 8.641,02 2.033,00 314,83 31/12/2018
569 257700 CRISTIANE RODRIGUES PAES NUNES ANALISTA DO MP ATIVO BELO HORIZONTE - COMARCA; BH-22PJ PES COM DEF E IDOSOS-ORIENTACAO PSIC 14.941,94 4.482,58 0,00 3.632,31 0,00 0,00 23.056,83 2.220,46 3.832,65 0,00 6.053,11 17.003,72 2.452,40 761,45 31/12/2018
570 510800 CRISTIANE SANTOS FERNANDES ORNELES ANALISTA DO MP ATIVO BELO HORIZONTE - COMARCA; COORD ESTADUAL DAS PJS DE HAB. E URBANISMO 8.482,22 848,22 0,00 2.223,62 0,00 0,00 11.554,06 1.464,47 1.362,13 0,00 2.826,60 8.727,46 1.334,00 4.284,44 31/12/2018
571 535701 CRISTIANE SANTOS MIRANDA ANALISTA DO MP ATIVO BETIM - COMARCA; BETIM-PJ-01PJ 5.863,71 0,00 0,00 1.739,81 0,00 0,00 7.603,52 730,83 513,65 0,00 1.244,48 6.359,04 1.334,00 841,39 31/12/2018
572 536200 CRISTIANO DE OLIVEIRA ANALISTA DO MP ATIVO CONCEIÇÃO DO MATO DENTRO - COMARCA; CONCEICAO DO MATO DENTRO-PJ-UNPJ 8.214,70 821,47 0,00 2.130,41 0,00 0,00 11.166,58 1.032,94 1.342,24 0,00 2.375,18 8.791,40 1.334,00 472,29 31/12/2018
573 477400 CRISTIANO SOARES ELEUTERIO ANALISTA DO MP ATIVO BELO HORIZONTE - COMARCA; BH-17PJ PATRIMONIO PUBLICO 9.641,94 964,19 0,00 2.510,18 0,00 0,00 13.116,31 1.283,10 1.726,49 0,00 3.009,59 10.106,72 1.334,00 1.197,10 31/12/2018
574 449400 CRISTIANO TEIXEIRA RODRIGUES LANA ANALISTA DO MP ATIVO BELO HORIZONTE - COMARCA; ASSESS TECNICO-JUR JUNTO AS PROC. DE JUST 9.337,87 933,79 0,00 2.302,82 0,00 0,00 12.574,48 1.174,17 1.644,63 0,00 2.818,80 9.755,68 1.334,00 536,87 31/12/2018
575 239400 CRISTINA DE FATIMA CRUZ E SILVA OFICIAL DO MP ATIVO MONTE SANTO DE MINAS - COMARCA; MONTE SANTO DE MINAS-PJ-SECRETARIA 9.955,90 2.986,77 0,00 2.675,58 0,00 0,00 15.618,25 1.657,61 2.298,36 0,00 3.955,97 11.662,28 1.334,00 2.126,52 31/12/2018
576 544000 CRISTINA DE OLIVEIRA TERRA ANALISTA DO MP ATIVO MATOZINHOS - COMARCA; MATOZINHOS-PJ-01PJ 7.576,76 757,68 0,00 6.036,33 0,00 0,00 14.370,77 952,73 1.170,49 0,00 2.123,22 12.247,55 1.334,00 435,61 31/12/2018
577 356800 CRISTINA DE PINHO BARROSO OFICIAL DO MP ATIVO SABINÓPOLIS - COMARCA; SABINOPOLIS-PJ-UNPJ 6.455,21 1.936,56 0,00 2.144,75 0,00 0,00 10.536,52 1.074,80 1.080,25 0,00 2.155,05 8.381,47 2.033,00 1.576,37 31/12/2018
578 649500 CRISTINA DO DIVINO ESPIRITO SANTOS OFICIAL DO MP ATIVO DIVINÓPOLIS - COMARCA; DIVINOPOLIS-PJ-12PJ 3.930,12 0,00 0,00 1.619,92 0,00 0,00 5.550,04 475,46 141,43 0,00 616,89 4.933,15 1.334,00 443,61 31/12/2018
579 348201 CRISTINA MARIA DA SILVA ANALISTA DO MP ATIVO PATOS DE MINAS - COMARCA; PATOS DE MINAS-PJ-02PJ 9.337,87 933,79 0,00 2.302,82 0,00 0,00 12.574,48 1.174,17 1.644,63 0,00 2.818,80 9.755,68 1.334,00 402,65 31/12/2018
580 434900 CRISTINA MELO DE MADUREIRA ANALISTA DO MP ATIVO BELO HORIZONTE - COMARCA; BH-07PJ 01 TRIBUNAL DO JURI 10.279,98 1.028,00 0,00 2.447,45 0,00 0,00 13.755,43 1.774,95 1.898,27 0,00 3.673,22 10.082,21 1.334,00 5.193,31 31/12/2018
581 307700 CRISTINA TEIXEIRA MARQUES OFICIAL DO MP ATIVO BELO HORIZONTE - COMARCA; CENTRAL DE APOIO TECNICO-SETOR CONTABIL 7.337,85 1.467,57 0,00 2.098,20 2.935,14 0,00 13.838,76 1.006,57 2.092,93 0,00 3.099,50 10.739,26 1.334,00 345,18 31/12/2018
582 265300 CRISTOVAO SANCHES DE MEDEIROS ANALISTA DO MP ATIVO BELO HORIZONTE - COMARCA; DIRETORIA DE CONTABILIDADE 13.715,83 4.114,75 0,00 4.068,77 0,00 0,00 21.899,35 2.038,25 3.442,54 0,00 5.480,79 16.418,56 1.334,00 931,96 31/12/2018
583 349800 CROZEIR LUIZ DA SILVA OFICIAL DO MP ATIVO UNAÍ - COMARCA; UNAI-PJ-SECRETARIA 7.576,76 1.515,35 0,00 2.190,35 3.030,70 0,00 14.313,16 1.164,50 2.137,24 0,00 3.301,74 11.011,42 2.832,98 1.589,04 31/12/2018
584 490500 CYNTHIA CRISTINA DE SOUZA OLIVEIRA VALENTE ANALISTA DO MP ATIVO BELO HORIZONTE - COMARCA; BH-09PJ AUDITORIA MILITAR 9.337,87 933,79 0,00 3.618,66 0,00 0,00 13.890,32 1.373,11 1.644,63 0,00 3.017,74 10.872,58 1.334,00 2.345,49 31/12/2018
585 389800 CYNTHIA GARIGLIO DOS SANTOS OFICIAL DO MP ATIVO PERDIZES - COMARCA; PERDIZES-PJ-SECRETARIA 5.678,79 1.135,76 0,00 1.976,78 0,00 0,00 8.791,33 778,98 642,09 0,00 1.421,07 7.370,26 2.033,00 267,13 31/12/2018
586 335101 CYNTHIA GONTIJO D ASSUNCAO ANALISTA DO MP ATIVO BELO HORIZONTE - COMARCA; PROC. JUSTICA DIR. DIFUSOS E COLETIVOS-SEC 9.337,87 933,79 0,00 2.302,82 0,00 0,00 12.574,48 1.174,17 1.644,63 0,00 2.818,80 9.755,68 2.033,00 402,65 31/12/2018
587 154000 CYNTHIA LOPES DOS SANTOS LAGES ASSESSOR ATIVO BELO HORIZONTE - COMARCA; PROCURADOR-GERAL DE JUSTICA- GABINETE 0,00 8.721,18 12.458,83 5.448,04 0,00 2.329,80 28.957,85 2.421,13 4.955,14 0,00 7.376,27 21.581,58 1.334,00 1.475,12 31/12/2018
588 269700 CYNTIA ROCHA CAVALCANTI OFICIAL DO MP ATIVO UBERLÂNDIA - COMARCA; UBERLANDIA-PJ-06PJ 9.955,90 2.986,77 0,00 3.153,86 0,00 0,00 16.096,53 1.643,91 2.298,36 0,00 3.942,27 12.154,26 2.033,00 2.295,67 31/12/2018
589 278000 DAIRTON LOPES MARTINS FILHO COORDENADOR/ANALISTA ATIVO BELO HORIZONTE - COMARCA; DIRETORIA DE SISTEMAS DE INFORMACAO 0,00 3.737,65 12.458,83 4.039,07 0,00 0,00 20.235,55 1.387,67 3.217,46 0,00 4.605,13 15.630,42 1.334,00 846,55 31/12/2018
590 392700 DALIANA CHAVES SILVA OFICIAL DO MP ATIVO ITAÚNA - COMARCA; ITAUNA-PJ-04PJ 6.251,74 625,17 0,00 1.829,07 0,00 0,00 8.705,98 786,11 813,76 0,00 1.599,87 7.106,11 1.334,00 359,44 31/12/2018
591 558101 DALLEY TASSIA SILVA ANALISTA DO MP ATIVO MORADA NOVA DE MINAS - COMARCA; MORADA NOVA DE MINAS-PJ-UNPJ 6.882,47 412,95 0,00 5.496,46 0,00 0,00 12.791,88 833,96 811,92 0,00 1.645,88 11.146,00 2.033,00 285,98 31/12/2018
592 476700 DALTON DAUD ANALISTA DO MP ATIVO ARAGUARI - COMARCA; ARAGUARI-PJ-05PJ 9.337,87 933,79 0,00 2.407,09 0,00 0,00 12.678,75 1.174,17 1.540,36 0,00 2.714,53 9.964,22 1.334,00 536,87 31/12/2018
593 426900 DANIEL ALVES DA SILVA OFICIAL DO MP ATIVO BELO HORIZONTE - COMARCA; EXTINTA - PROTOCOLO DA PGJ 5.678,79 567,88 0,00 4.846,29 0,00 0,00 11.092,96 714,07 555,24 0,00 1.269,31 9.823,65 1.334,00 244,87 31/12/2018
594 122000 DANIEL ANTONIO VIEIRA OFICIAL DO MP ATIVO ENTRE-RIOS DE MINAS - COMARCA; ENTRE RIOS DE MINAS-PJ-SECRETARIA 9.337,87 6.536,51 0,00 10.971,43 0,00 0,00 26.845,81 1.814,63 2.807,35 0,00 4.621,98 22.223,83 1.334,00 622,28 31/12/2018
595 411000 DANIEL FERREIRA DA SILVA ANALISTA DO MP ATIVO GOVERNADOR VALADARES - COMARCA; GOVERNADOR VALADARES-PJ-15PJ 10.279,98 3.083,99 0,00 2.890,79 0,00 0,00 16.254,76 1.527,67 2.245,06 0,00 3.772,73 12.482,03 2.179,68 698,49 31/12/2018
596 309000 DANIEL GOMES DOS SANTOS ANALISTA DO MP ATIVO POÇOS DE CALDAS - COMARCA; POCOS DE CALDAS-PJ-03PJ 13.715,83 2.743,17 0,00 3.166,31 0,00 0,00 19.625,31 2.107,91 3.158,98 0,00 5.266,89 14.358,42 2.033,00 3.090,46 31/12/2018
597 554500 DANIEL GOMES PEREIRA OFICIAL DO MP ATIVO NANUQUE - COMARCA; NANUQUE-PJ-02PJ 4.838,22 483,82 0,00 1.606,39 0,00 0,00 6.928,43 691,43 433,21 0,00 1.124,64 5.803,79 1.483,40 1.033,25 31/12/2018
598 453000 DANIEL GONCALVES PEREIRA ANALISTA DO MP ATIVO UNAÍ - COMARCA; UNAI-PJ-02PJ 9.337,87 933,79 0,00 2.302,82 3.423,89 0,00 15.998,37 1.174,17 2.586,20 0,00 3.760,37 12.238,00 2.033,00 402,65 31/12/2018
599 495500 DANIEL GUIMARAES CABRAL OFICIAL DO MP ATIVO BELO HORIZONTE - COMARCA; BH-17PJ PATRIMONIO PUBLICO-SECRETARIA 5.499,78 549,98 0,00 1.713,64 0,00 0,00 7.763,40 808,76 611,32 0,00 1.420,08 6.343,32 1.334,00 1.302,61 31/12/2018
600 442900 DANIEL GUIMARAES GONCALVES ANALISTA DO MP ATIVO UBERLÂNDIA - COMARCA; UBERLANDIA-PJ-03PJ 10.279,98 1.028,00 0,00 2.447,45 0,00 0,00 13.755,43 1.292,64 1.898,27 0,00 3.190,91 10.564,52 1.334,00 591,04 31/12/2018
601 491200 DANIEL HENRIQUE SOUTO COSTA ANALISTA DO MP ATIVO JANUÁRIA - COMARCA; JANUARIA-PJ-01PJ 9.337,87 933,79 0,00 3.618,66 0,00 0,00 13.890,32 1.373,11 1.644,63 0,00 3.017,74 10.872,58 2.033,00 2.345,49 31/12/2018
602 655900 DANIEL LUIZ DA SILVA ASSESSOR ATIVO BELO HORIZONTE - COMARCA; EXTINTA - DIVISAO DE SERVICOS GERAIS 0,00 0,00 2.852,73 1.326,18 0,00 0,00 4.178,91 670,02 142,21 0,00 812,23 3.366,68 1.334,00 111,83 31/12/2018
603 464600 DANIEL PIACENTINI STIVANIN ANALISTA DO MP ATIVO ANDRADAS - COMARCA; ANDRADAS-PJ-02PJ 9.337,87 933,79 0,00 2.302,82 0,00 0,00 12.574,48 1.174,17 1.644,63 0,00 2.818,80 9.755,68 1.334,00 402,65 31/12/2018
604 417000 DANIEL QUEIROZ FERREIRA ANALISTA DO MP ATIVO SÃO SEBASTIÃO DO PARAÍSO - COMARCA; SAO SEBASTIAO DO PARAISO-PJ-05PJ 9.955,90 1.991,18 0,00 3.014,92 0,00 0,00 14.962,00 1.516,41 2.054,69 0,00 3.571,10 11.390,90 1.334,00 1.994,52 31/12/2018
605 396700 DANIEL SILVA CARNEVALLI ASSESSOR/ANALISTA ATIVO BELO HORIZONTE - COMARCA; PROCURADORIA-GERAL ADJUNTA ADMINISTRATIVA 11.317,16 4.600,54 0,00 3.269,84 0,00 0,00 19.187,54 1.723,75 3.097,20 0,00 4.820,95 14.366,59 2.033,00 2.181,50 31/12/2018
606 489300 DANIEL TABOZA ROCHA ANALISTA DO MP ATIVO IPATINGA - COMARCA; IPATINGA-PJ-08PJ 9.337,87 933,79 0,00 2.302,82 0,00 0,00 12.574,48 1.373,11 1.644,63 0,00 3.017,74 9.556,74 2.033,00 2.211,27 31/12/2018
607 414100 DANIEL TARDELI VALADAO ANALISTA DO MP ATIVO TRÊS CORACOES - COMARCA; TRES CORACOES-PJ-02PJ 10.279,98 2.056,00 0,00 3.293,30 0,00 0,00 15.629,28 1.410,15 1.941,32 0,00 3.351,47 12.277,81 3.431,00 483,58 31/12/2018
608 446601 DANIEL VIEIRA BUENO ANALISTA DO MP ATIVO SÃO DOMINGOS DO PRATA - COMARCA; SAO DOMINGOS DO PRATA-PJ-UNPJ 7.337,85 440,27 0,00 2.166,34 0,00 0,00 9.944,46 1.031,27 1.034,34 0,00 2.065,61 7.878,85 1.334,00 1.597,05 31/12/2018
609 253200 DANIELA BATISTA LIMA BARBOSA ASSESSOR ATIVO BELO HORIZONTE - COMARCA; CENTRAL DE APOIO TECN-SETOR DE MEIO AMBIENTE 0,00 1.428,92 4.763,08 2.378,73 0,00 0,00 8.570,73 1.242,08 905,75 0,00 2.147,83 6.422,90 1.334,00 242,73 31/12/2018
610 505800 DANIELA BORGES DE MATTOS RESENDE ANALISTA DO MP ATIVO JUIZ DE FORA - COMARCA; JUIZ DE FORA-PJ-20PJ 9.337,87 933,79 0,00 3.618,66 0,00 0,00 13.890,32 1.373,11 1.644,63 0,00 3.017,74 10.872,58 2.033,00 2.211,27 31/12/2018
611 478000 DANIELA CARVALHO SOARES ANALISTA DO MP ATIVO SÃO JOÃO DEL REI - COMARCA; SAO JOAO DEL REI-PJ-01PJ 9.337,87 933,79 0,00 3.618,66 0,00 0,00 13.890,32 1.174,17 1.644,63 0,00 2.818,80 11.071,52 1.334,00 402,65 31/12/2018
612 275900 DANIELA CHAGAS SODRE ANALISTA DO MP ATIVO BELO HORIZONTE - COMARCA; CENTRAL DE APOIO TECNICO-SETOR CONTABIL 14.162,21 4.248,66 0,00 4.171,19 0,00 0,00 22.582,06 2.217,81 3.584,56 0,00 5.802,37 16.779,69 1.334,00 1.991,61 31/12/2018
613 234301 DANIELA CRUZ SOARES ANALISTA DO MP ATIVO BELO HORIZONTE - COMARCA; DIR ANALISES TECNOLOGIA INTELIGENCIA 15.533,57 4.660,07 0,00 3.687,51 0,00 0,00 23.881,15 2.685,24 4.073,03 0,00 6.758,27 17.122,88 1.334,00 4.217,56 31/12/2018
614 638000 DANIELA DE ALMEIDA BATISTA ANALISTA DO MP ATIVO ANDRELÂNDIA - COMARCA; ANDRELANDIA-PJ-UNPJ 6.665,41 399,92 0,00 1.946,48 0,00 0,00 9.011,81 621,04 902,82 0,00 1.523,86 7.487,95 2.033,00 276,97 31/12/2018
615 301000 DANIELA DE ALMEIDA E OLIVEIRA ANALISTA DO MP ATIVO BELO HORIZONTE - COMARCA; DIRETORIA DE SISTEMAS DE INFORMACAO 14.162,21 2.832,44 0,00 3.241,06 0,00 0,00 20.235,71 2.055,91 3.290,08 0,00 5.345,99 14.889,72 1.334,00 1.695,52 31/12/2018
616 296000 DANIELA DE AZEVEDO SILVA ANALISTA DO MP ATIVO ITAJUBA - COMARCA; ITAJUBA-PJ-03PJ 13.283,29 3.984,99 0,00 3.279,25 0,00 0,00 20.547,53 2.572,84 3.357,05 0,00 5.929,89 14.617,64 1.334,00 6.121,17 31/12/2018
617 453500 DANIELA DE CASTRO SOUSA BARBOSA ANALISTA DO MP ATIVO BELO HORIZONTE - COMARCA; BH-08PJ JUIZADO ESPECIAL-SECRETARIA 9.337,87 933,79 0,00 2.302,82 0,00 0,00 12.574,48 1.232,29 1.773,93 0,00 3.006,22 9.568,26 1.334,00 1.065,17 31/12/2018
618 506000 DANIELA DE OLIVEIRA CAVALIERI ANALISTA DO MP ATIVO BELO HORIZONTE - COMARCA; BH-14PJ DEFESA CONSUMIDOR-GAB 005PJ 7.823,48 782,35 0,00 2.070,35 0,00 0,00 10.676,18 1.150,45 1.236,92 0,00 2.387,37 8.288,81 1.334,00 1.965,32 31/12/2018
619 546200 DANIELA DE VILHENA LEMES GONCALVES OFICIAL DO MP ATIVO TRÊS CORACOES - COMARCA; TRES CORACOES-PJ-05PJ 4.838,22 290,29 0,00 2.060,08 0,00 0,00 7.188,59 586,25 305,54 0,00 891,79 6.296,80 1.334,00 201,04 31/12/2018
620 356400 DANIELA LEAL FERRAZ ANALISTA DO MP ATIVO MONTES CLAROS - COMARCA; COORD REG PJ DEF EDUC DIR CRIANCA ADOL NORTE 11.685,57 2.337,11 0,00 2.826,30 0,00 0,00 16.848,98 1.795,93 2.562,69 0,00 4.358,62 12.490,36 1.334,00 2.450,26 31/12/2018
621 501000 DANIELA LOURENCO SANTOS DA SILVA GUIMARAES ANALISTA DO MP ATIVO BELO HORIZONTE - COMARCA; BH-12PJ JUIZO CRIMINAL-GAB 095PJ 9.337,87 933,79 0,00 2.354,96 0,00 0,00 12.626,62 1.373,11 1.592,49 0,00 2.965,60 9.661,02 2.033,00 2.211,27 31/12/2018
622 195801 DANIELA MARIA DE OLIVEIRA QUEIROZ ANALISTA DO MP ATIVO ARAGUARI - COMARCA; ARAGUARI-PJ-06PJ 10.279,98 3.083,99 0,00 2.734,38 0,00 0,00 16.098,35 2.097,67 2.401,47 0,00 4.499,14 11.599,21 1.334,00 6.312,15 31/12/2018
623 511400 DANIELA MARIA LARA DE OLIVEIRA ANALISTA DO MP ATIVO BOA ESPERANÇA - COMARCA; BOA ESPERANCA-PJ-02PJ 8.482,22 848,22 0,00 3.352,98 3.110,15 0,00 15.793,57 1.464,47 2.217,42 0,00 3.681,89 12.111,68 2.033,00 4.284,44 31/12/2018
624 252101 DANIELA PAULA ALVES PENA ANALISTA DO MP ATIVO CONTAGEM - COMARCA; CONTAGEM-PJ-APO TECNICO 11.685,57 3.505,67 0,00 2.989,38 0,00 0,00 18.180,62 1.736,55 2.848,70 0,00 4.585,25 13.595,37 1.334,00 595,50 31/12/2018
625 604700 DANIELA PEIXOTO NOGUEIRA COORDENADOR/OFICIAL ATIVO BELO HORIZONTE - COMARCA; DIRET DE FORMACAO, APERFEIC. E POS-GRADUACAO 0,00 1.096,03 10.960,26 4.546,48 0,00 0,00 16.602,77 696,31 2.538,30 0,00 3.234,61 13.368,16 1.334,00 1.482,93 31/12/2018
626 429600 DANIELA PIMENTA NUNES MACHADO ANALISTA DO MP ATIVO BELO HORIZONTE - COMARCA; BH-05PJ JUÍZO DE SUCESSÕES 10.279,98 1.028,00 0,00 7.931,93 0,00 0,00 19.239,91 1.774,95 1.846,13 0,00 3.621,08 15.618,83 2.033,00 4.975,68 31/12/2018
627 662000 DANIELA RIBAS DE AVILA ASSESSOR I ATIVO BELO HORIZONTE - COMARCA; EXTINTA - PROTOCOLO DA PGJ 0,00 0,00 7.576,76 3.304,16 0,00 0,00 10.880,92 1.154,89 1.286,56 0,00 2.441,45 8.439,47 1.334,00 198,01 31/12/2018
628 462000 DANIELA SOUSA GOMES DO AMARAL ANALISTA DO MP ATIVO BETIM - COMARCA; BETIM-PJ-04PJ 9.337,87 933,79 0,00 3.618,66 0,00 0,00 13.890,32 1.174,17 1.644,63 0,00 2.818,80 11.071,52 1.334,00 402,65 31/12/2018
629 427000 DANIELA TEIXEIRA DINIZ ANDRADE ANALISTA DO MP ATIVO BELO HORIZONTE - COMARCA; DIRETORIA DE PROJETOS DE EDIFICACOES 9.337,87 933,79 0,00 7.289,45 0,00 0,00 17.561,11 1.174,17 1.592,49 0,00 2.766,66 14.794,45 1.334,00 536,87 31/12/2018
630 337200 DANIELA TOLEDO SENIUK ANALISTA DO MP ATIVO BELO HORIZONTE - COMARCA; GABINETE DE PROCURADOR DE JUSTIÇA - SALA 412 10.960,26 2.192,05 0,00 4.511,60 0,00 0,00 17.663,91 1.503,46 2.349,67 0,00 3.853,13 13.810,78 1.334,00 515,58 31/12/2018
631 605600 DANIELE ALZIRA SILVA CABRAL MOREIRA OFICIAL DO MP ATIVO BELO HORIZONTE - COMARCA; BH-10PJ EXECUÇÃO PENAL 4.467,49 446,75 0,00 1.499,48 0,00 0,00 6.413,72 724,99 347,95 0,00 1.072,94 5.340,78 2.033,00 1.923,83 31/12/2018
632 195500 DANIELE CHAVES FONSECA OFICIAL DO MP ATIVO BELO HORIZONTE - COMARCA; ASSESSORIA ESPECIAL DO PGJ 12.864,49 3.859,35 0,00 3.203,27 0,00 0,00 19.927,11 1.911,73 3.223,80 0,00 5.135,53 14.791,58 1.334,00 874,11 31/12/2018
633 323400 DANIELE MEGALE SANTINI OFICIAL DO MP ATIVO BELO HORIZONTE - COMARCA; ASSESS TECNICO-JUR JUNTO AS PROC. DE JUST 7.955,66 1.591,13 0,00 2.253,80 0,00 0,00 11.800,59 1.498,53 1.415,08 0,00 2.913,61 8.886,98 1.334,00 4.076,16 31/12/2018
634 357900 DANIELE REJANE PINTO VERSIEUX OFICIAL DO MP ATIVO PEDRO LEOPOLDO - COMARCA; PEDRO LEOPOLDO-PJ-03PJ 7.337,85 1.467,57 0,00 2.098,20 0,00 0,00 10.903,62 1.319,98 1.285,77 0,00 2.605,75 8.297,87 1.334,00 3.309,44 31/12/2018
635 389500 DANIELE VASCONCELOS AMORIM OFICIAL DO MP ATIVO SÃO SEBASTIÃO DO PARAÍSO - COMARCA; SAO SEBASTIAO DO PARAISO-PJ-04PJ 7.106,49 1.421,30 0,00 2.059,46 0,00 0,00 10.587,25 1.082,42 1.217,82 0,00 2.300,24 8.287,01 1.334,00 1.312,33 31/12/2018
636 629700 DANIELLA BASTOS MARTINS BICALHO OFICIAL DO MP ATIVO GOVERNADOR VALADARES - COMARCA; GOVERNADOR VALADARES-PJ-16PJ 3.930,12 235,81 0,00 3.382,79 0,00 0,00 7.548,72 719,53 201,35 0,00 920,88 6.627,84 1.334,00 2.612,20 31/12/2018
637 265000 DANIELLE CASTANHEIRA SCALABRINI OFICIAL DO MP ATIVO BELO HORIZONTE - COMARCA; JUNTA RECURSAL DO PROCON ESTADUAL 9.043,46 2.713,04 0,00 3.100,90 0,00 0,00 14.857,40 1.343,91 1.851,63 0,00 3.195,54 11.661,86 1.334,00 614,48 31/12/2018
638 490100 DANIELLE DE AVILA SILVA LOPES ANALISTA DO MP ATIVO BELO HORIZONTE - COMARCA; PROC. JUSTICA DIR. DIFUSOS E COLETIVOS-SEC 9.337,87 2.801,36 0,00 3.012,04 0,00 0,00 15.151,27 1.604,71 2.101,72 0,00 3.706,43 11.444,84 2.732,00 2.448,90 31/12/2018
639 549600 DANIELLE GOMES LOPES RODRIGUES OFICIAL DO MP ATIVO VESPASIANO - COMARCA; VESPASIANO-PJ-02PJ 4.838,22 483,82 0,00 4.163,10 0,00 0,00 9.485,14 608,37 433,21 0,00 1.041,58 8.443,56 1.334,00 208,63 31/12/2018
640 613000 DANIELLE SILVA OLIVEIRA FRANKLIN ASSESSOR/OFICIAL ATIVO BELO HORIZONTE - COMARCA; DIRETORIA DE ORCAMENTO-DIOR/SPC 0,00 454,61 7.576,76 6.100,98 0,00 0,00 14.132,35 541,33 1.196,02 0,00 1.737,35 12.395,00 3.011,60 314,83 31/12/2018
641 380800 DANILLO RIBEIRO ANTUNES ANALISTA DO MP ATIVO MONTES CLAROS - COMARCA; MONTES CLAROS-PJ-SECRETARIA 11.317,16 2.263,43 0,00 2.816,75 0,00 0,00 16.397,34 1.723,75 2.402,35 0,00 4.126,10 12.271,24 1.334,00 2.089,89 31/12/2018
642 453700 DANILO BOTELHO DE CARVALHO DIRETOR/ANALISTA ATIVO BELO HORIZONTE - COMARCA; SUPERINTENDENCIA DE FINANCAS 0,00 1.614,85 16.148,50 3.831,08 0,00 0,00 21.594,43 1.490,84 3.660,01 0,00 5.150,85 16.443,58 2.800,50 2.412,70 31/12/2018
643 391200 DANILO D'AVILA MENDES ANALISTA DO MP ATIVO SÃO ROMÃO - COMARCA; SAO ROMAO-PJ-UNPJ 11.317,16 2.263,43 0,00 2.764,61 0,00 0,00 16.345,20 1.723,75 2.454,49 0,00 4.178,24 12.166,96 2.033,00 2.397,14 31/12/2018
644 494900 DANILO GAVIAO AVELINO DE MELLO ANALISTA DO MP ATIVO POUSO ALEGRE - COMARCA; GAECO REGIONAL DE POUSO ALEGRE 9.337,87 933,79 0,00 3.618,66 0,00 0,00 13.890,32 1.373,11 1.644,63 0,00 3.017,74 10.872,58 2.033,00 2.211,27 31/12/2018
645 604300 DANILO NASCIMENTO SALGADO ANALISTA DO MP ATIVO JANAÚBA - COMARCA; JANAUBA-PJ-01PJ 6.882,47 688,25 0,00 2.058,15 2.523,57 0,00 12.152,44 1.176,55 1.677,56 0,00 2.854,11 9.298,33 1.334,00 3.125,18 31/12/2018
646 550800 DANTE MENDES BIANCHETTI FILHO ANALISTA DO MP ATIVO BARBACENA - COMARCA; BARBACENA-PJ-SECRETARIA 7.576,76 757,68 0,00 6.036,33 0,00 0,00 14.370,77 952,73 1.170,49 0,00 2.123,22 12.247,55 1.334,00 326,71 31/12/2018
647 298300 DANUZA MONICA DE SOUZA DINIZ ANALISTA DO MP ATIVO DIVINÓPOLIS - COMARCA; DIVINOPOLIS-PJ-12PJ 11.317,16 2.263,43 0,00 2.816,75 0,00 0,00 16.397,34 1.552,42 2.402,35 0,00 3.954,77 12.442,57 1.334,00 709,83 31/12/2018
648 398700 DARCY LUIZ MILEO GREGATTI OFICIAL DO MP ATIVO LAMBARI - COMARCA; LAMBARI-PJ-SECRETARIA 6.882,47 1.376,49 0,00 2.994,77 0,00 0,00 11.253,73 1.266,97 1.152,02 0,00 2.418,99 8.834,74 1.334,00 3.258,92 31/12/2018
649 406200 DARIANA AUGUSTA DE TOLEDO PATROCINIO COORDENADOR/OFICIAL ATIVO BELO HORIZONTE - COMARCA; EXTINTA - DIRETORIA DE COMPRAS E LICITAÇÕES 0,00 2.491,77 12.458,83 4.015,92 0,00 0,00 18.966,52 1.066,45 2.958,89 0,00 4.025,34 14.941,18 1.334,00 781,43 31/12/2018
650 305000 DARLI LEITE DE OLIVEIRA OFICIAL DO MP ATIVO ARAÇUAÍ - COMARCA; ARACUAI-PJ-01PJ 5.678,79 1.135,76 0,00 1.976,78 0,00 0,00 8.791,33 778,98 642,09 0,00 1.421,07 7.370,26 1.334,00 267,13 31/12/2018
651 122200 DAVID RIBEIRO DOS SANTOS ANALISTA DO MP ATIVO BORDA DA MATA - COMARCA; BORDA DA MATA-PJ-UNPJ 17.452,52 13.962,02 0,00 5.253,46 0,00 3.351,82 40.019,82 3.383,50 7.510,20 943,43 11.837,13 28.182,69 1.334,00 3.038,80 31/12/2018
652 389400 DAWSON CANEDO MARQUES OFICIAL DO MP ATIVO TRÊS CORACOES - COMARCA; TRES CORACOES-PJ-02PJ 7.337,85 1.467,57 0,00 2.098,20 0,00 0,00 10.903,62 1.006,57 656,13 0,00 1.662,70 9.240,92 2.033,00 345,18 31/12/2018
653 256100 DAYSE ROSALY PEREIRA BATISTA OFICIAL DO MP ATIVO BELO HORIZONTE - COMARCA; BH-08PJ JUIZADO ESPECIAL-SECRETARIA 8.482,22 2.544,67 0,00 2.408,22 0,00 0,00 13.435,11 1.412,27 1.829,47 0,00 3.241,74 10.193,37 1.334,00 2.070,92 31/12/2018
654 311901 DEBORA APARECIDA DA SILVA ASSESSOR ATIVO BELO HORIZONTE - COMARCA; BH-23PJ CIVEL-SETOR ATEND PUB 0,00 0,00 2.852,73 1.326,18 0,00 0,00 4.178,91 670,02 142,21 0,00 812,23 3.366,68 1.334,00 111,83 31/12/2018
655 194301 DEBORA APARECIDA DOS SANTOS ANALISTA DO MP ATIVO UBERLÂNDIA - COMARCA; UBERLANDIA-PJ-SEC FAMILIA 14.372,91 4.311,87 0,00 3.529,08 0,00 0,00 22.213,86 2.448,63 3.651,60 0,00 6.100,23 16.113,63 1.334,00 3.819,61 31/12/2018
656 518800 DEBORA CARVALHO FIORATTO ASSESSOR/OFICIAL ATIVO BELO HORIZONTE - COMARCA; EXTINTA - DIRETORIA SERVIÇOS GERAIS E TRANS 0,00 964,19 9.641,94 2.651,86 0,00 0,00 13.257,99 761,33 1.845,86 0,00 2.607,19 10.650,80 2.033,00 415,77 31/12/2018
657 444900 DEBORA CLAUDIA PEREIRA ALVES ANALISTA DO MP ATIVO BELO HORIZONTE - COMARCA; BH-08PJ JUIZADO ESPECIAL-SECRETARIA 9.337,87 933,79 0,00 2.302,82 0,00 0,00 12.574,48 1.232,29 1.773,93 0,00 3.006,22 9.568,26 1.520,40 930,95 31/12/2018
658 617700 DEBORA COMANDUCI SCHREIDER ANALISTA DO MP ATIVO BICAS - COMARCA; BICAS-PJ-UNPJ 6.882,47 412,95 0,00 1.939,61 2.431,81 0,00 11.666,84 1.019,44 1.532,80 0,00 2.552,24 9.114,60 2.503,28 1.972,14 31/12/2018
659 555700 DEBORA CRISTINA BUITRAGO PEREIRA ANALISTA DO MP ATIVO BELO HORIZONTE - COMARCA; EXTINTA - DIRETORIA DE CONTRATOS E CONVÊNIOS 7.576,76 757,68 0,00 2.032,47 0,00 0,00 10.366,91 1.108,29 1.170,49 0,00 2.278,78 8.088,13 2.033,00 1.740,91 31/12/2018
660 513100 DEBORA CRISTINA PEREIRA DE OLIVEIRA ANALISTA DO MP ATIVO BELO HORIZONTE - COMARCA; BH-23PJ CIVEL-SETOR JURIDICO 8.482,22 848,22 0,00 2.171,48 0,00 0,00 11.501,92 1.469,89 1.414,26 0,00 2.884,15 8.617,77 2.106,15 4.333,67 31/12/2018
661 612100 DEBORA DUARTE SILVA DE SOUZA OFICIAL DO MP ATIVO RIBEIRÃO DAS NEVES - COMARCA; RIBEIRAO DAS NEVES-PJ-06PJ 4.467,49 1.340,25 0,00 1.780,26 0,00 0,00 7.588,00 663,89 447,81 0,00 1.111,70 6.476,30 1.706,80 227,67 31/12/2018
662 539700 DEBORA SALES CARVALHO ANALISTA DO MP ATIVO PATOS DE MINAS - COMARCA; COORD REG PJ DEF EDU DIR CRI ADO AL PAR NOROE 7.576,76 757,68 0,00 2.032,47 0,00 0,00 10.366,91 952,73 1.170,49 0,00 2.123,22 8.243,69 1.334,00 326,71 31/12/2018
663 424100 DEBORA SANTOS E ALVES ANALISTA DO MP ATIVO JANUÁRIA - COMARCA; JANUARIA-PJ-01PJ 11.317,16 2.263,43 0,00 2.606,67 0,00 0,00 16.187,26 1.796,52 2.454,49 0,00 4.251,01 11.936,25 2.033,00 3.291,35 31/12/2018
664 426301 DEBORA SCUCATO MACHADO SOARES OFICIAL DO MP ATIVO ITABIRITO - COMARCA; ITABIRITO-PJ-01PJ 4.838,22 483,82 0,00 4.163,10 0,00 0,00 9.485,14 608,37 433,21 0,00 1.041,58 8.443,56 2.732,00 208,63 31/12/2018
665 550200 DEBORA TRINDADE LEITE ANALISTA DO MP ATIVO MANHUAÇU - COMARCA; MANHUACU-PJ-05PJ 7.576,76 757,68 0,00 2.136,75 0,00 0,00 10.471,19 952,73 1.066,22 0,00 2.018,95 8.452,24 1.334,00 435,61 31/12/2018
666 438000 DEBORAH COSTA LAGE ANALISTA DO MP ATIVO BELO HORIZONTE - COMARCA; ASSESS TECNICO-JUR JUNTO AS PROC. DE JUST 10.279,98 1.028,00 0,00 2.447,45 0,00 0,00 13.755,43 1.774,95 1.898,27 0,00 3.673,22 10.082,21 1.334,00 5.193,31 31/12/2018
667 475700 DEBORAH LOBAO LACERDA ASSESSOR/OFICIAL ATIVO BELO HORIZONTE - COMARCA; BH-17PJ PATRIMONIO PUBLICO-SECRETARIA 0,00 757,68 7.576,76 2.185,87 0,00 0,00 10.520,31 738,82 1.226,61 0,00 1.965,43 8.554,88 1.334,00 326,71 31/12/2018
668 613700 DEISER MARIA FERREIRA ROSCOE OFICIAL DO MP ATIVO BELO HORIZONTE - COMARCA; DIRETORIA DE PAGAMENTO DE PESSOAL-DPAG 4.467,49 268,05 0,00 1.499,48 0,00 0,00 6.235,02 541,33 312,16 0,00 853,49 5.381,53 1.334,00 247,52 31/12/2018
669 551900 DEISY ROCHA DA SILVA ANALISTA DO MP ATIVO JOÃO PINHEIRO - COMARCA; JOAO PINHEIRO-PJ-01PJ 7.576,76 757,68 0,00 6.036,33 0,00 0,00 14.370,77 1.108,29 1.170,49 0,00 2.278,78 12.091,99 1.334,00 1.849,81 31/12/2018
670 501900 DELI RAQUEL RODRIGUES ANALISTA DO MP ATIVO ITUIUTABA - COMARCA; ITUIUTABA-PJ-04PJ 9.337,87 933,79 0,00 7.237,31 0,00 0,00 17.508,97 1.373,11 1.644,63 0,00 3.017,74 14.491,23 2.238,31 2.211,27 31/12/2018
671 378600 DELIANE LOPES VIEIRA BREIJAO NEVES ANALISTA DO MP ATIVO JUIZ DE FORA - COMARCA; JUIZ DE FORA-PJ-12PJ 11.317,16 2.263,43 0,00 2.816,75 4.526,86 0,00 20.924,20 1.723,75 3.647,24 0,00 5.370,99 15.553,21 2.033,00 2.219,68 31/12/2018
672 487700 DENIA FERREIRA MAIA SILVA OFICIAL DO MP ATIVO TRÊS CORACOES - COMARCA; TRES CORACOES-PJ-01PJ 5.499,78 549,98 0,00 2.362,11 0,00 0,00 8.411,87 808,76 507,05 0,00 1.315,81 7.096,06 2.033,00 1.302,61 31/12/2018
673 424800 DENIS APARECIDO CAMPOS DELFINO ANALISTA DO MP ATIVO LUZ - COMARCA; LUZ-PJ-UNPJ 9.955,90 995,59 0,00 2.606,24 0,00 0,00 13.557,73 1.402,59 1.602,47 0,00 3.005,06 10.552,67 2.033,00 1.942,48 31/12/2018
674 381400 DENISE ANGELICA MELLO DE PAULA OFICIAL DO MP ATIVO BELO HORIZONTE - COMARCA; BH-18PJ DIREITOS HUMANOS-SECRETARIA 7.337,85 1.467,57 0,00 2.098,20 0,00 0,00 10.903,62 1.006,57 1.285,77 0,00 2.292,34 8.611,28 2.033,00 460,24 31/12/2018
675 196300 DENISE DE ALMEIDA VILELA FURTADO OFICIAL DO MP ATIVO BELO HORIZONTE - COMARCA; CENTRAL DE APOIO TECNICO-SECRETARIA 9.641,94 2.892,58 0,00 2.670,76 0,00 0,00 15.205,28 1.605,40 2.146,33 0,00 3.751,73 11.453,55 1.334,00 2.059,96 31/12/2018
676 336900 DENISE DE SOUSA MORAES SILVA OFICIAL DO MP ATIVO MATEUS LEME - COMARCA; MATEUS LEME-PJ-02PJ 5.678,79 1.135,76 0,00 1.820,37 0,00 0,00 8.634,92 778,98 798,50 0,00 1.577,48 7.057,44 1.334,00 356,17 31/12/2018
677 271100 DENISE ELOY PEIXOTO OFICIAL DO MP ATIVO BELO HORIZONTE - COMARCA; SUPERINTENDENCIA DE SEGURANCA E INTELIGENCIA 9.955,90 2.986,77 0,00 3.153,86 0,00 0,00 16.096,53 1.643,91 2.298,36 0,00 3.942,27 12.154,26 1.334,00 2.295,67 31/12/2018
678 385400 DENISE FREITAS DE ASSIS OFICIAL DO MP ATIVO CARATINGA - COMARCA; CARATINGA-PJ-05PJ 6.882,47 1.376,49 0,00 2.074,08 0,00 0,00 10.333,04 1.048,29 1.099,88 0,00 2.148,17 8.184,87 1.334,00 1.378,80 31/12/2018
679 437100 DENISE NOGUEIRA MAGRI MENDES ANALISTA DO MP ATIVO BELO HORIZONTE - COMARCA; LAB TECNOLOGIA CONTRA LAVAGEM DINHEIRO 10.279,98 3.083,99 0,00 9.310,82 0,00 0,00 22.674,79 2.097,67 2.245,06 0,00 4.342,73 18.332,06 1.334,00 5.705,71 31/12/2018
680 524700 DENISE RAMOS GUIMARAES OFICIAL DO MP ATIVO BELO HORIZONTE - COMARCA; BH-07PJ 01 TRIBUNAL JURI-SECRETARIA 4.995,72 499,57 0,00 1.636,25 0,00 0,00 7.131,54 628,18 475,61 0,00 1.103,79 6.027,75 1.334,00 215,42 31/12/2018
681 239100 DENISE RIBEIRO DOS SANTOS CAETANO OFICIAL DO MP ATIVO ITANHANDU - COMARCA; ITANHANDU-PJ-SECRETARIA 9.955,90 2.986,77 0,00 2.727,71 0,00 0,00 15.670,38 1.657,61 2.246,22 0,00 3.903,83 11.766,55 1.334,00 2.295,64 31/12/2018
682 325500 DENISE ROSA TORRES ASSESSOR/OFICIAL ATIVO BELO HORIZONTE - COMARCA; DIRETORIA DE PESSOAL ADMINISTRATIVO - DPAD 0,00 2.122,93 10.614,65 2.809,10 0,00 0,00 15.546,68 1.197,47 2.316,24 0,00 3.513,71 12.032,97 1.334,00 665,76 31/12/2018
683 437200 DENISE VIVIANE DOS SANTOS ANALISTA DO MP ATIVO BELO HORIZONTE - COMARCA; ASSESS TECNICA DA CORREGEDORIA-GERAL DO MP 9.337,87 933,79 0,00 2.407,09 0,00 0,00 12.678,75 1.174,17 1.540,36 0,00 2.714,53 9.964,22 2.382,00 402,65 31/12/2018
684 267900 DENISIA DE ALMEIDA SALES OFICIAL DO MP ATIVO BELO HORIZONTE - COMARCA; CAO-CRIMINAL-SECRETARIA 7.576,76 2.273,03 0,00 2.660,08 0,00 0,00 12.509,87 1.449,56 1.489,24 0,00 2.938,80 9.571,07 1.334,00 3.328,08 31/12/2018
685 480300 DESIREE ARANTES FERREIRA GOUVEA OFICIAL DO MP ATIVO PRATÁPOLIS - COMARCA; PRATAPOLIS-PJ-UNPJ 4.995,72 499,57 0,00 2.138,10 0,00 0,00 7.633,39 666,00 475,61 0,00 1.141,61 6.491,78 1.334,00 559,32 31/12/2018
686 355300 DEYSE CRISTINA MORAIS OFICIAL DO MP ATIVO PASSOS - COMARCA; PASSOS-PJ-02PJ 7.823,48 1.564,70 0,00 2.179,53 0,00 0,00 11.567,71 1.073,18 1.428,40 0,00 2.501,58 9.066,13 1.334,00 490,69 31/12/2018
687 523700 DIANA CAMPOS RESENDE OFICIAL DO MP ATIVO SÃO JOÃO DEL REI - COMARCA; SAO JOAO DEL REI-PJ-04PJ 5.863,71 2.931,86 0,00 2.201,11 2.931,86 0,00 13.928,54 1.126,52 1.985,34 0,00 3.111,86 10.816,68 1.334,00 1.537,28 31/12/2018
688 241900 DIANA CARDOSO MARTINS OFICIAL DO MP ATIVO BELO HORIZONTE - COMARCA; BH-18PJ DIREITOS HUMANOS-SECRETARIA 7.955,66 2.386,70 0,00 2.312,69 0,00 0,00 12.655,05 1.182,26 1.661,93 0,00 2.844,19 9.810,86 1.334,00 405,43 31/12/2018
689 410100 DIANA GORDILHO SILVEIRA SENA ANALISTA DO MP ATIVO BELO HORIZONTE - COMARCA; ASSESS TECNICO-JUR JUNTO AS PROC. DE JUST 11.317,16 2.263,43 0,00 3.308,28 0,00 0,00 16.888,87 1.629,25 2.625,42 0,00 4.254,67 12.634,20 1.334,00 1.230,77 31/12/2018
690 553000 DIANA MARIA MARQUES ANALISTA DO MP ATIVO BETIM - COMARCA; BETIM-PJ-13PJ 6.882,47 688,25 0,00 1.978,03 0,00 0,00 9.548,75 865,43 931,44 0,00 1.796,87 7.751,88 1.334,00 296,78 31/12/2018
691 520000 DIARLE TOSTE DOS SANTOS ANALISTA DO MP ATIVO RIO POMBA - COMARCA; RIO POMBA-PJ-UNPJ 8.482,22 848,22 0,00 2.223,62 0,00 0,00 11.554,06 1.265,52 1.362,13 0,00 2.627,65 8.926,41 1.334,00 2.174,38 31/12/2018
692 539800 DIEGO CAMARGOS RODRIGUES OFICIAL DO MP ATIVO CONTAGEM - COMARCA; CONTAGEM-PJ-19PJ 4.467,49 446,75 0,00 1.532,06 0,00 0,00 6.446,30 727,88 347,95 0,00 1.075,83 5.370,47 1.334,00 1.702,80 31/12/2018
693 607300 DIEGO CERVEIRA DE SOUZA ANALISTA DO MP ATIVO PATOS DE MINAS - COMARCA; COORD REG BACIAS PARACATU,URUCUIA E ABAETE 6.882,47 412,95 0,00 1.887,48 0,00 0,00 9.182,90 989,52 916,19 0,00 1.905,71 7.277,19 1.334,00 1.700,18 31/12/2018
694 446900 DIEGO DE FREITAS OFICIAL DO MP ATIVO UBERABA - COMARCA; UBERABA-PJ-06PJ 6.455,21 645,52 0,00 1.860,30 0,00 0,00 8.961,03 909,46 868,54 0,00 1.778,00 7.183,03 1.334,00 1.333,87 31/12/2018
695 288800 DILENE NEPOMUCENO ALVES OFICIAL DO MP ATIVO BELO HORIZONTE - COMARCA; DIRETORIA DE PESSOAL ADMINISTRATIVO - DPAD 9.337,87 2.801,36 0,00 3.908,11 0,00 0,00 16.047,34 1.806,12 2.101,72 0,00 3.907,84 12.139,50 1.334,00 4.737,56 31/12/2018
696 270101 DILSON DO AMARAL ANALISTA DO MP ATIVO RIO CASCA - COMARCA; RIO CASCA-PJ-UNPJ 7.576,76 757,68 0,00 2.032,47 0,00 0,00 10.366,91 952,73 1.170,49 0,00 2.123,22 8.243,69 1.334,00 326,71 31/12/2018
697 466000 DIMITRI GUDE MARCIAL ANALISTA DO MP ATIVO NANUQUE - COMARCA; NANUQUE-PJ-02PJ 8.482,22 848,22 0,00 2.275,75 0,00 0,00 11.606,19 1.194,99 1.309,99 0,00 2.504,98 9.101,21 2.033,00 1.533,12 31/12/2018
698 516300 DINORA APARECIDA MACEDO BRANDAO ANALISTA DO MP ATIVO BELO HORIZONTE - COMARCA; ASSESS JUR DO CONS SUPERIOR DO MINISTERIO PUB 7.106,49 710,65 0,00 1.960,29 0,00 0,00 9.777,43 1.143,78 1.043,88 0,00 2.187,66 7.589,77 1.334,00 2.580,84 31/12/2018
699 511700 DIOGENES HENRIQUES PEREIRA LOURENCO ANALISTA DO MP ATIVO CONTAGEM - COMARCA; CONTAGEM-PJ-13PJ 8.482,22 848,22 0,00 2.171,48 0,00 0,00 11.501,92 1.464,78 1.414,26 0,00 2.879,04 8.622,88 1.334,00 4.287,21 31/12/2018
700 604100 DIOGO CESAR DE OLIVEIRA HONORIO ASSESSOR ATIVO PIUMHI - COMARCA; PIUMHI-PJ-02PJ 0,00 0,00 4.763,08 2.007,90 0,00 0,00 6.770,98 1.124,44 512,80 0,00 1.637,24 5.133,74 1.334,00 186,72 31/12/2018
701 387800 DIOGO FELIX DA SILVA OFICIAL DO MP ATIVO CONSELHEIRO PENA - COMARCA; CONSELHEIRO PENA-PJ-01PJ 6.455,21 1.291,04 0,00 1.950,40 0,00 0,00 9.696,65 983,25 1.026,53 0,00 2.009,78 7.686,87 1.334,00 1.293,56 31/12/2018
702 259600 DIOGO MESQUITA MAIA ANALISTA DO MP ATIVO BELO HORIZONTE - COMARCA; DIRET DE APOIO AS PROCURADORIAS DE JUSTICA 13.715,83 10.972,66 0,00 4.366,92 0,00 0,00 29.055,41 2.822,19 5.121,01 0,00 7.943,20 21.112,21 1.334,00 967,80 31/12/2018
703 386700 DIRCIMAR FERNANDES CARNEIRO OFICIAL DO MP ATIVO VISCONDE DO RIO BRANCO - COMARCA; VISCONDE DO RIO BRANCO-PJ-03PJ 7.106,49 4.974,55 0,00 3.238,14 0,00 0,00 15.319,18 1.527,71 2.087,48 0,00 3.615,19 11.703,99 1.386,60 2.076,26 31/12/2018
704 113800 DIRSON APARECIDO GUIMARAES ASSESSOR ATIVO BELO HORIZONTE - COMARCA; DIVISAO DE MANUTENCAO PREDIAL 0,00 4.286,77 4.763,08 3.551,20 0,00 0,00 12.601,05 1.242,08 1.086,53 0,00 2.328,61 10.272,44 1.334,00 354,76 31/12/2018
705 216700 DOMICIO VALDETE PEREIRA OFICIAL DO MP ATIVO TEÓFILO OTONI - COMARCA; COORD REG PJ DEF EDU DIR CRIAN ADOL JEQUI MUC 11.685,57 3.505,67 0,00 3.145,79 0,00 0,00 18.337,03 1.945,62 2.692,28 0,00 4.637,90 13.699,13 1.334,00 2.852,94 31/12/2018
706 192701 DONIZETTI APARECIDO AMORIM ANALISTA DO MP ATIVO PRATÁPOLIS - COMARCA; PRATAPOLIS-PJ-UNPJ 7.823,48 2.347,04 0,00 2.340,85 0,00 0,00 12.511,37 1.217,10 1.567,74 0,00 2.784,84 9.726,53 1.334,00 893,96 31/12/2018
707 558700 DORCILIA FATIMA DE OLIVEIRA OFICIAL DO MP ATIVO DIVINÓPOLIS - COMARCA; DIVINOPOLIS-PJ-02PJ 4.838,22 483,82 0,00 1.742,03 0,00 0,00 7.064,07 691,43 386,95 0,00 1.078,38 5.985,69 1.334,00 963,71 31/12/2018
708 555300 DOUGLAS CUNHA DE SOUZA ANALISTA DO MP ATIVO VARZEA DA PALMA - COMARCA; VARZEA DA PALMA-PJ-01PJ 7.576,76 757,68 0,00 6.036,33 0,00 0,00 14.370,77 1.108,29 1.170,49 0,00 2.278,78 12.091,99 1.334,00 1.849,81 31/12/2018
709 265900 DOUGLAS GOMES MOREIRA ANALISTA DO MP ATIVO BELO HORIZONTE - COMARCA; CENTRAL DE APOIO TECNICO-SETOR DE ENGENHARIA 14.941,94 4.482,58 0,00 4.297,98 0,00 0,00 23.722,50 2.220,46 3.884,79 0,00 6.105,25 17.617,25 1.334,00 761,45 31/12/2018
710 241000 DOUGLAS MEIRELLES DE CASTRO OFICIAL DO MP ATIVO CONCEIÇÃO DO RIO VERDE - COMARCA; CONCEICAO DO RIO VERDE-PJ-UNPJ 10.279,98 4.111,99 0,00 3.475,97 0,00 0,00 17.867,94 1.645,18 2.548,80 0,00 4.193,98 13.673,96 1.334,00 752,23 31/12/2018
711 534900 DOUGLAS SILVA E SOUZA ANALISTA DO MP ATIVO CAMPOS GERAIS - COMARCA; CAMPOS GERAIS-PJ-SECRETARIA 7.576,76 757,68 0,00 2.084,61 0,00 0,00 10.419,05 952,73 1.118,36 0,00 2.071,09 8.347,96 1.334,00 326,71 31/12/2018
712 630700 DOUGLAS TAVEIRA LEMOS DE OLIVEIRA ANALISTA DO MP ATIVO BELO HORIZONTE - COMARCA; BH-18PJ VIOLENCIA DOMESTICA 6.665,41 399,92 0,00 1.855,37 0,00 0,00 8.920,70 880,61 859,88 0,00 1.740,49 7.180,21 1.334,00 940,12 31/12/2018
713 638900 DOUGLAS WALLAS CONCEICAO NEVES OFICIAL DO MP ATIVO RIBEIRÃO DAS NEVES - COMARCA; RIBEIRAO DAS NEVES-PJ-SEC CIVEL 3.930,12 235,81 0,00 1.381,47 0,00 0,00 5.547,40 534,39 201,35 0,00 735,74 4.811,66 1.334,00 909,93 31/12/2018
714 146800 DUCINALVA AMARAL LOPES REIS OFICIAL DO MP ATIVO PARAISÓPOLIS - COMARCA; PARAISOPOLIS-PJ-UNPJ 14.372,91 10.061,03 0,00 4.383,54 0,00 0,00 28.817,48 3.202,05 5.006,57 0,00 8.208,62 20.608,86 1.334,00 5.304,68 31/12/2018
715 122500 DUILIO CARLOS FERREIRA UTSCH OFICIAL DO MP ATIVO CONCEIÇÃO DO MATO DENTRO - COMARCA; CONCEICAO DO MATO DENTRO-PJ-UNPJ 11.685,57 9.348,46 0,00 6.954,74 0,00 0,00 27.988,77 2.693,91 4.278,72 0,00 6.972,63 21.016,14 1.334,00 3.456,10 31/12/2018
716 201800 DULCINEIA ANDRE DE SOUZA OFICIAL DO MP ATIVO JEQUITINHONHA - COMARCA; JEQUITINHONHA-PJ-SECRETARIA 11.685,57 3.505,67 0,00 3.197,93 0,00 0,00 18.389,17 1.945,62 2.640,15 0,00 4.585,77 13.803,40 1.334,00 2.654,44 31/12/2018
717 395800 DUVIDIER MEDIRCIO JUNIOR ANALISTA DO MP ATIVO BELO HORIZONTE - COMARCA; CENTRAL DE APOIO TECNICO-SETOR DE ENGENHARIA 12.458,83 2.491,77 0,00 2.955,80 0,00 0,00 17.906,40 1.709,04 2.789,80 0,00 4.498,84 13.407,56 1.334,00 586,07 31/12/2018
718 604800 ECIA RAMILIS ISSA DE ABREU ANALISTA DO MP ATIVO BOCAIÚVA - COMARCA; BOCAIUVA-PJ-02PJ 6.882,47 688,25 0,00 5.392,19 0,00 0,00 12.962,91 1.299,80 983,57 0,00 2.283,37 10.679,54 1.334,00 4.245,71 31/12/2018
719 273000 EDELFINA APARECIDA GUIMARAES OFICIAL DO MP ATIVO CACHOEIRA DE MINAS - COMARCA; CACHOEIRA DE MINAS-PJ-UNPJ 9.043,46 6.330,43 0,00 3.067,01 0,00 0,00 18.440,90 1.757,42 2.841,26 0,00 4.598,68 13.842,22 1.334,00 602,66 31/12/2018
720 523300 EDER DOS SANTOS PATRICIO ANALISTA DO MP ATIVO NOVA SERRANA - COMARCA; NOVA SERRANA-PJ-03PJ 8.482,22 848,22 0,00 2.171,48 0,00 0,00 11.501,92 1.066,58 1.414,26 0,00 2.480,84 9.021,08 1.334,00 365,76 31/12/2018
721 356700 EDER JOSE PACHECO OFICIAL DO MP ATIVO CAMPO BELO - COMARCA; CAMPO BELO-PJ-SECRETARIA 7.955,66 1.591,13 0,00 3.446,10 0,00 0,00 12.992,89 1.091,32 1.362,94 0,00 2.454,26 10.538,63 2.249,30 498,99 31/12/2018
722 507900 EDERSON SILVA LOPES OFICIAL DO MP ATIVO BELO HORIZONTE - COMARCA; DIR ANALISES TECNOLOGIA INTELIGENCIA 5.499,78 549,98 0,00 2.362,11 0,00 0,00 8.411,87 808,76 507,05 0,00 1.315,81 7.096,06 2.033,00 1.381,66 31/12/2018
723 296200 EDGARD GOULART MATOSINHO DE LAET JR ANALISTA DO MP ATIVO GOVERNADOR VALADARES - COMARCA; GOVERNADOR VALADARES-PJ-04PJ 13.715,83 2.743,17 0,00 3.322,72 0,00 0,00 19.781,72 1.881,46 3.002,57 0,00 4.884,03 14.897,69 1.334,00 645,20 31/12/2018
724 295000 EDILA MARIA DA SILVEIRA OFICIAL DO MP ATIVO FORMIGA - COMARCA; FORMIGA-PJ-04PJ 7.106,49 1.421,30 0,00 3.078,10 0,00 0,00 11.605,89 1.092,19 1.217,82 0,00 2.310,01 9.295,88 1.334,00 1.401,25 31/12/2018
725 332300 EDILA MARILAC MIRANDA PRADO OFICIAL DO MP ATIVO DIAMANTINA - COMARCA; COORD REG BACIAS RIOS JEQUITINHONHA E MUCURI 7.955,66 3.977,83 0,00 3.021,21 0,00 0,00 14.954,70 1.839,22 1.947,09 0,00 3.786,31 11.168,39 2.732,00 4.786,68 31/12/2018
726 376600 EDILANE CONSOLACAO ROSA NAZARETH ANALISTA DO MP ATIVO BETIM - COMARCA; BETIM-PJ-10PJ 11.317,16 2.263,43 0,00 4.644,35 0,00 0,00 18.224,94 1.723,75 2.454,49 0,00 4.178,24 14.046,70 1.334,00 2.089,89 31/12/2018
727 301500 EDILENE APARECIDA DE CARVALHO ANALISTA DO MP ATIVO BELO HORIZONTE - COMARCA; DIRETORIA DE ADMINISTRACAO FINANCEIRA 13.715,83 2.743,17 0,00 3.218,44 0,00 0,00 19.677,44 1.881,46 3.106,84 0,00 4.988,30 14.689,14 1.334,00 860,27 31/12/2018
728 309800 EDILZA DOS REIS OFICIAL DO MP ATIVO UBERLÂNDIA - COMARCA; UBERLANDIA-PJ-03PJ 8.758,36 1.751,67 0,00 2.336,09 0,00 0,00 12.846,12 1.346,06 1.702,97 0,00 3.049,03 9.797,09 1.334,00 1.973,78 31/12/2018
729 200500 EDINEIA MARIA DE OLIVEIRA ANTUNES OFICIAL DO MP ATIVO MONTES CLAROS - COMARCA; MONTES CLAROS-PJ-10PJ 12.065,98 4.826,39 0,00 3.226,78 5.630,79 0,00 25.749,94 1.931,00 4.813,52 0,00 6.744,52 19.005,42 2.033,00 662,19 31/12/2018
730 427700 EDISANGELA SOARES LOPES OFICIAL DO MP ATIVO PIRAPORA - COMARCA; PIRAPORA-PJ-02PJ 5.678,79 567,88 0,00 2.371,00 0,00 0,00 8.617,67 714,07 659,51 0,00 1.373,58 7.244,09 884,00 244,87 31/12/2018
731 555400 EDISON MONTEIRO SAMPAIO NETO ANALISTA DO MP ATIVO BELO HORIZONTE - COMARCA; BH-12PJ JUIZO CRIMINAL-GAB 094PJ 7.576,76 757,68 0,00 2.032,47 0,00 0,00 10.366,91 1.108,29 1.170,49 0,00 2.278,78 8.088,13 1.334,00 1.740,91 31/12/2018
732 517700 EDMILSON TADEU FERNANDES OFICIAL DO MP ATIVO POUSO ALEGRE - COMARCA; POUSO ALEGRE-PJ-SECRETARIA 5.863,71 586,37 0,00 1.961,82 0,00 0,00 8.411,90 821,94 709,30 0,00 1.531,24 6.880,66 1.334,00 1.106,39 31/12/2018
733 358400 EDNA APARECIDA SILVA FERREIRA OFICIAL DO MP ATIVO CORONEL FABRICIANO - COMARCA; CORONEL FABRICIANO-PJ-02PJ 7.337,85 1.467,57 0,00 2.098,20 0,00 0,00 10.903,62 1.319,98 1.285,77 0,00 2.605,75 8.297,87 1.334,00 3.546,87 31/12/2018
734 331800 EDNA MARCIA CAMILO DA SILVA OFICIAL DO MP ATIVO SETE LAGOAS - COMARCA; SETE LAGOAS-PJ-SEC CRIMINAIS 8.482,22 1.696,44 0,00 2.341,98 0,00 0,00 12.520,64 1.231,40 1.569,73 0,00 2.801,13 9.719,51 1.334,00 1.015,91 31/12/2018
735 422800 EDNILSON DE SOUZA FERREIRA ASSESSOR ATIVO BELO HORIZONTE - COMARCA; EXTINTA - PROTOCOLO DA PGJ 0,00 0,00 2.852,73 1.485,88 0,00 0,00 4.338,61 670,02 85,33 0,00 755,35 3.583,26 1.334,00 111,83 31/12/2018
736 327900 EDRIEL SANTANA PEREIRA OFICIAL DO MP ATIVO TUPACIGUARA - COMARCA; TUPACIGUARA-PJ-UNPJ 8.482,22 1.696,44 0,00 2.289,85 0,00 0,00 12.468,51 1.231,40 1.621,87 0,00 2.853,27 9.615,24 2.885,79 1.015,91 31/12/2018
737 482400 EDSON GARCIA OFICIAL DO MP ATIVO MACHADO - COMARCA; MACHADO-PJ-02PJ 4.995,72 499,57 0,00 1.723,29 0,00 0,00 7.218,58 628,18 378,99 0,00 1.007,17 6.211,41 2.033,00 215,42 31/12/2018
738 225601 EDSON LABRE FILHO ANALISTA DO MP ATIVO VARGINHA - COMARCA; VARGINHA-PJ-01PJ 13.715,83 4.114,75 0,00 3.409,86 0,00 0,00 21.240,44 2.038,25 3.442,54 0,00 5.480,79 15.759,65 1.334,00 931,96 31/12/2018
739 602700 EDSON NOGUEIRA BUENO OFICIAL DO MP ATIVO PITANGUI - COMARCA; PITANGUI-PJ-01PJ 4.058,04 405,80 0,00 1.527,91 0,00 0,00 5.991,75 693,75 257,75 0,00 951,50 5.040,25 1.334,00 1.982,03 31/12/2018
740 414400 EDUARDO ABRANTES CAMPOS ANALISTA DO MP ATIVO SÃO JOÃO DEL REI - COMARCA; SAO JOAO DEL REI-PJ-02PJ 11.317,16 2.263,43 0,00 2.606,67 0,00 0,00 16.187,26 1.796,52 2.454,49 0,00 4.251,01 11.936,25 1.334,00 2.751,44 31/12/2018
741 476800 EDUARDO ALVES DE MOURA ANALISTA DO MP ATIVO UBERLÂNDIA - COMARCA; UBERLANDIA-PJ-05PJ 9.337,87 933,79 0,00 3.670,79 0,00 0,00 13.942,45 1.174,17 1.488,22 0,00 2.662,39 11.280,06 2.033,00 402,65 31/12/2018
742 390800 EDUARDO AMORIM PETTERSEN OFICIAL DO MP ATIVO CARANGOLA - COMARCA; CARANGOLA-PJ-03PJ 6.882,47 1.376,49 0,00 2.021,94 0,00 0,00 10.280,90 1.048,29 1.152,02 0,00 2.200,31 8.080,59 2.033,00 1.270,88 31/12/2018
743 461600 EDUARDO ANTONIO DE ASSIS FARIA ASSESSOR ATIVO BELO HORIZONTE - COMARCA; ASSESS EXECUTIVA DO CONSELHO SUPERIOR DO MP 0,00 0,00 7.576,76 3.181,18 0,00 0,00 10.757,94 1.242,08 514,98 0,00 1.757,06 9.000,88 0,00 0,00 31/12/2018
744 248800 EDUARDO DE CASTRO AMORIM ANALISTA DO MP ATIVO BELO HORIZONTE - COMARCA; SUPERINTENDENCIA DE RECURSOS HUMANOS 16.148,50 4.844,55 0,00 3.799,07 0,00 0,00 24.792,12 2.568,74 4.268,69 0,00 6.837,43 17.954,69 1.334,00 2.359,08 31/12/2018
745 209100 EDUARDO DE SOUZA MAIA ANALISTA DO MP ATIVO BELO HORIZONTE - COMARCA; ASSESS TECNICO-JUR JUNTO AS PROC. DE JUST 17.452,52 5.235,76 0,00 4.192,06 0,00 0,00 26.880,34 2.593,54 4.527,19 0,00 7.120,73 19.759,61 1.334,00 1.185,87 31/12/2018
746 633900 EDUARDO GONCALVES PIRES OFICIAL DO MP ATIVO BELO HORIZONTE - COMARCA; BH-19PJ SAUDE-SECRETARIA 150PJ 4.763,08 1.428,92 0,00 1.733,49 0,00 0,00 7.925,49 707,82 646,13 0,00 1.353,95 6.571,54 1.334,00 323,64 31/12/2018
747 350500 EDUARDO GONCALVES RIBEIRO OFICIAL DO MP ATIVO VESPASIANO - COMARCA; VESPASIANO-PJ-04PJ 7.337,85 1.467,57 0,00 6.328,32 0,00 0,00 15.133,74 1.006,57 1.285,77 0,00 2.292,34 12.841,40 1.334,00 345,18 31/12/2018
748 115800 EDUARDO HENRIQUE DE CAMPOS MAIA OFICIAL DO MP ATIVO BELO HORIZONTE - COMARCA; EXTINTA - DIVISAO DE SERVICOS GERAIS 13.283,29 6.641,65 0,00 3.806,40 0,00 0,00 23.731,34 2.551,94 3.850,86 0,00 6.402,80 17.328,54 1.334,00 3.274,55 31/12/2018
749 392600 EDUARDO HENRIQUE DOS SANTOS COSTA ELIAZAR OFICIAL DO MP ATIVO MATOZINHOS - COMARCA; MATOZINHOS-PJ-01PJ 6.882,47 1.376,49 0,00 6.145,95 0,00 0,00 14.404,91 944,10 995,61 0,00 1.939,71 12.465,20 2.033,00 431,68 31/12/2018
750 122900 EDUARDO JOSE COSTA SILVA OFICIAL DO MP ATIVO SETE LAGOAS - COMARCA; SETE LAGOAS-PJ-04PJ 17.452,52 13.962,02 0,00 5.253,46 10.157,04 0,00 46.825,04 3.383,50 9.381,63 943,43 13.708,56 33.116,48 1.334,00 287,98 31/12/2018
751 407500 EDUARDO MASCARENHAS CURI AZEVEDO ANALISTA DO MP ATIVO BELO HORIZONTE - COMARCA; DIRETORIA DE IMPRENSA 9.337,87 1.867,57 0,00 2.881,73 0,00 0,00 14.087,17 1.280,92 1.873,17 0,00 3.154,09 10.933,08 1.334,00 439,26 31/12/2018
752 601300 EDUARDO TRAD VIEIRA OFICIAL DO MP ATIVO IBIRITÉ - COMARCA; IBIRITE-PJ-03PJ 4.467,49 268,05 0,00 3.774,44 0,00 0,00 8.509,98 661,73 312,16 0,00 973,89 7.536,09 1.334,00 1.280,20 31/12/2018
753 257600 EDUARDO VALADARES CABRAL ANALISTA DO MP ATIVO BELO HORIZONTE - COMARCA; PROC. JUSTICA DIR. DIFUSOS E COLETIVOS-SEC 12.864,49 3.859,35 0,00 11.237,37 0,00 0,00 27.961,21 2.235,69 3.223,80 0,00 5.459,49 22.501,72 1.334,00 3.600,58 31/12/2018
754 545700 EDVAIR FERREIRA DE CARVALHO OFICIAL DO MP ATIVO ARAGUARI - COMARCA; ARAGUARI-PJ-06PJ 4.467,49 446,75 0,00 1.617,37 0,00 0,00 6.531,61 561,76 262,63 0,00 824,39 5.707,22 1.334,00 192,64 31/12/2018
755 401700 EDWANIA AMORIM DO CARMO OFICIAL DO MP ATIVO RIBEIRÃO DAS NEVES - COMARCA; RIBEIRAO DAS NEVES-PJ-03PJ 7.106,49 1.421,30 0,00 3.298,39 0,00 0,00 11.826,18 1.082,42 1.217,82 0,00 2.300,24 9.525,94 1.334,00 1.505,26 31/12/2018
756 303600 EFIGENIO SARAIVA LOPES ANALISTA DO MP ATIVO BELO HORIZONTE - COMARCA; DIRETORIA DE PAGAMENTO DE PESSOAL-DPAG 14.941,94 2.988,39 0,00 3.475,93 0,00 0,00 21.406,26 2.049,66 3.414,81 0,00 5.464,47 15.941,79 1.334,00 702,88 31/12/2018
757 312000 ELAINE APARECIDA DE ARAUJO RODRIGUES OFICIAL DO MP ATIVO DIVINÓPOLIS - COMARCA; DIVINOPOLIS-PJ-02PJ 7.955,66 6.364,53 0,00 4.347,27 0,00 1.575,22 20.242,68 1.823,13 3.068,69 0,00 4.891,82 15.350,86 1.334,00 2.829,82 31/12/2018
758 286000 ELAINE APARECIDA SILVA BERZOINI OFICIAL DO MP ATIVO JUIZ DE FORA - COMARCA; JUIZ DE FORA-PJ-07PJ 9.337,87 2.801,36 0,00 2.433,14 4.046,41 0,00 18.618,78 1.806,12 3.214,48 0,00 5.020,60 13.598,18 1.334,00 4.279,88 31/12/2018
759 509000 ELAINE CANDIDA PONTES OFICIAL DO MP ATIVO BELO HORIZONTE - COMARCA; BH-02PJ FAMILIA-SECRETARIA 5.499,78 549,98 0,00 1.713,64 0,00 0,00 7.763,40 808,76 611,32 0,00 1.420,08 6.343,32 1.334,00 1.381,66 31/12/2018
760 283601 ELAINE CRISTINA MEQUELINO DUARTE ANALISTA DO MP ATIVO ALFENAS - COMARCA; ALFENAS-PJ-04PJ 11.317,16 2.263,43 0,00 2.868,88 0,00 0,00 16.449,47 1.723,75 2.350,22 0,00 4.073,97 12.375,50 2.033,00 2.397,14 31/12/2018
761 535500 ELAINE DE OLIVEIRA CAMPOS REIS OFICIAL DO MP ATIVO RIBEIRÃO DAS NEVES - COMARCA; SEC PJ EXECUCAO PENAL RIBEIRAO NEVES 4.838,22 483,82 0,00 1.606,39 0,00 0,00 6.928,43 608,37 433,21 0,00 1.041,58 5.886,85 1.334,00 208,63 31/12/2018
762 455700 ELAINE DE OLIVEIRA CASTRO ANALISTA DO MP ATIVO POMPÉU - COMARCA; POMPEU-PJ-UNPJ 8.758,36 875,84 0,00 2.266,00 0,00 0,00 11.900,20 1.165,50 1.436,47 0,00 2.601,97 9.298,23 2.033,00 961,35 31/12/2018
763 367200 ELAINE MUNIZ BARBOSA ANALISTA DO MP ATIVO BELO HORIZONTE - COMARCA; DIRETORIA DE SISTEMAS DE INFORMACAO 12.065,98 2.413,20 0,00 2.890,01 0,00 0,00 17.369,19 1.655,15 2.674,42 0,00 4.329,57 13.039,62 2.033,00 567,59 31/12/2018
764 176900 ELAINE RIBEIRO TAVEIRA OFICIAL DO MP ATIVO BELO HORIZONTE - COMARCA; DIRETORIA DE PESSOAL ADMINISTRATIVO - DPAD 10.614,65 3.184,40 0,00 2.795,10 0,00 0,00 16.594,15 1.577,40 2.507,96 0,00 4.085,36 12.508,79 1.334,00 721,24 31/12/2018
765 496200 ELAINE SABRINA MOREIRA SCHUWARTEN ANALISTA DO MP ATIVO CORONEL FABRICIANO - COMARCA; CORONEL FABRICIANO-PJ-03PJ 9.337,87 933,79 0,00 2.302,82 0,00 0,00 12.574,48 1.373,11 1.644,63 0,00 3.017,74 9.556,74 1.334,00 2.211,27 31/12/2018
766 489200 ELAINE VICENTINO GARCIA ANALISTA DO MP ATIVO BELO HORIZONTE - COMARCA; CENTRAL DE APOIO TECNICO-SETOR CONTABIL 9.337,87 2.801,36 0,00 2.667,73 0,00 0,00 14.806,96 1.622,79 1.997,44 0,00 3.620,23 11.186,73 1.334,00 2.613,32 31/12/2018
767 244500 ELCI ALVES DE SOUZA ASSESSOR ATIVO BELO HORIZONTE - COMARCA; CAO-CONFLITOS AGRARIOS-SECRETARIA 0,00 1.428,92 4.763,08 2.430,87 0,00 0,00 8.622,87 1.242,08 853,62 0,00 2.095,70 6.527,17 1.334,00 242,73 31/12/2018
768 472500 ELCI VAZ DE OLIVEIRA FILHO ANALISTA DO MP ATIVO PIUMHI - COMARCA; PIUMHI-PJ-02PJ 9.337,87 4.668,94 0,00 2.693,77 0,00 0,00 16.700,58 1.802,56 2.558,81 0,00 4.361,37 12.339,21 1.334,00 2.380,05 31/12/2018
769 385200 ELCI VIANA REIS OFICIAL DO MP ATIVO RIO PARDO DE MINAS - COMARCA; RIO PARDO DE MINAS-PJ-SECRETARIA 7.337,85 2.935,14 0,00 2.303,01 0,00 0,00 12.576,00 1.174,33 1.644,95 0,00 2.819,28 9.756,72 1.334,00 536,95 31/12/2018
770 289801 ELCIO JOSE DOS SANTOS ASSESSOR/ANALISTA ATIVO BELO HORIZONTE - COMARCA; EXTINTA - DIRETORIA SERVIÇOS GERAIS E TRANS 0,00 1.168,56 11.685,57 2.861,10 0,00 0,00 15.715,23 1.174,17 2.354,81 0,00 3.528,98 12.186,25 1.334,00 503,89 31/12/2018
771 319600 ELEN TULER DE ALBERGARIA ANALISTA DO MP ATIVO BELO HORIZONTE - COMARCA; BH-19PJ SAUDE 10.960,26 3.288,08 0,00 2.857,79 0,00 0,00 17.106,13 2.236,44 2.617,92 0,00 4.854,36 12.251,77 2.033,00 6.729,40 31/12/2018
772 151000 ELI LOURENCO RIBEIRO AGENTE DO MP ATIVO BELO HORIZONTE - COMARCA; BH-19PJ SAUDE 9.337,87 3.735,15 0,00 3.187,34 0,00 0,00 16.260,36 1.494,40 1.784,02 0,00 3.278,42 12.981,94 1.334,00 683,29 31/12/2018
773 205500 ELIANA ALVES DE SOUSA OFICIAL DO MP ATIVO GOVERNADOR VALADARES - COMARCA; GOVERNADOR VALADARES-PJ-07PJ 8.214,70 2.464,41 0,00 2.359,68 0,00 0,00 13.038,79 1.220,75 1.744,35 0,00 2.965,10 10.073,69 1.334,00 418,63 31/12/2018
774 628800 ELIANA APARECIDA PEREIRA ANALISTA DO MP ATIVO CAMBUÍ - COMARCA; CAMBUI-PJ-02PJ 6.054,65 363,28 0,00 1.817,16 0,00 0,00 8.235,09 821,96 649,29 0,00 1.471,25 6.763,84 1.334,00 1.054,47 31/12/2018
775 301700 ELIANA DA SILVEIRA ANALISTA DO MP ATIVO BELO HORIZONTE - COMARCA; ASSESS TECNICO-JUR JUNTO AS PROC. DE JUST 12.065,98 2.413,20 0,00 2.890,01 0,00 0,00 17.369,19 2.272,70 2.674,42 0,00 4.947,12 12.422,07 1.334,00 6.649,47 31/12/2018
776 103400 ELIANA DE FARIA MORAIS JOTTA OFICIAL DO MP ATIVO BELO HORIZONTE - COMARCA; DIRET DE PESSOAL DO MINISTERIO PUBLICO - DPMP 22.903,10 11.451,55 0,00 5.347,42 0,00 0,00 39.702,07 3.351,82 6.536,31 3.883,54 13.771,67 25.930,40 1.334,00 0,00 31/12/2018
777 251500 ELIANA DE LIMA MILAGRES FONSECA ANALISTA DO MP ATIVO CONTAGEM - COMARCA; CONTAGEM-PJ-21PJ 13.283,29 3.984,99 0,00 3.383,52 0,00 0,00 20.651,80 2.089,05 3.252,78 0,00 5.341,83 15.309,97 1.334,00 1.723,15 31/12/2018
778 503900 ELIANA DIAS DUTRA FERREIRA OFICIAL DO MP ATIVO GOVERNADOR VALADARES - COMARCA; GOVERNADOR VALADARES-PJ-10PJ 6.054,65 605,47 0,00 1.903,09 0,00 0,00 8.563,21 853,12 656,43 0,00 1.509,55 7.053,66 0,00 1.095,53 31/12/2018
779 413900 ELIANA PINTO DE OLIVEIRA NEVES ANALISTA DO MP ATIVO CAMPO BELO - COMARCA; CAMPO BELO-PJ-03PJ 9.955,90 1.991,18 0,00 3.014,92 0,00 0,00 14.962,00 1.516,41 2.054,69 0,00 3.571,10 11.390,90 2.033,00 2.108,69 31/12/2018
780 228200 ELIANA RODRIGUES DA CUNHA PINHEIRO OFICIAL DO MP ATIVO BELO HORIZONTE - COMARCA; DIVISAO DE CONTROLE IMOBILIARIO 9.955,90 2.986,77 0,00 9.884,93 0,00 1.423,69 24.251,29 1.657,61 2.689,87 0,00 4.347,48 19.903,81 1.334,00 2.495,37 31/12/2018
781 386600 ELIANA SABINO CHAVES ANALISTA DO MP ATIVO CARATINGA - COMARCA; CARATINGA-PJ-06PJ 11.317,16 5.658,58 0,00 3.290,56 0,00 0,00 20.266,30 1.940,53 3.233,32 0,00 5.173,85 15.092,45 1.334,00 665,46 31/12/2018
782 297400 ELIANE AUGUSTA RIBEIRO COSTA ANALISTA DO MP ATIVO CONSELHEIRO LAFAIETE - COMARCA; CONSELHEIRO LAFAIETE-PJ-05PJ 14.162,21 2.832,44 0,00 3.397,47 0,00 0,00 20.392,12 2.055,91 3.133,67 0,00 5.189,58 15.202,54 1.334,00 1.695,52 31/12/2018
783 510600 ELIANE CAROLINA MAIA ANALISTA DO MP ATIVO IGARAPÉ - COMARCA; IGARAPE-PJ-02PJ 8.482,22 848,22 0,00 2.327,89 3.110,15 0,00 14.768,48 1.464,47 2.113,14 0,00 3.577,61 11.190,87 1.334,00 4.284,44 31/12/2018
784 269300 ELIANE EDLAMAR ROCHA OFICIAL DO MP ATIVO PEDRO LEOPOLDO - COMARCA; PEDRO LEOPOLDO-PJ-02PJ 8.482,22 1.696,44 0,00 2.341,98 0,00 0,00 12.520,64 1.163,54 1.569,73 0,00 2.733,27 9.787,37 2.033,00 399,01 31/12/2018
785 359100 ELIANE FARIAS DE OLIVEIRA ASSESSOR ATIVO BELO HORIZONTE - COMARCA; CENT DE ATENDIMENTO E ORIENTACAO DE PESSOAL 0,00 0,00 2.852,73 1.326,18 0,00 0,00 4.178,91 670,02 142,21 0,00 812,23 3.366,68 1.334,00 111,83 31/12/2018
786 262600 ELIANE FERREIRA SOARES ASSESSOR ATIVO BELO HORIZONTE - COMARCA; BH-18PJ DIREITOS HUMANOS-SECRETARIA 0,00 1.905,23 4.763,08 3.345,07 0,00 0,00 10.013,38 1.242,08 984,60 0,00 2.226,68 7.786,70 1.334,00 261,40 31/12/2018
787 204400 ELIANE GLAUCE DE QUEIROS MAIA OFICIAL DO MP ATIVO GUANHÃES - COMARCA; GUANHAES-PJ-02PJ 11.685,57 3.505,67 0,00 10.287,23 0,00 0,00 25.478,47 1.945,62 2.848,70 0,00 4.794,32 20.684,15 2.033,00 2.694,56 31/12/2018
788 91800 ELIANE KAPLER ALVES OFICIAL DO MP ATIVO BELO HORIZONTE - COMARCA; DIVISAO DE CONTROLE IMOBILIARIO 16.787,84 8.393,92 0,00 8.769,95 0,00 0,00 33.951,71 2.878,58 5.189,60 0,00 8.068,18 25.883,53 1.334,00 1.014,00 31/12/2018
789 334200 ELIANE MARCIA DE OLIVEIRA BRITO OFICIAL DO MP ATIVO BELO HORIZONTE - COMARCA; BH-08PJ JUIZADO ESPECIAL-SECRETARIA 5.678,79 1.135,76 0,00 2.547,04 0,00 0,00 9.361,59 778,98 798,50 0,00 1.577,48 7.784,11 1.334,00 267,13 31/12/2018
790 365900 ELIANE MARIA DE OLIVEIRA FERREIRA OFICIAL DO MP ATIVO SETE LAGOAS - COMARCA; SETE LAGOAS-PJ-SEC CRIMINAIS 7.955,66 3.977,83 0,00 2.916,94 0,00 0,00 14.850,43 1.517,45 2.051,36 0,00 3.568,81 11.281,62 1.334,00 1.861,52 31/12/2018
791 320600 ELIANE STADLER DE SOUZA OFICIAL DO MP ATIVO FRANCISCO SÁ - COMARCA; FRANCISCO SA-PJ-SECRETARIA 7.955,66 1.591,13 0,00 2.253,80 0,00 0,00 11.800,59 1.091,32 1.415,08 0,00 2.506,40 9.294,19 1.334,00 374,24 31/12/2018
792 448900 ELIAS PEREIRA OTONI ASSESSOR ATIVO BELO HORIZONTE - COMARCA; BH-18PJ DIREITOS HUMANOS 0,00 0,00 4.763,08 2.440,26 0,00 0,00 7.203,34 1.124,44 409,41 0,00 1.533,85 5.669,49 1.334,00 248,96 31/12/2018
793 495400 ELICA SOUZA GASPARONI MATTOS OFICIAL DO MP ATIVO UBÁ - COMARCA; UBA-PJ-06PJ 6.054,65 605,47 0,00 2.499,17 0,00 0,00 9.159,29 852,98 760,71 0,00 1.613,69 7.545,60 1.334,00 1.094,28 31/12/2018
794 86600 ELIENE FERREIRA DA SILVA OFICIAL DO MP ATIVO BELO HORIZONTE - COMARCA; BH-22PJ PES COM DEF E IDOSOS 19.608,56 13.725,99 0,00 5.451,70 0,00 0,00 38.786,25 3.351,82 6.432,03 2.863,44 12.647,29 26.138,96 1.334,00 0,00 31/12/2018
795 183800 ELIENE MARIA CUNHA OFICIAL DO MP ATIVO BELO HORIZONTE - COMARCA; DIRETORIA DE PESSOAL ADMINISTRATIVO - DPAD 12.065,98 3.619,79 0,00 10.645,96 0,00 0,00 26.331,73 2.462,08 2.917,60 0,00 5.379,68 20.952,05 1.334,00 7.408,55 31/12/2018
796 172300 ELINA APARECIDA SILVA ASSESSOR ATIVO BELO HORIZONTE - COMARCA; BH-19PJ SAUDE-SECRETARIA 130PJ 0,00 1.141,09 2.852,73 1.714,99 0,00 0,00 5.708,81 1.012,99 236,33 0,00 1.249,32 4.459,49 1.334,00 859,47 31/12/2018
797 492501 ELINE CAMPOS DA FONSECA CUNHA ANALISTA DO MP ATIVO PONTE NOVA - COMARCA; PONTE NOVA-PJ-02PJ 7.576,76 757,68 0,00 3.018,17 0,00 0,00 11.352,61 1.008,29 1.170,49 0,00 2.178,78 9.173,83 1.334,00 831,73 31/12/2018
798 618900 ELISA MOURA VIEIRA MARCATTI OFICIAL DO MP ATIVO BELO HORIZONTE - COMARCA; BH-23PJ CIVEL-SEC EXP CIVEIS 4.467,49 268,05 0,00 1.499,48 0,00 0,00 6.235,02 572,89 312,16 0,00 885,05 5.349,97 1.334,00 472,62 31/12/2018
799 256500 ELISABETE NOGUEIRA ANALISTA DO MP ATIVO RIBEIRÃO DAS NEVES - COMARCA; SEC PJ EXECUCAO PENAL RIBEIRAO NEVES 12.864,49 5.145,80 0,00 6.095,66 0,00 0,00 24.105,95 2.407,65 3.382,25 0,00 5.789,90 18.316,05 2.033,00 3.877,55 31/12/2018
800 355000 ELISANGELA DARLANTONI RIBEIRO OFICIAL DO MP ATIVO ARAXÁ - COMARCA; ARAXA-PJ-05PJ 6.882,47 1.376,49 0,00 2.074,08 0,00 0,00 10.333,04 1.296,33 1.099,88 0,00 2.396,21 7.936,83 2.033,00 3.900,51 31/12/2018
801 604400 ELISANGELA DEMASI FERREIRA MOREIRA ANALISTA DO MP ATIVO CAXAMBU - COMARCA; CAXAMBU-PJ-SECRETARIA 6.882,47 412,95 0,00 1.887,48 0,00 0,00 9.182,90 989,52 916,19 0,00 1.905,71 7.277,19 2.033,00 1.700,18 31/12/2018
802 323800 ELISANGELA GONCALVES DE JESUS OFICIAL DO MP ATIVO BELO HORIZONTE - COMARCA; BH-09PJ AUDITORIA MILITAR-SECRETARIA 7.576,76 1.515,35 0,00 2.190,35 0,00 0,00 11.282,46 1.362,95 1.303,80 0,00 2.666,75 8.615,71 2.033,00 3.417,19 31/12/2018
803 507400 ELISANGELA MIGUEL DA ROCHA SILVA ASSESSOR ATIVO BELO HORIZONTE - COMARCA; CGMP-DIVIS DE APOIO FISC ORIENTACAO FUNCIONAL 0,00 0,00 2.852,73 1.340,40 0,00 0,00 4.193,13 770,52 98,70 0,00 869,22 3.323,91 2.033,00 149,11 31/12/2018
804 261400 ELISANGELA REZENDE MENDES OFICIAL DO MP ATIVO POUSO ALEGRE - COMARCA; POUSO ALEGRE-PJ-05PJ 7.955,66 2.386,70 0,00 2.312,69 0,00 0,00 12.655,05 1.589,47 1.661,93 0,00 3.251,40 9.403,65 1.334,00 4.550,98 31/12/2018
805 534100 ELISANGELA ROSINE SILVA OFICIAL DO MP ATIVO UBERABA - COMARCA; UBERABA-PJ-06PJ 4.467,49 446,75 0,00 1.532,06 0,00 0,00 6.446,30 561,76 347,95 0,00 909,71 5.536,59 1.334,00 256,85 31/12/2018
806 634300 ELIUDE GRACA DAMASIO ROSARIO FRANCELINO OFICIAL DO MP ATIVO BELO HORIZONTE - COMARCA; EXTINTA-DEF DIREIT HUM-COMB A VIOL DOMEST-18 3.930,12 235,81 0,00 1.691,40 0,00 0,00 5.857,33 476,21 201,35 0,00 677,56 5.179,77 2.033,00 163,31 31/12/2018
807 461700 ELIZABETH ALEIXO DA PAZ ANALISTA DO MP ATIVO JUIZ DE FORA - COMARCA; JUIZ DE FORA-PJ-24PJ 9.337,87 933,79 0,00 2.302,82 0,00 0,00 12.574,48 1.174,17 1.644,63 0,00 2.818,80 9.755,68 1.334,00 536,87 31/12/2018
808 227300 ELIZABETH COIMBRA FELIX ASSESSOR/OFICIAL ATIVO BELO HORIZONTE - COMARCA; DIRETORIA DE PAGAMENTO DE PESSOAL-DPAG 11.317,16 6.863,97 0,00 3.689,99 0,00 0,00 21.871,12 1.811,16 3.546,90 0,00 5.358,06 16.513,06 1.334,00 950,28 31/12/2018
809 354800 ELIZABETH DOS REIS OFICIAL DO MP ATIVO BELO HORIZONTE - COMARCA; EXTINTA - DIVISÃO DE MATERIAL PERMANENTE 7.955,66 1.591,13 0,00 2.253,80 0,00 0,00 11.800,59 1.222,73 1.415,08 0,00 2.637,81 9.162,78 1.334,00 1.668,43 31/12/2018
810 612000 ELIZABETH MARIA DE QUEIROZ TANIGUCHI OFICIAL DO MP ATIVO BELO HORIZONTE - COMARCA; SUPERINTENDENCIA DE RECURSOS HUMANOS 4.058,04 243,48 0,00 1.740,67 0,00 0,00 6.042,19 491,72 225,25 0,00 716,97 5.325,22 1.334,00 224,83 31/12/2018
811 452800 ELIZANGELA MARIA DAVI OFICIAL DO MP ATIVO ARCOS - COMARCA; ARCOS-PJ-01PJ 5.158,42 515,84 0,00 2.219,59 0,00 0,00 7.893,85 686,46 467,28 0,00 1.153,74 6.740,11 2.033,00 566,33 31/12/2018
812 496300 ELIZANGELA MARQUES PINTO COELHO OFICIAL DO MP ATIVO BELO HORIZONTE - COMARCA; DIRETORIA DE PESSOAL ADMINISTRATIVO - DPAD 6.054,65 605,47 0,00 1.798,82 0,00 0,00 8.458,94 852,98 760,71 0,00 1.613,69 6.845,25 2.033,00 1.250,74 31/12/2018
813 422500 ELIZETE FORTES DA CUNHA ANALISTA DO MP ATIVO RIBEIRÃO DAS NEVES - COMARCA; RIBEIRAO DAS NEVES-PJ-07PJ 10.279,98 2.056,00 0,00 2.499,59 0,00 0,00 14.835,57 2.114,19 2.097,73 0,00 4.211,92 10.623,65 1.334,00 7.226,59 31/12/2018
814 506100 ELLEM CRISTINA ROCHA FONSECA BOWEN ANALISTA DO MP ATIVO GOVERNADOR VALADARES - COMARCA; COORD REG PJ DEF EDU DIR CRIANCA ADOL RIODOCE 9.337,87 933,79 0,00 7.237,31 0,00 0,00 17.508,97 1.373,11 1.644,63 0,00 3.017,74 14.491,23 2.033,00 2.211,27 31/12/2018
815 468200 ELLEN CRISTINA BERNARDES DARE ANALISTA DO MP ATIVO TRÊS PONTAS - COMARCA; TRES PONTAS-PJ-02PJ 9.337,87 933,79 0,00 2.354,96 0,00 0,00 12.626,62 1.174,17 1.592,49 0,00 2.766,66 9.859,96 2.033,00 536,87 31/12/2018
816 418800 ELLEN CRISTINA DE QUEIROZ FERREIRA ANALISTA DO MP ATIVO BELO HORIZONTE - COMARCA; CENTRAL DE APOIO TECNICO-SETOR CONTABIL 10.279,98 2.056,00 0,00 3.939,90 0,00 0,00 16.275,88 1.631,88 2.149,87 0,00 3.781,75 12.494,13 2.033,00 2.989,71 31/12/2018
817 328401 ELLEN CRISTINA FERREIRA MORAIS MONTEIRO ANALISTA DO MP ATIVO CAMANDUCAIA - COMARCA; CAMANDUCAIA-PJ-UNPJ 10.279,98 2.056,00 0,00 4.629,34 0,00 0,00 16.965,32 1.410,15 2.045,60 0,00 3.455,75 13.509,57 1.334,00 483,58 31/12/2018
818 556100 ELLEN CRISTINE BIANCHIN DA SILVA OFICIAL DO MP ATIVO SÃO GONÇALO DO SAPUCAÍ - COMARCA; SAO GONCALO DO SAPUCAI-PJ-02PJ 4.467,49 446,75 0,00 3.935,52 0,00 0,00 8.849,76 653,50 305,29 0,00 958,79 7.890,97 1.334,00 1.026,66 31/12/2018
819 447100 ELLEN ROSANA DE MACEDO BORGES OFICIAL DO MP ATIVO UBERLÂNDIA - COMARCA; UBERLANDIA-PJ-17PJ 6.882,47 688,25 0,00 1.925,89 0,00 0,00 9.496,61 865,43 983,57 0,00 1.849,00 7.647,61 1.334,00 395,71 31/12/2018
820 477700 ELMA JACOB OFICIAL DO MP ATIVO BELO HORIZONTE - COMARCA; COORD DE GABINETE DO PGJ 6.251,74 4.376,22 0,00 3.166,91 0,00 1.169,08 14.963,95 1.214,91 2.053,33 0,00 3.268,24 11.695,71 1.334,00 601,32 31/12/2018
821 123300 ELMA PAULA DOS SANTOS COELHO OFICIAL DO MP ATIVO BELO HORIZONTE - COMARCA; BH-19PJ SAUDE-SECRETARIA 130PJ 14.941,94 13.447,75 0,00 7.006,65 0,00 3.122,87 38.519,21 3.245,29 6.937,80 0,00 10.183,09 28.336,12 1.334,00 1.235,32 31/12/2018
822 356500 ELOISA CARDOSO SILVA FRANCA OFICIAL DO MP ATIVO PEÇANHA - COMARCA; PECANHA-PJ-SECRETARIA 5.678,79 1.135,76 0,00 5.250,48 0,00 0,00 12.065,03 778,98 642,09 0,00 1.421,07 10.643,96 1.334,00 356,17 31/12/2018
823 251901 ELOISA COSTA E SILVA ANALISTA DO MP ATIVO SANTOS DUMONT - COMARCA; SANTOS DUMONT-PJ-02PJ 9.337,87 2.801,36 0,00 2.615,59 0,00 0,00 14.754,82 1.622,79 2.049,58 0,00 3.672,37 11.082,45 2.033,00 2.613,32 31/12/2018
824 400400 ELOIZA MARIA FERRI PIRES DA SILVA OFICIAL DO MP ATIVO BELO HORIZONTE - COMARCA; ASSESSORIA TECNICA DO PROCON-MG 6.251,74 1.250,35 0,00 2.268,78 0,00 0,00 9.770,87 1.150,89 914,64 0,00 2.065,53 7.705,34 1.334,00 2.960,49 31/12/2018
825 258000 ELSO CECIANO PALMEIRA COORDENADOR/OFICIAL ATIVO BELO HORIZONTE - COMARCA; DIRET DE PESSOAL DO MINISTERIO PUBLICO - DPMP 9.955,90 9.599,59 0,00 3.799,99 0,00 0,00 23.355,48 1.934,73 3.996,42 0,00 5.931,15 17.424,33 1.334,00 1.022,12 31/12/2018
826 206900 ELVIRA RITA DOS SANTOS ANALISTA DO MP ATIVO BELO HORIZONTE - COMARCA; CENTRAL DE APOIO TECNICO-SETOR CONTABIL 17.452,52 5.235,76 0,00 5.774,11 0,00 2.495,71 30.958,10 2.593,54 5.369,92 0,00 7.963,46 22.994,64 1.334,00 987,23 31/12/2018
827 506800 ELVIS FERREIRA DA SILVA ANALISTA DO MP ATIVO BELO HORIZONTE - COMARCA; DIRETORIA DE SISTEMAS DE INFORMACAO 9.337,87 933,79 0,00 2.354,96 0,00 0,00 12.626,62 1.373,11 1.592,49 0,00 2.965,60 9.661,02 1.334,00 2.345,49 31/12/2018
828 602400 ELZA MARIA MOREIRA MUNIZ ANALISTA DO MP ATIVO CARMO DO PARANAÍBA - COMARCA; CARMO DO PARANAIBA-PJ-02PJ 7.576,76 757,68 0,00 2.178,07 0,00 0,00 10.512,51 1.108,29 1.170,49 0,00 2.278,78 8.233,73 1.334,00 1.740,91 31/12/2018
829 368401 ELZIRA SIMOES DOS SANTOS ASSESSOR ATIVO BELO HORIZONTE - COMARCA; SUPERINTENDENCIA DE COMUNICACAO INTEGRADA 0,00 3.184,40 10.614,65 4.023,21 0,00 0,00 17.822,26 1.242,08 2.997,69 0,00 4.239,77 13.582,49 1.334,00 540,93 31/12/2018
830 437400 EMANOELLE DA SILVA RODRIGUES OFICIAL DO MP ATIVO UNAÍ - COMARCA; UNAI-PJ-03PJ 6.251,74 625,17 0,00 1.881,20 0,00 0,00 8.758,11 786,11 761,63 0,00 1.547,74 7.210,37 2.732,00 359,44 31/12/2018
831 458900 EMANUELLE CONRAD SILVA FREDERICO NAVES ANALISTA DO MP ATIVO ALFENAS - COMARCA; ALFENAS-PJ-05PJ 9.955,90 995,59 0,00 2.397,69 0,00 0,00 13.349,18 1.402,59 1.811,02 0,00 3.213,61 10.135,57 2.033,00 1.913,55 31/12/2018
832 284100 EMERSON MAGNO ALMEIDA PEDROSA DA FONSECA ANALISTA DO MP ATIVO BELO HORIZONTE - COMARCA; CENTRAL DE APOIO TECNICO-SETOR CONTABIL 14.162,21 4.248,66 0,00 12.346,20 0,00 0,00 30.757,07 2.523,26 2.252,44 0,00 4.775,70 25.981,37 1.334,00 4.527,96 31/12/2018
833 179900 EMERSON MORAIS DIAS OFICIAL DO MP ATIVO BELO HORIZONTE - COMARCA; DIRETORIA DE PROJETOS DE EDIFICACOES 13.283,29 5.313,32 0,00 4.102,75 0,00 0,00 22.699,36 2.125,82 3.682,16 0,00 5.807,98 16.891,38 1.334,00 729,00 31/12/2018
834 488700 EMERSON SIQUEIRA DE SOUSA TEIXEIRA ANALISTA DO MP ATIVO TARUMIRIM - COMARCA; TARUMIRIM-PJ-UNPJ 9.337,87 933,79 0,00 7.393,72 0,00 0,00 17.665,38 1.373,11 1.488,22 0,00 2.861,33 14.804,05 1.350,11 2.211,27 31/12/2018
835 194200 EMILIA ALVES FERREIRA RAMOS OFICIAL DO MP ATIVO UBERLÂNDIA - COMARCA; UBERLANDIA-PJ-SEC FAMILIA 7.576,76 2.273,03 0,00 2.348,23 0,00 0,00 12.198,02 1.476,54 1.437,10 0,00 2.913,64 9.284,38 1.334,00 3.573,24 31/12/2018
836 123400 EMILIO CARLOS MARTINS OFICIAL DO MP ATIVO AREADO - COMARCA; AREADO-PJ-UNPJ 15.533,57 12.426,86 0,00 6.965,99 0,00 3.075,65 38.002,07 3.718,02 6.767,62 0,00 10.485,64 27.516,43 1.334,00 6.411,90 31/12/2018
837 620700 EMILY FONTANA DE SIQUEIRA ANALISTA DO MP ATIVO BELO HORIZONTE - COMARCA; BH-18PJ VIOLENCIA DOMESTICA 6.882,47 412,95 0,00 2.722,16 0,00 0,00 10.017,58 882,60 864,06 0,00 1.746,66 8.270,92 2.033,00 823,41 31/12/2018
838 297000 ENEIDA SOARES COSTA MELO ANALISTA DO MP ATIVO PIUMHI - COMARCA; PIUMHI-PJ-01PJ 14.162,21 2.832,44 0,00 3.241,06 0,00 0,00 20.235,71 2.055,91 3.290,08 0,00 5.345,99 14.889,72 1.334,00 1.917,59 31/12/2018
839 276000 ENEZIO RODRIGUES DE SOUZA FILHO OFICIAL DO MP ATIVO UBERLÂNDIA - COMARCA; UBERLANDIA-PJ-01PJ 8.482,22 2.544,67 0,00 2.815,70 0,00 0,00 13.842,59 1.260,51 1.829,47 0,00 3.089,98 10.752,61 1.334,00 576,35 31/12/2018
840 387700 ENI MARIA DOS REIS OFICIAL DO MP ATIVO POUSO ALEGRE - COMARCA; POUSO ALEGRE-PJ-04PJ 7.106,49 1.421,30 0,00 3.078,10 0,00 0,00 11.605,89 1.082,42 1.217,82 0,00 2.300,24 9.305,65 1.334,00 1.312,33 31/12/2018
841 605100 ENIA MAIA ASSESSOR/OFICIAL ATIVO BELO HORIZONTE - COMARCA; DIRETORIA DE ORCAMENTO-DIOR/SPC 0,00 964,19 9.641,94 2.674,43 0,00 0,00 13.280,56 736,44 1.873,75 0,00 2.610,19 10.670,37 1.334,00 1.434,12 31/12/2018
842 612200 ENILDO GOMES MEIRA FILHO ANALISTA DO MP ATIVO BUENÓPOLIS - COMARCA; BUENOPOLIS-PJ-UNPJ 6.882,47 412,95 0,00 1.991,75 0,00 0,00 9.287,17 833,96 811,92 0,00 1.645,88 7.641,29 1.334,00 285,98 31/12/2018
843 553700 ENIVALDO NOVATO PUBLIO ANALISTA DO MP ATIVO DIVINÓPOLIS - COMARCA; DIVINOPOLIS-PJ-09PJ 7.576,76 757,68 0,00 2.084,61 0,00 0,00 10.419,05 1.108,29 1.118,36 0,00 2.226,65 8.192,40 1.334,00 1.740,91 31/12/2018
844 417300 ERIC BARATTI DA SILVA ANALISTA DO MP ATIVO PRATA - COMARCA; PRATA-PJ-UNPJ 9.337,87 933,79 0,00 7.237,31 0,00 0,00 17.508,97 1.174,17 1.644,63 0,00 2.818,80 14.690,17 1.334,00 402,65 31/12/2018
845 637600 ERIC DA ROCHA CHEHUEN ANALISTA DO MP ATIVO LIMA DUARTE - COMARCA; LIMA DUARTE-PJ-UNPJ 6.665,41 399,92 0,00 5.340,67 0,00 0,00 12.406,00 621,04 902,82 0,00 1.523,86 10.882,14 1.334,00 369,29 31/12/2018
846 398900 ERIC TEIXEIRA SILVA OFICIAL DO MP ATIVO UBERLÂNDIA - COMARCA; UBERLANDIA-PJ-SEC CIVEIS CRIMINAIS 6.882,47 1.376,49 0,00 2.021,94 0,00 0,00 10.280,90 1.266,97 1.152,02 0,00 2.418,99 7.861,91 1.334,00 3.258,92 31/12/2018
847 274200 ERICA DE SOUZA ANDRADE OFICIAL DO MP ATIVO CURVELO - COMARCA; CURVELO-PJ-SECRETARIA 9.043,46 2.713,04 0,00 2.996,63 0,00 0,00 14.753,13 1.343,91 1.955,90 0,00 3.299,81 11.453,32 1.334,00 614,48 31/12/2018
848 225700 ERICA GOMES DO COUTO OFICIAL DO MP ATIVO BELO HORIZONTE - COMARCA; BH-21PJ TUTELA DAS FUNDACOES 11.317,16 3.395,15 0,00 2.922,54 0,00 0,00 17.634,85 1.884,27 2.731,48 0,00 4.615,75 13.019,10 2.033,00 2.916,43 31/12/2018
849 632600 ERICA LEONOR MARTINS OFICIAL DO MP ATIVO RESENDE COSTA - COMARCA; RESENDE COSTA-PJ-UNPJ 4.326,60 259,60 0,00 1.472,24 0,00 0,00 6.058,44 524,26 282,26 0,00 806,52 5.251,92 1.334,00 179,78 31/12/2018
850 524800 ERICA MACHADO DA COSTA E SOUZA ANALISTA DO MP ATIVO BELO HORIZONTE - COMARCA; PROC JUST RECURSOS ESP E EXTRAORD CRIMINAIS 8.482,22 848,22 0,00 2.171,48 0,00 0,00 11.501,92 1.119,37 1.531,71 0,00 2.651,08 8.850,84 1.334,00 845,64 31/12/2018
851 249500 ERICA RODRIGUES ANDRADE OFICIAL DO MP ATIVO SÃO FRANCISCO - COMARCA; SAO FRANCISCO-PJ-02PJ 7.576,76 2.273,03 0,00 2.296,10 0,00 0,00 12.145,89 1.125,95 1.489,24 0,00 2.615,19 9.530,70 2.033,00 514,83 31/12/2018
852 260800 ERICA VIANA GIARDINI DE OLIVEIRA OFICIAL DO MP ATIVO BELO HORIZONTE - COMARCA; EXTINTA - DIVISÃO DE COMPRAS 9.337,87 2.801,36 0,00 2.563,45 0,00 0,00 14.702,68 1.462,35 2.101,72 0,00 3.564,07 11.138,61 1.334,00 1.154,72 31/12/2018
853 299800 ERICH DOUGLAS RIBEIRO GARCIA ANALISTA DO MP ATIVO BELO HORIZONTE - COMARCA; CENTRAL DE APOIO TECNICO-SETOR CONTABIL 13.715,83 2.743,17 0,00 3.166,31 0,00 0,00 19.625,31 1.881,46 3.158,98 0,00 5.040,44 14.584,87 1.334,00 860,27 31/12/2018
854 365000 ERICK EDUARDO JOSE DA SILVA OFICIAL DO MP ATIVO SANTOS DUMONT - COMARCA; SANTOS DUMONT-PJ-02PJ 5.678,79 1.135,76 0,00 1.820,37 0,00 0,00 8.634,92 778,98 798,50 0,00 1.577,48 7.057,44 1.334,00 267,13 31/12/2018
855 227400 ERIKA DE LAET GOULART BOECHAT ASSESSOR/OFICIAL ATIVO BELO HORIZONTE - COMARCA; ASSESSORIA ESPECIAL DO PGJ 11.317,16 5.732,26 0,00 3.479,91 0,00 0,00 20.529,33 1.884,27 3.322,05 0,00 5.206,32 15.323,01 2.033,00 2.509,03 31/12/2018
856 285100 ERIKA FERREIRA DA SILVA OFICIAL DO MP ATIVO JUIZ DE FORA - COMARCA; JUIZ DE FORA-PJ-11PJ 9.043,46 2.713,04 0,00 2.944,49 0,00 0,00 14.700,99 1.343,91 2.008,04 0,00 3.351,95 11.349,04 1.334,00 614,48 31/12/2018
857 420100 ERIKA JEANINE VERSIANI DE CASTRO ANALISTA DO MP ATIVO BELO HORIZONTE - COMARCA; COORD ESTADUAL DE DEFESA DA EDUCACAO 11.317,16 2.263,43 0,00 2.606,67 0,00 0,00 16.187,26 1.796,52 2.454,49 0,00 4.251,01 11.936,25 1.334,00 3.291,35 31/12/2018
858 606900 ERIKA MARIA BARBOSA ANALISTA DO MP ATIVO BELO HORIZONTE - COMARCA; CAO-SAUDE 6.251,74 375,10 0,00 1.846,31 0,00 0,00 8.473,15 898,85 700,42 0,00 1.599,27 6.873,88 1.334,00 1.544,50 31/12/2018
859 491000 ERIKA ROCHA PEREIRA E SILVA COORDENADOR/ANALISTA ATIVO BELO HORIZONTE - COMARCA; DIR GOVERNANCA TECNOLOGIA INFORMACAO 0,00 1.245,88 12.458,83 2.945,51 0,00 0,00 16.650,22 1.273,64 2.561,36 0,00 3.835,00 12.815,22 1.334,00 716,31 31/12/2018
860 283201 ERIKA STEHLING COORDENADOR/ANALISTA ATIVO BELO HORIZONTE - COMARCA; CENTRAL DE APOIO TECNICO-SETOR DE ENGENHARIA 9.337,87 3.125,84 0,00 4.450,63 0,00 0,00 16.914,34 1.273,64 2.167,95 0,00 3.441,59 13.472,75 1.334,00 651,44 31/12/2018
861 254000 ERLANDIA DA SILVA MENDES OFICIAL DO MP ATIVO IPATINGA - COMARCA; IPATINGA-PJ-03PJ 9.955,90 3.982,36 0,00 2.970,93 0,00 0,00 16.909,19 1.785,12 2.385,62 0,00 4.170,74 12.738,45 1.334,00 2.617,55 31/12/2018
862 208600 ERNANE JOSE DA COSTA ANALISTA DO MP ATIVO BELO HORIZONTE - COMARCA; CENTRAL DE APOIO TECNICO-SETOR MEDICO 17.452,52 12.216,76 0,00 5.009,89 0,00 0,00 34.679,17 3.391,56 6.392,20 0,00 9.783,76 24.895,41 1.334,00 1.163,06 31/12/2018
863 260600 ERNANI CALDEIRA DE ANDRADE ANALISTA DO MP ATIVO BELO HORIZONTE - COMARCA; CENTRAL DE APOIO TECNICO-SETOR CONTABIL 15.533,57 4.660,07 0,00 3.687,51 0,00 0,00 23.881,15 2.470,96 4.073,03 0,00 6.543,99 17.337,16 1.334,00 2.269,54 31/12/2018
864 348500 ERNILANDIA DE OLIVEIRA DIAS OFICIAL DO MP ATIVO MONTES CLAROS - COMARCA; MONTES CLAROS-PJ-16PJ 7.106,49 1.421,30 0,00 2.059,46 0,00 0,00 10.587,25 1.092,19 1.217,82 0,00 2.310,01 8.277,24 1.334,00 1.401,25 31/12/2018
865 199300 ERTON PORTINARI DE ANDRADE OFICIAL DO MP ATIVO SETE LAGOAS - COMARCA; SETE LAGOAS-PJ-05PJ 11.685,57 4.674,23 0,00 3.256,74 0,00 0,00 19.616,54 2.095,27 3.030,43 0,00 5.125,70 14.490,84 1.334,00 2.858,63 31/12/2018
866 618800 ESLY DE CARLA AYALLA BARBOSA MENDES OFICIAL DO MP ATIVO NOVA LIMA - COMARCA; NOVA LIMA-PJ-SECRETARIA 4.058,04 243,48 0,00 1.414,89 0,00 0,00 5.716,41 520,38 225,25 0,00 745,63 4.970,78 1.334,00 429,16 31/12/2018
867 537000 ESTANISLAU CORREIA ALMEIDA JUNIOR OFICIAL DO MP ATIVO UBERLÂNDIA - COMARCA; UBERLANDIA-PJ-25PJ 4.838,22 483,82 0,00 1.606,39 0,00 0,00 6.928,43 691,43 433,21 0,00 1.124,64 5.803,79 1.334,00 963,71 31/12/2018
868 326900 ESTER ALICE PIMENTA OFICIAL DO MP ATIVO BELO HORIZONTE - COMARCA; COORD DE INCLUSAO E MOBILIZACAO SOCIAIS 8.214,70 1.642,94 0,00 2.297,19 0,00 0,00 12.154,83 1.262,57 1.491,16 0,00 2.753,73 9.401,10 1.334,00 1.851,85 31/12/2018
869 503700 ESTHER GONCALVES FONSECA ANALISTA DO MP ATIVO BELO HORIZONTE - COMARCA; DIRETORIA DE PUBLICIDADE INSTITUCIONAL 7.823,48 782,35 0,00 2.070,35 0,00 0,00 10.676,18 1.150,45 1.236,92 0,00 2.387,37 8.288,81 1.334,00 1.852,87 31/12/2018
870 475600 ETIENE DE FATIMA OLIVEIRA PEREIRA ANALISTA DO MP ATIVO PATROCÍNIO - COMARCA; PATROCINIO-PJ-04PJ 9.337,87 933,79 0,00 2.407,09 0,00 0,00 12.678,75 1.174,17 1.540,36 0,00 2.714,53 9.964,22 2.033,00 402,65 31/12/2018
871 428800 EUGENIA RODRIGUES TRAJANO BORGES ANALISTA DO MP ATIVO UBERABA - COMARCA; UBERABA-PJ-08PJ 10.279,98 1.028,00 0,00 2.447,45 0,00 0,00 13.755,43 1.292,64 1.898,27 0,00 3.190,91 10.564,52 1.334,00 443,28 31/12/2018
872 272700 EUGENIO DE BARCELOS FILHO OFICIAL DO MP ATIVO FRUTAL - COMARCA; FRUTAL-PJ-02PJ 7.106,49 2.131,95 0,00 3.544,74 0,00 0,00 12.783,18 1.173,43 1.339,61 0,00 2.513,04 10.270,14 1.334,00 1.429,11 31/12/2018
873 254100 EULALIA ALVES MIRANDA LUCAS OFICIAL DO MP ATIVO ALMENARA - COMARCA; ALMENARA-PJ-02PJ 9.955,90 2.986,77 0,00 2.779,85 0,00 0,00 15.722,52 1.479,50 2.194,09 0,00 3.673,59 12.048,93 1.334,00 507,36 31/12/2018
874 615500 EUNICE BARBOSA PINTO OFICIAL DO MP ATIVO RIBEIRÃO DAS NEVES - COMARCA; RIBEIRAO DAS NEVES-PJ-SEC CRIMINAL 4.467,49 893,50 0,00 1.613,51 0,00 0,00 6.974,50 647,08 442,74 0,00 1.089,82 5.884,68 1.334,00 521,51 31/12/2018
875 641200 EUNICE ELVIRA DA SILVA MATOS OFICIAL DO MP ATIVO BELO HORIZONTE - COMARCA; BH-14PJ DEFESA CONSUMIDOR-SECRETARIA 3.930,12 235,81 0,00 1.494,75 0,00 0,00 5.660,68 552,35 201,35 0,00 753,70 4.906,98 1.334,00 855,49 31/12/2018
876 557900 EURIPEDES JOSUE PERES OFICIAL DO MP ATIVO IBIÁ - COMARCA; IBIA-PJ-UNPJ 4.467,49 446,75 0,00 3.892,87 0,00 0,00 8.807,11 653,50 347,95 0,00 1.001,45 7.805,66 1.334,00 1.026,66 31/12/2018
877 225800 EURO CESAR VIEIRA BARBOSA ANALISTA DO MP ATIVO BELO HORIZONTE - COMARCA; BH-17PJ PATRIMONIO PUBLICO 17.452,52 5.235,76 0,00 4.139,93 0,00 0,00 26.828,21 2.593,54 4.579,32 0,00 7.172,86 19.655,35 1.334,00 1.185,87 31/12/2018
878 199400 EUSTAQUIO ADAILTON LIMA E SILVA OFICIAL DO MP ATIVO MANGA - COMARCA; MANGA-PJ-01PJ 12.065,98 6.032,99 0,00 6.149,22 0,00 0,00 24.248,19 2.068,93 3.351,81 0,00 5.420,74 18.827,45 1.334,00 709,49 31/12/2018
879 548000 EVA VILMA LEAO REIS JULIO OFICIAL DO MP ATIVO BELO HORIZONTE - COMARCA; BH-07PJ 01 TRIBUNAL JURI-SECRETARIA 4.838,22 1.451,47 0,00 1.747,13 0,00 0,00 8.036,82 718,99 670,04 0,00 1.389,03 6.647,79 1.334,00 246,56 31/12/2018
880 517000 EVALDO SENA COSTA FILHO ANALISTA DO MP ATIVO CONTAGEM - COMARCA; CONTAGEM-PJ-15PJ 8.482,22 2.544,67 0,00 2.564,63 3.675,63 0,00 17.267,15 1.613,19 2.683,86 0,00 4.297,05 12.970,10 1.334,00 3.994,69 31/12/2018
881 217500 EVELANGE LEAO RABELO ASSESSOR ATIVO BELO HORIZONTE - COMARCA; COORD EST DEF DIR FAMILIA PESSOA DEFICI IDOSO 0,00 855,82 2.852,73 1.660,71 0,00 0,00 5.369,26 1.012,99 257,46 0,00 1.270,45 4.098,81 1.334,00 193,84 31/12/2018
882 540400 EVIE SARAMELLA DE RESENDE OFICIAL DO MP ATIVO BARBACENA - COMARCA; BARBACENA-PJ-05PJ 4.838,22 483,82 0,00 4.163,10 0,00 0,00 9.485,14 608,37 433,21 0,00 1.041,58 8.443,56 1.334,00 208,63 31/12/2018
883 469000 EWERTON CARDOSO DE SA RODRIGUES ANALISTA DO MP ATIVO CAMPO BELO - COMARCA; CAMPO BELO-PJ-01PJ 9.337,87 933,79 0,00 2.407,09 3.423,89 0,00 16.102,64 1.174,17 2.481,92 0,00 3.656,09 12.446,55 2.033,00 402,65 31/12/2018
884 368900 FABIANA BARBOSA SIQUEIRA OFICIAL DO MP ATIVO BELO HORIZONTE - COMARCA; CAO-ORDEM ECONOMICA E TRIBUTARIA-SECRETARIA 7.955,66 1.591,13 0,00 6.840,06 0,00 0,00 16.386,85 1.091,32 1.415,08 0,00 2.506,40 13.880,45 1.334,00 374,24 31/12/2018
885 273800 FABIANA CARNEIRO AMORIM COORDENADOR/OFICIAL ATIVO BELO HORIZONTE - COMARCA; BH-23PJ CIVEL-COORD ADM CIVEL 0,00 3.288,08 10.960,26 3.634,42 0,00 0,00 17.882,76 1.525,10 2.538,76 0,00 4.063,86 13.818,90 1.334,00 744,72 31/12/2018
886 519300 FABIANA DE OLIVEIRA LOUREIRO ANALISTA DO MP ATIVO BELO HORIZONTE - COMARCA; BH-09PJ AUDITORIA MILITAR 8.482,22 848,22 0,00 2.171,48 0,00 0,00 11.501,92 1.265,52 1.414,26 0,00 2.679,78 8.822,14 2.033,00 2.296,30 31/12/2018
887 363400 FABIANA DOURADO DUPIN VIEGAS ANALISTA DO MP ATIVO BELO HORIZONTE - COMARCA; GABINETE DE PROCURADOR DE JUSTIÇA - SALA 705 12.065,98 2.413,20 0,00 2.942,15 0,00 0,00 17.421,33 2.272,70 2.622,28 0,00 4.894,98 12.526,35 2.033,00 6.649,47 31/12/2018
888 410800 FABIANA DUARTE QUITITE ANALISTA DO MP ATIVO BELO HORIZONTE - COMARCA; EXTINTA-MEIO AMB PATRIM HIST CULTURAL-15PJGAB 11.317,16 2.263,43 0,00 3.308,28 0,00 0,00 16.888,87 1.629,25 2.625,42 0,00 4.254,67 12.634,20 1.334,00 1.408,23 31/12/2018
889 419500 FABIANA EULALIA DOS SANTOS ANALISTA DO MP ATIVO SÃO JOÃO DEL REI - COMARCA; SAO JOAO DEL REI-PJ-01PJ 10.279,98 2.056,00 0,00 3.939,90 0,00 0,00 16.275,88 2.114,19 2.149,87 0,00 4.264,06 12.011,82 1.334,00 7.591,98 31/12/2018
890 376300 FABIANA MATTOSO LEMOS ANALISTA DO MP ATIVO BELO HORIZONTE - COMARCA; BH-21PJ TUTELA FUNDACOES-SECRETARIA 11.685,57 2.337,11 0,00 2.826,30 0,00 0,00 16.848,98 1.602,96 2.562,69 0,00 4.165,65 12.683,33 1.334,00 549,70 31/12/2018
891 331500 FABIANA PACHECO OFICIAL DO MP ATIVO GUAXUPÉ - COMARCA; GUAXUPE-PJ-01PJ 7.955,66 1.591,13 0,00 2.305,94 0,00 0,00 11.852,73 1.222,73 1.362,94 0,00 2.585,67 9.267,06 2.033,00 1.693,63 31/12/2018
892 510700 FABIANA PEREIRA SANTOS BORGES ANALISTA DO MP ATIVO BELO HORIZONTE - COMARCA; DIRETORIA DE SISTEMAS DE INFORMACAO 8.482,22 848,22 0,00 2.223,62 0,00 0,00 11.554,06 1.464,47 1.362,13 0,00 2.826,60 8.727,46 5.765,18 4.447,04 31/12/2018
893 181700 FABIANA SOUZA FERREIRA OFICIAL DO MP ATIVO BELO HORIZONTE - COMARCA; BH-19PJ SAUDE-SECRETARIA 150PJ 5.678,79 1.703,64 0,00 2.003,90 0,00 0,00 9.386,33 843,90 833,21 0,00 1.677,11 7.709,22 1.334,00 385,87 31/12/2018
894 272900 FABIANA STOCKLER LEITE OFICIAL DO MP ATIVO LAJINHA - COMARCA; LAJINHA-PJ-SECRETARIA 8.758,36 3.503,34 0,00 2.684,82 0,00 0,00 14.946,52 1.570,41 2.027,42 0,00 3.597,83 11.348,69 2.195,68 2.142,49 31/12/2018
895 225500 FABIANE DE FATIMA PORTELLA ANALISTA DO MP ATIVO BELO HORIZONTE - COMARCA; BH-18PJ DIREITOS HUMANOS 17.452,52 5.235,76 0,00 4.035,65 0,00 0,00 26.723,93 3.120,84 4.683,60 0,00 7.804,44 18.919,49 1.334,00 5.648,72 31/12/2018
896 433800 FABIANE DINIZ MATTOS ANALISTA DO MP ATIVO BELO HORIZONTE - COMARCA; BH-23PJ INFRACIONAL-ASS JURIDICA 10.279,98 1.028,00 0,00 2.447,45 0,00 0,00 13.755,43 1.774,95 1.898,27 0,00 3.673,22 10.082,21 2.732,00 5.193,31 31/12/2018
897 455000 FABIANO CARVALHO DA SILVA ANALISTA DO MP ATIVO LAVRAS - COMARCA; COORD REG DO MA DA BACIA DO RIO GRANDE 9.337,87 933,79 0,00 2.302,82 0,00 0,00 12.574,48 1.174,17 1.644,63 0,00 2.818,80 9.755,68 1.334,00 402,65 31/12/2018
898 498800 FABIANO FURTADO PESSOA COELHO ANALISTA DO MP ATIVO BELO HORIZONTE - COMARCA; DIRETORIA DE REDES E BANCOS DE DADOS 9.337,87 933,79 0,00 2.354,96 0,00 0,00 12.626,62 1.373,11 1.592,49 0,00 2.965,60 9.661,02 2.033,00 2.345,49 31/12/2018
899 663000 FABIANO MARQUES CORREA ASSESSOR ATIVO BELO HORIZONTE - COMARCA; DIRETORIA DE SUPORTE E MANUTENCAO 0,00 0,00 4.763,08 1.906,83 0,00 0,00 6.669,91 792,65 512,80 0,00 1.305,45 5.364,46 1.334,00 77,80 31/12/2018
900 394600 FABIANO PALHARES SILVA ANALISTA DO MP ATIVO BELO HORIZONTE - COMARCA; CENTRAL DE APOIO TECN-SETOR DE MEIO AMBIENTE 11.317,16 2.263,43 0,00 2.816,75 0,00 0,00 16.397,34 1.723,75 2.402,35 0,00 4.126,10 12.271,24 1.334,00 2.219,68 31/12/2018
901 444400 FABIANO SARAIVA MEDEIROS ANALISTA DO MP ATIVO BETIM - COMARCA; BETIM-PJ-11PJ 9.955,90 995,59 0,00 2.501,97 0,00 0,00 13.453,46 1.402,59 1.706,74 0,00 3.109,33 10.344,13 2.033,00 1.799,38 31/12/2018
902 408700 FABIANO SOARES PORTILHO ANALISTA DO MP ATIVO VIÇOSA - COMARCA; VICOSA-PJ-02PJ 10.279,98 2.056,00 0,00 3.084,75 0,00 0,00 15.420,73 1.892,46 2.149,87 0,00 4.042,33 11.378,40 1.334,00 5.394,80 31/12/2018
903 442600 FABIO CARVALHO VIEIRA ANALISTA DO MP ATIVO MONTES CLAROS - COMARCA; MONTES CLAROS-PJ-06PJ 7.955,66 795,57 0,00 2.090,64 2.917,08 0,00 13.758,95 1.000,38 2.074,70 0,00 3.075,08 10.683,87 1.334,00 343,05 31/12/2018
904 123700 FABIO JOSE ANDRADE NOGUEIRA OFICIAL DO MP ATIVO FORMIGA - COMARCA; FORMIGA-PJ-SECRETARIA 9.337,87 7.470,30 0,00 5.744,79 0,00 1.848,90 24.401,86 1.921,38 2.399,75 0,00 4.321,13 20.080,73 1.334,00 731,37 31/12/2018
905 240101 FABIO JUNQUEIRA DE ASSIS FONSECA OFICIAL DO MP ATIVO BELO HORIZONTE - COMARCA; BH-17PJ PATRIMONIO PUBLICO-SECRETARIA 6.455,21 1.291,04 0,00 1.950,40 0,00 0,00 9.696,65 992,13 1.026,53 0,00 2.018,66 7.677,99 1.334,00 1.455,11 31/12/2018
906 271500 FABIO LUIZ VIEIRA OFICIAL DO MP ATIVO SANTA VITÓRIA - COMARCA; SANTA VITORIA-PJ-UNPJ 8.758,36 2.627,51 0,00 2.983,34 0,00 0,00 14.369,21 1.301,55 1.813,06 0,00 3.114,61 11.254,60 1.417,62 595,11 31/12/2018
907 213100 FABIO PRATES GONCALVES ASSESSOR ATIVO BELO HORIZONTE - COMARCA; DIRETORIA DE RELACOES PUBLICAS E CERIMONIAL 0,00 2.892,58 9.641,94 3.906,26 0,00 0,00 16.440,78 1.242,08 2.493,54 0,00 3.735,62 12.705,16 2.033,00 491,36 31/12/2018
908 436700 FABIO SANTIAGO DE CARVALHO OFICIAL DO MP ATIVO POÇO FUNDO - COMARCA; POCO FUNDO-PJ-UNPJ 6.882,47 688,25 0,00 1.925,89 0,00 0,00 9.496,61 969,62 983,57 0,00 1.953,19 7.543,42 1.334,00 1.342,83 31/12/2018
909 208400 FABIOLA DE SOUSA CARDOSO ASSESSOR/ANALISTA ATIVO BELO HORIZONTE - COMARCA; ASSESS TECNICA DA CORREGEDORIA-GERAL DO MP 17.452,52 7.572,87 0,00 4.540,89 0,00 0,00 29.566,28 2.593,54 5.326,30 0,00 7.919,84 21.646,44 1.334,00 1.308,01 31/12/2018
910 392200 FABIOLA LEROY COSTA ANALISTA DO MP ATIVO ESMERALDAS - COMARCA; ESMERALDAS-PJ-01PJ 9.337,87 1.867,57 0,00 7.816,22 0,00 0,00 19.021,66 1.280,92 1.873,17 0,00 3.154,09 15.867,57 1.334,00 439,26 31/12/2018
911 409000 FABIOLA MONTEIRO DE CARVALHO CASTRO ANALISTA DO MP ATIVO BOM SUCESSO - COMARCA; BOM SUCESSO-PJ-UNPJ 9.641,94 1.928,39 0,00 3.107,94 0,00 0,00 14.678,27 1.393,33 1.962,48 0,00 3.355,81 11.322,46 1.334,00 1.096,30 31/12/2018
912 227900 FABIOLA PIMENTA DE CARVALHO OFICIAL DO MP ATIVO MONTES CLAROS - COMARCA; COORD REG BACIA RIOS VERDE GRANDE E PARDO 8.758,36 2.627,51 0,00 2.458,32 0,00 0,00 13.844,19 1.458,24 1.917,33 0,00 3.375,57 10.468,62 1.334,00 1.989,47 31/12/2018
913 525800 FABRICIA ALVES DANTAS OFICIAL DO MP ATIVO MONTES CLAROS - COMARCA; MONTES CLAROS-PJ-01PJ 5.863,71 586,37 0,00 1.873,78 0,00 0,00 8.323,86 826,12 605,02 0,00 1.431,14 6.892,72 1.334,00 1.060,09 31/12/2018
914 263400 FABRICIA PINTO TEIXEIRA SANTIAGO OFICIAL DO MP ATIVO BELO HORIZONTE - COMARCA; CAO-TS-TERCEIRO SETOR-SECRETARIA 9.955,90 2.986,77 0,00 2.779,85 0,00 0,00 15.722,52 1.643,91 2.194,09 0,00 3.838,00 11.884,52 1.334,00 2.002,00 31/12/2018
915 420800 FABRICIO BERNARDES DE OLIVEIRA OFICIAL DO MP ATIVO ITURAMA - COMARCA; ITURAMA-PJ-02PJ 6.882,47 1.376,49 0,00 1.978,03 0,00 0,00 10.236,99 1.196,75 1.099,88 0,00 2.296,63 7.940,36 1.334,00 3.027,68 31/12/2018
916 474000 FABRICIO DE FREITAS SALES ANALISTA DO MP ATIVO MONTES CLAROS - COMARCA; COORD REG PATRI PUB ORD TRIB-NORTE MINAS 9.337,87 933,79 0,00 2.302,82 0,00 0,00 12.574,48 1.174,17 1.644,63 0,00 2.818,80 9.755,68 2.033,00 536,87 31/12/2018
917 510100 FABRICIO FURTADO ASSIS DO CARMO ANALISTA DO MP ATIVO BELO HORIZONTE - COMARCA; SERVICO MEDICO-DEPTO PERIC MEDICA SAUDE OCUP 9.337,87 933,79 0,00 2.495,98 0,00 0,00 12.767,64 1.373,11 1.890,34 0,00 3.263,45 9.504,19 1.334,00 3.139,80 31/12/2018
918 519600 FABRICIO GONTIJO SALVATI ANALISTA DO MP ATIVO JUIZ DE FORA - COMARCA; JUIZ DE FORA-CAO ESPECIALIZADO-SECRETARIA 8.482,22 848,22 0,00 2.171,48 0,00 0,00 11.501,92 1.265,52 1.414,26 0,00 2.679,78 8.822,14 1.334,00 2.174,38 31/12/2018
919 637400 FABRICIO HENRIQUE DA SILVA PASSOS ASSESSOR/ANALISTA ATIVO BELO HORIZONTE - COMARCA; DIRETORIA DE PUBLICIDADE INSTITUCIONAL 0,00 578,52 9.641,94 2.482,82 0,00 0,00 12.703,28 889,13 1.705,98 0,00 2.595,11 10.108,17 1.334,00 400,65 31/12/2018
920 428200 FABRICIO ORZIL VIANA ANALISTA DO MP ATIVO SANTA LUZIA - COMARCA; SANTA LUZIA-PJ-04PJ 9.337,87 933,79 0,00 3.618,66 0,00 0,00 13.890,32 1.174,17 1.644,63 0,00 2.818,80 11.071,52 1.334,00 402,65 31/12/2018
921 455600 FABRICIO PAIVA DA ROCHA ANALISTA DO MP ATIVO SÃO JOÃO DEL REI - COMARCA; SAO JOAO DEL REI-PJ-06PJ 9.337,87 933,79 0,00 2.354,96 0,00 0,00 12.626,62 1.174,17 1.592,49 0,00 2.766,66 9.859,96 1.334,00 402,65 31/12/2018
922 511500 FABRICIO RENE CARDOSO DE PADUA ANALISTA DO MP ATIVO SÃO SEBASTIÃO DO PARAÍSO - COMARCA; SAO SEBASTIAO DO PARAISO-PJ-03PJ 8.482,22 848,22 0,00 2.171,48 0,00 0,00 11.501,92 1.464,47 1.414,26 0,00 2.878,73 8.623,19 1.334,00 3.983,00 31/12/2018
923 496100 FABRICIO RESENDE GONCALVES OFICIAL DO MP ATIVO ENTRE-RIOS DE MINAS - COMARCA; ENTRE RIOS DE MINAS-PJ-UNPJ 5.863,71 586,37 0,00 4.868,12 0,00 0,00 11.318,20 826,12 709,30 0,00 1.535,42 9.782,78 2.033,00 1.060,09 31/12/2018
924 650300 FABRICIO ROBERTO AZEVEDO OFICIAL DO MP ATIVO NOVA SERRANA - COMARCA; NOVA SERRANA-PJ-04PJ 3.457,37 0,00 0,00 1.206,85 0,00 0,00 4.664,22 442,79 106,76 0,00 549,55 4.114,67 1.334,00 604,09 31/12/2018
925 514900 FADUA MARIA DRUMOND CHEQUER FIGUEIREDO ANALISTA DO MP ATIVO ALMENARA - COMARCA; COORD REG INCLUSAO MOBILIZ VALE JEQUITINHONHA 8.482,22 848,22 0,00 3.379,05 0,00 0,00 12.709,49 1.265,52 1.309,99 0,00 2.575,51 10.133,98 2.732,00 2.174,38 31/12/2018
926 282500 FANNY FERREIRA MELO FAVERO DE FRAVET OFICIAL DO MP ATIVO ARAXÁ - COMARCA; ARAXA-PJ-03PJ 7.823,48 2.347,04 0,00 2.179,53 0,00 0,00 12.350,05 1.513,22 1.619,87 0,00 3.133,09 9.216,96 1.334,00 3.708,67 31/12/2018
927 540100 FATIMA CRISTINA POVOA DA COSTA ASSESSOR/OFICIAL ATIVO BELO HORIZONTE - COMARCA; BH-18PJ VIOLENCIA DOMESTICA-SECRETARIA 0,00 2.892,58 9.641,94 3.097,13 0,00 0,00 15.631,65 718,99 2.387,37 0,00 3.106,36 12.525,29 1.334,00 655,15 31/12/2018
928 382800 FATIMA DE OLIVEIRA COELHO E SILVA OFICIAL DO MP ATIVO BELO HORIZONTE - COMARCA; DIRETORIA DE ADMINISTRACAO FINANCEIRA 5.863,71 1.759,11 0,00 1.985,30 0,00 0,00 9.608,12 871,38 944,19 0,00 1.815,57 7.792,55 1.334,00 298,82 31/12/2018
929 398601 FELIPE ANTONIO HORTA DE PAULA ANALISTA DO MP ATIVO BELO HORIZONTE - COMARCA; PROC. JUSTICA DIR. DIFUSOS E COLETIVOS-SEC 7.576,76 757,68 0,00 2.032,47 2.778,15 0,00 13.145,06 952,73 1.934,49 0,00 2.887,22 10.257,84 1.334,00 326,71 31/12/2018
930 430900 FELIPE BOY VIEIRA COORDENADOR/ANALISTA ATIVO BELO HORIZONTE - COMARCA; EXTINTA - DIVISAO DE TRANSPORTES 9.955,90 3.187,64 0,00 2.871,57 0,00 0,00 16.015,11 1.251,88 2.413,83 0,00 3.665,71 12.349,40 1.334,00 515,23 31/12/2018
931 631700 FELIPE DE MORAIS SIMOES COELHO ANALISTA DO MP ATIVO BELO HORIZONTE - COMARCA; BH-18PJ VIOLENCIA DOMESTICA 6.054,65 363,28 0,00 1.765,02 0,00 0,00 8.182,95 799,88 701,43 0,00 1.501,31 6.681,64 1.334,00 853,75 31/12/2018
932 549100 FELIPE FERNANDES ALVIM ANALISTA DO MP ATIVO LAJINHA - COMARCA; LAJINHA-PJ-UNPJ 7.576,76 757,68 0,00 2.032,47 0,00 0,00 10.366,91 952,73 1.170,49 0,00 2.123,22 8.243,69 1.334,00 435,61 31/12/2018
933 487300 FELIPE FERNANDES SILVEIRA ASSESSOR ATIVO BELO HORIZONTE - COMARCA; DIVISAO DE MANUTENCAO PREDIAL 0,00 0,00 2.852,73 2.696,64 0,00 0,00 5.549,37 867,72 112,55 0,00 980,27 4.569,10 1.334,00 111,83 31/12/2018
934 620100 FELIPE GOMES DE AZEVEDO OFICIAL DO MP ATIVO BELO HORIZONTE - COMARCA; BH-18PJ VIOLENCIA DOMESTICA-SECRETARIA 4.058,04 243,48 0,00 1.414,89 0,00 0,00 5.716,41 520,38 225,25 0,00 745,63 4.970,78 1.334,00 485,37 31/12/2018
935 601600 FELIPE RODRIGUES DE SIQUEIRA ANALISTA DO MP ATIVO BELO HORIZONTE - COMARCA; BH-02PJ FAMILIA 7.576,76 757,68 0,00 2.178,07 0,00 0,00 10.512,51 1.108,29 1.170,49 0,00 2.278,78 8.233,73 1.334,00 1.849,81 31/12/2018
936 628900 FELIX FERNANDO JUNIO VIEIRA ANALISTA DO MP ATIVO CAETÉ - COMARCA; CAETE-PJ-02PJ 6.882,47 412,95 0,00 2.722,16 0,00 0,00 10.017,58 882,60 864,06 0,00 1.746,66 8.270,92 1.334,00 728,08 31/12/2018
937 544500 FELLIPE LEMOS MARCONDES BUENO ANALISTA DO MP ATIVO SÃO SEBASTIÃO DO PARAÍSO - COMARCA; SAO SEBASTIAO DO PARAISO-PJ-04PJ 7.576,76 757,68 0,00 2.032,47 2.778,15 0,00 13.145,06 952,73 1.934,49 0,00 2.887,22 10.257,84 1.334,00 326,71 31/12/2018
938 612600 FERNANDA ADRIANA DE PAULA GUIDO ANALISTA DO MP ATIVO PARACATU - COMARCA; PARACATU-PJ-02PJ 6.882,47 412,95 0,00 5.392,19 0,00 0,00 12.687,61 833,96 916,19 0,00 1.750,15 10.937,46 1.448,39 285,98 31/12/2018
939 508400 FERNANDA AGANETTI MATTOS DE OLIVEIRA ANALISTA DO MP ATIVO BELO HORIZONTE - COMARCA; BH-07PJ 02 TRIBUNAL DO JURI 8.482,22 848,22 0,00 2.171,48 0,00 0,00 11.501,92 1.464,47 1.414,26 0,00 2.878,73 8.623,19 2.033,00 4.284,44 31/12/2018
940 453600 FERNANDA ALBERNAZ RABELO ANALISTA DO MP ATIVO BELO HORIZONTE - COMARCA; GABINETE DE PROCURADOR DE JUSTIÇA - SALA 616 9.337,87 933,79 0,00 2.302,82 0,00 0,00 12.574,48 1.174,17 1.644,63 0,00 2.818,80 9.755,68 1.334,00 402,65 31/12/2018
941 255600 FERNANDA ALINA DE ALMEIDA ANDRADE OFICIAL DO MP ATIVO BELO HORIZONTE - COMARCA; NUCLEO DE INFORMACOES E INTELIGENCIA 8.214,70 2.464,41 0,00 2.359,68 0,00 0,00 13.038,79 1.220,75 1.744,35 0,00 2.965,10 10.073,69 1.334,00 418,63 31/12/2018
942 443200 FERNANDA ALMEIDA LOPES ANALISTA DO MP ATIVO CONTAGEM - COMARCA; CONTAGEM-PJ-23PJ 10.279,98 1.028,00 0,00 2.499,59 0,00 0,00 13.807,57 1.292,64 1.846,13 0,00 3.138,77 10.668,80 2.033,00 443,28 31/12/2018
943 281100 FERNANDA ANANIAS MEIRA ANALISTA DO MP ATIVO BELO HORIZONTE - COMARCA; BH-23PJ INFRACIONAL-ASS JURIDICA 13.459,41 4.114,75 0,00 4.016,63 0,00 0,00 21.590,79 2.038,25 3.424,16 0,00 5.462,41 16.128,38 1.334,00 931,96 31/12/2018
944 539000 FERNANDA BARBOSA ALVES ANALISTA DO MP ATIVO CANÁPOLIS - COMARCA; CANAPOLIS-PJ-SECRETARIA 7.576,76 757,68 0,00 2.032,47 0,00 0,00 10.366,91 952,73 1.170,49 0,00 2.123,22 8.243,69 2.033,00 326,71 31/12/2018
945 451200 FERNANDA BLOISE PRADO OFICIAL DO MP ATIVO BELO HORIZONTE - COMARCA; NUCLEO DE NEGOCIACAO DE CONFLITOS AMBIENTAIS 6.455,21 645,52 0,00 1.860,30 0,00 0,00 8.961,03 909,46 868,54 0,00 1.778,00 7.183,03 1.334,00 1.333,87 31/12/2018
946 427900 FERNANDA BRAGA CARNEIRO BICALHO ANALISTA DO MP ATIVO PEÇANHA - COMARCA; PECANHA-PJ-SECRETARIA 9.337,87 933,79 0,00 2.354,96 0,00 0,00 12.626,62 1.174,17 1.592,49 0,00 2.766,66 9.859,96 2.033,00 402,65 31/12/2018
947 507100 FERNANDA CABRINI VAZ MOTA ANALISTA DO MP ATIVO BELO HORIZONTE - COMARCA; BH-14PJ DEFESA CONSUMIDOR-GAB 005PJ 9.337,87 933,79 0,00 2.302,82 0,00 0,00 12.574,48 1.373,11 1.644,63 0,00 3.017,74 9.556,74 2.033,00 2.345,49 31/12/2018
948 259800 FERNANDA CALZAVARA DE SOUSA COORDENADOR/OFICIAL ATIVO BELO HORIZONTE - COMARCA; DIRET DE FORMACAO, APERFEIC. E POS-GRADUACAO 0,00 3.737,65 12.458,83 3.337,89 0,00 0,00 19.534,37 1.609,66 3.105,23 0,00 4.714,89 14.819,48 1.334,00 846,55 31/12/2018
949 494400 FERNANDA CAMPOS BARATA OFICIAL DO MP ATIVO JUIZ DE FORA - COMARCA; JUIZ DE FORA-PJ-08PJ 4.995,72 499,57 0,00 1.636,25 0,00 0,00 7.131,54 717,18 475,61 0,00 1.192,79 5.938,75 1.334,00 1.024,48 31/12/2018
950 555600 FERNANDA CAROLINE RIBEIRO ASSESSOR/ANALISTA ATIVO BELO HORIZONTE - COMARCA; EXTINTA - DIRETORIA DE CONTRATOS E CONVÊNIOS 0,00 964,19 9.641,94 3.614,87 0,00 0,00 14.221,00 1.108,29 1.795,21 0,00 2.903,50 11.317,50 1.334,00 1.829,97 31/12/2018
951 294500 FERNANDA COSTA FLORES OFICIAL DO MP ATIVO PARÁ DE MINAS - COMARCA; PARA DE MINAS-PJ-04PJ 9.043,46 1.808,69 0,00 2.383,84 0,00 0,00 13.235,99 1.240,54 1.786,70 0,00 3.027,24 10.208,75 1.334,00 567,21 31/12/2018
952 344500 FERNANDA CRISTINA DE SOUZA PAZ ASSESSOR ATIVO BELO HORIZONTE - COMARCA; CENTRAL DE APOIO TECN-SETOR DE MEIO AMBIENTE 0,00 0,00 4.763,08 2.088,92 0,00 0,00 6.852,00 1.124,44 409,41 0,00 1.533,85 5.318,15 1.334,00 186,72 31/12/2018
953 538100 FERNANDA CRISTINA DOS SANTOS ROSA MOREIRA OFICIAL DO MP ATIVO RIBEIRÃO DAS NEVES - COMARCA; RIBEIRAO DAS NEVES-PJ-09PJ 4.773,83 1.451,47 0,00 4.768,69 0,00 0,00 10.993,99 718,99 652,33 0,00 1.371,32 9.622,67 1.334,00 328,75 31/12/2018
954 337800 FERNANDA CRISTINA ROLAND CLIMACO MENDES COORDENADOR/OFICIAL ATIVO BELO HORIZONTE - COMARCA; DIRETORIA DE PAGAMENTO DE PESSOAL-DPAG 0,00 2.491,77 12.458,83 3.268,06 0,00 0,00 18.218,66 1.396,73 2.869,28 0,00 4.266,01 13.952,65 1.334,00 781,43 31/12/2018
955 545400 FERNANDA CUNHA GUIMARAES ANALISTA DO MP ATIVO BELO HORIZONTE - COMARCA; COORD EST DEF DIR FAMILIA PESSOA DEFICI IDOSO 7.576,76 757,68 0,00 2.032,47 0,00 0,00 10.366,91 952,73 1.170,49 0,00 2.123,22 8.243,69 1.334,00 326,71 31/12/2018
956 429801 FERNANDA CUNHA PINHEIRO DA SILVA ANALISTA DO MP ATIVO BELO HORIZONTE - COMARCA; SUPERINTENDENCIA DE COMUNICACAO INTEGRADA 8.482,22 848,22 0,00 3.352,98 0,00 0,00 12.683,42 1.365,15 1.362,13 0,00 2.727,28 9.956,14 1.334,00 3.080,03 31/12/2018
957 408000 FERNANDA DAS NEVES RAMOS ANALISTA DO MP ATIVO BELO HORIZONTE - COMARCA; CENTRAL DE APOIO TECNICO-SETOR CONTABIL 10.279,98 2.056,00 0,00 3.084,75 0,00 0,00 15.420,73 1.892,46 2.149,87 0,00 4.042,33 11.378,40 2.033,00 5.029,41 31/12/2018
958 496000 FERNANDA DE ALMEIDA VIANA ANALISTA DO MP ATIVO BELO HORIZONTE - COMARCA; PROC JUST RECURSOS ESP E EXTRAORD CRIMINAIS 9.337,87 933,79 0,00 2.178,58 0,00 0,00 12.450,24 1.273,64 1.617,28 0,00 2.890,92 9.559,32 1.334,00 544,52 31/12/2018
959 266700 FERNANDA DE CASTRO LUCAS COORDENADOR/OFICIAL ATIVO BELO HORIZONTE - COMARCA; DIRETORIA-GERAL 0,00 3.689,21 12.297,35 3.164,89 0,00 0,00 19.151,45 1.822,41 3.081,07 0,00 4.903,48 14.247,97 2.033,00 4.744,59 31/12/2018
960 433200 FERNANDA DE FIGUEIREDO NORTE ANALISTA DO MP ATIVO BELO HORIZONTE - COMARCA; ASSESS JUR DO CONS SUPERIOR DO MINISTERIO PUB 10.279,98 1.028,00 0,00 2.551,73 0,00 0,00 13.859,71 1.774,95 1.793,99 0,00 3.568,94 10.290,77 2.732,00 4.827,92 31/12/2018
961 419200 FERNANDA DE MIRANDA MARTINS SIMOES ANALISTA DO MP ATIVO UBERLÂNDIA - COMARCA; UBERLANDIA-PJ-26PJ 11.317,16 2.263,43 0,00 2.606,67 0,00 0,00 16.187,26 1.796,52 2.454,49 0,00 4.251,01 11.936,25 2.033,00 2.751,44 31/12/2018
962 441400 FERNANDA DE MORAIS PINTO ANALISTA DO MP ATIVO BELO HORIZONTE - COMARCA; PROC. JUSTICA DIR. DIFUSOS E COLETIVOS-SEC 9.955,90 995,59 0,00 2.397,69 0,00 0,00 13.349,18 1.402,59 1.811,02 0,00 3.213,61 10.135,57 1.334,00 1.799,38 31/12/2018
963 432200 FERNANDA DE MOURA GUIMARAES ANALISTA DO MP ATIVO BELO HORIZONTE - COMARCA; ASSESS TECNICO-JUR JUNTO AS PROC. DE JUST 10.279,98 1.028,00 0,00 2.447,45 0,00 0,00 13.755,43 1.292,64 1.898,27 0,00 3.190,91 10.564,52 2.033,00 591,04 31/12/2018
964 461800 FERNANDA DE OLIVEIRA SANTOS ANALISTA DO MP ATIVO JUIZ DE FORA - COMARCA; JUIZ DE FORA-PJ-21PJ 9.337,87 933,79 0,00 2.302,82 0,00 0,00 12.574,48 1.174,17 1.644,63 0,00 2.818,80 9.755,68 2.732,00 402,65 31/12/2018
965 432500 FERNANDA DE PAULA PINTO ANALISTA DO MP ATIVO BELO HORIZONTE - COMARCA; PROC JUST RECURSOS ESP E EXTRAORD CRIMINAIS 9.955,90 995,59 0,00 2.397,69 0,00 0,00 13.349,18 1.402,59 1.811,02 0,00 3.213,61 10.135,57 1.334,00 1.942,48 31/12/2018
966 431600 FERNANDA DIAS BARBOSA PEREIRA ANALISTA DO MP ATIVO OURO BRANCO - COMARCA; OURO BRANCO-PJ-UNPJ 10.279,98 1.028,00 0,00 7.984,07 0,00 0,00 19.292,05 1.292,64 1.793,99 0,00 3.086,63 16.205,42 2.033,00 443,28 31/12/2018
967 162200 FERNANDA FERNANDES MONTEIRO ASSESSOR ATIVO BELO HORIZONTE - COMARCA; BH-12PJ JUIZO CRIMINAL-SECRETARIA 0,00 1.905,23 4.763,08 2.533,84 0,00 0,00 9.202,15 1.242,08 984,60 0,00 2.226,68 6.975,47 1.334,00 348,53 31/12/2018
968 512800 FERNANDA FERREIRA BARBOSA MOREIRA ANALISTA DO MP ATIVO IPATINGA - COMARCA; IPATINGA-PJ-01PJ 8.482,22 848,22 0,00 2.171,48 0,00 0,00 11.501,92 1.464,78 1.414,26 0,00 2.879,04 8.622,88 2.732,00 3.985,77 31/12/2018
969 329200 FERNANDA GABRIEL GUZELLA OFICIAL DO MP ATIVO BELO HORIZONTE - COMARCA; DIRET DE PLANOS PROJETOS E PROGRAMAS INST 7.955,66 1.591,13 0,00 2.201,67 0,00 0,00 11.748,46 1.091,32 1.467,22 0,00 2.558,54 9.189,92 1.334,00 374,24 31/12/2018
970 324200 FERNANDA GEORGIA NEVES ZAHAN OFICIAL DO MP ATIVO IPANEMA - COMARCA; IPANEMA-PJ-UNPJ 7.106,49 4.974,55 0,00 2.555,34 0,00 0,00 14.636,38 1.461,50 2.087,48 0,00 3.548,98 11.087,40 1.334,00 1.205,44 31/12/2018
971 548200 FERNANDA GONCALVES DE CARVALHO ZUZA OFICIAL DO MP ATIVO TUPACIGUARA - COMARCA; TUPACIGUARA-PJ-UNPJ 4.467,49 446,75 0,00 1.532,06 0,00 0,00 6.446,30 561,76 347,95 0,00 909,71 5.536,59 1.334,00 256,85 31/12/2018
972 355400 FERNANDA HELENA BASQUES OFICIAL DO MP ATIVO SABARÁ - COMARCA; SABARA-PJ-01PJ 7.955,66 1.591,13 0,00 2.201,67 0,00 0,00 11.748,46 1.091,32 1.467,22 0,00 2.558,54 9.189,92 1.334,00 374,24 31/12/2018
973 454800 FERNANDA IATAROLA BARBOSA DIAS ANALISTA DO MP ATIVO BARBACENA - COMARCA; BARBACENA-PJ-05PJ 9.337,87 933,79 0,00 2.354,96 0,00 0,00 12.626,62 1.174,17 1.592,49 0,00 2.766,66 9.859,96 1.334,00 536,87 31/12/2018
974 515500 FERNANDA LILIANE MARUGEIRO ANALISTA DO MP ATIVO BELO HORIZONTE - COMARCA; BH-18PJ VIOLENCIA DOMESTICA-SECRETARIA 8.482,22 848,22 0,00 2.223,62 0,00 0,00 11.554,06 1.365,15 1.362,13 0,00 2.727,28 8.826,78 2.033,00 3.381,47 31/12/2018
975 392900 FERNANDA MAGALHAES SILVA ANALISTA DO MP ATIVO BELO HORIZONTE - COMARCA; DIRETORIA DE IMPRENSA 11.685,57 2.337,11 0,00 3.115,59 0,00 0,00 17.138,27 1.602,96 2.562,69 0,00 4.165,65 12.972,62 1.334,00 565,98 31/12/2018
976 409200 FERNANDA MAIA SANTIAGO CARDOSO ANALISTA DO MP ATIVO PIRAPORA - COMARCA; PIRAPORA-PJ-02PJ 8.758,36 1.751,67 0,00 2.756,84 0,00 0,00 13.266,87 1.334,01 1.702,97 0,00 3.036,98 10.229,89 2.033,00 1.617,28 31/12/2018
977 556500 FERNANDA OTERO COSTA ANALISTA DO MP ATIVO BELO HORIZONTE - COMARCA; ASSESS TECNICO-JUR JUNTO AS PROC. DE JUST 8.214,70 821,47 0,00 2.288,26 0,00 0,00 11.324,43 1.175,86 1.342,24 0,00 2.518,10 8.806,33 1.334,00 1.771,65 31/12/2018
978 615300 FERNANDA PATRICIA RIBEIRO MOTA OFICIAL DO MP ATIVO UBERABA - COMARCA; UBERABA-PJ-05PJ 4.058,04 243,48 0,00 1.414,89 0,00 0,00 5.716,41 491,72 225,25 0,00 716,97 4.999,44 1.334,00 168,62 31/12/2018
979 619800 FERNANDA PINTO PEREIRA ANALISTA DO MP ATIVO UBERLÂNDIA - COMARCA; UBERLANDIA-PJ-20PJ 6.882,47 412,95 0,00 1.887,48 0,00 0,00 9.182,90 882,60 916,19 0,00 1.798,79 7.384,11 2.033,00 728,08 31/12/2018
980 412900 FERNANDA PORTELA ROSA ANALISTA DO MP ATIVO BELO HORIZONTE - COMARCA; BH-08PJ JUIZADO ESPECIAL-SECRETARIA 11.317,16 2.263,43 0,00 4.995,16 0,00 0,00 18.575,75 1.552,42 2.454,49 0,00 4.006,91 14.568,84 2.033,00 532,37 31/12/2018
981 274301 FERNANDA QUEIROZ PARREIRA ANALISTA DO MP ATIVO PATOS DE MINAS - COMARCA; COORD REG PJ DEF EDU DIR CRI ADO AL PAR NOROE 9.337,87 933,79 0,00 2.302,82 0,00 0,00 12.574,48 1.373,11 1.644,63 0,00 3.017,74 9.556,74 1.334,00 2.211,27 31/12/2018
982 467900 FERNANDA QUEIROZ SIMOES GANNAM ANALISTA DO MP ATIVO SÃO LOURENÇO - COMARCA; SAO LOURENCO-PJ-02PJ 9.337,87 933,79 0,00 2.354,96 0,00 0,00 12.626,62 1.174,17 1.592,49 0,00 2.766,66 9.859,96 2.033,00 402,65 31/12/2018
983 255500 FERNANDA SIMOES LOPES MENDES ANALISTA DO MP ATIVO BELO HORIZONTE - COMARCA; BH-17PJ PATRIMONIO PUBLICO-SECRETARIA 15.533,57 4.660,07 0,00 3.791,79 0,00 0,00 23.985,43 2.685,24 3.968,76 0,00 6.654,00 17.331,43 1.334,00 4.481,43 31/12/2018
984 481700 FERNANDA VIANA FROES DA SILVA OFICIAL DO MP ATIVO GOVERNADOR VALADARES - COMARCA; GOVERNADOR VALADARES-PJ-09PJ 6.251,74 625,17 0,00 1.829,07 2.292,30 0,00 10.998,28 786,11 1.444,15 0,00 2.230,26 8.768,02 2.033,00 269,58 31/12/2018
985 123900 FERNANDO ANTONIO FARIA DE ABREU DIRETOR/ANALISTA ATIVO BELO HORIZONTE - COMARCA; SUPERINTENDÊNCIA DE ENGENHARIA E ARQUITETURA 24.547,70 26.614,51 0,00 7.725,35 0,00 3.351,82 62.239,38 3.351,82 7.510,20 20.691,10 31.553,12 30.686,26 1.334,00 0,00 31/12/2018
986 416900 FERNANDO APARECIDO DA SILVA ANALISTA DO MP ATIVO BOM DESPACHO - COMARCA; BOM DESPACHO-PJ-02PJ 10.279,98 5.139,99 0,00 3.125,58 0,00 0,00 18.545,55 1.865,45 2.800,40 0,00 4.665,85 13.879,70 1.334,00 1.538,61 31/12/2018
987 380500 FERNANDO BONES COSTA OFICIAL DO MP ATIVO BELO HORIZONTE - COMARCA; EXTINTA - DIVISÃO DE MATERIAL PERMANENTE 5.678,79 1.135,76 0,00 2.547,04 2.271,52 0,00 11.633,11 778,98 1.423,17 0,00 2.202,15 9.430,96 1.334,00 267,13 31/12/2018
988 500100 FERNANDO CEZAR PINTO ASSESSOR/OFICIAL ATIVO BELO HORIZONTE - COMARCA; EXTINTA - DIVISÃO DE MATERIAL PERMANENTE 0,00 964,19 9.641,94 2.681,09 0,00 0,00 13.287,22 830,06 1.774,82 0,00 2.604,88 10.682,34 1.334,00 415,77 31/12/2018
989 346100 FERNANDO EUSTAQUIO CAMPOS UTSCH MOREIRA ANALISTA DO MP ATIVO BELO HORIZONTE - COMARCA; DIRETORIA DE SISTEMAS DE INFORMACAO 13.283,29 2.656,66 0,00 3.198,14 0,00 0,00 19.138,09 1.822,12 2.927,67 0,00 4.749,79 14.388,30 1.334,00 624,85 31/12/2018
990 103500 FERNANDO LUIZ DA SILVA JUNIOR OFICIAL DO MP ATIVO BELO HORIZONTE - COMARCA; DIVISAO DE ATENDIMENTO E CONSULTA JURIDICA 17.452,52 8.726,26 0,00 4.522,77 0,00 0,00 30.701,55 2.992,56 5.537,90 0,00 8.530,46 22.171,09 1.334,00 1.368,31 31/12/2018
991 287300 FERNANDO MARCIO ALVES MARTINS OFICIAL DO MP ATIVO LEOPOLDINA - COMARCA; LEOPOLDINA-PJ-01PJ 6.882,47 2.064,74 0,00 2.178,35 0,00 0,00 11.125,56 1.284,87 1.164,06 0,00 2.448,93 8.676,63 1.334,00 3.156,90 31/12/2018
992 262200 FERNANDO MARCIO RESENDE PEREIRA OFICIAL DO MP ATIVO BELO HORIZONTE - COMARCA; DIR ESTRUTURA E PROCESSOS ORGANIZACIONAIS 8.758,36 2.627,51 0,00 2.458,32 0,00 0,00 13.844,19 1.301,55 1.917,33 0,00 3.218,88 10.625,31 1.334,00 446,33 31/12/2018
993 472900 FERNANDO RODRIGUES DE FREITAS ANALISTA DO MP ATIVO BELO HORIZONTE - COMARCA; BH-15PJ M AMB PAT HIST CULT-ASS TECNICA 9.337,87 933,79 0,00 2.354,96 0,00 0,00 12.626,62 1.174,17 1.644,63 0,00 2.818,80 9.807,82 1.334,00 402,65 31/12/2018
994 421400 FERNANDO TEODORO MACIEL ANALISTA DO MP ATIVO SANTA VITÓRIA - COMARCA; SANTA VITORIA-PJ-UNPJ 9.641,94 1.928,39 0,00 2.614,45 0,00 0,00 14.184,78 1.601,29 1.858,20 0,00 3.459,49 10.725,29 2.033,00 3.446,88 31/12/2018
995 446300 FERNANDO VITOR DE OLIVEIRA ANALISTA DO MP ATIVO MONTES CLAROS - COMARCA; COORD REG BACIA RIOS VERDE GRANDE E PARDO 10.279,98 1.028,00 0,00 2.447,45 0,00 0,00 13.755,43 1.292,64 1.898,27 0,00 3.190,91 10.564,52 1.334,00 443,28 31/12/2018
996 639300 FILIPE ALMEIDA RODRIGUES ANALISTA DO MP ATIVO TIMÓTEO - COMARCA; TIMOTEO-PJ-04PJ 6.665,41 399,92 0,00 1.855,37 0,00 0,00 8.920,70 936,76 859,88 0,00 1.796,64 7.124,06 1.334,00 1.450,61 31/12/2018
997 398400 FLAVIA ALVARES GUIMARAES COORDENADOR/OFICIAL ATIVO BELO HORIZONTE - COMARCA; CGMP-DIVIS DE APOIO FISC ORIENTACAO FUNCIONAL 0,00 2.192,05 10.960,26 3.131,92 0,00 0,00 16.284,23 1.416,30 2.404,49 0,00 3.820,79 12.463,44 1.334,00 3.695,34 31/12/2018
998 398200 FLAVIA ALVES DE ASSUNCAO RODRIGUES ANALISTA DO MP ATIVO DIVINÓPOLIS - COMARCA; COORD REG DO MA DA BACIA DO ALTO SAO FRANC 10.279,98 2.056,00 0,00 8.569,23 0,00 0,00 20.905,21 1.410,15 2.097,73 0,00 3.507,88 17.397,33 2.033,00 483,58 31/12/2018
999 318500 FLAVIA BEATRIZ NUNES CRUZ VIEIRA ANALISTA DO MP ATIVO BARBACENA - COMARCA; BARBACENA-PJ-SECRETARIA 13.283,29 2.656,66 0,00 5.427,83 0,00 0,00 21.367,78 2.041,55 2.927,67 0,00 4.969,22 16.398,56 2.033,00 2.619,65 31/12/2018
1000 496500 FLAVIA CARAM BORLIDO ANALISTA DO MP ATIVO BELO HORIZONTE - COMARCA; EXTINTA - DIVISAO DE SERVICOS GERAIS 9.641,94 964,19 0,00 2.349,50 0,00 0,00 12.955,63 1.358,40 1.726,49 0,00 3.084,89 9.870,74 1.334,00 1.853,66 31/12/2018
1001 534800 FLAVIA CONDE SOARES ANALISTA DO MP ATIVO BELO HORIZONTE - COMARCA; BH-13PJ JUÍZO DE TÓXICOS-ASSESSORIA JURIDICA 7.576,76 757,68 0,00 2.032,47 0,00 0,00 10.366,91 952,73 1.170,49 0,00 2.123,22 8.243,69 1.334,00 326,71 31/12/2018
1002 219500 FLAVIA CRISTINA ANCELMO OFICIAL DO MP ATIVO BELO HORIZONTE - COMARCA; CAO-DIREITOS HUMANOS E APOIO COMUNITARIO 8.482,22 2.544,67 0,00 2.408,22 0,00 0,00 13.435,11 1.412,27 1.829,47 0,00 3.241,74 10.193,37 1.334,00 1.811,86 31/12/2018
1003 329600 FLAVIA CRISTINA DE MATOS XAVIER ANALISTA DO MP ATIVO UBERABA - COMARCA; UBERABA-PJ-15PJ 13.283,29 3.984,99 0,00 3.383,52 0,00 0,00 20.651,80 2.211,68 3.252,78 0,00 5.464,46 15.187,34 1.334,00 3.018,01 31/12/2018
1004 207600 FLAVIA DE ANDRADE MANCINI ANALISTA DO MP ATIVO BELO HORIZONTE - COMARCA; ASSESSORIA JURIDICO-ADMINISTRATIVA 17.452,52 5.235,76 0,00 4.192,06 7.562,76 0,00 34.443,10 2.593,54 6.606,94 0,00 9.200,48 25.242,62 1.334,00 889,40 31/12/2018
1005 402801 FLAVIA MARIA DE RESENDE NASCIMENTO ANALISTA DO MP ATIVO SÃO JOÃO DEL REI - COMARCA; SAO JOAO DEL REI-PJ-04PJ 8.482,22 848,22 0,00 2.171,48 0,00 0,00 11.501,92 1.265,52 1.414,26 0,00 2.679,78 8.822,14 2.033,00 2.296,30 31/12/2018
1006 437500 FLAVIA MARIA TORRES MARCHETTI ANALISTA DO MP ATIVO BELO HORIZONTE - COMARCA; BH-18PJ VIOLENCIA DOMESTICA 9.337,87 933,79 0,00 2.407,09 0,00 0,00 12.678,75 1.174,17 1.540,36 0,00 2.714,53 9.964,22 2.732,00 536,87 31/12/2018
1007 386000 FLAVIA NEVES BRIGIDO ASSESSOR/OFICIAL ATIVO BELO HORIZONTE - COMARCA; PROMOT ESTADUAL DE DEF PATRI CULT E TUR DE MG 0,00 1.928,39 9.641,94 2.657,07 0,00 0,00 14.227,40 1.160,57 2.003,12 0,00 3.163,69 11.063,71 1.334,00 604,75 31/12/2018
1008 488600 FLAVIA PEREIRA COSTA ANALISTA DO MP ATIVO BELO HORIZONTE - COMARCA; CENTRAL DE APOIO TECNICO 9.337,87 933,79 0,00 2.302,82 0,00 0,00 12.574,48 1.373,11 1.644,63 0,00 3.017,74 9.556,74 2.033,00 2.211,27 31/12/2018
1009 365400 FLAVIA PEREIRA DA SILVA OFICIAL DO MP ATIVO BELO HORIZONTE - COMARCA; BH-15PJ M AMB PAT HIST CULT-GAB 115PJ 7.823,48 1.564,70 0,00 2.179,53 0,00 0,00 11.567,71 1.140,23 1.428,40 0,00 2.568,63 8.999,08 1.334,00 1.151,05 31/12/2018
1010 515400 FLAVIA RODRIGUES DE OLIVEIRA E SILVA PAIVA ANALISTA DO MP ATIVO CARATINGA - COMARCA; CARATINGA-PJ-05PJ 8.482,22 848,22 0,00 3.379,05 0,00 0,00 12.709,49 1.365,15 1.257,85 0,00 2.623,00 10.086,49 1.334,00 3.080,03 31/12/2018
1011 621600 FLAVIA SARMENTO RODRIGUES ANALISTA DO MP ATIVO BELO HORIZONTE - COMARCA; AUDITORIA INTERNA 6.882,47 412,95 0,00 2.696,10 0,00 0,00 9.991,52 882,60 916,19 0,00 1.798,79 8.192,73 1.334,00 728,08 31/12/2018
1012 535800 FLAVIA SILVA VALADAO OFICIAL DO MP ATIVO TRÊS CORACOES - COMARCA; TRES CORACOES-PJ-04PJ 4.467,49 446,75 0,00 1.574,71 0,00 0,00 6.488,95 561,76 305,29 0,00 867,05 5.621,90 2.033,00 256,85 31/12/2018
1013 515300 FLAVIA VIEIRA OLIVEIRA GOMES ANALISTA DO MP ATIVO BELO HORIZONTE - COMARCA; ASSESS TECNICO-JUR JUNTO AS PROC. DE JUST 8.482,22 848,22 0,00 2.171,48 0,00 0,00 11.501,92 1.365,15 1.414,26 0,00 2.779,41 8.722,51 5.066,18 3.723,59 31/12/2018
1014 377500 FLAVIANA GONCALVES DE OLIVEIRA ANALISTA DO MP ATIVO IPATINGA - COMARCA; IPATINGA-PJ-02PJ 11.317,16 2.263,43 0,00 2.764,61 0,00 0,00 16.345,20 1.723,75 2.454,49 0,00 4.178,24 12.166,96 1.334,00 2.089,89 31/12/2018
1015 273100 FLAVIANE DOS SANTOS CASTRO OFICIAL DO MP ATIVO CAXAMBU - COMARCA; CAXAMBU-PJ-SECRETARIA 8.758,36 2.627,51 0,00 4.287,66 0,00 0,00 15.673,53 1.301,55 1.813,06 0,00 3.114,61 12.558,92 1.334,00 595,11 31/12/2018
1016 310600 FLAVIANE NAVES ALCANTARA OFICIAL DO MP ATIVO BELO HORIZONTE - COMARCA; COMB CRIMES PRAT POR AG POL MUN-SECRETARIA 9.641,94 1.928,39 0,00 2.881,37 0,00 0,00 14.451,70 1.420,38 1.935,60 0,00 3.355,98 11.095,72 2.033,00 604,75 31/12/2018
1017 378201 FLAVIANE RIBEIRO BORGES OFICIAL DO MP ATIVO SÃO GONÇALO DO SAPUCAÍ - COMARCA; SAO GONCALO DO SAPUCAI-PJ-02PJ 4.763,08 476,31 0,00 1.591,34 0,00 0,00 6.830,73 598,92 413,06 0,00 1.011,98 5.818,75 1.334,00 205,39 31/12/2018
1018 455800 FLAVIO ANTONIO RIBEIRO OFICIAL DO MP ATIVO BELO HORIZONTE - COMARCA; GRUPO ESP PROM PROC JUST DEF PROB ADM PAT PUB 5.158,42 515,84 0,00 4.387,15 0,00 0,00 10.061,41 686,46 519,41 0,00 1.205,87 8.855,54 1.334,00 566,33 31/12/2018
1019 458200 FLAVIO AUGUSTO BRAGA SOARES ANALISTA DO MP ATIVO BELO HORIZONTE - COMARCA; DIVISAO DE CONTROLE IMOBILIARIO 9.955,90 995,59 0,00 2.397,69 0,00 0,00 13.349,18 1.402,59 1.811,02 0,00 3.213,61 10.135,57 1.334,00 1.799,38 31/12/2018
1020 516500 FLAVIO AUGUSTO RODRIGUES CORREA ANALISTA DO MP ATIVO BELO HORIZONTE - COMARCA; COORD REG BACIAS RIO VELHAS E PARAOPEBA 8.482,22 848,22 0,00 6.653,81 0,00 0,00 15.984,25 1.365,15 1.414,26 0,00 2.779,41 13.204,84 1.334,00 3.080,03 31/12/2018
1021 84300 FLAVIO DE FARIA BELTRAO OFICIAL DO MP ATIVO BELO HORIZONTE - COMARCA; DIRETORIA DE ADMINISTRACAO FINANCEIRA 22.030,87 17.624,70 0,00 20.530,85 0,00 0,00 60.186,42 3.351,82 6.588,44 9.184,46 19.124,72 41.061,70 1.334,00 0,00 31/12/2018
1022 266600 FLAVIO GUIMARAES LANA ANALISTA DO MP ATIVO BELO HORIZONTE - COMARCA; CENTRAL DE APOIO TECN-SETOR DE MEIO AMBIENTE 11.685,57 3.505,67 0,00 3.550,75 0,00 0,00 18.741,99 1.736,55 2.848,70 0,00 4.585,25 14.156,74 1.334,00 595,50 31/12/2018
1023 552600 FLAVIO HENRIQUE EVARISTO GOMES ASSESSOR/ANALISTA ATIVO BELO HORIZONTE - COMARCA; DIRETORIA DE SUPORTE E MANUTENCAO 0,00 964,19 9.641,94 2.523,56 0,00 0,00 13.129,69 952,73 1.795,21 0,00 2.747,94 10.381,75 1.334,00 554,36 31/12/2018
1024 640000 FLAVIO HENRIQUE PEREIRA VELOSO OFICIAL DO MP ATIVO BELO HORIZONTE - COMARCA; DIVISÃO DE FISCALIZAÇÃO DAS RELAÇÕES DE CONSU 3.930,12 235,81 0,00 1.853,76 0,00 0,00 6.019,69 534,39 518,82 0,00 1.053,21 4.966,48 1.334,00 2.248,28 31/12/2018
1025 241500 FLAVIO HENRIQUE SILVA MARTINS LAGE OFICIAL DO MP ATIVO BELO HORIZONTE - COMARCA; CAO-CRIANCAS E ADOLESCENTES-SECRETARIA 9.043,46 3.617,38 0,00 2.636,25 0,00 0,00 15.297,09 1.447,28 2.229,38 0,00 3.676,66 11.620,43 1.334,00 496,31 31/12/2018
1026 86700 FLAVIO LUCAS TOMAZ AGENTE DO MP ATIVO BELO HORIZONTE - COMARCA; SECRETARIA DO PROCON-MG 6.882,47 4.817,73 0,00 2.993,63 0,00 0,00 14.693,83 1.836,44 1.240,42 0,00 3.076,86 11.616,97 6.467,70 5.423,82 31/12/2018
1027 407200 FLAVIO LUCIO MONTEIRO PENA ANALISTA DO MP ATIVO BELO HORIZONTE - COMARCA; DIRETORIA DE IMPRENSA 9.337,87 1.867,57 0,00 2.881,73 0,00 0,00 14.087,17 1.280,92 1.873,17 0,00 3.154,09 10.933,08 2.033,00 585,68 31/12/2018
1028 451700 FLAVIO MAGALHAES PEREIRA ANALISTA DO MP ATIVO BELO HORIZONTE - COMARCA; BH-12PJ JUIZO CRIMINAL-GAB 098PJ 9.337,87 933,79 0,00 2.302,82 0,00 0,00 12.574,48 1.174,17 1.644,63 0,00 2.818,80 9.755,68 2.033,00 536,87 31/12/2018
1029 481500 FLAVIO NEVES GUELBER DE MACEDO OFICIAL DO MP ATIVO SÃO JOÃO NEPOMUCENO - COMARCA; SAO JOAO NEPOMUCENO-PJ-02PJ 5.499,78 549,98 0,00 1.713,64 0,00 0,00 7.763,40 733,18 611,32 0,00 1.344,50 6.418,90 1.334,00 615,53 31/12/2018
1030 547500 FRANCELINO MOREIRA DA SILVA ANALISTA DO MP ATIVO BELO HORIZONTE - COMARCA; BH-10PJ EXECUÇÃO PENAL-SECRETARIA 7.576,76 757,68 0,00 2.032,47 0,00 0,00 10.366,91 952,73 1.170,49 0,00 2.123,22 8.243,69 3.081,00 435,61 31/12/2018
1031 278100 FRANCIANE MARY DE SOUZA DOMENICI DE BRITO E CASTRO ANALISTA DO MP ATIVO BELO HORIZONTE - COMARCA; BH-12PJ JUIZO CRIMINAL-GAB 083PJ 14.372,91 4.311,87 0,00 4.219,55 0,00 0,00 22.904,33 2.424,58 3.651,60 0,00 6.076,18 16.828,15 1.334,00 3.356,78 31/12/2018
1032 646500 FRANCIELLE CAROLINE PEREIRA DOS SANTOS ASSESSOR ATIVO BELO HORIZONTE - COMARCA; CENT DE ATENDIMENTO E ORIENTACAO DE PESSOAL 0,00 0,00 2.852,73 1.340,40 0,00 0,00 4.193,13 770,52 98,70 0,00 869,22 3.323,91 1.334,00 149,11 31/12/2018
1033 192501 FRANCIELLE REIS DE OLIVEIRA ANALISTA DO MP ATIVO PASSOS - COMARCA; PASSOS-PJ-04PJ 14.162,21 2.832,44 0,00 3.345,34 0,00 0,00 20.339,99 2.055,91 3.185,81 0,00 5.241,72 15.098,27 1.334,00 1.695,52 31/12/2018
1034 645100 FRANCIELY CRISTINA COSTA TARQUINIO RIBEIRO ASSESSOR ATIVO BELO HORIZONTE - COMARCA; CHEFIA DE GABINETE 0,00 0,00 4.763,08 4.296,09 0,00 0,00 9.059,17 1.124,44 512,80 0,00 1.637,24 7.421,93 1.334,00 186,72 31/12/2018
1035 523600 FRANCINE MOURA LIMIRIO OFICIAL DO MP ATIVO UBERABA - COMARCA; UBERABA-PJ-02PJ 5.863,71 586,37 0,00 4.868,12 2.150,03 0,00 13.468,23 826,12 1.300,56 0,00 2.126,68 11.341,55 1.334,00 1.127,36 31/12/2018
1036 467200 FRANCINI RENNO ANALISTA DO MP ATIVO CASSIA - COMARCA; CASSIA-PJ-01PJ 9.337,87 933,79 0,00 2.302,82 0,00 0,00 12.574,48 1.174,17 1.644,63 0,00 2.818,80 9.755,68 1.334,00 402,65 31/12/2018
1037 189300 FRANCIS BERNARDO DO NASCIMENTO OFICIAL DO MP ATIVO VARGINHA - COMARCA; VARGINHA-PJ-05PJ 12.065,98 4.826,39 0,00 3.910,71 0,00 0,00 20.803,08 2.600,01 3.160,77 0,00 5.760,78 15.042,30 2.033,00 7.471,62 31/12/2018
1038 207800 FRANCISCO CAMPOS PIRES DE MORAIS ANALISTA DO MP ATIVO BELO HORIZONTE - COMARCA; CENTRAL DE APOIO TECN-SETOR DE MEIO AMBIENTE 17.452,52 5.235,76 0,00 4.139,93 0,00 0,00 26.828,21 2.593,54 4.579,32 0,00 7.172,86 19.655,35 1.334,00 889,40 31/12/2018
1039 204600 FRANCISCO FERREIRA NOVAIS OFICIAL DO MP ATIVO IPATINGA - COMARCA; IPATINGA-PJ-08PJ 10.279,98 4.111,99 0,00 2.982,12 0,00 0,00 17.374,09 1.645,18 2.548,80 0,00 4.193,98 13.180,11 1.379,84 752,23 31/12/2018
1040 411600 FRANCISCO PAIVA BRITO ANALISTA DO MP ATIVO BELO HORIZONTE - COMARCA; BH-07PJ 01 TRIBUNAL DO JURI 9.337,87 1.867,57 0,00 2.881,73 0,00 0,00 14.087,17 1.280,92 1.873,17 0,00 3.154,09 10.933,08 1.334,00 439,26 31/12/2018
1041 515800 FRANCISCO RAFAEL DA SILVA NETO ANALISTA DO MP ATIVO SACRAMENTO - COMARCA; SACRAMENTO-PJ-01PJ 7.106,49 710,65 0,00 2.064,56 0,00 0,00 9.881,70 1.143,78 939,61 0,00 2.083,39 7.798,31 1.334,00 2.682,99 31/12/2018
1042 515200 FRANCISLEI ELIAS GONCALVES OFICIAL DO MP ATIVO PASSOS - COMARCA; PASSOS-PJ-07PJ 4.995,72 1.498,72 0,00 1.932,11 0,00 0,00 8.426,55 950,15 563,74 0,00 1.513,89 6.912,66 1.384,92 2.143,36 31/12/2018
1043 443600 FRANCISLEI MARTINS DE SOUSA ANALISTA DO MP ATIVO TIMÓTEO - COMARCA; TIMOTEO-PJ-01PJ 9.337,87 933,79 0,00 3.618,66 0,00 0,00 13.890,32 1.174,17 1.644,63 0,00 2.818,80 11.071,52 2.732,00 536,87 31/12/2018
1044 424500 FREDERICO AUGUSTO COBRA MULLER ANALISTA DO MP ATIVO POUSO ALEGRE - COMARCA; POUSO ALEGRE-PJ-02PJ 9.337,87 933,79 0,00 3.618,66 3.423,89 0,00 17.314,21 1.174,17 2.586,20 0,00 3.760,37 13.553,84 1.334,00 402,65 31/12/2018
1045 473100 FREDERICO AUGUSTO LIMA FELICIO ANALISTA DO MP ATIVO CONCEIÇÃO DO MATO DENTRO - COMARCA; CONCEICAO DO MATO DENTRO-PJ-UNPJ 9.337,87 933,79 0,00 2.302,82 0,00 0,00 12.574,48 1.174,17 1.644,63 0,00 2.818,80 9.755,68 1.334,00 402,65 31/12/2018
1046 124200 FREDERICO DE SOUZA ROCHA OFICIAL DO MP ATIVO ESPINOSA - COMARCA; ESPINOSA-PJ-SECRETARIA 13.283,29 10.626,64 0,00 6.142,46 0,00 2.630,09 32.682,48 3.562,39 5.601,60 0,00 9.163,99 23.518,49 1.642,76 10.348,39 31/12/2018
1047 177100 FREDERICO FERNANDES DE ANDRADE OFICIAL DO MP ATIVO BELO HORIZONTE - COMARCA; SUPERINTENDENCIA DE TECNOLOGIA DA INFORMACAO 11.317,16 3.395,15 0,00 2.922,54 0,00 0,00 17.634,85 1.681,79 2.731,48 0,00 4.413,27 13.221,58 1.334,00 768,97 31/12/2018
1048 456200 FREDERICO FERNANDES PASSOS ANALISTA DO MP ATIVO BELO HORIZONTE - COMARCA; DIRETORIA DE REDES E BANCOS DE DADOS 9.955,90 995,59 0,00 2.397,69 0,00 0,00 13.349,18 1.402,59 1.811,02 0,00 3.213,61 10.135,57 1.334,00 1.799,38 31/12/2018
1049 400900 FREDERICO LUCIANO BORGES REIS ANALISTA DO MP ATIVO BELO HORIZONTE - COMARCA; DIRETORIA DE SISTEMAS DE INFORMACAO 11.317,16 2.263,43 0,00 3.412,55 0,00 0,00 16.993,14 1.552,42 2.350,22 0,00 3.902,64 13.090,50 2.033,00 709,83 31/12/2018
1050 466200 FREDERICO LUIS FERNANDES ANALISTA DO MP ATIVO BELO HORIZONTE - COMARCA; BH-12PJ JUIZO CRIMINAL-GAB 097PJ 9.337,87 933,79 0,00 2.354,96 0,00 0,00 12.626,62 1.174,17 1.592,49 0,00 2.766,66 9.859,96 1.334,00 402,65 31/12/2018
1051 419700 FREDERICO MECKLER SANTOS ANALISTA DO MP ATIVO CLÁUDIO - COMARCA; CLAUDIO-PJ-UNPJ 10.279,98 2.056,00 0,00 2.499,59 0,00 0,00 14.835,57 1.631,88 2.097,73 0,00 3.729,61 11.105,96 1.334,00 2.989,71 31/12/2018
1052 621700 GABRIEL ANDRADE SOUZA GROSSI RIBEIRO OFICIAL DO MP ATIVO BETIM - COMARCA; BETIM-PJ-SECRETARIA 4.058,04 243,48 0,00 1.414,89 0,00 0,00 5.716,41 520,38 225,25 0,00 745,63 4.970,78 1.334,00 485,37 31/12/2018
1053 613600 GABRIEL BASTOS MEIRELES ANALISTA DO MP ATIVO BELO HORIZONTE - COMARCA; BH-16PJ HABITACAO E URBANISMO 6.251,74 375,10 0,00 1.794,17 0,00 0,00 8.421,01 757,53 752,56 0,00 1.510,09 6.910,92 1.334,00 259,78 31/12/2018
1054 629500 GABRIEL TEIXEIRA DE OLIVEIRA ANALISTA DO MP ATIVO UBERLÂNDIA - COMARCA; UBERLANDIA-PJ-02PJ 6.665,41 399,92 0,00 1.855,37 0,00 0,00 8.920,70 904,93 859,88 0,00 1.764,81 7.155,89 1.334,00 1.161,17 31/12/2018
1055 617900 GABRIELA CIRILA ROQUE ANALISTA DO MP ATIVO ITABIRA - COMARCA; ITABIRA-PJ-04PJ 6.882,47 412,95 0,00 1.887,48 2.431,81 0,00 11.614,71 882,60 1.584,94 0,00 2.467,54 9.147,17 2.033,00 728,08 31/12/2018
1056 386800 GABRIELA SIMOES CHAVES ANALISTA DO MP ATIVO BELO HORIZONTE - COMARCA; EXTINTA - DIVISÃO DE COMPRAS 11.317,16 2.263,43 0,00 2.764,61 0,00 0,00 16.345,20 1.723,75 2.454,49 0,00 4.178,24 12.166,96 2.918,40 2.219,68 31/12/2018
1057 449700 GABRIELE COSTA FERREIRA OFICIAL DO MP ATIVO BELO HORIZONTE - COMARCA; DIRETORIA DE ADMINISTRACAO FINANCEIRA 5.863,71 586,37 0,00 1.769,51 0,00 0,00 8.219,59 826,14 709,30 0,00 1.535,44 6.684,15 1.334,00 1.060,26 31/12/2018
1058 357600 GABRIELLA CRUZ EMRICH OFICIAL DO MP ATIVO OLIVEIRA - COMARCA; OLIVEIRA-PJ-SECRETARIA 5.678,79 1.135,76 0,00 1.820,37 0,00 0,00 8.634,92 778,98 798,50 0,00 1.577,48 7.057,44 1.334,00 267,13 31/12/2018
1059 470600 GABRIELLA SPIRANDELLI COIMBRA ANALISTA DO MP ATIVO UBERLÂNDIA - COMARCA; UBERLANDIA-PJ-18PJ 9.337,87 933,79 0,00 2.302,82 0,00 0,00 12.574,48 1.174,17 1.644,63 0,00 2.818,80 9.755,68 1.334,00 402,65 31/12/2018
1060 86000 GASPAR GOMES DE SOUSA AGENTE DO MP ATIVO BELO HORIZONTE - COMARCA; BH-15PJ M AMB PAT HIST CULT-RECEPCAO 22.030,87 17.624,70 0,00 7.725,35 0,00 3.351,82 50.732,74 3.351,82 7.510,20 9.184,46 20.046,48 30.686,26 1.334,00 0,00 31/12/2018
1061 183100 GECIELLE FERNANDA SILVA OFICIAL DO MP ATIVO PITANGUI - COMARCA; PITANGUI-PJ-02PJ 12.065,98 3.619,79 0,00 3.058,40 0,00 0,00 18.744,17 2.462,08 2.969,73 0,00 5.431,81 13.312,36 1.334,00 6.696,77 31/12/2018
1062 387300 GEOFFREY GIULLIANO OLIVEIRA ALMEIDA ANALISTA DO MP ATIVO MONTALVÂNIA - COMARCA; MONTALVANIA-PJ-UNPJ 9.337,87 1.867,57 0,00 2.433,14 0,00 0,00 13.638,58 1.280,92 1.873,17 0,00 3.154,09 10.484,49 1.334,00 585,68 31/12/2018
1063 277700 GEORGIA CRISTINA BASILIO MEDRADO ANALISTA DO MP ATIVO BELO HORIZONTE - COMARCA; SERVICO MEDICO-DEPTO PERIC MEDICA SAUDE OCUP 14.162,21 4.248,66 0,00 4.364,35 0,00 0,00 22.775,22 2.217,81 3.830,27 0,00 6.048,08 16.727,14 1.334,00 2.931,81 31/12/2018
1064 618000 GEOVANE BUENO GUERRA ANALISTA DO MP ATIVO BELO HORIZONTE - COMARCA; CAO-SAUDE 6.251,74 375,10 0,00 1.794,17 0,00 0,00 8.421,01 801,69 752,56 0,00 1.554,25 6.866,76 1.502,60 661,22 31/12/2018
1065 605200 GEOVANI PREZOTI TONUSSI ANALISTA DO MP ATIVO SANTOS DUMONT - COMARCA; SANTOS DUMONT-PJ-03PJ 6.882,47 688,25 0,00 5.392,19 0,00 0,00 12.962,91 1.158,32 983,57 0,00 2.141,89 10.821,02 1.334,00 2.959,51 31/12/2018
1066 512100 GEOVANI VICENTIN ANALISTA DO MP ATIVO SANTA RITA DE CALDAS - COMARCA; SANTA RITA DE CALDAS-PJ-UNPJ 8.482,22 848,22 0,00 6.653,81 0,00 0,00 15.984,25 1.464,47 1.414,26 0,00 2.878,73 13.105,52 2.033,00 3.983,00 31/12/2018
1067 116300 GEOVANNA DAS GRACAS ROSA REQUEIJO AGENTE DO MP ATIVO SANTA LUZIA - COMARCA; SANTA LUZIA-PJ-01PJ 17.452,52 8.726,26 0,00 4.627,04 0,00 0,00 30.805,82 2.992,56 5.433,62 0,00 8.426,18 22.379,64 1.334,00 1.368,31 31/12/2018
1068 274901 GERALDO ANDRE DE OLIVEIRA ANALISTA DO MP ATIVO CONTAGEM - COMARCA; CONTAGEM-PJ-18PJ 8.482,22 2.544,67 0,00 2.408,22 0,00 0,00 13.435,11 1.434,56 1.829,47 0,00 3.264,03 10.171,08 2.033,00 2.014,53 31/12/2018
1069 270900 GERALDO BATISTA BRITES OFICIAL DO MP ATIVO BOM DESPACHO - COMARCA; BOM DESPACHO-PJ-02PJ 9.043,46 2.713,04 0,00 2.666,45 0,00 0,00 14.422,95 1.343,91 1.851,63 0,00 3.195,54 11.